<?xml version="1.0" encoding="UTF-8" standalone="no" ?>
<gpx xmlns="http://www.topografix.com/GPX/1/1" xmlns:xsi="http://www.w3.org/2001/XMLSchema-instance" xsi:schemaLocation="http://www.topografix.com/GPX/1/1 http://www.topografix.com/GPX/1/1/gpx.xsd" version="1.1" creator="VisuGPX - https://www.visugpx.com">
  <metadata>
    <name>Les Douets.</name>
    <desc><![CDATA[Longue sortie VTT avec un faible dénivelé. Idéale pour une reprise.]]></desc>
  </metadata>
  <trk>
    <name><![CDATA[Les douets 45km]]></name>
    <trkseg>
      <trkpt lat="49.19218" lon="-0.26348">
        <ele>29</ele>
      </trkpt>
      <trkpt lat="49.19153" lon="-0.26363">
        <ele>29</ele>
      </trkpt>
      <trkpt lat="49.19173" lon="-0.26639">
        <ele>29</ele>
      </trkpt>
      <trkpt lat="49.19103" lon="-0.2678">
        <ele>30</ele>
      </trkpt>
      <trkpt lat="49.191" lon="-0.26787">
        <ele>30</ele>
      </trkpt>
      <trkpt lat="49.19096" lon="-0.26793">
        <ele>30</ele>
      </trkpt>
      <trkpt lat="49.19094" lon="-0.26798">
        <ele>30</ele>
      </trkpt>
      <trkpt lat="49.19089" lon="-0.26803">
        <ele>30</ele>
      </trkpt>
      <trkpt lat="49.19085" lon="-0.26809">
        <ele>30</ele>
      </trkpt>
      <trkpt lat="49.19082" lon="-0.26813">
        <ele>30</ele>
      </trkpt>
      <trkpt lat="49.19082" lon="-0.26819">
        <ele>29.984375</ele>
      </trkpt>
      <trkpt lat="49.19085" lon="-0.26826">
        <ele>29.9257813</ele>
      </trkpt>
      <trkpt lat="49.19086" lon="-0.26834">
        <ele>29.8398438</ele>
      </trkpt>
      <trkpt lat="49.19088" lon="-0.26843">
        <ele>29.7460938</ele>
      </trkpt>
      <trkpt lat="49.19089" lon="-0.26852">
        <ele>29.6523438</ele>
      </trkpt>
      <trkpt lat="49.19091" lon="-0.26859">
        <ele>29.5625</ele>
      </trkpt>
      <trkpt lat="49.19091" lon="-0.26867">
        <ele>29.46875</ele>
      </trkpt>
      <trkpt lat="49.19091" lon="-0.26876">
        <ele>29.3515625</ele>
      </trkpt>
      <trkpt lat="49.19093" lon="-0.26885">
        <ele>29.1601563</ele>
      </trkpt>
      <trkpt lat="49.19094" lon="-0.26892">
        <ele>29.0078125</ele>
      </trkpt>
      <trkpt lat="49.19095" lon="-0.26899">
        <ele>28.8554688</ele>
      </trkpt>
      <trkpt lat="49.19095" lon="-0.26908">
        <ele>28.6953125</ele>
      </trkpt>
      <trkpt lat="49.19093" lon="-0.26915">
        <ele>28.6289063</ele>
      </trkpt>
      <trkpt lat="49.1909" lon="-0.26921">
        <ele>28.5585938</ele>
      </trkpt>
      <trkpt lat="49.1909" lon="-0.26932">
        <ele>28.4335938</ele>
      </trkpt>
      <trkpt lat="49.19091" lon="-0.2694">
        <ele>28.4179688</ele>
      </trkpt>
      <trkpt lat="49.19093" lon="-0.26947">
        <ele>28.3828125</ele>
      </trkpt>
      <trkpt lat="49.19095" lon="-0.26954">
        <ele>28.3359375</ele>
      </trkpt>
      <trkpt lat="49.19096" lon="-0.26962">
        <ele>28.3203125</ele>
      </trkpt>
      <trkpt lat="49.19097" lon="-0.26969">
        <ele>28.3046875</ele>
      </trkpt>
      <trkpt lat="49.19098" lon="-0.26977">
        <ele>28.2851563</ele>
      </trkpt>
      <trkpt lat="49.19098" lon="-0.26987">
        <ele>28.2265625</ele>
      </trkpt>
      <trkpt lat="49.19101" lon="-0.26996">
        <ele>28.0195313</ele>
      </trkpt>
      <trkpt lat="49.19103" lon="-0.27001">
        <ele>27.8710938</ele>
      </trkpt>
      <trkpt lat="49.19107" lon="-0.27008">
        <ele>27.6914063</ele>
      </trkpt>
      <trkpt lat="49.19107" lon="-0.27017">
        <ele>27.53125</ele>
      </trkpt>
      <trkpt lat="49.19109" lon="-0.27024">
        <ele>27.359375</ele>
      </trkpt>
      <trkpt lat="49.19111" lon="-0.27034">
        <ele>27.1523438</ele>
      </trkpt>
      <trkpt lat="49.19112" lon="-0.27043">
        <ele>27.0273438</ele>
      </trkpt>
      <trkpt lat="49.19114" lon="-0.27051">
        <ele>27</ele>
      </trkpt>
      <trkpt lat="49.19115" lon="-0.27058">
        <ele>26.9921875</ele>
      </trkpt>
      <trkpt lat="49.19115" lon="-0.27067">
        <ele>26.9882813</ele>
      </trkpt>
      <trkpt lat="49.19115" lon="-0.27076">
        <ele>26.9882813</ele>
      </trkpt>
      <trkpt lat="49.19116" lon="-0.27083">
        <ele>26.96875</ele>
      </trkpt>
      <trkpt lat="49.19117" lon="-0.27091">
        <ele>26.9492188</ele>
      </trkpt>
      <trkpt lat="49.19115" lon="-0.27099">
        <ele>26.9804688</ele>
      </trkpt>
      <trkpt lat="49.1911" lon="-0.27104">
        <ele>27</ele>
      </trkpt>
      <trkpt lat="49.19105" lon="-0.2711">
        <ele>27</ele>
      </trkpt>
      <trkpt lat="49.19102" lon="-0.27113">
        <ele>27</ele>
      </trkpt>
      <trkpt lat="49.19098" lon="-0.2712">
        <ele>27</ele>
      </trkpt>
      <trkpt lat="49.19094" lon="-0.27124">
        <ele>27</ele>
      </trkpt>
      <trkpt lat="49.19088" lon="-0.27125">
        <ele>27</ele>
      </trkpt>
      <trkpt lat="49.19083" lon="-0.27126">
        <ele>27</ele>
      </trkpt>
      <trkpt lat="49.19076" lon="-0.27126">
        <ele>27</ele>
      </trkpt>
      <trkpt lat="49.19071" lon="-0.27128">
        <ele>27</ele>
      </trkpt>
      <trkpt lat="49.19067" lon="-0.27131">
        <ele>27</ele>
      </trkpt>
      <trkpt lat="49.19059" lon="-0.27132">
        <ele>27</ele>
      </trkpt>
      <trkpt lat="49.19052" lon="-0.27132">
        <ele>27.0390625</ele>
      </trkpt>
      <trkpt lat="49.19048" lon="-0.27132">
        <ele>27.0625</ele>
      </trkpt>
      <trkpt lat="49.19043" lon="-0.27135">
        <ele>27.0742188</ele>
      </trkpt>
      <trkpt lat="49.19038" lon="-0.27138">
        <ele>27.078125</ele>
      </trkpt>
      <trkpt lat="49.19033" lon="-0.2714">
        <ele>27.078125</ele>
      </trkpt>
      <trkpt lat="49.19032" lon="-0.2714">
        <ele>27.0820313</ele>
      </trkpt>
      <trkpt lat="49.19025" lon="-0.27143">
        <ele>29.6000004</ele>
        <time>2013-05-09T07:00:20Z</time>
      </trkpt>
      <trkpt lat="49.19009" lon="-0.27149">
        <ele>29.6000004</ele>
        <time>2013-05-09T07:00:25Z</time>
      </trkpt>
      <trkpt lat="49.1898" lon="-0.27158">
        <ele>29.6000004</ele>
        <time>2013-05-09T07:00:34Z</time>
      </trkpt>
      <trkpt lat="49.18965" lon="-0.27151">
        <ele>29.6000004</ele>
        <time>2013-05-09T07:00:39Z</time>
      </trkpt>
      <trkpt lat="49.18954" lon="-0.27147">
        <ele>29.6000004</ele>
        <time>2013-05-09T07:00:44Z</time>
      </trkpt>
      <trkpt lat="49.18953" lon="-0.27148">
        <ele>29.6000004</ele>
        <time>2013-05-09T07:00:47Z</time>
      </trkpt>
      <trkpt lat="49.18953" lon="-0.27149">
        <ele>29.6000004</ele>
        <time>2013-05-09T07:00:48Z</time>
      </trkpt>
      <trkpt lat="49.18953" lon="-0.27149">
        <ele>29.6000004</ele>
        <time>2013-05-09T07:00:50Z</time>
      </trkpt>
      <trkpt lat="49.18953" lon="-0.27151">
        <ele>29.6000004</ele>
        <time>2013-05-09T07:00:51Z</time>
      </trkpt>
      <trkpt lat="49.18952" lon="-0.2716">
        <ele>29.6000004</ele>
        <time>2013-05-09T07:00:54Z</time>
      </trkpt>
      <trkpt lat="49.1895" lon="-0.27164">
        <ele>29.6000004</ele>
        <time>2013-05-09T07:00:55Z</time>
      </trkpt>
      <trkpt lat="49.18943" lon="-0.27189">
        <ele>29.6000004</ele>
        <time>2013-05-09T07:01:00Z</time>
      </trkpt>
      <trkpt lat="49.18932" lon="-0.27223">
        <ele>29.6000004</ele>
        <time>2013-05-09T07:01:07Z</time>
      </trkpt>
      <trkpt lat="49.18922" lon="-0.27259">
        <ele>29.6000004</ele>
        <time>2013-05-09T07:01:14Z</time>
      </trkpt>
      <trkpt lat="49.18902" lon="-0.27314">
        <ele>29.6000004</ele>
        <time>2013-05-09T07:01:24Z</time>
      </trkpt>
      <trkpt lat="49.18883" lon="-0.27368">
        <ele>29.6000004</ele>
        <time>2013-05-09T07:01:33Z</time>
      </trkpt>
      <trkpt lat="49.18865" lon="-0.27416">
        <ele>29.6000004</ele>
        <time>2013-05-09T07:01:41Z</time>
      </trkpt>
      <trkpt lat="49.18863" lon="-0.2742">
        <ele>29.2000008</ele>
        <time>2013-05-09T07:01:42Z</time>
      </trkpt>
      <trkpt lat="49.18861" lon="-0.27425">
        <ele>29</ele>
        <time>2013-05-09T07:01:43Z</time>
      </trkpt>
      <trkpt lat="49.18859" lon="-0.27431">
        <ele>28.6000004</ele>
        <time>2013-05-09T07:01:44Z</time>
      </trkpt>
      <trkpt lat="49.18858" lon="-0.27437">
        <ele>28.2000008</ele>
        <time>2013-05-09T07:01:45Z</time>
      </trkpt>
      <trkpt lat="49.18855" lon="-0.27442">
        <ele>27.6000004</ele>
        <time>2013-05-09T07:01:46Z</time>
      </trkpt>
      <trkpt lat="49.1884" lon="-0.27485">
        <ele>27.6000004</ele>
        <time>2013-05-09T07:01:53Z</time>
      </trkpt>
      <trkpt lat="49.18824" lon="-0.27529">
        <ele>27.2000008</ele>
        <time>2013-05-09T07:02:00Z</time>
      </trkpt>
      <trkpt lat="49.18822" lon="-0.27536">
        <ele>27</ele>
        <time>2013-05-09T07:02:01Z</time>
      </trkpt>
      <trkpt lat="49.18819" lon="-0.27543">
        <ele>26.6000004</ele>
        <time>2013-05-09T07:02:02Z</time>
      </trkpt>
      <trkpt lat="49.18817" lon="-0.27549">
        <ele>26.2000008</ele>
        <time>2013-05-09T07:02:03Z</time>
      </trkpt>
      <trkpt lat="49.18815" lon="-0.27556">
        <ele>25.6000004</ele>
        <time>2013-05-09T07:02:04Z</time>
      </trkpt>
      <trkpt lat="49.18798" lon="-0.27605">
        <ele>25.6000004</ele>
        <time>2013-05-09T07:02:12Z</time>
      </trkpt>
      <trkpt lat="49.18795" lon="-0.27632">
        <ele>25.6000004</ele>
        <time>2013-05-09T07:02:16Z</time>
      </trkpt>
      <trkpt lat="49.18794" lon="-0.27639">
        <ele>25.6000004</ele>
        <time>2013-05-09T07:02:17Z</time>
      </trkpt>
      <trkpt lat="49.18786" lon="-0.27676">
        <ele>25.6000004</ele>
        <time>2013-05-09T07:02:24Z</time>
      </trkpt>
      <trkpt lat="49.18777" lon="-0.27708">
        <ele>25.6000004</ele>
        <time>2013-05-09T07:02:31Z</time>
      </trkpt>
      <trkpt lat="49.18769" lon="-0.27739">
        <ele>25.6000004</ele>
        <time>2013-05-09T07:02:38Z</time>
      </trkpt>
      <trkpt lat="49.18765" lon="-0.27753">
        <ele>25.6000004</ele>
        <time>2013-05-09T07:02:41Z</time>
      </trkpt>
      <trkpt lat="49.18761" lon="-0.27771">
        <ele>25.6000004</ele>
        <time>2013-05-09T07:02:45Z</time>
      </trkpt>
      <trkpt lat="49.18751" lon="-0.2781">
        <ele>25.6000004</ele>
        <time>2013-05-09T07:02:53Z</time>
      </trkpt>
      <trkpt lat="49.18743" lon="-0.27845">
        <ele>25.6000004</ele>
        <time>2013-05-09T07:03:00Z</time>
      </trkpt>
      <trkpt lat="49.18737" lon="-0.27888">
        <ele>25.6000004</ele>
        <time>2013-05-09T07:03:08Z</time>
      </trkpt>
      <trkpt lat="49.18731" lon="-0.27929">
        <ele>25.6000004</ele>
        <time>2013-05-09T07:03:16Z</time>
      </trkpt>
      <trkpt lat="49.18728" lon="-0.2795">
        <ele>26.2000008</ele>
        <time>2013-05-09T07:03:20Z</time>
      </trkpt>
      <trkpt lat="49.18727" lon="-0.27955">
        <ele>26.6000004</ele>
        <time>2013-05-09T07:03:21Z</time>
      </trkpt>
      <trkpt lat="49.18727" lon="-0.2796">
        <ele>27</ele>
        <time>2013-05-09T07:03:22Z</time>
      </trkpt>
      <trkpt lat="49.18727" lon="-0.27965">
        <ele>27.2000008</ele>
        <time>2013-05-09T07:03:23Z</time>
      </trkpt>
      <trkpt lat="49.18726" lon="-0.2797">
        <ele>27.6000004</ele>
        <time>2013-05-09T07:03:24Z</time>
      </trkpt>
      <trkpt lat="49.18723" lon="-0.28002">
        <ele>27.6000004</ele>
        <time>2013-05-09T07:03:31Z</time>
      </trkpt>
      <trkpt lat="49.1872" lon="-0.28055">
        <ele>27.6000004</ele>
        <time>2013-05-09T07:03:41Z</time>
      </trkpt>
      <trkpt lat="49.18719" lon="-0.28096">
        <ele>27.6000004</ele>
        <time>2013-05-09T07:03:49Z</time>
      </trkpt>
      <trkpt lat="49.18718" lon="-0.28132">
        <ele>27.6000004</ele>
        <time>2013-05-09T07:03:56Z</time>
      </trkpt>
      <trkpt lat="49.18718" lon="-0.2816">
        <ele>27.6000004</ele>
        <time>2013-05-09T07:04:02Z</time>
      </trkpt>
      <trkpt lat="49.18717" lon="-0.282">
        <ele>27.6000004</ele>
        <time>2013-05-09T07:04:10Z</time>
      </trkpt>
      <trkpt lat="49.18717" lon="-0.28243">
        <ele>27.6000004</ele>
        <time>2013-05-09T07:04:18Z</time>
      </trkpt>
      <trkpt lat="49.18717" lon="-0.2827">
        <ele>28.2000008</ele>
        <time>2013-05-09T07:04:23Z</time>
      </trkpt>
      <trkpt lat="49.18716" lon="-0.28275">
        <ele>28.6000004</ele>
        <time>2013-05-09T07:04:24Z</time>
      </trkpt>
      <trkpt lat="49.18716" lon="-0.28281">
        <ele>29</ele>
        <time>2013-05-09T07:04:25Z</time>
      </trkpt>
      <trkpt lat="49.18717" lon="-0.28287">
        <ele>29.2000008</ele>
        <time>2013-05-09T07:04:26Z</time>
      </trkpt>
      <trkpt lat="49.18717" lon="-0.28292">
        <ele>29.6000004</ele>
        <time>2013-05-09T07:04:27Z</time>
      </trkpt>
      <trkpt lat="49.18718" lon="-0.28301">
        <ele>29.6000004</ele>
        <time>2013-05-09T07:04:29Z</time>
      </trkpt>
      <trkpt lat="49.1872" lon="-0.28303">
        <ele>29.6000004</ele>
        <time>2013-05-09T07:04:30Z</time>
      </trkpt>
      <trkpt lat="49.18726" lon="-0.28301">
        <ele>29.6000004</ele>
        <time>2013-05-09T07:04:32Z</time>
      </trkpt>
      <trkpt lat="49.18733" lon="-0.28298">
        <ele>29.6000004</ele>
        <time>2013-05-09T07:04:34Z</time>
      </trkpt>
      <trkpt lat="49.18743" lon="-0.28292">
        <ele>29.6000004</ele>
        <time>2013-05-09T07:04:37Z</time>
      </trkpt>
      <trkpt lat="49.18774" lon="-0.28278">
        <ele>29.6000004</ele>
        <time>2013-05-09T07:04:46Z</time>
      </trkpt>
      <trkpt lat="49.18796" lon="-0.28268">
        <ele>30.2000008</ele>
        <time>2013-05-09T07:04:53Z</time>
      </trkpt>
      <trkpt lat="49.188" lon="-0.28266">
        <ele>30.6000004</ele>
        <time>2013-05-09T07:04:54Z</time>
      </trkpt>
      <trkpt lat="49.18803" lon="-0.28265">
        <ele>31.2000008</ele>
        <time>2013-05-09T07:04:55Z</time>
      </trkpt>
      <trkpt lat="49.18806" lon="-0.28264">
        <ele>31.6000004</ele>
        <time>2013-05-09T07:04:56Z</time>
      </trkpt>
      <trkpt lat="49.18809" lon="-0.28263">
        <ele>32</ele>
        <time>2013-05-09T07:04:57Z</time>
      </trkpt>
      <trkpt lat="49.18826" lon="-0.28256">
        <ele>32</ele>
        <time>2013-05-09T07:05:02Z</time>
      </trkpt>
      <trkpt lat="49.18851" lon="-0.28248">
        <ele>32</ele>
        <time>2013-05-09T07:05:09Z</time>
      </trkpt>
      <trkpt lat="49.18876" lon="-0.2824">
        <ele>32</ele>
        <time>2013-05-09T07:05:17Z</time>
      </trkpt>
      <trkpt lat="49.18893" lon="-0.28235">
        <ele>32</ele>
        <time>2013-05-09T07:05:22Z</time>
      </trkpt>
      <trkpt lat="49.1892" lon="-0.28226">
        <ele>32.4000015</ele>
        <time>2013-05-09T07:05:30Z</time>
      </trkpt>
      <trkpt lat="49.18923" lon="-0.28225">
        <ele>32.5999985</ele>
        <time>2013-05-09T07:05:31Z</time>
      </trkpt>
      <trkpt lat="49.18927" lon="-0.28224">
        <ele>33.2000008</ele>
        <time>2013-05-09T07:05:32Z</time>
      </trkpt>
      <trkpt lat="49.1893" lon="-0.28223">
        <ele>34</ele>
        <time>2013-05-09T07:05:33Z</time>
      </trkpt>
      <trkpt lat="49.18952" lon="-0.28216">
        <ele>34</ele>
        <time>2013-05-09T07:05:39Z</time>
      </trkpt>
      <trkpt lat="49.18979" lon="-0.28207">
        <ele>34</ele>
        <time>2013-05-09T07:05:46Z</time>
      </trkpt>
      <trkpt lat="49.19012" lon="-0.28196">
        <ele>34</ele>
        <time>2013-05-09T07:05:55Z</time>
      </trkpt>
      <trkpt lat="49.19035" lon="-0.28187">
        <ele>34</ele>
        <time>2013-05-09T07:06:01Z</time>
      </trkpt>
      <trkpt lat="49.19043" lon="-0.28184">
        <ele>33.4000015</ele>
        <time>2013-05-09T07:06:03Z</time>
      </trkpt>
      <trkpt lat="49.19047" lon="-0.28182">
        <ele>33.2000008</ele>
        <time>2013-05-09T07:06:04Z</time>
      </trkpt>
      <trkpt lat="49.19052" lon="-0.2818">
        <ele>32.5999985</ele>
        <time>2013-05-09T07:06:05Z</time>
      </trkpt>
      <trkpt lat="49.19056" lon="-0.28178">
        <ele>32.2000008</ele>
        <time>2013-05-09T07:06:06Z</time>
      </trkpt>
      <trkpt lat="49.1906" lon="-0.28177">
        <ele>31.6000004</ele>
        <time>2013-05-09T07:06:07Z</time>
      </trkpt>
      <trkpt lat="49.19068" lon="-0.28173">
        <ele>31.6000004</ele>
        <time>2013-05-09T07:06:09Z</time>
      </trkpt>
      <trkpt lat="49.19102" lon="-0.28156">
        <ele>31.6000004</ele>
        <time>2013-05-09T07:06:17Z</time>
      </trkpt>
      <trkpt lat="49.19132" lon="-0.28141">
        <ele>31.6000004</ele>
        <time>2013-05-09T07:06:24Z</time>
      </trkpt>
      <trkpt lat="49.19162" lon="-0.28125">
        <ele>31.6000004</ele>
        <time>2013-05-09T07:06:31Z</time>
      </trkpt>
      <trkpt lat="49.19179" lon="-0.28115">
        <ele>31.6000004</ele>
        <time>2013-05-09T07:06:35Z</time>
      </trkpt>
      <trkpt lat="49.19191" lon="-0.28109">
        <ele>31.6000004</ele>
        <time>2013-05-09T07:06:38Z</time>
      </trkpt>
      <trkpt lat="49.19225" lon="-0.28091">
        <ele>31.6000004</ele>
        <time>2013-05-09T07:06:47Z</time>
      </trkpt>
      <trkpt lat="49.19261" lon="-0.28072">
        <ele>31.6000004</ele>
        <time>2013-05-09T07:06:56Z</time>
      </trkpt>
      <trkpt lat="49.19284" lon="-0.2806">
        <ele>31.6000004</ele>
        <time>2013-05-09T07:07:02Z</time>
      </trkpt>
      <trkpt lat="49.19307" lon="-0.28048">
        <ele>31.6000004</ele>
        <time>2013-05-09T07:07:08Z</time>
      </trkpt>
      <trkpt lat="49.19325" lon="-0.28037">
        <ele>31.2000008</ele>
        <time>2013-05-09T07:07:13Z</time>
      </trkpt>
      <trkpt lat="49.19329" lon="-0.28034">
        <ele>31</ele>
        <time>2013-05-09T07:07:14Z</time>
      </trkpt>
      <trkpt lat="49.19333" lon="-0.28032">
        <ele>30.6000004</ele>
        <time>2013-05-09T07:07:15Z</time>
      </trkpt>
      <trkpt lat="49.19337" lon="-0.2803">
        <ele>30.2000008</ele>
        <time>2013-05-09T07:07:16Z</time>
      </trkpt>
      <trkpt lat="49.19341" lon="-0.28028">
        <ele>29.6000004</ele>
        <time>2013-05-09T07:07:17Z</time>
      </trkpt>
      <trkpt lat="49.19369" lon="-0.28013">
        <ele>29.6000004</ele>
        <time>2013-05-09T07:07:24Z</time>
      </trkpt>
      <trkpt lat="49.19384" lon="-0.28006">
        <ele>29.6000004</ele>
        <time>2013-05-09T07:07:28Z</time>
      </trkpt>
      <trkpt lat="49.19395" lon="-0.28">
        <ele>29.6000004</ele>
        <time>2013-05-09T07:07:31Z</time>
      </trkpt>
      <trkpt lat="49.19426" lon="-0.27985">
        <ele>29.6000004</ele>
        <time>2013-05-09T07:07:39Z</time>
      </trkpt>
      <trkpt lat="49.19454" lon="-0.27972">
        <ele>29.6000004</ele>
        <time>2013-05-09T07:07:46Z</time>
      </trkpt>
      <trkpt lat="49.19483" lon="-0.2796">
        <ele>29.6000004</ele>
        <time>2013-05-09T07:07:54Z</time>
      </trkpt>
      <trkpt lat="49.19497" lon="-0.2795">
        <ele>29.6000004</ele>
        <time>2013-05-09T07:07:59Z</time>
      </trkpt>
      <trkpt lat="49.1952" lon="-0.27943">
        <ele>29.6000004</ele>
        <time>2013-05-09T07:08:05Z</time>
      </trkpt>
      <trkpt lat="49.1954" lon="-0.27934">
        <ele>29.6000004</ele>
        <time>2013-05-09T07:08:11Z</time>
      </trkpt>
      <trkpt lat="49.19567" lon="-0.27922">
        <ele>29.6000004</ele>
        <time>2013-05-09T07:08:19Z</time>
      </trkpt>
      <trkpt lat="49.19595" lon="-0.27909">
        <ele>29.6000004</ele>
        <time>2013-05-09T07:08:27Z</time>
      </trkpt>
      <trkpt lat="49.19618" lon="-0.27899">
        <ele>29.6000004</ele>
        <time>2013-05-09T07:08:34Z</time>
      </trkpt>
      <trkpt lat="49.19642" lon="-0.27888">
        <ele>29.6000004</ele>
        <time>2013-05-09T07:08:41Z</time>
      </trkpt>
      <trkpt lat="49.19663" lon="-0.27878">
        <ele>29.6000004</ele>
        <time>2013-05-09T07:08:47Z</time>
      </trkpt>
      <trkpt lat="49.19683" lon="-0.2787">
        <ele>30.2000008</ele>
        <time>2013-05-09T07:08:53Z</time>
      </trkpt>
      <trkpt lat="49.19686" lon="-0.27869">
        <ele>30.6000004</ele>
        <time>2013-05-09T07:08:54Z</time>
      </trkpt>
      <trkpt lat="49.19689" lon="-0.27868">
        <ele>31</ele>
        <time>2013-05-09T07:08:55Z</time>
      </trkpt>
      <trkpt lat="49.19692" lon="-0.27866">
        <ele>31.2000008</ele>
        <time>2013-05-09T07:08:56Z</time>
      </trkpt>
      <trkpt lat="49.19695" lon="-0.27864">
        <ele>31.6000004</ele>
        <time>2013-05-09T07:08:57Z</time>
      </trkpt>
      <trkpt lat="49.19712" lon="-0.27857">
        <ele>31.6000004</ele>
        <time>2013-05-09T07:09:02Z</time>
      </trkpt>
      <trkpt lat="49.19738" lon="-0.27846">
        <ele>31.6000004</ele>
        <time>2013-05-09T07:09:10Z</time>
      </trkpt>
      <trkpt lat="49.19761" lon="-0.27837">
        <ele>31.6000004</ele>
        <time>2013-05-09T07:09:17Z</time>
      </trkpt>
      <trkpt lat="49.19785" lon="-0.27826">
        <ele>31.6000004</ele>
        <time>2013-05-09T07:09:24Z</time>
      </trkpt>
      <trkpt lat="49.19811" lon="-0.27814">
        <ele>31.6000004</ele>
        <time>2013-05-09T07:09:32Z</time>
      </trkpt>
      <trkpt lat="49.19821" lon="-0.2781">
        <ele>32.4000015</ele>
        <time>2013-05-09T07:09:35Z</time>
      </trkpt>
      <trkpt lat="49.19824" lon="-0.27808">
        <ele>32.5999985</ele>
        <time>2013-05-09T07:09:36Z</time>
      </trkpt>
      <trkpt lat="49.19827" lon="-0.27807">
        <ele>33.2000008</ele>
        <time>2013-05-09T07:09:37Z</time>
      </trkpt>
      <trkpt lat="49.19831" lon="-0.27805">
        <ele>33.4000015</ele>
        <time>2013-05-09T07:09:38Z</time>
      </trkpt>
      <trkpt lat="49.19834" lon="-0.27803">
        <ele>34</ele>
        <time>2013-05-09T07:09:39Z</time>
      </trkpt>
      <trkpt lat="49.1984" lon="-0.27799">
        <ele>34</ele>
        <time>2013-05-09T07:09:41Z</time>
      </trkpt>
      <trkpt lat="49.19859" lon="-0.27789">
        <ele>34</ele>
        <time>2013-05-09T07:09:47Z</time>
      </trkpt>
      <trkpt lat="49.19882" lon="-0.27776">
        <ele>34</ele>
        <time>2013-05-09T07:09:54Z</time>
      </trkpt>
      <trkpt lat="49.19901" lon="-0.27765">
        <ele>34</ele>
        <time>2013-05-09T07:10:01Z</time>
      </trkpt>
      <trkpt lat="49.19916" lon="-0.27756">
        <ele>34</ele>
        <time>2013-05-09T07:10:07Z</time>
      </trkpt>
      <trkpt lat="49.19935" lon="-0.27744">
        <ele>34</ele>
        <time>2013-05-09T07:10:14Z</time>
      </trkpt>
      <trkpt lat="49.19956" lon="-0.2773">
        <ele>34</ele>
        <time>2013-05-09T07:10:21Z</time>
      </trkpt>
      <trkpt lat="49.19979" lon="-0.27715">
        <ele>34</ele>
        <time>2013-05-09T07:10:28Z</time>
      </trkpt>
      <trkpt lat="49.19998" lon="-0.27704">
        <ele>34</ele>
        <time>2013-05-09T07:10:35Z</time>
      </trkpt>
      <trkpt lat="49.20019" lon="-0.27692">
        <ele>34</ele>
        <time>2013-05-09T07:10:42Z</time>
      </trkpt>
      <trkpt lat="49.20043" lon="-0.27679">
        <ele>34</ele>
        <time>2013-05-09T07:10:49Z</time>
      </trkpt>
      <trkpt lat="49.20076" lon="-0.27663">
        <ele>34</ele>
        <time>2013-05-09T07:10:58Z</time>
      </trkpt>
      <trkpt lat="49.20107" lon="-0.27653">
        <ele>34</ele>
        <time>2013-05-09T07:11:06Z</time>
      </trkpt>
      <trkpt lat="49.20144" lon="-0.27645">
        <ele>34</ele>
        <time>2013-05-09T07:11:15Z</time>
      </trkpt>
      <trkpt lat="49.2017" lon="-0.2764">
        <ele>34</ele>
        <time>2013-05-09T07:11:22Z</time>
      </trkpt>
      <trkpt lat="49.202" lon="-0.27635">
        <ele>34</ele>
        <time>2013-05-09T07:11:30Z</time>
      </trkpt>
      <trkpt lat="49.20226" lon="-0.27629">
        <ele>34</ele>
        <time>2013-05-09T07:11:37Z</time>
      </trkpt>
      <trkpt lat="49.20251" lon="-0.27623">
        <ele>34</ele>
        <time>2013-05-09T07:11:44Z</time>
      </trkpt>
      <trkpt lat="49.20285" lon="-0.27615">
        <ele>34</ele>
        <time>2013-05-09T07:11:53Z</time>
      </trkpt>
      <trkpt lat="49.20307" lon="-0.2761">
        <ele>34</ele>
        <time>2013-05-09T07:11:59Z</time>
      </trkpt>
      <trkpt lat="49.20321" lon="-0.27605">
        <ele>34.4000015</ele>
        <time>2013-05-09T07:12:03Z</time>
      </trkpt>
      <trkpt lat="49.20325" lon="-0.27604">
        <ele>34.5999985</ele>
        <time>2013-05-09T07:12:04Z</time>
      </trkpt>
      <trkpt lat="49.20328" lon="-0.27603">
        <ele>35.2000008</ele>
        <time>2013-05-09T07:12:05Z</time>
      </trkpt>
      <trkpt lat="49.20332" lon="-0.27603">
        <ele>35.4000015</ele>
        <time>2013-05-09T07:12:06Z</time>
      </trkpt>
      <trkpt lat="49.20336" lon="-0.27601">
        <ele>36</ele>
        <time>2013-05-09T07:12:07Z</time>
      </trkpt>
      <trkpt lat="49.20358" lon="-0.27595">
        <ele>36</ele>
        <time>2013-05-09T07:12:13Z</time>
      </trkpt>
      <trkpt lat="49.20389" lon="-0.27586">
        <ele>36</ele>
        <time>2013-05-09T07:12:21Z</time>
      </trkpt>
      <trkpt lat="49.20411" lon="-0.27575">
        <ele>36</ele>
        <time>2013-05-09T07:12:27Z</time>
      </trkpt>
      <trkpt lat="49.20437" lon="-0.27564">
        <ele>36</ele>
        <time>2013-05-09T07:12:34Z</time>
      </trkpt>
      <trkpt lat="49.20466" lon="-0.27549">
        <ele>36</ele>
        <time>2013-05-09T07:12:42Z</time>
      </trkpt>
      <trkpt lat="49.20492" lon="-0.27537">
        <ele>36</ele>
        <time>2013-05-09T07:12:49Z</time>
      </trkpt>
      <trkpt lat="49.20496" lon="-0.27534">
        <ele>36.4000015</ele>
        <time>2013-05-09T07:12:50Z</time>
      </trkpt>
      <trkpt lat="49.205" lon="-0.27532">
        <ele>37</ele>
        <time>2013-05-09T07:12:51Z</time>
      </trkpt>
      <trkpt lat="49.20503" lon="-0.27529">
        <ele>37.4000015</ele>
        <time>2013-05-09T07:12:52Z</time>
      </trkpt>
      <trkpt lat="49.20507" lon="-0.27528">
        <ele>37.5999985</ele>
        <time>2013-05-09T07:12:53Z</time>
      </trkpt>
      <trkpt lat="49.20511" lon="-0.27526">
        <ele>38.2000008</ele>
        <time>2013-05-09T07:12:54Z</time>
      </trkpt>
      <trkpt lat="49.20519" lon="-0.27522">
        <ele>38.2000008</ele>
        <time>2013-05-09T07:12:56Z</time>
      </trkpt>
      <trkpt lat="49.20523" lon="-0.27519">
        <ele>38.2000008</ele>
        <time>2013-05-09T07:12:57Z</time>
      </trkpt>
      <trkpt lat="49.20539" lon="-0.27511">
        <ele>38.2000008</ele>
        <time>2013-05-09T07:13:01Z</time>
      </trkpt>
      <trkpt lat="49.20555" lon="-0.27502">
        <ele>38.2000008</ele>
        <time>2013-05-09T07:13:05Z</time>
      </trkpt>
      <trkpt lat="49.20567" lon="-0.27496">
        <ele>38.2000008</ele>
        <time>2013-05-09T07:13:08Z</time>
      </trkpt>
      <trkpt lat="49.20596" lon="-0.27479">
        <ele>38.2000008</ele>
        <time>2013-05-09T07:13:16Z</time>
      </trkpt>
      <trkpt lat="49.20617" lon="-0.27467">
        <ele>38.2000008</ele>
        <time>2013-05-09T07:13:22Z</time>
      </trkpt>
      <trkpt lat="49.20628" lon="-0.27462">
        <ele>38.2000008</ele>
        <time>2013-05-09T07:13:25Z</time>
      </trkpt>
      <trkpt lat="49.20637" lon="-0.27457">
        <ele>38.2000008</ele>
        <time>2013-05-09T07:13:28Z</time>
      </trkpt>
      <trkpt lat="49.20661" lon="-0.27446">
        <ele>38.2000008</ele>
        <time>2013-05-09T07:13:35Z</time>
      </trkpt>
      <trkpt lat="49.20682" lon="-0.27442">
        <ele>38.2000008</ele>
        <time>2013-05-09T07:13:41Z</time>
      </trkpt>
      <trkpt lat="49.20699" lon="-0.27453">
        <ele>38.2000008</ele>
        <time>2013-05-09T07:13:46Z</time>
      </trkpt>
      <trkpt lat="49.20721" lon="-0.2747">
        <ele>38.4000015</ele>
        <time>2013-05-09T07:13:53Z</time>
      </trkpt>
      <trkpt lat="49.20725" lon="-0.27473">
        <ele>39</ele>
        <time>2013-05-09T07:13:54Z</time>
      </trkpt>
      <trkpt lat="49.20728" lon="-0.27475">
        <ele>39.4000015</ele>
        <time>2013-05-09T07:13:55Z</time>
      </trkpt>
      <trkpt lat="49.20732" lon="-0.27477">
        <ele>39.5999985</ele>
        <time>2013-05-09T07:13:56Z</time>
      </trkpt>
      <trkpt lat="49.20736" lon="-0.27479">
        <ele>40.2000008</ele>
        <time>2013-05-09T07:13:57Z</time>
      </trkpt>
      <trkpt lat="49.20746" lon="-0.27486">
        <ele>40.2000008</ele>
        <time>2013-05-09T07:14:00Z</time>
      </trkpt>
      <trkpt lat="49.20765" lon="-0.27499">
        <ele>40.2000008</ele>
        <time>2013-05-09T07:14:05Z</time>
      </trkpt>
      <trkpt lat="49.20776" lon="-0.27507">
        <ele>40.2000008</ele>
        <time>2013-05-09T07:14:08Z</time>
      </trkpt>
      <trkpt lat="49.20794" lon="-0.27533">
        <ele>40.2000008</ele>
        <time>2013-05-09T07:14:14Z</time>
      </trkpt>
      <trkpt lat="49.208" lon="-0.27542">
        <ele>40.2000008</ele>
        <time>2013-05-09T07:14:16Z</time>
      </trkpt>
      <trkpt lat="49.2081" lon="-0.2755">
        <ele>40.2000008</ele>
        <time>2013-05-09T07:14:19Z</time>
      </trkpt>
      <trkpt lat="49.20828" lon="-0.27561">
        <ele>40.2000008</ele>
        <time>2013-05-09T07:14:24Z</time>
      </trkpt>
      <trkpt lat="49.2083" lon="-0.27567">
        <ele>40.2000008</ele>
        <time>2013-05-09T07:14:25Z</time>
      </trkpt>
      <trkpt lat="49.20834" lon="-0.27585">
        <ele>40.2000008</ele>
        <time>2013-05-09T07:14:28Z</time>
      </trkpt>
      <trkpt lat="49.20836" lon="-0.2759">
        <ele>40.2000008</ele>
        <time>2013-05-09T07:14:29Z</time>
      </trkpt>
      <trkpt lat="49.20838" lon="-0.27613">
        <ele>40.2000008</ele>
        <time>2013-05-09T07:14:33Z</time>
      </trkpt>
      <trkpt lat="49.20838" lon="-0.27652">
        <ele>40.2000008</ele>
        <time>2013-05-09T07:14:39Z</time>
      </trkpt>
      <trkpt lat="49.20837" lon="-0.27666">
        <ele>40.2000008</ele>
        <time>2013-05-09T07:14:41Z</time>
      </trkpt>
      <trkpt lat="49.20837" lon="-0.27698">
        <ele>40.2000008</ele>
        <time>2013-05-09T07:14:46Z</time>
      </trkpt>
      <trkpt lat="49.20839" lon="-0.27723">
        <ele>40.2000008</ele>
        <time>2013-05-09T07:14:50Z</time>
      </trkpt>
      <trkpt lat="49.20841" lon="-0.27737">
        <ele>40.2000008</ele>
        <time>2013-05-09T07:14:52Z</time>
      </trkpt>
      <trkpt lat="49.20854" lon="-0.27785">
        <ele>40.2000008</ele>
        <time>2013-05-09T07:15:00Z</time>
      </trkpt>
      <trkpt lat="49.2086" lon="-0.27802">
        <ele>40.2000008</ele>
        <time>2013-05-09T07:15:04Z</time>
      </trkpt>
      <trkpt lat="49.20864" lon="-0.27809">
        <ele>40.4000015</ele>
        <time>2013-05-09T07:15:07Z</time>
      </trkpt>
      <trkpt lat="49.20866" lon="-0.2781">
        <ele>41.2000008</ele>
        <time>2013-05-09T07:15:08Z</time>
      </trkpt>
      <trkpt lat="49.20867" lon="-0.27812">
        <ele>41.4000015</ele>
        <time>2013-05-09T07:15:09Z</time>
      </trkpt>
      <trkpt lat="49.20868" lon="-0.27816">
        <ele>42</ele>
        <time>2013-05-09T07:15:10Z</time>
      </trkpt>
      <trkpt lat="49.20868" lon="-0.2782">
        <ele>42.4000015</ele>
        <time>2013-05-09T07:15:11Z</time>
      </trkpt>
      <trkpt lat="49.20869" lon="-0.2783">
        <ele>42.4000015</ele>
        <time>2013-05-09T07:15:13Z</time>
      </trkpt>
      <trkpt lat="49.20874" lon="-0.27841">
        <ele>42.4000015</ele>
        <time>2013-05-09T07:15:15Z</time>
      </trkpt>
      <trkpt lat="49.20889" lon="-0.27866">
        <ele>42.4000015</ele>
        <time>2013-05-09T07:15:21Z</time>
      </trkpt>
      <trkpt lat="49.20902" lon="-0.27889">
        <ele>42.4000015</ele>
        <time>2013-05-09T07:15:26Z</time>
      </trkpt>
      <trkpt lat="49.2092" lon="-0.27921">
        <ele>42.4000015</ele>
        <time>2013-05-09T07:15:33Z</time>
      </trkpt>
      <trkpt lat="49.20943" lon="-0.2797">
        <ele>42.4000015</ele>
        <time>2013-05-09T07:15:43Z</time>
      </trkpt>
      <trkpt lat="49.2095" lon="-0.27985">
        <ele>42.4000015</ele>
        <time>2013-05-09T07:15:46Z</time>
      </trkpt>
      <trkpt lat="49.20955" lon="-0.27995">
        <ele>42.4000015</ele>
        <time>2013-05-09T07:15:48Z</time>
      </trkpt>
      <trkpt lat="49.20965" lon="-0.28014">
        <ele>42.4000015</ele>
        <time>2013-05-09T07:15:52Z</time>
      </trkpt>
      <trkpt lat="49.20967" lon="-0.28019">
        <ele>42.4000015</ele>
        <time>2013-05-09T07:15:53Z</time>
      </trkpt>
      <trkpt lat="49.2098" lon="-0.28051">
        <ele>42.4000015</ele>
        <time>2013-05-09T07:15:59Z</time>
      </trkpt>
      <trkpt lat="49.20986" lon="-0.28067">
        <ele>43</ele>
        <time>2013-05-09T07:16:02Z</time>
      </trkpt>
      <trkpt lat="49.20988" lon="-0.28072">
        <ele>43.4000015</ele>
        <time>2013-05-09T07:16:03Z</time>
      </trkpt>
      <trkpt lat="49.2099" lon="-0.28078">
        <ele>43.5999985</ele>
        <time>2013-05-09T07:16:04Z</time>
      </trkpt>
      <trkpt lat="49.20992" lon="-0.28083">
        <ele>44.2000008</ele>
        <time>2013-05-09T07:16:05Z</time>
      </trkpt>
      <trkpt lat="49.20994" lon="-0.28089">
        <ele>44.4000015</ele>
        <time>2013-05-09T07:16:06Z</time>
      </trkpt>
      <trkpt lat="49.20996" lon="-0.28094">
        <ele>44.4000015</ele>
        <time>2013-05-09T07:16:07Z</time>
      </trkpt>
      <trkpt lat="49.21009" lon="-0.28131">
        <ele>44.4000015</ele>
        <time>2013-05-09T07:16:14Z</time>
      </trkpt>
      <trkpt lat="49.21019" lon="-0.28155">
        <ele>44.4000015</ele>
        <time>2013-05-09T07:16:19Z</time>
      </trkpt>
      <trkpt lat="49.21027" lon="-0.28171">
        <ele>44.4000015</ele>
        <time>2013-05-09T07:16:24Z</time>
      </trkpt>
      <trkpt lat="49.21032" lon="-0.28189">
        <ele>45</ele>
        <time>2013-05-09T07:16:28Z</time>
      </trkpt>
      <trkpt lat="49.21034" lon="-0.28194">
        <ele>45.4000015</ele>
        <time>2013-05-09T07:16:29Z</time>
      </trkpt>
      <trkpt lat="49.21036" lon="-0.282">
        <ele>45.5999985</ele>
        <time>2013-05-09T07:16:30Z</time>
      </trkpt>
      <trkpt lat="49.21037" lon="-0.28206">
        <ele>46.2000008</ele>
        <time>2013-05-09T07:16:31Z</time>
      </trkpt>
      <trkpt lat="49.21039" lon="-0.28211">
        <ele>46.4000015</ele>
        <time>2013-05-09T07:16:32Z</time>
      </trkpt>
      <trkpt lat="49.21051" lon="-0.28249">
        <ele>46.4000015</ele>
        <time>2013-05-09T07:16:39Z</time>
      </trkpt>
      <trkpt lat="49.21066" lon="-0.28292">
        <ele>46.4000015</ele>
        <time>2013-05-09T07:16:47Z</time>
      </trkpt>
      <trkpt lat="49.21072" lon="-0.28308">
        <ele>47</ele>
        <time>2013-05-09T07:16:50Z</time>
      </trkpt>
      <trkpt lat="49.21075" lon="-0.28313">
        <ele>47.4000015</ele>
        <time>2013-05-09T07:16:51Z</time>
      </trkpt>
      <trkpt lat="49.21077" lon="-0.28318">
        <ele>47.5999985</ele>
        <time>2013-05-09T07:16:52Z</time>
      </trkpt>
      <trkpt lat="49.21079" lon="-0.28323">
        <ele>48.2000008</ele>
        <time>2013-05-09T07:16:53Z</time>
      </trkpt>
      <trkpt lat="49.21082" lon="-0.28328">
        <ele>48.4000015</ele>
        <time>2013-05-09T07:16:54Z</time>
      </trkpt>
      <trkpt lat="49.21087" lon="-0.28339">
        <ele>48.4000015</ele>
        <time>2013-05-09T07:16:56Z</time>
      </trkpt>
      <trkpt lat="49.21105" lon="-0.28375">
        <ele>48.4000015</ele>
        <time>2013-05-09T07:17:03Z</time>
      </trkpt>
      <trkpt lat="49.21138" lon="-0.28436">
        <ele>48.4000015</ele>
        <time>2013-05-09T07:17:15Z</time>
      </trkpt>
      <trkpt lat="49.21165" lon="-0.2848">
        <ele>48.4000015</ele>
        <time>2013-05-09T07:17:24Z</time>
      </trkpt>
      <trkpt lat="49.21181" lon="-0.28502">
        <ele>49</ele>
        <time>2013-05-09T07:17:29Z</time>
      </trkpt>
      <trkpt lat="49.21184" lon="-0.28507">
        <ele>49.4000015</ele>
        <time>2013-05-09T07:17:30Z</time>
      </trkpt>
      <trkpt lat="49.21187" lon="-0.28511">
        <ele>49.5999985</ele>
        <time>2013-05-09T07:17:31Z</time>
      </trkpt>
      <trkpt lat="49.2119" lon="-0.28516">
        <ele>50.2000008</ele>
        <time>2013-05-09T07:17:32Z</time>
      </trkpt>
      <trkpt lat="49.21193" lon="-0.2852">
        <ele>50.4000015</ele>
        <time>2013-05-09T07:17:33Z</time>
      </trkpt>
      <trkpt lat="49.21218" lon="-0.28555">
        <ele>50.4000015</ele>
        <time>2013-05-09T07:17:41Z</time>
      </trkpt>
      <trkpt lat="49.21248" lon="-0.28599">
        <ele>50.4000015</ele>
        <time>2013-05-09T07:17:51Z</time>
      </trkpt>
      <trkpt lat="49.21271" lon="-0.28635">
        <ele>50.4000015</ele>
        <time>2013-05-09T07:17:59Z</time>
      </trkpt>
      <trkpt lat="49.21278" lon="-0.28644">
        <ele>50.4000015</ele>
        <time>2013-05-09T07:18:01Z</time>
      </trkpt>
      <trkpt lat="49.21289" lon="-0.28664">
        <ele>50.4000015</ele>
        <time>2013-05-09T07:18:05Z</time>
      </trkpt>
      <trkpt lat="49.21311" lon="-0.287">
        <ele>50.4000015</ele>
        <time>2013-05-09T07:18:12Z</time>
      </trkpt>
      <trkpt lat="49.21337" lon="-0.2874">
        <ele>50.4000015</ele>
        <time>2013-05-09T07:18:19Z</time>
      </trkpt>
      <trkpt lat="49.21358" lon="-0.28769">
        <ele>50.4000015</ele>
        <time>2013-05-09T07:18:25Z</time>
      </trkpt>
      <trkpt lat="49.21375" lon="-0.28796">
        <ele>50.4000015</ele>
        <time>2013-05-09T07:18:30Z</time>
      </trkpt>
      <trkpt lat="49.21388" lon="-0.28818">
        <ele>50.4000015</ele>
        <time>2013-05-09T07:18:34Z</time>
      </trkpt>
      <trkpt lat="49.21391" lon="-0.28824">
        <ele>50.4000015</ele>
        <time>2013-05-09T07:18:35Z</time>
      </trkpt>
      <trkpt lat="49.21407" lon="-0.28855">
        <ele>50.4000015</ele>
        <time>2013-05-09T07:18:40Z</time>
      </trkpt>
      <trkpt lat="49.21423" lon="-0.28889">
        <ele>50.2000008</ele>
        <time>2013-05-09T07:18:45Z</time>
      </trkpt>
      <trkpt lat="49.21427" lon="-0.28897">
        <ele>49.4000015</ele>
        <time>2013-05-09T07:18:46Z</time>
      </trkpt>
      <trkpt lat="49.21431" lon="-0.28904">
        <ele>49.2000008</ele>
        <time>2013-05-09T07:18:47Z</time>
      </trkpt>
      <trkpt lat="49.21435" lon="-0.28911">
        <ele>48.4000015</ele>
        <time>2013-05-09T07:18:48Z</time>
      </trkpt>
      <trkpt lat="49.2144" lon="-0.28919">
        <ele>48.2000008</ele>
        <time>2013-05-09T07:18:49Z</time>
      </trkpt>
      <trkpt lat="49.21448" lon="-0.28933">
        <ele>47.5999985</ele>
        <time>2013-05-09T07:18:51Z</time>
      </trkpt>
      <trkpt lat="49.21452" lon="-0.28939">
        <ele>47.4000015</ele>
        <time>2013-05-09T07:18:52Z</time>
      </trkpt>
      <trkpt lat="49.21456" lon="-0.28945">
        <ele>47</ele>
        <time>2013-05-09T07:18:53Z</time>
      </trkpt>
      <trkpt lat="49.21459" lon="-0.28951">
        <ele>46.4000015</ele>
        <time>2013-05-09T07:18:54Z</time>
      </trkpt>
      <trkpt lat="49.21463" lon="-0.28958">
        <ele>45.5999985</ele>
        <time>2013-05-09T07:18:55Z</time>
      </trkpt>
      <trkpt lat="49.21466" lon="-0.28964">
        <ele>45.4000015</ele>
        <time>2013-05-09T07:18:56Z</time>
      </trkpt>
      <trkpt lat="49.2147" lon="-0.28968">
        <ele>44.5999985</ele>
        <time>2013-05-09T07:18:57Z</time>
      </trkpt>
      <trkpt lat="49.21474" lon="-0.2897">
        <ele>44.2000008</ele>
        <time>2013-05-09T07:18:58Z</time>
      </trkpt>
      <trkpt lat="49.21479" lon="-0.2897">
        <ele>43.4000015</ele>
        <time>2013-05-09T07:18:59Z</time>
      </trkpt>
      <trkpt lat="49.21484" lon="-0.28968">
        <ele>43.2000008</ele>
        <time>2013-05-09T07:19:00Z</time>
      </trkpt>
      <trkpt lat="49.21488" lon="-0.28965">
        <ele>42.5999985</ele>
        <time>2013-05-09T07:19:01Z</time>
      </trkpt>
      <trkpt lat="49.21493" lon="-0.28961">
        <ele>42.4000015</ele>
        <time>2013-05-09T07:19:02Z</time>
      </trkpt>
      <trkpt lat="49.21497" lon="-0.28957">
        <ele>42</ele>
        <time>2013-05-09T07:19:03Z</time>
      </trkpt>
      <trkpt lat="49.21502" lon="-0.28953">
        <ele>41.4000015</ele>
        <time>2013-05-09T07:19:04Z</time>
      </trkpt>
      <trkpt lat="49.21512" lon="-0.28945">
        <ele>41.4000015</ele>
        <time>2013-05-09T07:19:06Z</time>
      </trkpt>
      <trkpt lat="49.21527" lon="-0.28933">
        <ele>41.4000015</ele>
        <time>2013-05-09T07:19:09Z</time>
      </trkpt>
      <trkpt lat="49.21544" lon="-0.28911">
        <ele>41.4000015</ele>
        <time>2013-05-09T07:19:13Z</time>
      </trkpt>
      <trkpt lat="49.2157" lon="-0.28865">
        <ele>41.4000015</ele>
        <time>2013-05-09T07:19:20Z</time>
      </trkpt>
      <trkpt lat="49.21586" lon="-0.28829">
        <ele>41.4000015</ele>
        <time>2013-05-09T07:19:25Z</time>
      </trkpt>
      <trkpt lat="49.21589" lon="-0.28821">
        <ele>41.4000015</ele>
        <time>2013-05-09T07:19:26Z</time>
      </trkpt>
      <trkpt lat="49.2161" lon="-0.28776">
        <ele>41.4000015</ele>
        <time>2013-05-09T07:19:33Z</time>
      </trkpt>
      <trkpt lat="49.21619" lon="-0.28757">
        <ele>42</ele>
        <time>2013-05-09T07:19:36Z</time>
      </trkpt>
      <trkpt lat="49.21622" lon="-0.2875">
        <ele>42.4000015</ele>
        <time>2013-05-09T07:19:37Z</time>
      </trkpt>
      <trkpt lat="49.21625" lon="-0.28745">
        <ele>42.5999985</ele>
        <time>2013-05-09T07:19:38Z</time>
      </trkpt>
      <trkpt lat="49.21627" lon="-0.28739">
        <ele>43.2000008</ele>
        <time>2013-05-09T07:19:39Z</time>
      </trkpt>
      <trkpt lat="49.2163" lon="-0.28734">
        <ele>43.4000015</ele>
        <time>2013-05-09T07:19:40Z</time>
      </trkpt>
      <trkpt lat="49.21633" lon="-0.28731">
        <ele>43.4000015</ele>
        <time>2013-05-09T07:19:41Z</time>
      </trkpt>
      <trkpt lat="49.21639" lon="-0.28734">
        <ele>43.4000015</ele>
        <time>2013-05-09T07:19:43Z</time>
      </trkpt>
      <trkpt lat="49.21649" lon="-0.28754">
        <ele>43.4000015</ele>
        <time>2013-05-09T07:19:47Z</time>
      </trkpt>
      <trkpt lat="49.21652" lon="-0.2876">
        <ele>43.4000015</ele>
        <time>2013-05-09T07:19:48Z</time>
      </trkpt>
      <trkpt lat="49.21669" lon="-0.28793">
        <ele>43.2000008</ele>
        <time>2013-05-09T07:19:53Z</time>
      </trkpt>
      <trkpt lat="49.21672" lon="-0.288">
        <ele>42.5999985</ele>
        <time>2013-05-09T07:19:54Z</time>
      </trkpt>
      <trkpt lat="49.21676" lon="-0.28808">
        <ele>41.5999985</ele>
        <time>2013-05-09T07:19:55Z</time>
      </trkpt>
      <trkpt lat="49.21679" lon="-0.28816">
        <ele>41.4000015</ele>
        <time>2013-05-09T07:19:56Z</time>
      </trkpt>
      <trkpt lat="49.21683" lon="-0.28824">
        <ele>41</ele>
        <time>2013-05-09T07:19:57Z</time>
      </trkpt>
      <trkpt lat="49.21687" lon="-0.28832">
        <ele>40.4000015</ele>
        <time>2013-05-09T07:19:58Z</time>
      </trkpt>
      <trkpt lat="49.21691" lon="-0.2884">
        <ele>40.2000008</ele>
        <time>2013-05-09T07:19:59Z</time>
      </trkpt>
      <trkpt lat="49.21695" lon="-0.28849">
        <ele>39.5999985</ele>
        <time>2013-05-09T07:20:00Z</time>
      </trkpt>
      <trkpt lat="49.21699" lon="-0.28857">
        <ele>39.4000015</ele>
        <time>2013-05-09T07:20:01Z</time>
      </trkpt>
      <trkpt lat="49.21702" lon="-0.28864">
        <ele>38.5999985</ele>
        <time>2013-05-09T07:20:02Z</time>
      </trkpt>
      <trkpt lat="49.21705" lon="-0.2887">
        <ele>38.2000008</ele>
        <time>2013-05-09T07:20:03Z</time>
      </trkpt>
      <trkpt lat="49.21708" lon="-0.28876">
        <ele>37.5999985</ele>
        <time>2013-05-09T07:20:04Z</time>
      </trkpt>
      <trkpt lat="49.2171" lon="-0.28881">
        <ele>37.2000008</ele>
        <time>2013-05-09T07:20:05Z</time>
      </trkpt>
      <trkpt lat="49.21713" lon="-0.28887">
        <ele>36.4000015</ele>
        <time>2013-05-09T07:20:06Z</time>
      </trkpt>
      <trkpt lat="49.21715" lon="-0.28892">
        <ele>36</ele>
        <time>2013-05-09T07:20:07Z</time>
      </trkpt>
      <trkpt lat="49.21717" lon="-0.28896">
        <ele>35.4000015</ele>
        <time>2013-05-09T07:20:08Z</time>
      </trkpt>
      <trkpt lat="49.21718" lon="-0.28898">
        <ele>34.5999985</ele>
        <time>2013-05-09T07:20:09Z</time>
      </trkpt>
      <trkpt lat="49.2172" lon="-0.28901">
        <ele>34.2000008</ele>
        <time>2013-05-09T07:20:10Z</time>
      </trkpt>
      <trkpt lat="49.21721" lon="-0.28904">
        <ele>33.4000015</ele>
        <time>2013-05-09T07:20:11Z</time>
      </trkpt>
      <trkpt lat="49.21723" lon="-0.28908">
        <ele>32.5999985</ele>
        <time>2013-05-09T07:20:12Z</time>
      </trkpt>
      <trkpt lat="49.21725" lon="-0.28912">
        <ele>32.2000008</ele>
        <time>2013-05-09T07:20:13Z</time>
      </trkpt>
      <trkpt lat="49.21727" lon="-0.28918">
        <ele>31.6000004</ele>
        <time>2013-05-09T07:20:14Z</time>
      </trkpt>
      <trkpt lat="49.21729" lon="-0.28923">
        <ele>31.2000008</ele>
        <time>2013-05-09T07:20:15Z</time>
      </trkpt>
      <trkpt lat="49.21732" lon="-0.28928">
        <ele>30.6000004</ele>
        <time>2013-05-09T07:20:16Z</time>
      </trkpt>
      <trkpt lat="49.21733" lon="-0.28932">
        <ele>30.2000008</ele>
        <time>2013-05-09T07:20:17Z</time>
      </trkpt>
      <trkpt lat="49.21734" lon="-0.28936">
        <ele>29.6000004</ele>
        <time>2013-05-09T07:20:18Z</time>
      </trkpt>
      <trkpt lat="49.21736" lon="-0.28939">
        <ele>29.2000008</ele>
        <time>2013-05-09T07:20:19Z</time>
      </trkpt>
      <trkpt lat="49.21737" lon="-0.28941">
        <ele>28.2000008</ele>
        <time>2013-05-09T07:20:20Z</time>
      </trkpt>
      <trkpt lat="49.21738" lon="-0.28944">
        <ele>28</ele>
        <time>2013-05-09T07:20:21Z</time>
      </trkpt>
      <trkpt lat="49.21739" lon="-0.28948">
        <ele>27.2000008</ele>
        <time>2013-05-09T07:20:22Z</time>
      </trkpt>
      <trkpt lat="49.2174" lon="-0.28952">
        <ele>27</ele>
        <time>2013-05-09T07:20:23Z</time>
      </trkpt>
      <trkpt lat="49.21743" lon="-0.28956">
        <ele>26.6000004</ele>
        <time>2013-05-09T07:20:24Z</time>
      </trkpt>
      <trkpt lat="49.21746" lon="-0.28961">
        <ele>26.2000008</ele>
        <time>2013-05-09T07:20:25Z</time>
      </trkpt>
      <trkpt lat="49.21749" lon="-0.28965">
        <ele>25.6000004</ele>
        <time>2013-05-09T07:20:26Z</time>
      </trkpt>
      <trkpt lat="49.21751" lon="-0.28968">
        <ele>25.2000008</ele>
        <time>2013-05-09T07:20:27Z</time>
      </trkpt>
      <trkpt lat="49.21754" lon="-0.28968">
        <ele>25</ele>
        <time>2013-05-09T07:20:28Z</time>
      </trkpt>
      <trkpt lat="49.2176" lon="-0.28961">
        <ele>25</ele>
        <time>2013-05-09T07:20:30Z</time>
      </trkpt>
      <trkpt lat="49.21766" lon="-0.28953">
        <ele>25</ele>
        <time>2013-05-09T07:20:32Z</time>
      </trkpt>
      <trkpt lat="49.21777" lon="-0.28934">
        <ele>25</ele>
        <time>2013-05-09T07:20:36Z</time>
      </trkpt>
      <trkpt lat="49.21804" lon="-0.28883">
        <ele>25</ele>
        <time>2013-05-09T07:20:46Z</time>
      </trkpt>
      <trkpt lat="49.21822" lon="-0.28846">
        <ele>25</ele>
        <time>2013-05-09T07:20:53Z</time>
      </trkpt>
      <trkpt lat="49.21841" lon="-0.28816">
        <ele>25</ele>
        <time>2013-05-09T07:20:59Z</time>
      </trkpt>
      <trkpt lat="49.21844" lon="-0.28812">
        <ele>25</ele>
        <time>2013-05-09T07:21:00Z</time>
      </trkpt>
      <trkpt lat="49.21854" lon="-0.28798">
        <ele>25</ele>
        <time>2013-05-09T07:21:03Z</time>
      </trkpt>
      <trkpt lat="49.21866" lon="-0.28783">
        <ele>25</ele>
        <time>2013-05-09T07:21:07Z</time>
      </trkpt>
      <trkpt lat="49.2189" lon="-0.28749">
        <ele>25</ele>
        <time>2013-05-09T07:21:14Z</time>
      </trkpt>
      <trkpt lat="49.21895" lon="-0.28738">
        <ele>25.2000008</ele>
        <time>2013-05-09T07:21:16Z</time>
      </trkpt>
      <trkpt lat="49.21899" lon="-0.28733">
        <ele>25.6000004</ele>
        <time>2013-05-09T07:21:17Z</time>
      </trkpt>
      <trkpt lat="49.21903" lon="-0.28728">
        <ele>26.2000008</ele>
        <time>2013-05-09T07:21:18Z</time>
      </trkpt>
      <trkpt lat="49.21906" lon="-0.28722">
        <ele>26.6000004</ele>
        <time>2013-05-09T07:21:19Z</time>
      </trkpt>
      <trkpt lat="49.2191" lon="-0.28717">
        <ele>27</ele>
        <time>2013-05-09T07:21:20Z</time>
      </trkpt>
      <trkpt lat="49.21927" lon="-0.28691">
        <ele>27</ele>
        <time>2013-05-09T07:21:25Z</time>
      </trkpt>
      <trkpt lat="49.21943" lon="-0.28661">
        <ele>27</ele>
        <time>2013-05-09T07:21:30Z</time>
      </trkpt>
      <trkpt lat="49.21949" lon="-0.28648">
        <ele>27</ele>
        <time>2013-05-09T07:21:32Z</time>
      </trkpt>
      <trkpt lat="49.21961" lon="-0.28624">
        <ele>27</ele>
        <time>2013-05-09T07:21:36Z</time>
      </trkpt>
      <trkpt lat="49.21979" lon="-0.28587">
        <ele>27</ele>
        <time>2013-05-09T07:21:42Z</time>
      </trkpt>
      <trkpt lat="49.21993" lon="-0.28556">
        <ele>27</ele>
        <time>2013-05-09T07:21:47Z</time>
      </trkpt>
      <trkpt lat="49.22001" lon="-0.28535">
        <ele>27</ele>
        <time>2013-05-09T07:21:50Z</time>
      </trkpt>
      <trkpt lat="49.22018" lon="-0.28496">
        <ele>27</ele>
        <time>2013-05-09T07:21:56Z</time>
      </trkpt>
      <trkpt lat="49.22022" lon="-0.2849">
        <ele>27</ele>
        <time>2013-05-09T07:21:57Z</time>
      </trkpt>
      <trkpt lat="49.2203" lon="-0.2848">
        <ele>27</ele>
        <time>2013-05-09T07:21:59Z</time>
      </trkpt>
      <trkpt lat="49.22044" lon="-0.28466">
        <ele>27</ele>
        <time>2013-05-09T07:22:02Z</time>
      </trkpt>
      <trkpt lat="49.22076" lon="-0.28443">
        <ele>26.6000004</ele>
        <time>2013-05-09T07:22:08Z</time>
      </trkpt>
      <trkpt lat="49.22081" lon="-0.28438">
        <ele>26.2000008</ele>
        <time>2013-05-09T07:22:09Z</time>
      </trkpt>
      <trkpt lat="49.22085" lon="-0.28433">
        <ele>25.6000004</ele>
        <time>2013-05-09T07:22:10Z</time>
      </trkpt>
      <trkpt lat="49.2209" lon="-0.28428">
        <ele>25.2000008</ele>
        <time>2013-05-09T07:22:11Z</time>
      </trkpt>
      <trkpt lat="49.22094" lon="-0.28423">
        <ele>25</ele>
        <time>2013-05-09T07:22:12Z</time>
      </trkpt>
      <trkpt lat="49.22104" lon="-0.28407">
        <ele>25</ele>
        <time>2013-05-09T07:22:15Z</time>
      </trkpt>
      <trkpt lat="49.22116" lon="-0.28388">
        <ele>25</ele>
        <time>2013-05-09T07:22:20Z</time>
      </trkpt>
      <trkpt lat="49.22118" lon="-0.28386">
        <ele>25</ele>
        <time>2013-05-09T07:22:21Z</time>
      </trkpt>
      <trkpt lat="49.22121" lon="-0.28376">
        <ele>25</ele>
        <time>2013-05-09T07:22:23Z</time>
      </trkpt>
      <trkpt lat="49.22126" lon="-0.28365">
        <ele>25</ele>
        <time>2013-05-09T07:22:25Z</time>
      </trkpt>
      <trkpt lat="49.22132" lon="-0.28354">
        <ele>25</ele>
        <time>2013-05-09T07:22:27Z</time>
      </trkpt>
      <trkpt lat="49.22156" lon="-0.28311">
        <ele>25</ele>
        <time>2013-05-09T07:22:34Z</time>
      </trkpt>
      <trkpt lat="49.22174" lon="-0.28264">
        <ele>25</ele>
        <time>2013-05-09T07:22:41Z</time>
      </trkpt>
      <trkpt lat="49.22185" lon="-0.28224">
        <ele>25</ele>
        <time>2013-05-09T07:22:47Z</time>
      </trkpt>
      <trkpt lat="49.22186" lon="-0.28217">
        <ele>25</ele>
        <time>2013-05-09T07:22:48Z</time>
      </trkpt>
      <trkpt lat="49.2219" lon="-0.28183">
        <ele>25</ele>
        <time>2013-05-09T07:22:53Z</time>
      </trkpt>
      <trkpt lat="49.22193" lon="-0.2817">
        <ele>25</ele>
        <time>2013-05-09T07:22:55Z</time>
      </trkpt>
      <trkpt lat="49.22198" lon="-0.2815">
        <ele>25</ele>
        <time>2013-05-09T07:22:58Z</time>
      </trkpt>
      <trkpt lat="49.22202" lon="-0.28138">
        <ele>25</ele>
        <time>2013-05-09T07:23:00Z</time>
      </trkpt>
      <trkpt lat="49.22204" lon="-0.28132">
        <ele>25</ele>
        <time>2013-05-09T07:23:01Z</time>
      </trkpt>
      <trkpt lat="49.22206" lon="-0.28126">
        <ele>25</ele>
        <time>2013-05-09T07:23:02Z</time>
      </trkpt>
      <trkpt lat="49.22216" lon="-0.28102">
        <ele>25</ele>
        <time>2013-05-09T07:23:06Z</time>
      </trkpt>
      <trkpt lat="49.22228" lon="-0.28068">
        <ele>25</ele>
        <time>2013-05-09T07:23:12Z</time>
      </trkpt>
      <trkpt lat="49.2224" lon="-0.28037">
        <ele>25</ele>
        <time>2013-05-09T07:23:18Z</time>
      </trkpt>
      <trkpt lat="49.22247" lon="-0.28007">
        <ele>25</ele>
        <time>2013-05-09T07:23:24Z</time>
      </trkpt>
      <trkpt lat="49.22241" lon="-0.27986">
        <ele>25</ele>
        <time>2013-05-09T07:23:28Z</time>
      </trkpt>
      <trkpt lat="49.22233" lon="-0.27957">
        <ele>25</ele>
        <time>2013-05-09T07:23:34Z</time>
      </trkpt>
      <trkpt lat="49.22229" lon="-0.27944">
        <ele>25.2000008</ele>
        <time>2013-05-09T07:23:37Z</time>
      </trkpt>
      <trkpt lat="49.22227" lon="-0.27939">
        <ele>26.2000008</ele>
        <time>2013-05-09T07:23:38Z</time>
      </trkpt>
      <trkpt lat="49.22226" lon="-0.27934">
        <ele>26.6000004</ele>
        <time>2013-05-09T07:23:39Z</time>
      </trkpt>
      <trkpt lat="49.22225" lon="-0.27929">
        <ele>27</ele>
        <time>2013-05-09T07:23:40Z</time>
      </trkpt>
      <trkpt lat="49.22224" lon="-0.27925">
        <ele>27</ele>
        <time>2013-05-09T07:23:41Z</time>
      </trkpt>
      <trkpt lat="49.22217" lon="-0.27897">
        <ele>27.2000008</ele>
        <time>2013-05-09T07:23:47Z</time>
      </trkpt>
      <trkpt lat="49.22215" lon="-0.27891">
        <ele>28</ele>
        <time>2013-05-09T07:23:48Z</time>
      </trkpt>
      <trkpt lat="49.22213" lon="-0.27885">
        <ele>28.2000008</ele>
        <time>2013-05-09T07:23:49Z</time>
      </trkpt>
      <trkpt lat="49.22211" lon="-0.27879">
        <ele>28.6000004</ele>
        <time>2013-05-09T07:23:50Z</time>
      </trkpt>
      <trkpt lat="49.2221" lon="-0.27873">
        <ele>29.2000008</ele>
        <time>2013-05-09T07:23:51Z</time>
      </trkpt>
      <trkpt lat="49.22202" lon="-0.27846">
        <ele>29.6000004</ele>
        <time>2013-05-09T07:23:56Z</time>
      </trkpt>
      <trkpt lat="49.22201" lon="-0.2784">
        <ele>30.2000008</ele>
        <time>2013-05-09T07:23:57Z</time>
      </trkpt>
      <trkpt lat="49.22199" lon="-0.27835">
        <ele>30.6000004</ele>
        <time>2013-05-09T07:23:58Z</time>
      </trkpt>
      <trkpt lat="49.22197" lon="-0.2783">
        <ele>31</ele>
        <time>2013-05-09T07:23:59Z</time>
      </trkpt>
      <trkpt lat="49.22196" lon="-0.27825">
        <ele>31.2000008</ele>
        <time>2013-05-09T07:24:00Z</time>
      </trkpt>
      <trkpt lat="49.22192" lon="-0.27811">
        <ele>31.2000008</ele>
        <time>2013-05-09T07:24:03Z</time>
      </trkpt>
      <trkpt lat="49.22186" lon="-0.2779">
        <ele>31.6000004</ele>
        <time>2013-05-09T07:24:07Z</time>
      </trkpt>
      <trkpt lat="49.22185" lon="-0.27785">
        <ele>32.2000008</ele>
        <time>2013-05-09T07:24:08Z</time>
      </trkpt>
      <trkpt lat="49.22183" lon="-0.2778">
        <ele>32.4000015</ele>
        <time>2013-05-09T07:24:09Z</time>
      </trkpt>
      <trkpt lat="49.22182" lon="-0.27775">
        <ele>33</ele>
        <time>2013-05-09T07:24:10Z</time>
      </trkpt>
      <trkpt lat="49.22181" lon="-0.2777">
        <ele>33.4000015</ele>
        <time>2013-05-09T07:24:11Z</time>
      </trkpt>
      <trkpt lat="49.22172" lon="-0.27741">
        <ele>33.4000015</ele>
        <time>2013-05-09T07:24:17Z</time>
      </trkpt>
      <trkpt lat="49.22163" lon="-0.27708">
        <ele>33.4000015</ele>
        <time>2013-05-09T07:24:24Z</time>
      </trkpt>
      <trkpt lat="49.22158" lon="-0.27695">
        <ele>33.5999985</ele>
        <time>2013-05-09T07:24:27Z</time>
      </trkpt>
      <trkpt lat="49.22156" lon="-0.27691">
        <ele>34.2000008</ele>
        <time>2013-05-09T07:24:28Z</time>
      </trkpt>
      <trkpt lat="49.22155" lon="-0.27686">
        <ele>34.5999985</ele>
        <time>2013-05-09T07:24:29Z</time>
      </trkpt>
      <trkpt lat="49.22154" lon="-0.27681">
        <ele>35.2000008</ele>
        <time>2013-05-09T07:24:30Z</time>
      </trkpt>
      <trkpt lat="49.22153" lon="-0.27676">
        <ele>35.4000015</ele>
        <time>2013-05-09T07:24:31Z</time>
      </trkpt>
      <trkpt lat="49.22147" lon="-0.27654">
        <ele>35.4000015</ele>
        <time>2013-05-09T07:24:35Z</time>
      </trkpt>
      <trkpt lat="49.22137" lon="-0.27614">
        <ele>35.4000015</ele>
        <time>2013-05-09T07:24:42Z</time>
      </trkpt>
      <trkpt lat="49.22123" lon="-0.27567">
        <ele>35.4000015</ele>
        <time>2013-05-09T07:24:50Z</time>
      </trkpt>
      <trkpt lat="49.22121" lon="-0.27561">
        <ele>35.4000015</ele>
        <time>2013-05-09T07:24:51Z</time>
      </trkpt>
      <trkpt lat="49.2212" lon="-0.27556">
        <ele>36.4000015</ele>
        <time>2013-05-09T07:24:52Z</time>
      </trkpt>
      <trkpt lat="49.22118" lon="-0.2755">
        <ele>36.5999985</ele>
        <time>2013-05-09T07:24:53Z</time>
      </trkpt>
      <trkpt lat="49.22117" lon="-0.27545">
        <ele>37.2000008</ele>
        <time>2013-05-09T07:24:54Z</time>
      </trkpt>
      <trkpt lat="49.22115" lon="-0.27539">
        <ele>37.4000015</ele>
        <time>2013-05-09T07:24:55Z</time>
      </trkpt>
      <trkpt lat="49.22112" lon="-0.27529">
        <ele>37.4000015</ele>
        <time>2013-05-09T07:24:57Z</time>
      </trkpt>
      <trkpt lat="49.22103" lon="-0.27498">
        <ele>37.4000015</ele>
        <time>2013-05-09T07:25:04Z</time>
      </trkpt>
      <trkpt lat="49.22098" lon="-0.27485">
        <ele>37.4000015</ele>
        <time>2013-05-09T07:25:09Z</time>
      </trkpt>
      <trkpt lat="49.22099" lon="-0.27482">
        <ele>37.4000015</ele>
        <time>2013-05-09T07:25:10Z</time>
      </trkpt>
      <trkpt lat="49.22105" lon="-0.27462">
        <ele>37.4000015</ele>
        <time>2013-05-09T07:25:17Z</time>
      </trkpt>
      <trkpt lat="49.22112" lon="-0.27441">
        <ele>37.4000015</ele>
        <time>2013-05-09T07:25:22Z</time>
      </trkpt>
      <trkpt lat="49.22108" lon="-0.27419">
        <ele>37.4000015</ele>
        <time>2013-05-09T07:25:26Z</time>
      </trkpt>
      <trkpt lat="49.22109" lon="-0.27394">
        <ele>37.4000015</ele>
        <time>2013-05-09T07:25:31Z</time>
      </trkpt>
      <trkpt lat="49.2212" lon="-0.27383">
        <ele>37.4000015</ele>
        <time>2013-05-09T07:25:35Z</time>
      </trkpt>
      <trkpt lat="49.22148" lon="-0.27365">
        <ele>37.4000015</ele>
        <time>2013-05-09T07:25:44Z</time>
      </trkpt>
      <trkpt lat="49.22169" lon="-0.27357">
        <ele>37.4000015</ele>
        <time>2013-05-09T07:25:51Z</time>
      </trkpt>
      <trkpt lat="49.22179" lon="-0.27353">
        <ele>37.4000015</ele>
        <time>2013-05-09T07:25:55Z</time>
      </trkpt>
      <trkpt lat="49.22182" lon="-0.27349">
        <ele>37.4000015</ele>
        <time>2013-05-09T07:25:57Z</time>
      </trkpt>
      <trkpt lat="49.22181" lon="-0.27336">
        <ele>37.4000015</ele>
        <time>2013-05-09T07:26:02Z</time>
      </trkpt>
      <trkpt lat="49.22171" lon="-0.27319">
        <ele>37.4000015</ele>
        <time>2013-05-09T07:26:06Z</time>
      </trkpt>
      <trkpt lat="49.22168" lon="-0.27314">
        <ele>37.4000015</ele>
        <time>2013-05-09T07:26:07Z</time>
      </trkpt>
      <trkpt lat="49.22159" lon="-0.27279">
        <ele>37.4000015</ele>
        <time>2013-05-09T07:26:13Z</time>
      </trkpt>
      <trkpt lat="49.22163" lon="-0.27247">
        <ele>37.4000015</ele>
        <time>2013-05-09T07:26:19Z</time>
      </trkpt>
      <trkpt lat="49.22177" lon="-0.27229">
        <ele>37.4000015</ele>
        <time>2013-05-09T07:26:24Z</time>
      </trkpt>
      <trkpt lat="49.22205" lon="-0.27211">
        <ele>37.4000015</ele>
        <time>2013-05-09T07:26:32Z</time>
      </trkpt>
      <trkpt lat="49.22225" lon="-0.27195">
        <ele>37.4000015</ele>
        <time>2013-05-09T07:26:39Z</time>
      </trkpt>
      <trkpt lat="49.22228" lon="-0.27195">
        <ele>37.4000015</ele>
        <time>2013-05-09T07:26:40Z</time>
      </trkpt>
      <trkpt lat="49.22231" lon="-0.27198">
        <ele>37.4000015</ele>
        <time>2013-05-09T07:26:42Z</time>
      </trkpt>
      <trkpt lat="49.22238" lon="-0.27208">
        <ele>37.4000015</ele>
        <time>2013-05-09T07:26:47Z</time>
      </trkpt>
      <trkpt lat="49.22239" lon="-0.27211">
        <ele>37.4000015</ele>
        <time>2013-05-09T07:26:48Z</time>
      </trkpt>
      <trkpt lat="49.22244" lon="-0.2722">
        <ele>37.4000015</ele>
        <time>2013-05-09T07:26:51Z</time>
      </trkpt>
      <trkpt lat="49.22251" lon="-0.27222">
        <ele>37.4000015</ele>
        <time>2013-05-09T07:26:53Z</time>
      </trkpt>
      <trkpt lat="49.22261" lon="-0.27214">
        <ele>37.4000015</ele>
        <time>2013-05-09T07:26:56Z</time>
      </trkpt>
      <trkpt lat="49.22264" lon="-0.27211">
        <ele>37.4000015</ele>
        <time>2013-05-09T07:26:57Z</time>
      </trkpt>
      <trkpt lat="49.22281" lon="-0.27197">
        <ele>37.4000015</ele>
        <time>2013-05-09T07:27:02Z</time>
      </trkpt>
      <trkpt lat="49.22312" lon="-0.27172">
        <ele>37.4000015</ele>
        <time>2013-05-09T07:27:11Z</time>
      </trkpt>
      <trkpt lat="49.22336" lon="-0.27151">
        <ele>37.4000015</ele>
        <time>2013-05-09T07:27:18Z</time>
      </trkpt>
      <trkpt lat="49.22343" lon="-0.27145">
        <ele>37.4000015</ele>
        <time>2013-05-09T07:27:20Z</time>
      </trkpt>
      <trkpt lat="49.22362" lon="-0.27128">
        <ele>37.4000015</ele>
        <time>2013-05-09T07:27:25Z</time>
      </trkpt>
      <trkpt lat="49.22392" lon="-0.27102">
        <ele>37.4000015</ele>
        <time>2013-05-09T07:27:32Z</time>
      </trkpt>
      <trkpt lat="49.22428" lon="-0.27071">
        <ele>37.4000015</ele>
        <time>2013-05-09T07:27:40Z</time>
      </trkpt>
      <trkpt lat="49.22466" lon="-0.27046">
        <ele>37.4000015</ele>
        <time>2013-05-09T07:27:48Z</time>
      </trkpt>
      <trkpt lat="49.22501" lon="-0.27028">
        <ele>37.4000015</ele>
        <time>2013-05-09T07:27:55Z</time>
      </trkpt>
      <trkpt lat="49.22523" lon="-0.27012">
        <ele>37.4000015</ele>
        <time>2013-05-09T07:28:00Z</time>
      </trkpt>
      <trkpt lat="49.22527" lon="-0.27007">
        <ele>37.4000015</ele>
        <time>2013-05-09T07:28:01Z</time>
      </trkpt>
      <trkpt lat="49.22556" lon="-0.2698">
        <ele>37.4000015</ele>
        <time>2013-05-09T07:28:08Z</time>
      </trkpt>
      <trkpt lat="49.2258" lon="-0.26957">
        <ele>37.4000015</ele>
        <time>2013-05-09T07:28:14Z</time>
      </trkpt>
      <trkpt lat="49.22593" lon="-0.26947">
        <ele>37.4000015</ele>
        <time>2013-05-09T07:28:17Z</time>
      </trkpt>
      <trkpt lat="49.2261" lon="-0.26933">
        <ele>37.4000015</ele>
        <time>2013-05-09T07:28:21Z</time>
      </trkpt>
      <trkpt lat="49.22652" lon="-0.26902">
        <ele>37.4000015</ele>
        <time>2013-05-09T07:28:30Z</time>
      </trkpt>
      <trkpt lat="49.22661" lon="-0.26894">
        <ele>37.4000015</ele>
        <time>2013-05-09T07:28:32Z</time>
      </trkpt>
      <trkpt lat="49.22679" lon="-0.2688">
        <ele>37.4000015</ele>
        <time>2013-05-09T07:28:36Z</time>
      </trkpt>
      <trkpt lat="49.22688" lon="-0.26874">
        <ele>37.2000008</ele>
        <time>2013-05-09T07:28:38Z</time>
      </trkpt>
      <trkpt lat="49.22692" lon="-0.26871">
        <ele>36.5999985</ele>
        <time>2013-05-09T07:28:39Z</time>
      </trkpt>
      <trkpt lat="49.22697" lon="-0.26868">
        <ele>36.4000015</ele>
        <time>2013-05-09T07:28:40Z</time>
      </trkpt>
      <trkpt lat="49.22701" lon="-0.26865">
        <ele>35.5999985</ele>
        <time>2013-05-09T07:28:41Z</time>
      </trkpt>
      <trkpt lat="49.22706" lon="-0.26861">
        <ele>35.4000015</ele>
        <time>2013-05-09T07:28:42Z</time>
      </trkpt>
      <trkpt lat="49.2274" lon="-0.2684">
        <ele>35.4000015</ele>
        <time>2013-05-09T07:28:49Z</time>
      </trkpt>
      <trkpt lat="49.22761" lon="-0.26828">
        <ele>35</ele>
        <time>2013-05-09T07:28:53Z</time>
      </trkpt>
      <trkpt lat="49.22766" lon="-0.26825">
        <ele>34.4000015</ele>
        <time>2013-05-09T07:28:54Z</time>
      </trkpt>
      <trkpt lat="49.22771" lon="-0.26822">
        <ele>34.2000008</ele>
        <time>2013-05-09T07:28:55Z</time>
      </trkpt>
      <trkpt lat="49.22776" lon="-0.26819">
        <ele>33.5999985</ele>
        <time>2013-05-09T07:28:56Z</time>
      </trkpt>
      <trkpt lat="49.22782" lon="-0.26815">
        <ele>33.4000015</ele>
        <time>2013-05-09T07:28:57Z</time>
      </trkpt>
      <trkpt lat="49.22808" lon="-0.26802">
        <ele>33.4000015</ele>
        <time>2013-05-09T07:29:02Z</time>
      </trkpt>
      <trkpt lat="49.2284" lon="-0.26784">
        <ele>33.4000015</ele>
        <time>2013-05-09T07:29:08Z</time>
      </trkpt>
      <trkpt lat="49.22846" lon="-0.26781">
        <ele>33</ele>
        <time>2013-05-09T07:29:09Z</time>
      </trkpt>
      <trkpt lat="49.22851" lon="-0.26778">
        <ele>32.4000015</ele>
        <time>2013-05-09T07:29:10Z</time>
      </trkpt>
      <trkpt lat="49.22856" lon="-0.26774">
        <ele>32</ele>
        <time>2013-05-09T07:29:11Z</time>
      </trkpt>
      <trkpt lat="49.22862" lon="-0.26771">
        <ele>31.2000008</ele>
        <time>2013-05-09T07:29:12Z</time>
      </trkpt>
      <trkpt lat="49.22867" lon="-0.26768">
        <ele>31</ele>
        <time>2013-05-09T07:29:13Z</time>
      </trkpt>
      <trkpt lat="49.22877" lon="-0.26763">
        <ele>31</ele>
        <time>2013-05-09T07:29:15Z</time>
      </trkpt>
      <trkpt lat="49.22905" lon="-0.26746">
        <ele>30.6000004</ele>
        <time>2013-05-09T07:29:20Z</time>
      </trkpt>
      <trkpt lat="49.22911" lon="-0.26743">
        <ele>30.2000008</ele>
        <time>2013-05-09T07:29:21Z</time>
      </trkpt>
      <trkpt lat="49.22917" lon="-0.2674">
        <ele>29.6000004</ele>
        <time>2013-05-09T07:29:22Z</time>
      </trkpt>
      <trkpt lat="49.22922" lon="-0.26737">
        <ele>29.2000008</ele>
        <time>2013-05-09T07:29:23Z</time>
      </trkpt>
      <trkpt lat="49.22927" lon="-0.26734">
        <ele>28.6000004</ele>
        <time>2013-05-09T07:29:24Z</time>
      </trkpt>
      <trkpt lat="49.22937" lon="-0.26729">
        <ele>28.2000008</ele>
        <time>2013-05-09T07:29:26Z</time>
      </trkpt>
      <trkpt lat="49.22942" lon="-0.26727">
        <ele>28</ele>
        <time>2013-05-09T07:29:27Z</time>
      </trkpt>
      <trkpt lat="49.22948" lon="-0.26725">
        <ele>27.6000004</ele>
        <time>2013-05-09T07:29:28Z</time>
      </trkpt>
      <trkpt lat="49.22953" lon="-0.26722">
        <ele>27.2000008</ele>
        <time>2013-05-09T07:29:29Z</time>
      </trkpt>
      <trkpt lat="49.22958" lon="-0.2672">
        <ele>26.6000004</ele>
        <time>2013-05-09T07:29:30Z</time>
      </trkpt>
      <trkpt lat="49.22973" lon="-0.26712">
        <ele>26.6000004</ele>
        <time>2013-05-09T07:29:33Z</time>
      </trkpt>
      <trkpt lat="49.23002" lon="-0.267">
        <ele>26.2000008</ele>
        <time>2013-05-09T07:29:39Z</time>
      </trkpt>
      <trkpt lat="49.23006" lon="-0.26698">
        <ele>25.6000004</ele>
        <time>2013-05-09T07:29:40Z</time>
      </trkpt>
      <trkpt lat="49.23011" lon="-0.26698">
        <ele>25.2000008</ele>
        <time>2013-05-09T07:29:41Z</time>
      </trkpt>
      <trkpt lat="49.23016" lon="-0.26696">
        <ele>25</ele>
        <time>2013-05-09T07:29:42Z</time>
      </trkpt>
      <trkpt lat="49.23021" lon="-0.26695">
        <ele>24.6000004</ele>
        <time>2013-05-09T07:29:43Z</time>
      </trkpt>
      <trkpt lat="49.23035" lon="-0.26692">
        <ele>24.6000004</ele>
        <time>2013-05-09T07:29:46Z</time>
      </trkpt>
      <trkpt lat="49.23051" lon="-0.26687">
        <ele>24.6000004</ele>
        <time>2013-05-09T07:29:49Z</time>
      </trkpt>
      <trkpt lat="49.23055" lon="-0.26681">
        <ele>24.6000004</ele>
        <time>2013-05-09T07:29:50Z</time>
      </trkpt>
      <trkpt lat="49.23065" lon="-0.2665">
        <ele>24.6000004</ele>
        <time>2013-05-09T07:29:54Z</time>
      </trkpt>
      <trkpt lat="49.23058" lon="-0.26626">
        <ele>24</ele>
        <time>2013-05-09T07:29:57Z</time>
      </trkpt>
      <trkpt lat="49.23055" lon="-0.26619">
        <ele>23.6000004</ele>
        <time>2013-05-09T07:29:58Z</time>
      </trkpt>
      <trkpt lat="49.23052" lon="-0.26611">
        <ele>23.2000008</ele>
        <time>2013-05-09T07:29:59Z</time>
      </trkpt>
      <trkpt lat="49.23051" lon="-0.26603">
        <ele>22.6000004</ele>
        <time>2013-05-09T07:30:00Z</time>
      </trkpt>
      <trkpt lat="49.23049" lon="-0.26594">
        <ele>22.2000008</ele>
        <time>2013-05-09T07:30:01Z</time>
      </trkpt>
      <trkpt lat="49.23047" lon="-0.26575">
        <ele>22.2000008</ele>
        <time>2013-05-09T07:30:03Z</time>
      </trkpt>
      <trkpt lat="49.23047" lon="-0.26566">
        <ele>21.6000004</ele>
        <time>2013-05-09T07:30:04Z</time>
      </trkpt>
      <trkpt lat="49.23045" lon="-0.26555">
        <ele>21.2000008</ele>
        <time>2013-05-09T07:30:05Z</time>
      </trkpt>
      <trkpt lat="49.23045" lon="-0.26545">
        <ele>21</ele>
        <time>2013-05-09T07:30:06Z</time>
      </trkpt>
      <trkpt lat="49.23044" lon="-0.26535">
        <ele>20.6000004</ele>
        <time>2013-05-09T07:30:07Z</time>
      </trkpt>
      <trkpt lat="49.23043" lon="-0.26524">
        <ele>20.2000008</ele>
        <time>2013-05-09T07:30:08Z</time>
      </trkpt>
      <trkpt lat="49.23041" lon="-0.26502">
        <ele>19.6000004</ele>
        <time>2013-05-09T07:30:10Z</time>
      </trkpt>
      <trkpt lat="49.23039" lon="-0.2649">
        <ele>19.2000008</ele>
        <time>2013-05-09T07:30:11Z</time>
      </trkpt>
      <trkpt lat="49.23038" lon="-0.2648">
        <ele>19</ele>
        <time>2013-05-09T07:30:12Z</time>
      </trkpt>
      <trkpt lat="49.23037" lon="-0.26471">
        <ele>17.6000004</ele>
        <time>2013-05-09T07:30:13Z</time>
      </trkpt>
      <trkpt lat="49.23037" lon="-0.26465">
        <ele>17</ele>
        <time>2013-05-09T07:30:14Z</time>
      </trkpt>
      <trkpt lat="49.23037" lon="-0.26459">
        <ele>16.2000008</ele>
        <time>2013-05-09T07:30:15Z</time>
      </trkpt>
      <trkpt lat="49.23039" lon="-0.26455">
        <ele>15.1999998</ele>
        <time>2013-05-09T07:30:16Z</time>
      </trkpt>
      <trkpt lat="49.23041" lon="-0.26451">
        <ele>14.6000004</ele>
        <time>2013-05-09T07:30:17Z</time>
      </trkpt>
      <trkpt lat="49.23044" lon="-0.26447">
        <ele>13.6000004</ele>
        <time>2013-05-09T07:30:18Z</time>
      </trkpt>
      <trkpt lat="49.23048" lon="-0.26445">
        <ele>12.8000002</ele>
        <time>2013-05-09T07:30:19Z</time>
      </trkpt>
      <trkpt lat="49.23052" lon="-0.26444">
        <ele>12.8000002</ele>
        <time>2013-05-09T07:30:20Z</time>
      </trkpt>
      <trkpt lat="49.23056" lon="-0.26442">
        <ele>12.1999998</ele>
        <time>2013-05-09T07:30:21Z</time>
      </trkpt>
      <trkpt lat="49.23061" lon="-0.2644">
        <ele>12</ele>
        <time>2013-05-09T07:30:22Z</time>
      </trkpt>
      <trkpt lat="49.23066" lon="-0.26438">
        <ele>11.6000004</ele>
        <time>2013-05-09T07:30:23Z</time>
      </trkpt>
      <trkpt lat="49.23072" lon="-0.26436">
        <ele>11</ele>
        <time>2013-05-09T07:30:24Z</time>
      </trkpt>
      <trkpt lat="49.23077" lon="-0.26433">
        <ele>10.8000002</ele>
        <time>2013-05-09T07:30:25Z</time>
      </trkpt>
      <trkpt lat="49.23118" lon="-0.26411">
        <ele>10.8000002</ele>
        <time>2013-05-09T07:30:32Z</time>
      </trkpt>
      <trkpt lat="49.23134" lon="-0.26398">
        <ele>10.8000002</ele>
        <time>2013-05-09T07:30:35Z</time>
      </trkpt>
      <trkpt lat="49.23138" lon="-0.26391">
        <ele>10.1999998</ele>
        <time>2013-05-09T07:30:36Z</time>
      </trkpt>
      <trkpt lat="49.23142" lon="-0.26383">
        <ele>10</ele>
        <time>2013-05-09T07:30:37Z</time>
      </trkpt>
      <trkpt lat="49.23145" lon="-0.26375">
        <ele>9</ele>
        <time>2013-05-09T07:30:38Z</time>
      </trkpt>
      <trkpt lat="49.23149" lon="-0.26368">
        <ele>8.8000002</ele>
        <time>2013-05-09T07:30:39Z</time>
      </trkpt>
      <trkpt lat="49.23157" lon="-0.26357">
        <ele>8.8000002</ele>
        <time>2013-05-09T07:30:41Z</time>
      </trkpt>
      <trkpt lat="49.2317" lon="-0.26342">
        <ele>8.8000002</ele>
        <time>2013-05-09T07:30:44Z</time>
      </trkpt>
      <trkpt lat="49.23176" lon="-0.2634">
        <ele>8.8000002</ele>
        <time>2013-05-09T07:30:46Z</time>
      </trkpt>
      <trkpt lat="49.23179" lon="-0.26352">
        <ele>8.8000002</ele>
        <time>2013-05-09T07:30:49Z</time>
      </trkpt>
      <trkpt lat="49.23182" lon="-0.26365">
        <ele>8.8000002</ele>
        <time>2013-05-09T07:30:53Z</time>
      </trkpt>
      <trkpt lat="49.23182" lon="-0.26367">
        <ele>8.8000002</ele>
        <time>2013-05-09T07:30:54Z</time>
      </trkpt>
      <trkpt lat="49.23182" lon="-0.26367">
        <ele>8.8000002</ele>
        <time>2013-05-09T07:30:55Z</time>
      </trkpt>
      <trkpt lat="49.23181" lon="-0.26366">
        <ele>8.8000002</ele>
        <time>2013-05-09T07:30:57Z</time>
      </trkpt>
      <trkpt lat="49.2318" lon="-0.26362">
        <ele>8.8000002</ele>
        <time>2013-05-09T07:30:59Z</time>
      </trkpt>
      <trkpt lat="49.23179" lon="-0.26344">
        <ele>8.8000002</ele>
        <time>2013-05-09T07:31:05Z</time>
      </trkpt>
      <trkpt lat="49.2318" lon="-0.26343">
        <ele>8.8000002</ele>
        <time>2013-05-09T07:31:06Z</time>
      </trkpt>
      <trkpt lat="49.2318" lon="-0.26343">
        <ele>8.8000002</ele>
        <time>2013-05-09T07:31:08Z</time>
      </trkpt>
      <trkpt lat="49.2318" lon="-0.26343">
        <ele>8.8000002</ele>
        <time>2013-05-09T07:31:18Z</time>
      </trkpt>
      <trkpt lat="49.23181" lon="-0.26343">
        <ele>8.8000002</ele>
        <time>2013-05-09T07:31:19Z</time>
      </trkpt>
      <trkpt lat="49.2318" lon="-0.26342">
        <ele>8.8000002</ele>
        <time>2013-05-09T07:32:18Z</time>
      </trkpt>
      <trkpt lat="49.23181" lon="-0.26342">
        <ele>8.8000002</ele>
        <time>2013-05-09T07:32:20Z</time>
      </trkpt>
      <trkpt lat="49.23181" lon="-0.26343">
        <ele>8.8000002</ele>
        <time>2013-05-09T07:33:07Z</time>
      </trkpt>
      <trkpt lat="49.23181" lon="-0.26343">
        <ele>8.8000002</ele>
        <time>2013-05-09T07:33:12Z</time>
      </trkpt>
      <trkpt lat="49.2318" lon="-0.26354">
        <ele>8.8000002</ele>
        <time>2013-05-09T07:33:16Z</time>
      </trkpt>
      <trkpt lat="49.23181" lon="-0.26361">
        <ele>8.8000002</ele>
        <time>2013-05-09T07:33:18Z</time>
      </trkpt>
      <trkpt lat="49.23186" lon="-0.26384">
        <ele>8.8000002</ele>
        <time>2013-05-09T07:33:24Z</time>
      </trkpt>
      <trkpt lat="49.23195" lon="-0.264">
        <ele>8.8000002</ele>
        <time>2013-05-09T07:33:30Z</time>
      </trkpt>
      <trkpt lat="49.23205" lon="-0.2641">
        <ele>8.8000002</ele>
        <time>2013-05-09T07:33:35Z</time>
      </trkpt>
      <trkpt lat="49.23207" lon="-0.2641">
        <ele>9</ele>
        <time>2013-05-09T07:33:36Z</time>
      </trkpt>
      <trkpt lat="49.23209" lon="-0.26411">
        <ele>9.8000002</ele>
        <time>2013-05-09T07:33:37Z</time>
      </trkpt>
      <trkpt lat="49.23212" lon="-0.26412">
        <ele>10.1999998</ele>
        <time>2013-05-09T07:33:38Z</time>
      </trkpt>
      <trkpt lat="49.23214" lon="-0.26414">
        <ele>11</ele>
        <time>2013-05-09T07:33:39Z</time>
      </trkpt>
      <trkpt lat="49.23216" lon="-0.26415">
        <ele>11.1999998</ele>
        <time>2013-05-09T07:33:40Z</time>
      </trkpt>
      <trkpt lat="49.23223" lon="-0.26417">
        <ele>11.1999998</ele>
        <time>2013-05-09T07:33:43Z</time>
      </trkpt>
      <trkpt lat="49.23239" lon="-0.26421">
        <ele>11.1999998</ele>
        <time>2013-05-09T07:33:50Z</time>
      </trkpt>
      <trkpt lat="49.23254" lon="-0.26435">
        <ele>11.1999998</ele>
        <time>2013-05-09T07:33:56Z</time>
      </trkpt>
      <trkpt lat="49.23255" lon="-0.26439">
        <ele>11.1999998</ele>
        <time>2013-05-09T07:33:57Z</time>
      </trkpt>
      <trkpt lat="49.23258" lon="-0.26455">
        <ele>11.1999998</ele>
        <time>2013-05-09T07:34:00Z</time>
      </trkpt>
      <trkpt lat="49.2326" lon="-0.26463">
        <ele>11.1999998</ele>
        <time>2013-05-09T07:34:04Z</time>
      </trkpt>
      <trkpt lat="49.23261" lon="-0.26463">
        <ele>11.1999998</ele>
        <time>2013-05-09T07:34:06Z</time>
      </trkpt>
      <trkpt lat="49.23261" lon="-0.26463">
        <ele>11.1999998</ele>
        <time>2013-05-09T07:34:08Z</time>
      </trkpt>
      <trkpt lat="49.23262" lon="-0.26466">
        <ele>11.1999998</ele>
        <time>2013-05-09T07:34:11Z</time>
      </trkpt>
      <trkpt lat="49.23262" lon="-0.26466">
        <ele>11.1999998</ele>
        <time>2013-05-09T07:34:12Z</time>
      </trkpt>
      <trkpt lat="49.23263" lon="-0.26466">
        <ele>11.1999998</ele>
        <time>2013-05-09T07:34:14Z</time>
      </trkpt>
      <trkpt lat="49.23266" lon="-0.26465">
        <ele>11.8000002</ele>
        <time>2013-05-09T07:34:16Z</time>
      </trkpt>
      <trkpt lat="49.23268" lon="-0.26464">
        <ele>12</ele>
        <time>2013-05-09T07:34:17Z</time>
      </trkpt>
      <trkpt lat="49.23271" lon="-0.26464">
        <ele>12.8000002</ele>
        <time>2013-05-09T07:34:18Z</time>
      </trkpt>
      <trkpt lat="49.23273" lon="-0.26464">
        <ele>13</ele>
        <time>2013-05-09T07:34:19Z</time>
      </trkpt>
      <trkpt lat="49.23276" lon="-0.26465">
        <ele>13.6000004</ele>
        <time>2013-05-09T07:34:20Z</time>
      </trkpt>
      <trkpt lat="49.23281" lon="-0.26466">
        <ele>13.6000004</ele>
        <time>2013-05-09T07:34:22Z</time>
      </trkpt>
      <trkpt lat="49.23295" lon="-0.26467">
        <ele>13.6000004</ele>
        <time>2013-05-09T07:34:26Z</time>
      </trkpt>
      <trkpt lat="49.23308" lon="-0.26468">
        <ele>13.6000004</ele>
        <time>2013-05-09T07:34:29Z</time>
      </trkpt>
      <trkpt lat="49.23318" lon="-0.26468">
        <ele>13.6000004</ele>
        <time>2013-05-09T07:34:31Z</time>
      </trkpt>
      <trkpt lat="49.23354" lon="-0.26472">
        <ele>13.6000004</ele>
        <time>2013-05-09T07:34:38Z</time>
      </trkpt>
      <trkpt lat="49.23376" lon="-0.26475">
        <ele>13.6000004</ele>
        <time>2013-05-09T07:34:42Z</time>
      </trkpt>
      <trkpt lat="49.23387" lon="-0.26477">
        <ele>13.6000004</ele>
        <time>2013-05-09T07:34:45Z</time>
      </trkpt>
      <trkpt lat="49.2342" lon="-0.26485">
        <ele>13.6000004</ele>
        <time>2013-05-09T07:34:51Z</time>
      </trkpt>
      <trkpt lat="49.23425" lon="-0.26486">
        <ele>13</ele>
        <time>2013-05-09T07:34:52Z</time>
      </trkpt>
      <trkpt lat="49.23429" lon="-0.26487">
        <ele>12.8000002</ele>
        <time>2013-05-09T07:34:53Z</time>
      </trkpt>
      <trkpt lat="49.23434" lon="-0.26488">
        <ele>12.1999998</ele>
        <time>2013-05-09T07:34:54Z</time>
      </trkpt>
      <trkpt lat="49.23439" lon="-0.26489">
        <ele>12</ele>
        <time>2013-05-09T07:34:55Z</time>
      </trkpt>
      <trkpt lat="49.23444" lon="-0.2649">
        <ele>11.1999998</ele>
        <time>2013-05-09T07:34:56Z</time>
      </trkpt>
      <trkpt lat="49.23449" lon="-0.26491">
        <ele>11.1999998</ele>
        <time>2013-05-09T07:34:57Z</time>
      </trkpt>
      <trkpt lat="49.23484" lon="-0.26497">
        <ele>11.1999998</ele>
        <time>2013-05-09T07:35:03Z</time>
      </trkpt>
      <trkpt lat="49.23511" lon="-0.26499">
        <ele>11.1999998</ele>
        <time>2013-05-09T07:35:09Z</time>
      </trkpt>
      <trkpt lat="49.23517" lon="-0.265">
        <ele>11.1999998</ele>
        <time>2013-05-09T07:35:12Z</time>
      </trkpt>
      <trkpt lat="49.23518" lon="-0.26502">
        <ele>11.1999998</ele>
        <time>2013-05-09T07:35:13Z</time>
      </trkpt>
      <trkpt lat="49.23524" lon="-0.26502">
        <ele>11.1999998</ele>
        <time>2013-05-09T07:35:16Z</time>
      </trkpt>
      <trkpt lat="49.23533" lon="-0.26499">
        <ele>11.1999998</ele>
        <time>2013-05-09T07:35:19Z</time>
      </trkpt>
      <trkpt lat="49.2354" lon="-0.26497">
        <ele>11.1999998</ele>
        <time>2013-05-09T07:35:21Z</time>
      </trkpt>
      <trkpt lat="49.23568" lon="-0.26491">
        <ele>11.1999998</ele>
        <time>2013-05-09T07:35:28Z</time>
      </trkpt>
      <trkpt lat="49.23609" lon="-0.26481">
        <ele>11.1999998</ele>
        <time>2013-05-09T07:35:37Z</time>
      </trkpt>
      <trkpt lat="49.23629" lon="-0.26479">
        <ele>11.1999998</ele>
        <time>2013-05-09T07:35:41Z</time>
      </trkpt>
      <trkpt lat="49.23639" lon="-0.2648">
        <ele>11.1999998</ele>
        <time>2013-05-09T07:35:43Z</time>
      </trkpt>
      <trkpt lat="49.2367" lon="-0.26477">
        <ele>11.1999998</ele>
        <time>2013-05-09T07:35:49Z</time>
      </trkpt>
      <trkpt lat="49.23713" lon="-0.26476">
        <ele>11.1999998</ele>
        <time>2013-05-09T07:35:57Z</time>
      </trkpt>
      <trkpt lat="49.23746" lon="-0.26469">
        <ele>11</ele>
        <time>2013-05-09T07:36:03Z</time>
      </trkpt>
      <trkpt lat="49.23751" lon="-0.26467">
        <ele>10.6000004</ele>
        <time>2013-05-09T07:36:04Z</time>
      </trkpt>
      <trkpt lat="49.23757" lon="-0.26465">
        <ele>10</ele>
        <time>2013-05-09T07:36:05Z</time>
      </trkpt>
      <trkpt lat="49.23762" lon="-0.26463">
        <ele>9.8000002</ele>
        <time>2013-05-09T07:36:06Z</time>
      </trkpt>
      <trkpt lat="49.23767" lon="-0.26461">
        <ele>9.1999998</ele>
        <time>2013-05-09T07:36:07Z</time>
      </trkpt>
      <trkpt lat="49.23776" lon="-0.26455">
        <ele>9.1999998</ele>
        <time>2013-05-09T07:36:09Z</time>
      </trkpt>
      <trkpt lat="49.23781" lon="-0.26451">
        <ele>9.1999998</ele>
        <time>2013-05-09T07:36:10Z</time>
      </trkpt>
      <trkpt lat="49.23804" lon="-0.26424">
        <ele>9.1999998</ele>
        <time>2013-05-09T07:36:15Z</time>
      </trkpt>
      <trkpt lat="49.23838" lon="-0.2641">
        <ele>9.1999998</ele>
        <time>2013-05-09T07:36:21Z</time>
      </trkpt>
      <trkpt lat="49.23843" lon="-0.26409">
        <ele>9.1999998</ele>
        <time>2013-05-09T07:36:22Z</time>
      </trkpt>
      <trkpt lat="49.2386" lon="-0.26405">
        <ele>9.1999998</ele>
        <time>2013-05-09T07:36:25Z</time>
      </trkpt>
      <trkpt lat="49.2387" lon="-0.264">
        <ele>9.1999998</ele>
        <time>2013-05-09T07:36:27Z</time>
      </trkpt>
      <trkpt lat="49.23883" lon="-0.26376">
        <ele>9.1999998</ele>
        <time>2013-05-09T07:36:31Z</time>
      </trkpt>
      <trkpt lat="49.23887" lon="-0.26349">
        <ele>9.1999998</ele>
        <time>2013-05-09T07:36:35Z</time>
      </trkpt>
      <trkpt lat="49.23887" lon="-0.26344">
        <ele>9.1999998</ele>
        <time>2013-05-09T07:36:36Z</time>
      </trkpt>
      <trkpt lat="49.23892" lon="-0.26319">
        <ele>9.1999998</ele>
        <time>2013-05-09T07:36:41Z</time>
      </trkpt>
      <trkpt lat="49.23893" lon="-0.26285">
        <ele>9.1999998</ele>
        <time>2013-05-09T07:36:47Z</time>
      </trkpt>
      <trkpt lat="49.23898" lon="-0.2625">
        <ele>9.1999998</ele>
        <time>2013-05-09T07:36:53Z</time>
      </trkpt>
      <trkpt lat="49.2389" lon="-0.26218">
        <ele>9.8000002</ele>
        <time>2013-05-09T07:36:59Z</time>
      </trkpt>
      <trkpt lat="49.23887" lon="-0.26213">
        <ele>10</ele>
        <time>2013-05-09T07:37:00Z</time>
      </trkpt>
      <trkpt lat="49.23885" lon="-0.26208">
        <ele>10.6000004</ele>
        <time>2013-05-09T07:37:01Z</time>
      </trkpt>
      <trkpt lat="49.23882" lon="-0.26204">
        <ele>11</ele>
        <time>2013-05-09T07:37:02Z</time>
      </trkpt>
      <trkpt lat="49.23879" lon="-0.262">
        <ele>11.6000004</ele>
        <time>2013-05-09T07:37:03Z</time>
      </trkpt>
      <trkpt lat="49.23872" lon="-0.26193">
        <ele>11.6000004</ele>
        <time>2013-05-09T07:37:05Z</time>
      </trkpt>
      <trkpt lat="49.23857" lon="-0.26183">
        <ele>11.6000004</ele>
        <time>2013-05-09T07:37:09Z</time>
      </trkpt>
      <trkpt lat="49.23853" lon="-0.2618">
        <ele>12</ele>
        <time>2013-05-09T07:37:10Z</time>
      </trkpt>
      <trkpt lat="49.2385" lon="-0.26177">
        <ele>12.1999998</ele>
        <time>2013-05-09T07:37:11Z</time>
      </trkpt>
      <trkpt lat="49.23846" lon="-0.26174">
        <ele>13</ele>
        <time>2013-05-09T07:37:12Z</time>
      </trkpt>
      <trkpt lat="49.23843" lon="-0.26171">
        <ele>13.6000004</ele>
        <time>2013-05-09T07:37:13Z</time>
      </trkpt>
      <trkpt lat="49.23822" lon="-0.26152">
        <ele>13.6000004</ele>
        <time>2013-05-09T07:37:19Z</time>
      </trkpt>
      <trkpt lat="49.23807" lon="-0.26141">
        <ele>14</ele>
        <time>2013-05-09T07:37:24Z</time>
      </trkpt>
      <trkpt lat="49.23805" lon="-0.26143">
        <ele>14.6000004</ele>
        <time>2013-05-09T07:37:25Z</time>
      </trkpt>
      <trkpt lat="49.23805" lon="-0.26144">
        <ele>15</ele>
        <time>2013-05-09T07:37:26Z</time>
      </trkpt>
      <trkpt lat="49.23803" lon="-0.26145">
        <ele>15.1999998</ele>
        <time>2013-05-09T07:37:27Z</time>
      </trkpt>
      <trkpt lat="49.23803" lon="-0.26145">
        <ele>15.8000002</ele>
        <time>2013-05-09T07:37:28Z</time>
      </trkpt>
      <trkpt lat="49.238" lon="-0.26148">
        <ele>15.8000002</ele>
        <time>2013-05-09T07:37:31Z</time>
      </trkpt>
      <trkpt lat="49.238" lon="-0.26161">
        <ele>15.8000002</ele>
        <time>2013-05-09T07:37:36Z</time>
      </trkpt>
      <trkpt lat="49.23795" lon="-0.26182">
        <ele>15.8000002</ele>
        <time>2013-05-09T07:37:41Z</time>
      </trkpt>
      <trkpt lat="49.23795" lon="-0.26195">
        <ele>15.8000002</ele>
        <time>2013-05-09T07:37:43Z</time>
      </trkpt>
      <trkpt lat="49.23794" lon="-0.26203">
        <ele>15.8000002</ele>
        <time>2013-05-09T07:37:44Z</time>
      </trkpt>
      <trkpt lat="49.23793" lon="-0.26211">
        <ele>15.8000002</ele>
        <time>2013-05-09T07:37:45Z</time>
      </trkpt>
      <trkpt lat="49.23787" lon="-0.26227">
        <ele>15.1999998</ele>
        <time>2013-05-09T07:37:47Z</time>
      </trkpt>
      <trkpt lat="49.23782" lon="-0.26233">
        <ele>15</ele>
        <time>2013-05-09T07:37:48Z</time>
      </trkpt>
      <trkpt lat="49.23778" lon="-0.26239">
        <ele>14.6000004</ele>
        <time>2013-05-09T07:37:49Z</time>
      </trkpt>
      <trkpt lat="49.23773" lon="-0.26245">
        <ele>14</ele>
        <time>2013-05-09T07:37:50Z</time>
      </trkpt>
      <trkpt lat="49.23769" lon="-0.2625">
        <ele>13.6000004</ele>
        <time>2013-05-09T07:37:51Z</time>
      </trkpt>
      <trkpt lat="49.23764" lon="-0.26255">
        <ele>13</ele>
        <time>2013-05-09T07:37:52Z</time>
      </trkpt>
      <trkpt lat="49.2376" lon="-0.26259">
        <ele>12.8000002</ele>
        <time>2013-05-09T07:37:53Z</time>
      </trkpt>
      <trkpt lat="49.23756" lon="-0.26264">
        <ele>12.1999998</ele>
        <time>2013-05-09T07:37:54Z</time>
      </trkpt>
      <trkpt lat="49.23751" lon="-0.2627">
        <ele>12</ele>
        <time>2013-05-09T07:37:55Z</time>
      </trkpt>
      <trkpt lat="49.23748" lon="-0.26275">
        <ele>11.6000004</ele>
        <time>2013-05-09T07:37:56Z</time>
      </trkpt>
      <trkpt lat="49.23743" lon="-0.2628">
        <ele>11.6000004</ele>
        <time>2013-05-09T07:37:58Z</time>
      </trkpt>
      <trkpt lat="49.23739" lon="-0.26283">
        <ele>11.6000004</ele>
        <time>2013-05-09T07:37:59Z</time>
      </trkpt>
      <trkpt lat="49.23732" lon="-0.26281">
        <ele>11</ele>
        <time>2013-05-09T07:38:01Z</time>
      </trkpt>
      <trkpt lat="49.23729" lon="-0.26278">
        <ele>10.1999998</ele>
        <time>2013-05-09T07:38:02Z</time>
      </trkpt>
      <trkpt lat="49.23727" lon="-0.26273">
        <ele>10</ele>
        <time>2013-05-09T07:38:03Z</time>
      </trkpt>
      <trkpt lat="49.23724" lon="-0.26266">
        <ele>9.1999998</ele>
        <time>2013-05-09T07:38:04Z</time>
      </trkpt>
      <trkpt lat="49.23722" lon="-0.26261">
        <ele>8.8000002</ele>
        <time>2013-05-09T07:38:05Z</time>
      </trkpt>
      <trkpt lat="49.23707" lon="-0.2623">
        <ele>8.8000002</ele>
        <time>2013-05-09T07:38:10Z</time>
      </trkpt>
      <trkpt lat="49.23696" lon="-0.26214">
        <ele>8.8000002</ele>
        <time>2013-05-09T07:38:13Z</time>
      </trkpt>
      <trkpt lat="49.23687" lon="-0.26204">
        <ele>8.8000002</ele>
        <time>2013-05-09T07:38:15Z</time>
      </trkpt>
      <trkpt lat="49.23668" lon="-0.2619">
        <ele>8.8000002</ele>
        <time>2013-05-09T07:38:19Z</time>
      </trkpt>
      <trkpt lat="49.23659" lon="-0.26184">
        <ele>8.8000002</ele>
        <time>2013-05-09T07:38:21Z</time>
      </trkpt>
      <trkpt lat="49.23634" lon="-0.26175">
        <ele>8.8000002</ele>
        <time>2013-05-09T07:38:26Z</time>
      </trkpt>
      <trkpt lat="49.23609" lon="-0.26168">
        <ele>8.8000002</ele>
        <time>2013-05-09T07:38:31Z</time>
      </trkpt>
      <trkpt lat="49.23568" lon="-0.26165">
        <ele>8.8000002</ele>
        <time>2013-05-09T07:38:39Z</time>
      </trkpt>
      <trkpt lat="49.23555" lon="-0.26165">
        <ele>8.8000002</ele>
        <time>2013-05-09T07:38:42Z</time>
      </trkpt>
      <trkpt lat="49.23553" lon="-0.26161">
        <ele>8.8000002</ele>
        <time>2013-05-09T07:38:43Z</time>
      </trkpt>
      <trkpt lat="49.23554" lon="-0.26146">
        <ele>8.8000002</ele>
        <time>2013-05-09T07:38:46Z</time>
      </trkpt>
      <trkpt lat="49.2355" lon="-0.26115">
        <ele>8.8000002</ele>
        <time>2013-05-09T07:38:51Z</time>
      </trkpt>
      <trkpt lat="49.23542" lon="-0.26074">
        <ele>8.8000002</ele>
        <time>2013-05-09T07:38:57Z</time>
      </trkpt>
      <trkpt lat="49.23526" lon="-0.26017">
        <ele>8.8000002</ele>
        <time>2013-05-09T07:39:05Z</time>
      </trkpt>
      <trkpt lat="49.2352" lon="-0.25977">
        <ele>9.1999998</ele>
        <time>2013-05-09T07:39:11Z</time>
      </trkpt>
      <trkpt lat="49.2352" lon="-0.2597">
        <ele>9.8000002</ele>
        <time>2013-05-09T07:39:12Z</time>
      </trkpt>
      <trkpt lat="49.23519" lon="-0.25965">
        <ele>10</ele>
        <time>2013-05-09T07:39:13Z</time>
      </trkpt>
      <trkpt lat="49.23516" lon="-0.25961">
        <ele>10.6000004</ele>
        <time>2013-05-09T07:39:14Z</time>
      </trkpt>
      <trkpt lat="49.23513" lon="-0.25958">
        <ele>11</ele>
        <time>2013-05-09T07:39:15Z</time>
      </trkpt>
      <trkpt lat="49.2351" lon="-0.25956">
        <ele>11</ele>
        <time>2013-05-09T07:39:16Z</time>
      </trkpt>
      <trkpt lat="49.23497" lon="-0.25943">
        <ele>11</ele>
        <time>2013-05-09T07:39:20Z</time>
      </trkpt>
      <trkpt lat="49.23495" lon="-0.25939">
        <ele>11</ele>
        <time>2013-05-09T07:39:21Z</time>
      </trkpt>
      <trkpt lat="49.2349" lon="-0.25929">
        <ele>11.6000004</ele>
        <time>2013-05-09T07:39:24Z</time>
      </trkpt>
      <trkpt lat="49.23489" lon="-0.25925">
        <ele>12</ele>
        <time>2013-05-09T07:39:25Z</time>
      </trkpt>
      <trkpt lat="49.23488" lon="-0.25924">
        <ele>12.1999998</ele>
        <time>2013-05-09T07:39:26Z</time>
      </trkpt>
      <trkpt lat="49.23487" lon="-0.25922">
        <ele>12.8000002</ele>
        <time>2013-05-09T07:39:27Z</time>
      </trkpt>
      <trkpt lat="49.23486" lon="-0.25921">
        <ele>13</ele>
        <time>2013-05-09T07:39:28Z</time>
      </trkpt>
      <trkpt lat="49.23485" lon="-0.25914">
        <ele>13</ele>
        <time>2013-05-09T07:39:31Z</time>
      </trkpt>
      <trkpt lat="49.23485" lon="-0.2591">
        <ele>13</ele>
        <time>2013-05-09T07:39:33Z</time>
      </trkpt>
      <trkpt lat="49.23487" lon="-0.259">
        <ele>13.6000004</ele>
        <time>2013-05-09T07:39:37Z</time>
      </trkpt>
      <trkpt lat="49.23489" lon="-0.25897">
        <ele>14</ele>
        <time>2013-05-09T07:39:38Z</time>
      </trkpt>
      <trkpt lat="49.2349" lon="-0.25894">
        <ele>14.1999998</ele>
        <time>2013-05-09T07:39:39Z</time>
      </trkpt>
      <trkpt lat="49.23492" lon="-0.2589">
        <ele>15</ele>
        <time>2013-05-09T07:39:40Z</time>
      </trkpt>
      <trkpt lat="49.23501" lon="-0.25877">
        <ele>15</ele>
        <time>2013-05-09T07:39:44Z</time>
      </trkpt>
      <trkpt lat="49.23516" lon="-0.25855">
        <ele>15</ele>
        <time>2013-05-09T07:39:51Z</time>
      </trkpt>
      <trkpt lat="49.23526" lon="-0.25837">
        <ele>15</ele>
        <time>2013-05-09T07:39:56Z</time>
      </trkpt>
      <trkpt lat="49.23544" lon="-0.25818">
        <ele>15</ele>
        <time>2013-05-09T07:40:02Z</time>
      </trkpt>
      <trkpt lat="49.23562" lon="-0.25797">
        <ele>15</ele>
        <time>2013-05-09T07:40:08Z</time>
      </trkpt>
      <trkpt lat="49.23581" lon="-0.25782">
        <ele>15</ele>
        <time>2013-05-09T07:40:14Z</time>
      </trkpt>
      <trkpt lat="49.23587" lon="-0.25778">
        <ele>15</ele>
        <time>2013-05-09T07:40:17Z</time>
      </trkpt>
      <trkpt lat="49.23587" lon="-0.25776">
        <ele>15</ele>
        <time>2013-05-09T07:40:19Z</time>
      </trkpt>
      <trkpt lat="49.23588" lon="-0.25776">
        <ele>17.2000008</ele>
        <time>2013-05-09T07:40:57Z</time>
      </trkpt>
      <trkpt lat="49.23589" lon="-0.25776">
        <ele>17.2000008</ele>
        <time>2013-05-09T07:40:58Z</time>
      </trkpt>
      <trkpt lat="49.23593" lon="-0.25772">
        <ele>17.2000008</ele>
        <time>2013-05-09T07:41:01Z</time>
      </trkpt>
      <trkpt lat="49.236" lon="-0.25765">
        <ele>17.2000008</ele>
        <time>2013-05-09T07:41:06Z</time>
      </trkpt>
      <trkpt lat="49.23602" lon="-0.25763">
        <ele>17.2000008</ele>
        <time>2013-05-09T07:41:07Z</time>
      </trkpt>
      <trkpt lat="49.2362" lon="-0.25753">
        <ele>17.2000008</ele>
        <time>2013-05-09T07:41:14Z</time>
      </trkpt>
      <trkpt lat="49.23644" lon="-0.25741">
        <ele>17.2000008</ele>
        <time>2013-05-09T07:41:21Z</time>
      </trkpt>
      <trkpt lat="49.23666" lon="-0.25734">
        <ele>17.6000004</ele>
        <time>2013-05-09T07:41:27Z</time>
      </trkpt>
      <trkpt lat="49.2367" lon="-0.25732">
        <ele>18.2000008</ele>
        <time>2013-05-09T07:41:28Z</time>
      </trkpt>
      <trkpt lat="49.23674" lon="-0.25731">
        <ele>18.6000004</ele>
        <time>2013-05-09T07:41:29Z</time>
      </trkpt>
      <trkpt lat="49.23677" lon="-0.2573">
        <ele>19.2000008</ele>
        <time>2013-05-09T07:41:30Z</time>
      </trkpt>
      <trkpt lat="49.23681" lon="-0.2573">
        <ele>19.6000004</ele>
        <time>2013-05-09T07:41:31Z</time>
      </trkpt>
      <trkpt lat="49.23704" lon="-0.25728">
        <ele>20</ele>
        <time>2013-05-09T07:41:37Z</time>
      </trkpt>
      <trkpt lat="49.23708" lon="-0.25729">
        <ele>20.2000008</ele>
        <time>2013-05-09T07:41:38Z</time>
      </trkpt>
      <trkpt lat="49.23712" lon="-0.25729">
        <ele>20.6000004</ele>
        <time>2013-05-09T07:41:39Z</time>
      </trkpt>
      <trkpt lat="49.23716" lon="-0.25729">
        <ele>21.2000008</ele>
        <time>2013-05-09T07:41:40Z</time>
      </trkpt>
      <trkpt lat="49.2372" lon="-0.2573">
        <ele>21.6000004</ele>
        <time>2013-05-09T07:41:41Z</time>
      </trkpt>
      <trkpt lat="49.23728" lon="-0.2573">
        <ele>22.2000008</ele>
        <time>2013-05-09T07:41:43Z</time>
      </trkpt>
      <trkpt lat="49.23732" lon="-0.25729">
        <ele>22.6000004</ele>
        <time>2013-05-09T07:41:44Z</time>
      </trkpt>
      <trkpt lat="49.23736" lon="-0.2573">
        <ele>23</ele>
        <time>2013-05-09T07:41:45Z</time>
      </trkpt>
      <trkpt lat="49.2374" lon="-0.25729">
        <ele>23.2000008</ele>
        <time>2013-05-09T07:41:46Z</time>
      </trkpt>
      <trkpt lat="49.23744" lon="-0.25729">
        <ele>23.6000004</ele>
        <time>2013-05-09T07:41:47Z</time>
      </trkpt>
      <trkpt lat="49.23768" lon="-0.25723">
        <ele>24.2000008</ele>
        <time>2013-05-09T07:41:53Z</time>
      </trkpt>
      <trkpt lat="49.23773" lon="-0.25722">
        <ele>24.6000004</ele>
        <time>2013-05-09T07:41:54Z</time>
      </trkpt>
      <trkpt lat="49.23777" lon="-0.2572">
        <ele>25.2000008</ele>
        <time>2013-05-09T07:41:55Z</time>
      </trkpt>
      <trkpt lat="49.23781" lon="-0.25718">
        <ele>25.6000004</ele>
        <time>2013-05-09T07:41:56Z</time>
      </trkpt>
      <trkpt lat="49.23785" lon="-0.25716">
        <ele>26</ele>
        <time>2013-05-09T07:41:57Z</time>
      </trkpt>
      <trkpt lat="49.23801" lon="-0.25705">
        <ele>26</ele>
        <time>2013-05-09T07:42:01Z</time>
      </trkpt>
      <trkpt lat="49.23826" lon="-0.25682">
        <ele>26.6000004</ele>
        <time>2013-05-09T07:42:08Z</time>
      </trkpt>
      <trkpt lat="49.2383" lon="-0.25678">
        <ele>27.2000008</ele>
        <time>2013-05-09T07:42:09Z</time>
      </trkpt>
      <trkpt lat="49.23833" lon="-0.25675">
        <ele>27.6000004</ele>
        <time>2013-05-09T07:42:10Z</time>
      </trkpt>
      <trkpt lat="49.23837" lon="-0.25672">
        <ele>28</ele>
        <time>2013-05-09T07:42:11Z</time>
      </trkpt>
      <trkpt lat="49.23857" lon="-0.25652">
        <ele>28</ele>
        <time>2013-05-09T07:42:17Z</time>
      </trkpt>
      <trkpt lat="49.23889" lon="-0.25617">
        <ele>28</ele>
        <time>2013-05-09T07:42:27Z</time>
      </trkpt>
      <trkpt lat="49.23919" lon="-0.25587">
        <ele>28</ele>
        <time>2013-05-09T07:42:36Z</time>
      </trkpt>
      <trkpt lat="49.23932" lon="-0.25573">
        <ele>28.2000008</ele>
        <time>2013-05-09T07:42:40Z</time>
      </trkpt>
      <trkpt lat="49.23935" lon="-0.2557">
        <ele>29</ele>
        <time>2013-05-09T07:42:41Z</time>
      </trkpt>
      <trkpt lat="49.23939" lon="-0.25567">
        <ele>29.2000008</ele>
        <time>2013-05-09T07:42:42Z</time>
      </trkpt>
      <trkpt lat="49.23942" lon="-0.25563">
        <ele>29.6000004</ele>
        <time>2013-05-09T07:42:43Z</time>
      </trkpt>
      <trkpt lat="49.23946" lon="-0.2556">
        <ele>30.2000008</ele>
        <time>2013-05-09T07:42:44Z</time>
      </trkpt>
      <trkpt lat="49.23974" lon="-0.25532">
        <ele>30.2000008</ele>
        <time>2013-05-09T07:42:52Z</time>
      </trkpt>
      <trkpt lat="49.24006" lon="-0.25501">
        <ele>30.2000008</ele>
        <time>2013-05-09T07:43:01Z</time>
      </trkpt>
      <trkpt lat="49.24017" lon="-0.25492">
        <ele>30.2000008</ele>
        <time>2013-05-09T07:43:04Z</time>
      </trkpt>
      <trkpt lat="49.2402" lon="-0.25479">
        <ele>30.2000008</ele>
        <time>2013-05-09T07:43:06Z</time>
      </trkpt>
      <trkpt lat="49.24014" lon="-0.25463">
        <ele>30.2000008</ele>
        <time>2013-05-09T07:43:09Z</time>
      </trkpt>
      <trkpt lat="49.24002" lon="-0.25433">
        <ele>30.2000008</ele>
        <time>2013-05-09T07:43:15Z</time>
      </trkpt>
      <trkpt lat="49.2399" lon="-0.25405">
        <ele>30.2000008</ele>
        <time>2013-05-09T07:43:21Z</time>
      </trkpt>
      <trkpt lat="49.23985" lon="-0.25394">
        <ele>30.2000008</ele>
        <time>2013-05-09T07:43:23Z</time>
      </trkpt>
      <trkpt lat="49.23979" lon="-0.25378">
        <ele>30.2000008</ele>
        <time>2013-05-09T07:43:26Z</time>
      </trkpt>
      <trkpt lat="49.23973" lon="-0.25361">
        <ele>30.2000008</ele>
        <time>2013-05-09T07:43:29Z</time>
      </trkpt>
      <trkpt lat="49.23967" lon="-0.25343">
        <ele>30.2000008</ele>
        <time>2013-05-09T07:43:32Z</time>
      </trkpt>
      <trkpt lat="49.23965" lon="-0.25337">
        <ele>30.2000008</ele>
        <time>2013-05-09T07:43:33Z</time>
      </trkpt>
      <trkpt lat="49.23949" lon="-0.25295">
        <ele>30.2000008</ele>
        <time>2013-05-09T07:43:40Z</time>
      </trkpt>
      <trkpt lat="49.23933" lon="-0.25249">
        <ele>30.2000008</ele>
        <time>2013-05-09T07:43:48Z</time>
      </trkpt>
      <trkpt lat="49.23916" lon="-0.25206">
        <ele>30.2000008</ele>
        <time>2013-05-09T07:43:56Z</time>
      </trkpt>
      <trkpt lat="49.23901" lon="-0.25165">
        <ele>30.2000008</ele>
        <time>2013-05-09T07:44:04Z</time>
      </trkpt>
      <trkpt lat="49.23886" lon="-0.25122">
        <ele>30.2000008</ele>
        <time>2013-05-09T07:44:12Z</time>
      </trkpt>
      <trkpt lat="49.23871" lon="-0.25081">
        <ele>30.2000008</ele>
        <time>2013-05-09T07:44:19Z</time>
      </trkpt>
      <trkpt lat="49.23852" lon="-0.25027">
        <ele>30.2000008</ele>
        <time>2013-05-09T07:44:28Z</time>
      </trkpt>
      <trkpt lat="49.23835" lon="-0.24983">
        <ele>30.2000008</ele>
        <time>2013-05-09T07:44:35Z</time>
      </trkpt>
      <trkpt lat="49.23832" lon="-0.24977">
        <ele>29.6000004</ele>
        <time>2013-05-09T07:44:36Z</time>
      </trkpt>
      <trkpt lat="49.2383" lon="-0.24971">
        <ele>29.2000008</ele>
        <time>2013-05-09T07:44:37Z</time>
      </trkpt>
      <trkpt lat="49.23828" lon="-0.24965">
        <ele>28.6000004</ele>
        <time>2013-05-09T07:44:38Z</time>
      </trkpt>
      <trkpt lat="49.23826" lon="-0.24958">
        <ele>28.2000008</ele>
        <time>2013-05-09T07:44:39Z</time>
      </trkpt>
      <trkpt lat="49.23824" lon="-0.24952">
        <ele>28</ele>
        <time>2013-05-09T07:44:40Z</time>
      </trkpt>
      <trkpt lat="49.23815" lon="-0.24928">
        <ele>28</ele>
        <time>2013-05-09T07:44:44Z</time>
      </trkpt>
      <trkpt lat="49.23793" lon="-0.24868">
        <ele>28</ele>
        <time>2013-05-09T07:44:54Z</time>
      </trkpt>
      <trkpt lat="49.23779" lon="-0.24828">
        <ele>28</ele>
        <time>2013-05-09T07:45:01Z</time>
      </trkpt>
      <trkpt lat="49.23768" lon="-0.24801">
        <ele>28</ele>
        <time>2013-05-09T07:45:07Z</time>
      </trkpt>
      <trkpt lat="49.23763" lon="-0.24774">
        <ele>28</ele>
        <time>2013-05-09T07:45:13Z</time>
      </trkpt>
      <trkpt lat="49.23765" lon="-0.24769">
        <ele>28</ele>
        <time>2013-05-09T07:45:14Z</time>
      </trkpt>
      <trkpt lat="49.23775" lon="-0.2476">
        <ele>28</ele>
        <time>2013-05-09T07:45:17Z</time>
      </trkpt>
      <trkpt lat="49.23778" lon="-0.24757">
        <ele>28</ele>
        <time>2013-05-09T07:45:18Z</time>
      </trkpt>
      <trkpt lat="49.23785" lon="-0.24751">
        <ele>28</ele>
        <time>2013-05-09T07:45:20Z</time>
      </trkpt>
      <trkpt lat="49.23804" lon="-0.24735">
        <ele>28</ele>
        <time>2013-05-09T07:45:25Z</time>
      </trkpt>
      <trkpt lat="49.23846" lon="-0.24701">
        <ele>28</ele>
        <time>2013-05-09T07:45:35Z</time>
      </trkpt>
      <trkpt lat="49.2387" lon="-0.24681">
        <ele>28.2000008</ele>
        <time>2013-05-09T07:45:41Z</time>
      </trkpt>
      <trkpt lat="49.23874" lon="-0.24678">
        <ele>28.6000004</ele>
        <time>2013-05-09T07:45:42Z</time>
      </trkpt>
      <trkpt lat="49.23878" lon="-0.24675">
        <ele>29.2000008</ele>
        <time>2013-05-09T07:45:43Z</time>
      </trkpt>
      <trkpt lat="49.23882" lon="-0.24671">
        <ele>29.6000004</ele>
        <time>2013-05-09T07:45:44Z</time>
      </trkpt>
      <trkpt lat="49.23886" lon="-0.24668">
        <ele>30.2000008</ele>
        <time>2013-05-09T07:45:45Z</time>
      </trkpt>
      <trkpt lat="49.23915" lon="-0.24645">
        <ele>30.2000008</ele>
        <time>2013-05-09T07:45:52Z</time>
      </trkpt>
      <trkpt lat="49.23948" lon="-0.24618">
        <ele>30.6000004</ele>
        <time>2013-05-09T07:46:00Z</time>
      </trkpt>
      <trkpt lat="49.23952" lon="-0.24615">
        <ele>31</ele>
        <time>2013-05-09T07:46:01Z</time>
      </trkpt>
      <trkpt lat="49.23956" lon="-0.24612">
        <ele>31.2000008</ele>
        <time>2013-05-09T07:46:02Z</time>
      </trkpt>
      <trkpt lat="49.23961" lon="-0.24608">
        <ele>31.6000004</ele>
        <time>2013-05-09T07:46:03Z</time>
      </trkpt>
      <trkpt lat="49.23965" lon="-0.24605">
        <ele>32.2000008</ele>
        <time>2013-05-09T07:46:04Z</time>
      </trkpt>
      <trkpt lat="49.23991" lon="-0.24585">
        <ele>32.2000008</ele>
        <time>2013-05-09T07:46:10Z</time>
      </trkpt>
      <trkpt lat="49.24021" lon="-0.24559">
        <ele>32.2000008</ele>
        <time>2013-05-09T07:46:17Z</time>
      </trkpt>
      <trkpt lat="49.24035" lon="-0.24547">
        <ele>32.4000015</ele>
        <time>2013-05-09T07:46:20Z</time>
      </trkpt>
      <trkpt lat="49.24039" lon="-0.24543">
        <ele>33</ele>
        <time>2013-05-09T07:46:21Z</time>
      </trkpt>
      <trkpt lat="49.24044" lon="-0.24539">
        <ele>33.4000015</ele>
        <time>2013-05-09T07:46:22Z</time>
      </trkpt>
      <trkpt lat="49.24049" lon="-0.24535">
        <ele>33.5999985</ele>
        <time>2013-05-09T07:46:23Z</time>
      </trkpt>
      <trkpt lat="49.24053" lon="-0.24531">
        <ele>34.2000008</ele>
        <time>2013-05-09T07:46:24Z</time>
      </trkpt>
      <trkpt lat="49.24058" lon="-0.24528">
        <ele>34.2000008</ele>
        <time>2013-05-09T07:46:25Z</time>
      </trkpt>
      <trkpt lat="49.24088" lon="-0.24505">
        <ele>34.2000008</ele>
        <time>2013-05-09T07:46:32Z</time>
      </trkpt>
      <trkpt lat="49.24126" lon="-0.24485">
        <ele>34.2000008</ele>
        <time>2013-05-09T07:46:39Z</time>
      </trkpt>
      <trkpt lat="49.24166" lon="-0.24463">
        <ele>34.2000008</ele>
        <time>2013-05-09T07:46:47Z</time>
      </trkpt>
      <trkpt lat="49.24212" lon="-0.24442">
        <ele>34.2000008</ele>
        <time>2013-05-09T07:46:55Z</time>
      </trkpt>
      <trkpt lat="49.24256" lon="-0.24421">
        <ele>34.2000008</ele>
        <time>2013-05-09T07:47:03Z</time>
      </trkpt>
      <trkpt lat="49.24293" lon="-0.24402">
        <ele>34.2000008</ele>
        <time>2013-05-09T07:47:10Z</time>
      </trkpt>
      <trkpt lat="49.24298" lon="-0.244">
        <ele>34.4000015</ele>
        <time>2013-05-09T07:47:11Z</time>
      </trkpt>
      <trkpt lat="49.24304" lon="-0.24397">
        <ele>35</ele>
        <time>2013-05-09T07:47:12Z</time>
      </trkpt>
      <trkpt lat="49.24309" lon="-0.24395">
        <ele>35.4000015</ele>
        <time>2013-05-09T07:47:13Z</time>
      </trkpt>
      <trkpt lat="49.24314" lon="-0.24392">
        <ele>35.5999985</ele>
        <time>2013-05-09T07:47:14Z</time>
      </trkpt>
      <trkpt lat="49.2432" lon="-0.2439">
        <ele>36.2000008</ele>
        <time>2013-05-09T07:47:15Z</time>
      </trkpt>
      <trkpt lat="49.24335" lon="-0.24382">
        <ele>36.2000008</ele>
        <time>2013-05-09T07:47:18Z</time>
      </trkpt>
      <trkpt lat="49.24374" lon="-0.24362">
        <ele>36.2000008</ele>
        <time>2013-05-09T07:47:26Z</time>
      </trkpt>
      <trkpt lat="49.24384" lon="-0.24354">
        <ele>36.2000008</ele>
        <time>2013-05-09T07:47:29Z</time>
      </trkpt>
      <trkpt lat="49.24385" lon="-0.24347">
        <ele>36.2000008</ele>
        <time>2013-05-09T07:47:30Z</time>
      </trkpt>
      <trkpt lat="49.24382" lon="-0.24327">
        <ele>36.2000008</ele>
        <time>2013-05-09T07:47:33Z</time>
      </trkpt>
      <trkpt lat="49.2438" lon="-0.24321">
        <ele>36.2000008</ele>
        <time>2013-05-09T07:47:34Z</time>
      </trkpt>
      <trkpt lat="49.24379" lon="-0.24313">
        <ele>36.4000015</ele>
        <time>2013-05-09T07:47:35Z</time>
      </trkpt>
      <trkpt lat="49.24378" lon="-0.24306">
        <ele>37</ele>
        <time>2013-05-09T07:47:36Z</time>
      </trkpt>
      <trkpt lat="49.24377" lon="-0.24299">
        <ele>37.4000015</ele>
        <time>2013-05-09T07:47:37Z</time>
      </trkpt>
      <trkpt lat="49.24376" lon="-0.24292">
        <ele>37.5999985</ele>
        <time>2013-05-09T07:47:38Z</time>
      </trkpt>
      <trkpt lat="49.24375" lon="-0.24286">
        <ele>38.2000008</ele>
        <time>2013-05-09T07:47:39Z</time>
      </trkpt>
      <trkpt lat="49.24369" lon="-0.24247">
        <ele>38.2000008</ele>
        <time>2013-05-09T07:47:45Z</time>
      </trkpt>
      <trkpt lat="49.24367" lon="-0.24235">
        <ele>38.2000008</ele>
        <time>2013-05-09T07:47:47Z</time>
      </trkpt>
      <trkpt lat="49.24372" lon="-0.2421">
        <ele>38.2000008</ele>
        <time>2013-05-09T07:47:51Z</time>
      </trkpt>
      <trkpt lat="49.2438" lon="-0.24192">
        <ele>38.2000008</ele>
        <time>2013-05-09T07:47:54Z</time>
      </trkpt>
      <trkpt lat="49.24388" lon="-0.24175">
        <ele>38.2000008</ele>
        <time>2013-05-09T07:47:57Z</time>
      </trkpt>
      <trkpt lat="49.24412" lon="-0.24121">
        <ele>38.2000008</ele>
        <time>2013-05-09T07:48:06Z</time>
      </trkpt>
      <trkpt lat="49.24439" lon="-0.24064">
        <ele>38.2000008</ele>
        <time>2013-05-09T07:48:15Z</time>
      </trkpt>
      <trkpt lat="49.24447" lon="-0.24045">
        <ele>38.4000015</ele>
        <time>2013-05-09T07:48:18Z</time>
      </trkpt>
      <trkpt lat="49.2445" lon="-0.24039">
        <ele>39</ele>
        <time>2013-05-09T07:48:19Z</time>
      </trkpt>
      <trkpt lat="49.24452" lon="-0.24034">
        <ele>39.4000015</ele>
        <time>2013-05-09T07:48:20Z</time>
      </trkpt>
      <trkpt lat="49.24455" lon="-0.24028">
        <ele>39.5999985</ele>
        <time>2013-05-09T07:48:21Z</time>
      </trkpt>
      <trkpt lat="49.24458" lon="-0.24022">
        <ele>40.2000008</ele>
        <time>2013-05-09T07:48:22Z</time>
      </trkpt>
      <trkpt lat="49.2447" lon="-0.23993">
        <ele>40.2000008</ele>
        <time>2013-05-09T07:48:28Z</time>
      </trkpt>
      <trkpt lat="49.24473" lon="-0.23993">
        <ele>40.2000008</ele>
        <time>2013-05-09T07:48:29Z</time>
      </trkpt>
      <trkpt lat="49.24477" lon="-0.23998">
        <ele>40.2000008</ele>
        <time>2013-05-09T07:48:31Z</time>
      </trkpt>
      <trkpt lat="49.2448" lon="-0.24014">
        <ele>40.2000008</ele>
        <time>2013-05-09T07:48:34Z</time>
      </trkpt>
      <trkpt lat="49.24488" lon="-0.24051">
        <ele>40.2000008</ele>
        <time>2013-05-09T07:48:40Z</time>
      </trkpt>
      <trkpt lat="49.24502" lon="-0.24112">
        <ele>40.2000008</ele>
        <time>2013-05-09T07:48:49Z</time>
      </trkpt>
      <trkpt lat="49.24508" lon="-0.24138">
        <ele>40.2000008</ele>
        <time>2013-05-09T07:48:53Z</time>
      </trkpt>
      <trkpt lat="49.24512" lon="-0.24152">
        <ele>40.2000008</ele>
        <time>2013-05-09T07:48:55Z</time>
      </trkpt>
      <trkpt lat="49.24526" lon="-0.24197">
        <ele>40.2000008</ele>
        <time>2013-05-09T07:49:02Z</time>
      </trkpt>
      <trkpt lat="49.24544" lon="-0.24245">
        <ele>40.2000008</ele>
        <time>2013-05-09T07:49:10Z</time>
      </trkpt>
      <trkpt lat="49.24549" lon="-0.24256">
        <ele>39.5999985</ele>
        <time>2013-05-09T07:49:12Z</time>
      </trkpt>
      <trkpt lat="49.24552" lon="-0.24262">
        <ele>39.4000015</ele>
        <time>2013-05-09T07:49:13Z</time>
      </trkpt>
      <trkpt lat="49.24554" lon="-0.24268">
        <ele>39</ele>
        <time>2013-05-09T07:49:14Z</time>
      </trkpt>
      <trkpt lat="49.24557" lon="-0.24274">
        <ele>38.4000015</ele>
        <time>2013-05-09T07:49:15Z</time>
      </trkpt>
      <trkpt lat="49.24559" lon="-0.24279">
        <ele>38.2000008</ele>
        <time>2013-05-09T07:49:16Z</time>
      </trkpt>
      <trkpt lat="49.24564" lon="-0.24291">
        <ele>38.2000008</ele>
        <time>2013-05-09T07:49:18Z</time>
      </trkpt>
      <trkpt lat="49.24582" lon="-0.24333">
        <ele>38.2000008</ele>
        <time>2013-05-09T07:49:25Z</time>
      </trkpt>
      <trkpt lat="49.24585" lon="-0.24337">
        <ele>38.2000008</ele>
        <time>2013-05-09T07:49:26Z</time>
      </trkpt>
      <trkpt lat="49.24596" lon="-0.24361">
        <ele>37.5999985</ele>
        <time>2013-05-09T07:49:31Z</time>
      </trkpt>
      <trkpt lat="49.24598" lon="-0.24366">
        <ele>37</ele>
        <time>2013-05-09T07:49:32Z</time>
      </trkpt>
      <trkpt lat="49.246" lon="-0.24371">
        <ele>36.4000015</ele>
        <time>2013-05-09T07:49:33Z</time>
      </trkpt>
      <trkpt lat="49.24603" lon="-0.24377">
        <ele>36.2000008</ele>
        <time>2013-05-09T07:49:34Z</time>
      </trkpt>
      <trkpt lat="49.24615" lon="-0.24402">
        <ele>36.2000008</ele>
        <time>2013-05-09T07:49:38Z</time>
      </trkpt>
      <trkpt lat="49.24641" lon="-0.24451">
        <ele>36.2000008</ele>
        <time>2013-05-09T07:49:46Z</time>
      </trkpt>
      <trkpt lat="49.24655" lon="-0.24477">
        <ele>36.2000008</ele>
        <time>2013-05-09T07:49:51Z</time>
      </trkpt>
      <trkpt lat="49.2466" lon="-0.24485">
        <ele>36.2000008</ele>
        <time>2013-05-09T07:49:53Z</time>
      </trkpt>
      <trkpt lat="49.24679" lon="-0.24519">
        <ele>36.2000008</ele>
        <time>2013-05-09T07:50:00Z</time>
      </trkpt>
      <trkpt lat="49.24687" lon="-0.24536">
        <ele>35.5999985</ele>
        <time>2013-05-09T07:50:03Z</time>
      </trkpt>
      <trkpt lat="49.24689" lon="-0.2454">
        <ele>35.4000015</ele>
        <time>2013-05-09T07:50:04Z</time>
      </trkpt>
      <trkpt lat="49.24692" lon="-0.24546">
        <ele>34.5999985</ele>
        <time>2013-05-09T07:50:05Z</time>
      </trkpt>
      <trkpt lat="49.24694" lon="-0.24552">
        <ele>34.4000015</ele>
        <time>2013-05-09T07:50:06Z</time>
      </trkpt>
      <trkpt lat="49.24696" lon="-0.24557">
        <ele>34</ele>
        <time>2013-05-09T07:50:07Z</time>
      </trkpt>
      <trkpt lat="49.24712" lon="-0.24593">
        <ele>34</ele>
        <time>2013-05-09T07:50:13Z</time>
      </trkpt>
      <trkpt lat="49.24732" lon="-0.24652">
        <ele>34</ele>
        <time>2013-05-09T07:50:22Z</time>
      </trkpt>
      <trkpt lat="49.24744" lon="-0.24691">
        <ele>34</ele>
        <time>2013-05-09T07:50:29Z</time>
      </trkpt>
      <trkpt lat="49.24751" lon="-0.24724">
        <ele>34</ele>
        <time>2013-05-09T07:50:35Z</time>
      </trkpt>
      <trkpt lat="49.24759" lon="-0.24749">
        <ele>34</ele>
        <time>2013-05-09T07:50:41Z</time>
      </trkpt>
      <trkpt lat="49.24762" lon="-0.24757">
        <ele>33.4000015</ele>
        <time>2013-05-09T07:50:43Z</time>
      </trkpt>
      <trkpt lat="49.24764" lon="-0.2476">
        <ele>33.2000008</ele>
        <time>2013-05-09T07:50:44Z</time>
      </trkpt>
      <trkpt lat="49.24765" lon="-0.24764">
        <ele>32.4000015</ele>
        <time>2013-05-09T07:50:45Z</time>
      </trkpt>
      <trkpt lat="49.24766" lon="-0.24767">
        <ele>32.2000008</ele>
        <time>2013-05-09T07:50:46Z</time>
      </trkpt>
      <trkpt lat="49.24766" lon="-0.24769">
        <ele>31.6000004</ele>
        <time>2013-05-09T07:50:47Z</time>
      </trkpt>
      <trkpt lat="49.24767" lon="-0.24771">
        <ele>31.6000004</ele>
        <time>2013-05-09T07:50:48Z</time>
      </trkpt>
      <trkpt lat="49.24768" lon="-0.24774">
        <ele>31.6000004</ele>
        <time>2013-05-09T07:50:52Z</time>
      </trkpt>
      <trkpt lat="49.2477" lon="-0.24777">
        <ele>31.6000004</ele>
        <time>2013-05-09T07:50:56Z</time>
      </trkpt>
      <trkpt lat="49.2477" lon="-0.2478">
        <ele>31.6000004</ele>
        <time>2013-05-09T07:50:57Z</time>
      </trkpt>
      <trkpt lat="49.24773" lon="-0.24791">
        <ele>31.6000004</ele>
        <time>2013-05-09T07:51:00Z</time>
      </trkpt>
      <trkpt lat="49.24785" lon="-0.24821">
        <ele>31.6000004</ele>
        <time>2013-05-09T07:51:06Z</time>
      </trkpt>
      <trkpt lat="49.24799" lon="-0.2486">
        <ele>31.6000004</ele>
        <time>2013-05-09T07:51:13Z</time>
      </trkpt>
      <trkpt lat="49.24804" lon="-0.24877">
        <ele>31.2000008</ele>
        <time>2013-05-09T07:51:16Z</time>
      </trkpt>
      <trkpt lat="49.24807" lon="-0.24883">
        <ele>31</ele>
        <time>2013-05-09T07:51:17Z</time>
      </trkpt>
      <trkpt lat="49.24809" lon="-0.24889">
        <ele>30.6000004</ele>
        <time>2013-05-09T07:51:18Z</time>
      </trkpt>
      <trkpt lat="49.24812" lon="-0.24895">
        <ele>30.2000008</ele>
        <time>2013-05-09T07:51:19Z</time>
      </trkpt>
      <trkpt lat="49.24814" lon="-0.24901">
        <ele>29.6000004</ele>
        <time>2013-05-09T07:51:20Z</time>
      </trkpt>
      <trkpt lat="49.24819" lon="-0.24914">
        <ele>29.6000004</ele>
        <time>2013-05-09T07:51:22Z</time>
      </trkpt>
      <trkpt lat="49.24834" lon="-0.24954">
        <ele>29.6000004</ele>
        <time>2013-05-09T07:51:28Z</time>
      </trkpt>
      <trkpt lat="49.24839" lon="-0.24968">
        <ele>29.6000004</ele>
        <time>2013-05-09T07:51:30Z</time>
      </trkpt>
      <trkpt lat="49.24844" lon="-0.24982">
        <ele>29.6000004</ele>
        <time>2013-05-09T07:51:32Z</time>
      </trkpt>
      <trkpt lat="49.24847" lon="-0.24988">
        <ele>29.2000008</ele>
        <time>2013-05-09T07:51:33Z</time>
      </trkpt>
      <trkpt lat="49.2485" lon="-0.24995">
        <ele>29</ele>
        <time>2013-05-09T07:51:34Z</time>
      </trkpt>
      <trkpt lat="49.24853" lon="-0.25">
        <ele>28.6000004</ele>
        <time>2013-05-09T07:51:35Z</time>
      </trkpt>
      <trkpt lat="49.24855" lon="-0.25005">
        <ele>27.6000004</ele>
        <time>2013-05-09T07:51:36Z</time>
      </trkpt>
      <trkpt lat="49.24856" lon="-0.25016">
        <ele>27.2000008</ele>
        <time>2013-05-09T07:51:39Z</time>
      </trkpt>
      <trkpt lat="49.24853" lon="-0.25018">
        <ele>26.6000004</ele>
        <time>2013-05-09T07:51:40Z</time>
      </trkpt>
      <trkpt lat="49.2485" lon="-0.2502">
        <ele>26.2000008</ele>
        <time>2013-05-09T07:51:41Z</time>
      </trkpt>
      <trkpt lat="49.24846" lon="-0.25022">
        <ele>26</ele>
        <time>2013-05-09T07:51:42Z</time>
      </trkpt>
      <trkpt lat="49.24843" lon="-0.25024">
        <ele>25.6000004</ele>
        <time>2013-05-09T07:51:43Z</time>
      </trkpt>
      <trkpt lat="49.2484" lon="-0.25026">
        <ele>25.6000004</ele>
        <time>2013-05-09T07:51:44Z</time>
      </trkpt>
      <trkpt lat="49.24829" lon="-0.25036">
        <ele>25.6000004</ele>
        <time>2013-05-09T07:51:49Z</time>
      </trkpt>
      <trkpt lat="49.24825" lon="-0.25045">
        <ele>25.6000004</ele>
        <time>2013-05-09T07:51:52Z</time>
      </trkpt>
      <trkpt lat="49.24824" lon="-0.25057">
        <ele>25.6000004</ele>
        <time>2013-05-09T07:51:54Z</time>
      </trkpt>
      <trkpt lat="49.24826" lon="-0.25073">
        <ele>25.2000008</ele>
        <time>2013-05-09T07:51:59Z</time>
      </trkpt>
      <trkpt lat="49.24826" lon="-0.25072">
        <ele>24.6000004</ele>
        <time>2013-05-09T07:52:00Z</time>
      </trkpt>
      <trkpt lat="49.24827" lon="-0.25072">
        <ele>23.2000008</ele>
        <time>2013-05-09T07:52:16Z</time>
      </trkpt>
      <trkpt lat="49.24826" lon="-0.25073">
        <ele>23.2000008</ele>
        <time>2013-05-09T07:52:17Z</time>
      </trkpt>
      <trkpt lat="49.24827" lon="-0.25073">
        <ele>23.2000008</ele>
        <time>2013-05-09T07:52:18Z</time>
      </trkpt>
      <trkpt lat="49.2483" lon="-0.25075">
        <ele>23.2000008</ele>
        <time>2013-05-09T07:52:24Z</time>
      </trkpt>
      <trkpt lat="49.24832" lon="-0.25075">
        <ele>22.6000004</ele>
        <time>2013-05-09T07:52:28Z</time>
      </trkpt>
      <trkpt lat="49.24833" lon="-0.25075">
        <ele>22.2000008</ele>
        <time>2013-05-09T07:52:29Z</time>
      </trkpt>
      <trkpt lat="49.24833" lon="-0.25075">
        <ele>21.6000004</ele>
        <time>2013-05-09T07:52:30Z</time>
      </trkpt>
      <trkpt lat="49.24833" lon="-0.25075">
        <ele>21.2000008</ele>
        <time>2013-05-09T07:52:31Z</time>
      </trkpt>
      <trkpt lat="49.24834" lon="-0.25076">
        <ele>21.2000008</ele>
        <time>2013-05-09T07:52:51Z</time>
      </trkpt>
      <trkpt lat="49.24835" lon="-0.25076">
        <ele>21.2000008</ele>
        <time>2013-05-09T07:52:52Z</time>
      </trkpt>
      <trkpt lat="49.24835" lon="-0.25076">
        <ele>21.2000008</ele>
        <time>2013-05-09T07:52:53Z</time>
      </trkpt>
      <trkpt lat="49.24836" lon="-0.25078">
        <ele>21.2000008</ele>
        <time>2013-05-09T07:52:55Z</time>
      </trkpt>
      <trkpt lat="49.24836" lon="-0.25079">
        <ele>21</ele>
        <time>2013-05-09T07:52:57Z</time>
      </trkpt>
      <trkpt lat="49.24836" lon="-0.2508">
        <ele>20.6000004</ele>
        <time>2013-05-09T07:52:58Z</time>
      </trkpt>
      <trkpt lat="49.24837" lon="-0.25082">
        <ele>20.2000008</ele>
        <time>2013-05-09T07:52:59Z</time>
      </trkpt>
      <trkpt lat="49.24838" lon="-0.25082">
        <ele>19.6000004</ele>
        <time>2013-05-09T07:53:00Z</time>
      </trkpt>
      <trkpt lat="49.24839" lon="-0.25083">
        <ele>19.2000008</ele>
        <time>2013-05-09T07:53:01Z</time>
      </trkpt>
      <trkpt lat="49.24839" lon="-0.25087">
        <ele>19</ele>
        <time>2013-05-09T07:53:05Z</time>
      </trkpt>
      <trkpt lat="49.24839" lon="-0.25088">
        <ele>18</ele>
        <time>2013-05-09T07:53:07Z</time>
      </trkpt>
      <trkpt lat="49.24839" lon="-0.25088">
        <ele>17.6000004</ele>
        <time>2013-05-09T07:53:08Z</time>
      </trkpt>
      <trkpt lat="49.2484" lon="-0.2509">
        <ele>16</ele>
        <time>2013-05-09T07:53:25Z</time>
      </trkpt>
      <trkpt lat="49.2484" lon="-0.25091">
        <ele>15.6000004</ele>
        <time>2013-05-09T07:53:26Z</time>
      </trkpt>
      <trkpt lat="49.2484" lon="-0.25093">
        <ele>15</ele>
        <time>2013-05-09T07:53:27Z</time>
      </trkpt>
      <trkpt lat="49.2484" lon="-0.25094">
        <ele>15</ele>
        <time>2013-05-09T07:53:28Z</time>
      </trkpt>
      <trkpt lat="49.2484" lon="-0.25094">
        <ele>15</ele>
        <time>2013-05-09T07:53:29Z</time>
      </trkpt>
      <trkpt lat="49.2484" lon="-0.25095">
        <ele>15</ele>
        <time>2013-05-09T07:53:31Z</time>
      </trkpt>
      <trkpt lat="49.24841" lon="-0.25096">
        <ele>14.8000002</ele>
        <time>2013-05-09T07:53:32Z</time>
      </trkpt>
      <trkpt lat="49.24842" lon="-0.25097">
        <ele>14.1999998</ele>
        <time>2013-05-09T07:53:33Z</time>
      </trkpt>
      <trkpt lat="49.24842" lon="-0.25097">
        <ele>14</ele>
        <time>2013-05-09T07:53:34Z</time>
      </trkpt>
      <trkpt lat="49.24843" lon="-0.251">
        <ele>13</ele>
        <time>2013-05-09T07:53:41Z</time>
      </trkpt>
      <trkpt lat="49.24843" lon="-0.25101">
        <ele>12.8000002</ele>
        <time>2013-05-09T07:53:42Z</time>
      </trkpt>
      <trkpt lat="49.24843" lon="-0.25102">
        <ele>12.1999998</ele>
        <time>2013-05-09T07:53:43Z</time>
      </trkpt>
      <trkpt lat="49.24843" lon="-0.25104">
        <ele>12</ele>
        <time>2013-05-09T07:53:44Z</time>
      </trkpt>
      <trkpt lat="49.24843" lon="-0.25104">
        <ele>11.6000004</ele>
        <time>2013-05-09T07:53:45Z</time>
      </trkpt>
      <trkpt lat="49.24842" lon="-0.25106">
        <ele>11</ele>
        <time>2013-05-09T07:53:48Z</time>
      </trkpt>
      <trkpt lat="49.24842" lon="-0.25106">
        <ele>11</ele>
        <time>2013-05-09T07:53:49Z</time>
      </trkpt>
      <trkpt lat="49.24841" lon="-0.25107">
        <ele>11</ele>
        <time>2013-05-09T07:53:50Z</time>
      </trkpt>
      <trkpt lat="49.24842" lon="-0.25107">
        <ele>11</ele>
        <time>2013-05-09T07:53:51Z</time>
      </trkpt>
      <trkpt lat="49.24842" lon="-0.25108">
        <ele>11</ele>
        <time>2013-05-09T07:53:57Z</time>
      </trkpt>
      <trkpt lat="49.24842" lon="-0.25108">
        <ele>11</ele>
        <time>2013-05-09T07:53:58Z</time>
      </trkpt>
      <trkpt lat="49.24842" lon="-0.25109">
        <ele>11</ele>
        <time>2013-05-09T07:53:59Z</time>
      </trkpt>
      <trkpt lat="49.24842" lon="-0.2511">
        <ele>11</ele>
        <time>2013-05-09T07:54:00Z</time>
      </trkpt>
      <trkpt lat="49.24842" lon="-0.2511">
        <ele>11</ele>
        <time>2013-05-09T07:54:01Z</time>
      </trkpt>
      <trkpt lat="49.24842" lon="-0.25114">
        <ele>10.8000002</ele>
        <time>2013-05-09T07:54:03Z</time>
      </trkpt>
      <trkpt lat="49.24842" lon="-0.25116">
        <ele>10.1999998</ele>
        <time>2013-05-09T07:54:04Z</time>
      </trkpt>
      <trkpt lat="49.24842" lon="-0.25116">
        <ele>9.6000004</ele>
        <time>2013-05-09T07:54:05Z</time>
      </trkpt>
      <trkpt lat="49.24842" lon="-0.25117">
        <ele>9</ele>
        <time>2013-05-09T07:54:09Z</time>
      </trkpt>
      <trkpt lat="49.24844" lon="-0.25121">
        <ele>9</ele>
        <time>2013-05-09T07:54:13Z</time>
      </trkpt>
      <trkpt lat="49.24845" lon="-0.25121">
        <ele>9</ele>
        <time>2013-05-09T07:54:14Z</time>
      </trkpt>
      <trkpt lat="49.24846" lon="-0.2512">
        <ele>9</ele>
        <time>2013-05-09T07:54:16Z</time>
      </trkpt>
      <trkpt lat="49.24847" lon="-0.25119">
        <ele>9</ele>
        <time>2013-05-09T07:54:18Z</time>
      </trkpt>
      <trkpt lat="49.24847" lon="-0.25119">
        <ele>9</ele>
        <time>2013-05-09T07:54:25Z</time>
      </trkpt>
      <trkpt lat="49.24846" lon="-0.25119">
        <ele>9</ele>
        <time>2013-05-09T07:54:26Z</time>
      </trkpt>
      <trkpt lat="49.24847" lon="-0.25119">
        <ele>9</ele>
        <time>2013-05-09T07:54:27Z</time>
      </trkpt>
      <trkpt lat="49.24847" lon="-0.25119">
        <ele>9</ele>
        <time>2013-05-09T07:54:28Z</time>
      </trkpt>
      <trkpt lat="49.24846" lon="-0.25119">
        <ele>9</ele>
        <time>2013-05-09T07:54:29Z</time>
      </trkpt>
      <trkpt lat="49.24847" lon="-0.25118">
        <ele>9</ele>
        <time>2013-05-09T07:54:40Z</time>
      </trkpt>
      <trkpt lat="49.24851" lon="-0.25116">
        <ele>9</ele>
        <time>2013-05-09T07:54:42Z</time>
      </trkpt>
      <trkpt lat="49.24864" lon="-0.25107">
        <ele>9</ele>
        <time>2013-05-09T07:54:47Z</time>
      </trkpt>
      <trkpt lat="49.24885" lon="-0.25094">
        <ele>9</ele>
        <time>2013-05-09T07:54:54Z</time>
      </trkpt>
      <trkpt lat="49.24903" lon="-0.25087">
        <ele>9</ele>
        <time>2013-05-09T07:55:00Z</time>
      </trkpt>
      <trkpt lat="49.24926" lon="-0.25071">
        <ele>9</ele>
        <time>2013-05-09T07:55:07Z</time>
      </trkpt>
      <trkpt lat="49.24945" lon="-0.25056">
        <ele>9</ele>
        <time>2013-05-09T07:55:12Z</time>
      </trkpt>
      <trkpt lat="49.24961" lon="-0.25043">
        <ele>9</ele>
        <time>2013-05-09T07:55:17Z</time>
      </trkpt>
      <trkpt lat="49.24986" lon="-0.25023">
        <ele>9</ele>
        <time>2013-05-09T07:55:24Z</time>
      </trkpt>
      <trkpt lat="49.25008" lon="-0.25004">
        <ele>9</ele>
        <time>2013-05-09T07:55:31Z</time>
      </trkpt>
      <trkpt lat="49.25037" lon="-0.24981">
        <ele>9</ele>
        <time>2013-05-09T07:55:39Z</time>
      </trkpt>
      <trkpt lat="49.25057" lon="-0.2496">
        <ele>9</ele>
        <time>2013-05-09T07:55:45Z</time>
      </trkpt>
      <trkpt lat="49.25073" lon="-0.24945">
        <ele>9</ele>
        <time>2013-05-09T07:55:50Z</time>
      </trkpt>
      <trkpt lat="49.25087" lon="-0.24922">
        <ele>9</ele>
        <time>2013-05-09T07:55:56Z</time>
      </trkpt>
      <trkpt lat="49.25102" lon="-0.24894">
        <ele>9</ele>
        <time>2013-05-09T07:56:03Z</time>
      </trkpt>
      <trkpt lat="49.25122" lon="-0.24869">
        <ele>9</ele>
        <time>2013-05-09T07:56:09Z</time>
      </trkpt>
      <trkpt lat="49.25135" lon="-0.24858">
        <ele>9</ele>
        <time>2013-05-09T07:56:12Z</time>
      </trkpt>
      <trkpt lat="49.25145" lon="-0.2485">
        <ele>9</ele>
        <time>2013-05-09T07:56:15Z</time>
      </trkpt>
      <trkpt lat="49.25149" lon="-0.24851">
        <ele>9</ele>
        <time>2013-05-09T07:56:16Z</time>
      </trkpt>
      <trkpt lat="49.25152" lon="-0.2486">
        <ele>9</ele>
        <time>2013-05-09T07:56:18Z</time>
      </trkpt>
      <trkpt lat="49.25158" lon="-0.24879">
        <ele>9</ele>
        <time>2013-05-09T07:56:21Z</time>
      </trkpt>
      <trkpt lat="49.25161" lon="-0.24886">
        <ele>9</ele>
        <time>2013-05-09T07:56:22Z</time>
      </trkpt>
      <trkpt lat="49.25163" lon="-0.24892">
        <ele>9</ele>
        <time>2013-05-09T07:56:23Z</time>
      </trkpt>
      <trkpt lat="49.25179" lon="-0.24932">
        <ele>9</ele>
        <time>2013-05-09T07:56:30Z</time>
      </trkpt>
      <trkpt lat="49.25181" lon="-0.24938">
        <ele>9</ele>
        <time>2013-05-09T07:56:31Z</time>
      </trkpt>
      <trkpt lat="49.25192" lon="-0.24968">
        <ele>9</ele>
        <time>2013-05-09T07:56:36Z</time>
      </trkpt>
      <trkpt lat="49.25205" lon="-0.25001">
        <ele>9</ele>
        <time>2013-05-09T07:56:42Z</time>
      </trkpt>
      <trkpt lat="49.2522" lon="-0.25043">
        <ele>9</ele>
        <time>2013-05-09T07:56:49Z</time>
      </trkpt>
      <trkpt lat="49.25237" lon="-0.2509">
        <ele>9</ele>
        <time>2013-05-09T07:56:57Z</time>
      </trkpt>
      <trkpt lat="49.25252" lon="-0.25133">
        <ele>9</ele>
        <time>2013-05-09T07:57:04Z</time>
      </trkpt>
      <trkpt lat="49.25268" lon="-0.25176">
        <ele>9</ele>
        <time>2013-05-09T07:57:11Z</time>
      </trkpt>
      <trkpt lat="49.25281" lon="-0.25211">
        <ele>9</ele>
        <time>2013-05-09T07:57:17Z</time>
      </trkpt>
      <trkpt lat="49.25297" lon="-0.25253">
        <ele>9</ele>
        <time>2013-05-09T07:57:25Z</time>
      </trkpt>
      <trkpt lat="49.25301" lon="-0.25264">
        <ele>8.8000002</ele>
        <time>2013-05-09T07:57:27Z</time>
      </trkpt>
      <trkpt lat="49.25303" lon="-0.2527">
        <ele>8</ele>
        <time>2013-05-09T07:57:28Z</time>
      </trkpt>
      <trkpt lat="49.25305" lon="-0.25275">
        <ele>7.8000002</ele>
        <time>2013-05-09T07:57:29Z</time>
      </trkpt>
      <trkpt lat="49.25307" lon="-0.25281">
        <ele>7.4000001</ele>
        <time>2013-05-09T07:57:30Z</time>
      </trkpt>
      <trkpt lat="49.25309" lon="-0.25287">
        <ele>7</ele>
        <time>2013-05-09T07:57:31Z</time>
      </trkpt>
      <trkpt lat="49.25311" lon="-0.25292">
        <ele>7</ele>
        <time>2013-05-09T07:57:32Z</time>
      </trkpt>
      <trkpt lat="49.25326" lon="-0.25335">
        <ele>7</ele>
        <time>2013-05-09T07:57:39Z</time>
      </trkpt>
      <trkpt lat="49.25338" lon="-0.25371">
        <ele>7</ele>
        <time>2013-05-09T07:57:45Z</time>
      </trkpt>
      <trkpt lat="49.25352" lon="-0.2541">
        <ele>7</ele>
        <time>2013-05-09T07:57:52Z</time>
      </trkpt>
      <trkpt lat="49.25363" lon="-0.2544">
        <ele>7</ele>
        <time>2013-05-09T07:57:58Z</time>
      </trkpt>
      <trkpt lat="49.25368" lon="-0.25451">
        <ele>7</ele>
        <time>2013-05-09T07:58:02Z</time>
      </trkpt>
      <trkpt lat="49.2537" lon="-0.25452">
        <ele>7</ele>
        <time>2013-05-09T07:58:03Z</time>
      </trkpt>
      <trkpt lat="49.25382" lon="-0.25446">
        <ele>7</ele>
        <time>2013-05-09T07:58:07Z</time>
      </trkpt>
      <trkpt lat="49.25403" lon="-0.25429">
        <ele>7</ele>
        <time>2013-05-09T07:58:13Z</time>
      </trkpt>
      <trkpt lat="49.25426" lon="-0.2541">
        <ele>7</ele>
        <time>2013-05-09T07:58:19Z</time>
      </trkpt>
      <trkpt lat="49.25459" lon="-0.25386">
        <ele>7</ele>
        <time>2013-05-09T07:58:27Z</time>
      </trkpt>
      <trkpt lat="49.2549" lon="-0.25362">
        <ele>7</ele>
        <time>2013-05-09T07:58:34Z</time>
      </trkpt>
      <trkpt lat="49.25499" lon="-0.25354">
        <ele>7</ele>
        <time>2013-05-09T07:58:36Z</time>
      </trkpt>
      <trkpt lat="49.25527" lon="-0.25332">
        <ele>7</ele>
        <time>2013-05-09T07:58:42Z</time>
      </trkpt>
      <trkpt lat="49.2555" lon="-0.2531">
        <ele>7</ele>
        <time>2013-05-09T07:58:47Z</time>
      </trkpt>
      <trkpt lat="49.25564" lon="-0.25298">
        <ele>7</ele>
        <time>2013-05-09T07:58:50Z</time>
      </trkpt>
      <trkpt lat="49.25597" lon="-0.2527">
        <ele>7</ele>
        <time>2013-05-09T07:58:57Z</time>
      </trkpt>
      <trkpt lat="49.25618" lon="-0.25251">
        <ele>7</ele>
        <time>2013-05-09T07:59:03Z</time>
      </trkpt>
      <trkpt lat="49.2562" lon="-0.25249">
        <ele>7</ele>
        <time>2013-05-09T07:59:08Z</time>
      </trkpt>
      <trkpt lat="49.25615" lon="-0.2525">
        <ele>7</ele>
        <time>2013-05-09T07:59:12Z</time>
      </trkpt>
      <trkpt lat="49.25612" lon="-0.25246">
        <ele>7</ele>
        <time>2013-05-09T07:59:14Z</time>
      </trkpt>
      <trkpt lat="49.25606" lon="-0.25229">
        <ele>7</ele>
        <time>2013-05-09T07:59:18Z</time>
      </trkpt>
      <trkpt lat="49.25595" lon="-0.25199">
        <ele>7</ele>
        <time>2013-05-09T07:59:24Z</time>
      </trkpt>
      <trkpt lat="49.25588" lon="-0.25178">
        <ele>7</ele>
        <time>2013-05-09T07:59:29Z</time>
      </trkpt>
      <trkpt lat="49.25575" lon="-0.25143">
        <ele>7</ele>
        <time>2013-05-09T07:59:37Z</time>
      </trkpt>
      <trkpt lat="49.25564" lon="-0.25111">
        <ele>7</ele>
        <time>2013-05-09T07:59:44Z</time>
      </trkpt>
      <trkpt lat="49.25557" lon="-0.25091">
        <ele>7</ele>
        <time>2013-05-09T07:59:49Z</time>
      </trkpt>
      <trkpt lat="49.25552" lon="-0.25083">
        <ele>7</ele>
        <time>2013-05-09T07:59:52Z</time>
      </trkpt>
      <trkpt lat="49.25548" lon="-0.25084">
        <ele>7</ele>
        <time>2013-05-09T07:59:54Z</time>
      </trkpt>
      <trkpt lat="49.25533" lon="-0.25095">
        <ele>7</ele>
        <time>2013-05-09T08:00:00Z</time>
      </trkpt>
      <trkpt lat="49.2553" lon="-0.25094">
        <ele>7</ele>
        <time>2013-05-09T08:00:01Z</time>
      </trkpt>
      <trkpt lat="49.25527" lon="-0.25088">
        <ele>7</ele>
        <time>2013-05-09T08:00:03Z</time>
      </trkpt>
      <trkpt lat="49.25524" lon="-0.25081">
        <ele>7</ele>
        <time>2013-05-09T08:00:05Z</time>
      </trkpt>
      <trkpt lat="49.25518" lon="-0.25063">
        <ele>7</ele>
        <time>2013-05-09T08:00:09Z</time>
      </trkpt>
      <trkpt lat="49.25504" lon="-0.25026">
        <ele>7</ele>
        <time>2013-05-09T08:00:16Z</time>
      </trkpt>
      <trkpt lat="49.25495" lon="-0.25002">
        <ele>7</ele>
        <time>2013-05-09T08:00:20Z</time>
      </trkpt>
      <trkpt lat="49.25491" lon="-0.24989">
        <ele>7</ele>
        <time>2013-05-09T08:00:22Z</time>
      </trkpt>
      <trkpt lat="49.25489" lon="-0.24983">
        <ele>7</ele>
        <time>2013-05-09T08:00:23Z</time>
      </trkpt>
      <trkpt lat="49.25477" lon="-0.24953">
        <ele>7</ele>
        <time>2013-05-09T08:00:28Z</time>
      </trkpt>
      <trkpt lat="49.25475" lon="-0.24947">
        <ele>7</ele>
        <time>2013-05-09T08:00:29Z</time>
      </trkpt>
      <trkpt lat="49.25463" lon="-0.24911">
        <ele>7</ele>
        <time>2013-05-09T08:00:36Z</time>
      </trkpt>
      <trkpt lat="49.25463" lon="-0.24906">
        <ele>7</ele>
        <time>2013-05-09T08:00:37Z</time>
      </trkpt>
      <trkpt lat="49.25465" lon="-0.24898">
        <ele>7</ele>
        <time>2013-05-09T08:00:39Z</time>
      </trkpt>
      <trkpt lat="49.25471" lon="-0.24893">
        <ele>7</ele>
        <time>2013-05-09T08:00:41Z</time>
      </trkpt>
      <trkpt lat="49.25478" lon="-0.24888">
        <ele>7</ele>
        <time>2013-05-09T08:00:43Z</time>
      </trkpt>
      <trkpt lat="49.25498" lon="-0.24872">
        <ele>7</ele>
        <time>2013-05-09T08:00:49Z</time>
      </trkpt>
      <trkpt lat="49.25511" lon="-0.24862">
        <ele>7</ele>
        <time>2013-05-09T08:00:54Z</time>
      </trkpt>
      <trkpt lat="49.25512" lon="-0.24863">
        <ele>7</ele>
        <time>2013-05-09T08:00:57Z</time>
      </trkpt>
      <trkpt lat="49.25512" lon="-0.24864">
        <ele>7</ele>
        <time>2013-05-09T08:00:59Z</time>
      </trkpt>
      <trkpt lat="49.25512" lon="-0.24866">
        <ele>7</ele>
        <time>2013-05-09T08:01:00Z</time>
      </trkpt>
      <trkpt lat="49.25511" lon="-0.24866">
        <ele>7</ele>
        <time>2013-05-09T08:01:02Z</time>
      </trkpt>
      <trkpt lat="49.2551" lon="-0.24866">
        <ele>7</ele>
        <time>2013-05-09T08:01:05Z</time>
      </trkpt>
      <trkpt lat="49.25501" lon="-0.24874">
        <ele>7</ele>
        <time>2013-05-09T08:01:10Z</time>
      </trkpt>
      <trkpt lat="49.25485" lon="-0.24886">
        <ele>7</ele>
        <time>2013-05-09T08:01:16Z</time>
      </trkpt>
      <trkpt lat="49.25467" lon="-0.24899">
        <ele>7</ele>
        <time>2013-05-09T08:01:22Z</time>
      </trkpt>
      <trkpt lat="49.25461" lon="-0.24898">
        <ele>7</ele>
        <time>2013-05-09T08:01:24Z</time>
      </trkpt>
      <trkpt lat="49.25459" lon="-0.24895">
        <ele>7</ele>
        <time>2013-05-09T08:01:25Z</time>
      </trkpt>
      <trkpt lat="49.25449" lon="-0.2487">
        <ele>7</ele>
        <time>2013-05-09T08:01:30Z</time>
      </trkpt>
      <trkpt lat="49.25438" lon="-0.24841">
        <ele>7</ele>
        <time>2013-05-09T08:01:36Z</time>
      </trkpt>
      <trkpt lat="49.25423" lon="-0.24798">
        <ele>7</ele>
        <time>2013-05-09T08:01:44Z</time>
      </trkpt>
      <trkpt lat="49.2542" lon="-0.24792">
        <ele>7</ele>
        <time>2013-05-09T08:01:45Z</time>
      </trkpt>
      <trkpt lat="49.2541" lon="-0.24765">
        <ele>7</ele>
        <time>2013-05-09T08:01:50Z</time>
      </trkpt>
      <trkpt lat="49.25398" lon="-0.24733">
        <ele>7</ele>
        <time>2013-05-09T08:01:56Z</time>
      </trkpt>
      <trkpt lat="49.25394" lon="-0.24721">
        <ele>7</ele>
        <time>2013-05-09T08:01:58Z</time>
      </trkpt>
      <trkpt lat="49.25386" lon="-0.24698">
        <ele>7</ele>
        <time>2013-05-09T08:02:02Z</time>
      </trkpt>
      <trkpt lat="49.25374" lon="-0.24666">
        <ele>7</ele>
        <time>2013-05-09T08:02:08Z</time>
      </trkpt>
      <trkpt lat="49.25367" lon="-0.24636">
        <ele>7</ele>
        <time>2013-05-09T08:02:14Z</time>
      </trkpt>
      <trkpt lat="49.25376" lon="-0.24625">
        <ele>7</ele>
        <time>2013-05-09T08:02:18Z</time>
      </trkpt>
      <trkpt lat="49.25401" lon="-0.246">
        <ele>7</ele>
        <time>2013-05-09T08:02:26Z</time>
      </trkpt>
      <trkpt lat="49.25405" lon="-0.24597">
        <ele>7</ele>
        <time>2013-05-09T08:02:27Z</time>
      </trkpt>
      <trkpt lat="49.25417" lon="-0.24586">
        <ele>7</ele>
        <time>2013-05-09T08:02:30Z</time>
      </trkpt>
      <trkpt lat="49.25436" lon="-0.24567">
        <ele>7.4000001</ele>
        <time>2013-05-09T08:02:36Z</time>
      </trkpt>
      <trkpt lat="49.2544" lon="-0.24562">
        <ele>7.8000002</ele>
        <time>2013-05-09T08:02:37Z</time>
      </trkpt>
      <trkpt lat="49.25443" lon="-0.24558">
        <ele>8</ele>
        <time>2013-05-09T08:02:38Z</time>
      </trkpt>
      <trkpt lat="49.25447" lon="-0.24555">
        <ele>8.6000004</ele>
        <time>2013-05-09T08:02:39Z</time>
      </trkpt>
      <trkpt lat="49.2545" lon="-0.24551">
        <ele>9</ele>
        <time>2013-05-09T08:02:40Z</time>
      </trkpt>
      <trkpt lat="49.25473" lon="-0.24524">
        <ele>9</ele>
        <time>2013-05-09T08:02:46Z</time>
      </trkpt>
      <trkpt lat="49.25497" lon="-0.24499">
        <ele>9</ele>
        <time>2013-05-09T08:02:52Z</time>
      </trkpt>
      <trkpt lat="49.25514" lon="-0.24481">
        <ele>9</ele>
        <time>2013-05-09T08:02:56Z</time>
      </trkpt>
      <trkpt lat="49.2552" lon="-0.24473">
        <ele>9</ele>
        <time>2013-05-09T08:02:58Z</time>
      </trkpt>
      <trkpt lat="49.2554" lon="-0.24449">
        <ele>9</ele>
        <time>2013-05-09T08:03:04Z</time>
      </trkpt>
      <trkpt lat="49.25551" lon="-0.24436">
        <ele>9</ele>
        <time>2013-05-09T08:03:07Z</time>
      </trkpt>
      <trkpt lat="49.25559" lon="-0.24426">
        <ele>9</ele>
        <time>2013-05-09T08:03:09Z</time>
      </trkpt>
      <trkpt lat="49.25581" lon="-0.24402">
        <ele>9</ele>
        <time>2013-05-09T08:03:15Z</time>
      </trkpt>
      <trkpt lat="49.25586" lon="-0.24394">
        <ele>9</ele>
        <time>2013-05-09T08:03:17Z</time>
      </trkpt>
      <trkpt lat="49.25587" lon="-0.24386">
        <ele>9</ele>
        <time>2013-05-09T08:03:19Z</time>
      </trkpt>
      <trkpt lat="49.25585" lon="-0.24376">
        <ele>9</ele>
        <time>2013-05-09T08:03:22Z</time>
      </trkpt>
      <trkpt lat="49.25583" lon="-0.24368">
        <ele>9</ele>
        <time>2013-05-09T08:03:25Z</time>
      </trkpt>
      <trkpt lat="49.2558" lon="-0.24357">
        <ele>9.1999998</ele>
        <time>2013-05-09T08:03:29Z</time>
      </trkpt>
      <trkpt lat="49.2558" lon="-0.24354">
        <ele>9.8000002</ele>
        <time>2013-05-09T08:03:30Z</time>
      </trkpt>
      <trkpt lat="49.2558" lon="-0.24351">
        <ele>10</ele>
        <time>2013-05-09T08:03:31Z</time>
      </trkpt>
      <trkpt lat="49.2558" lon="-0.24348">
        <ele>10.8000002</ele>
        <time>2013-05-09T08:03:32Z</time>
      </trkpt>
      <trkpt lat="49.2558" lon="-0.24346">
        <ele>11</ele>
        <time>2013-05-09T08:03:33Z</time>
      </trkpt>
      <trkpt lat="49.2558" lon="-0.24342">
        <ele>11.6000004</ele>
        <time>2013-05-09T08:03:34Z</time>
      </trkpt>
      <trkpt lat="49.2558" lon="-0.24339">
        <ele>12</ele>
        <time>2013-05-09T08:03:35Z</time>
      </trkpt>
      <trkpt lat="49.25579" lon="-0.24336">
        <ele>12.1999998</ele>
        <time>2013-05-09T08:03:36Z</time>
      </trkpt>
      <trkpt lat="49.25578" lon="-0.24333">
        <ele>13</ele>
        <time>2013-05-09T08:03:37Z</time>
      </trkpt>
      <trkpt lat="49.25577" lon="-0.24329">
        <ele>13.1999998</ele>
        <time>2013-05-09T08:03:38Z</time>
      </trkpt>
      <trkpt lat="49.25575" lon="-0.24321">
        <ele>13.8000002</ele>
        <time>2013-05-09T08:03:40Z</time>
      </trkpt>
      <trkpt lat="49.25574" lon="-0.24317">
        <ele>14</ele>
        <time>2013-05-09T08:03:41Z</time>
      </trkpt>
      <trkpt lat="49.25573" lon="-0.24314">
        <ele>14.6000004</ele>
        <time>2013-05-09T08:03:42Z</time>
      </trkpt>
      <trkpt lat="49.25572" lon="-0.2431">
        <ele>15</ele>
        <time>2013-05-09T08:03:43Z</time>
      </trkpt>
      <trkpt lat="49.25571" lon="-0.24307">
        <ele>15.1999998</ele>
        <time>2013-05-09T08:03:44Z</time>
      </trkpt>
      <trkpt lat="49.25564" lon="-0.24288">
        <ele>15.1999998</ele>
        <time>2013-05-09T08:03:50Z</time>
      </trkpt>
      <trkpt lat="49.25562" lon="-0.24281">
        <ele>15.8000002</ele>
        <time>2013-05-09T08:03:52Z</time>
      </trkpt>
      <trkpt lat="49.25561" lon="-0.24278">
        <ele>16.2000008</ele>
        <time>2013-05-09T08:03:53Z</time>
      </trkpt>
      <trkpt lat="49.25559" lon="-0.24274">
        <ele>16.6000004</ele>
        <time>2013-05-09T08:03:54Z</time>
      </trkpt>
      <trkpt lat="49.25558" lon="-0.2427">
        <ele>17.2000008</ele>
        <time>2013-05-09T08:03:55Z</time>
      </trkpt>
      <trkpt lat="49.25557" lon="-0.24267">
        <ele>17.6000004</ele>
        <time>2013-05-09T08:03:56Z</time>
      </trkpt>
      <trkpt lat="49.25555" lon="-0.24261">
        <ele>17.6000004</ele>
        <time>2013-05-09T08:03:58Z</time>
      </trkpt>
      <trkpt lat="49.25553" lon="-0.24251">
        <ele>18</ele>
        <time>2013-05-09T08:04:01Z</time>
      </trkpt>
      <trkpt lat="49.25552" lon="-0.24248">
        <ele>18.2000008</ele>
        <time>2013-05-09T08:04:02Z</time>
      </trkpt>
      <trkpt lat="49.25551" lon="-0.24244">
        <ele>18.6000004</ele>
        <time>2013-05-09T08:04:03Z</time>
      </trkpt>
      <trkpt lat="49.2555" lon="-0.24241">
        <ele>19.2000008</ele>
        <time>2013-05-09T08:04:04Z</time>
      </trkpt>
      <trkpt lat="49.25549" lon="-0.24238">
        <ele>19.6000004</ele>
        <time>2013-05-09T08:04:05Z</time>
      </trkpt>
      <trkpt lat="49.25544" lon="-0.24217">
        <ele>20</ele>
        <time>2013-05-09T08:04:11Z</time>
      </trkpt>
      <trkpt lat="49.25543" lon="-0.24213">
        <ele>20.2000008</ele>
        <time>2013-05-09T08:04:12Z</time>
      </trkpt>
      <trkpt lat="49.25542" lon="-0.24209">
        <ele>20.6000004</ele>
        <time>2013-05-09T08:04:13Z</time>
      </trkpt>
      <trkpt lat="49.25541" lon="-0.24205">
        <ele>21.2000008</ele>
        <time>2013-05-09T08:04:14Z</time>
      </trkpt>
      <trkpt lat="49.2554" lon="-0.24201">
        <ele>21.6000004</ele>
        <time>2013-05-09T08:04:15Z</time>
      </trkpt>
      <trkpt lat="49.25538" lon="-0.2419">
        <ele>21.6000004</ele>
        <time>2013-05-09T08:04:18Z</time>
      </trkpt>
      <trkpt lat="49.25532" lon="-0.24165">
        <ele>21.6000004</ele>
        <time>2013-05-09T08:04:24Z</time>
      </trkpt>
      <trkpt lat="49.25527" lon="-0.24144">
        <ele>22.2000008</ele>
        <time>2013-05-09T08:04:29Z</time>
      </trkpt>
      <trkpt lat="49.25525" lon="-0.24141">
        <ele>22.6000004</ele>
        <time>2013-05-09T08:04:30Z</time>
      </trkpt>
      <trkpt lat="49.25524" lon="-0.24138">
        <ele>23</ele>
        <time>2013-05-09T08:04:31Z</time>
      </trkpt>
      <trkpt lat="49.25523" lon="-0.24136">
        <ele>23.2000008</ele>
        <time>2013-05-09T08:04:32Z</time>
      </trkpt>
      <trkpt lat="49.25522" lon="-0.24132">
        <ele>23.6000004</ele>
        <time>2013-05-09T08:04:33Z</time>
      </trkpt>
      <trkpt lat="49.25521" lon="-0.24122">
        <ele>23.6000004</ele>
        <time>2013-05-09T08:04:36Z</time>
      </trkpt>
      <trkpt lat="49.25518" lon="-0.24104">
        <ele>23.6000004</ele>
        <time>2013-05-09T08:04:41Z</time>
      </trkpt>
      <trkpt lat="49.25512" lon="-0.24089">
        <ele>23.6000004</ele>
        <time>2013-05-09T08:04:46Z</time>
      </trkpt>
      <trkpt lat="49.25509" lon="-0.24075">
        <ele>23.6000004</ele>
        <time>2013-05-09T08:04:50Z</time>
      </trkpt>
      <trkpt lat="49.25509" lon="-0.24071">
        <ele>23.6000004</ele>
        <time>2013-05-09T08:04:51Z</time>
      </trkpt>
      <trkpt lat="49.25507" lon="-0.24063">
        <ele>24.2000008</ele>
        <time>2013-05-09T08:04:53Z</time>
      </trkpt>
      <trkpt lat="49.25506" lon="-0.24059">
        <ele>24.6000004</ele>
        <time>2013-05-09T08:04:54Z</time>
      </trkpt>
      <trkpt lat="49.25505" lon="-0.24055">
        <ele>25</ele>
        <time>2013-05-09T08:04:55Z</time>
      </trkpt>
      <trkpt lat="49.25503" lon="-0.24051">
        <ele>25.2000008</ele>
        <time>2013-05-09T08:04:56Z</time>
      </trkpt>
      <trkpt lat="49.25502" lon="-0.24047">
        <ele>25.6000004</ele>
        <time>2013-05-09T08:04:57Z</time>
      </trkpt>
      <trkpt lat="49.25501" lon="-0.24043">
        <ele>25.6000004</ele>
        <time>2013-05-09T08:04:58Z</time>
      </trkpt>
      <trkpt lat="49.25491" lon="-0.24009">
        <ele>25.6000004</ele>
        <time>2013-05-09T08:05:06Z</time>
      </trkpt>
      <trkpt lat="49.2549" lon="-0.24005">
        <ele>26.2000008</ele>
        <time>2013-05-09T08:05:07Z</time>
      </trkpt>
      <trkpt lat="49.25489" lon="-0.24">
        <ele>26.6000004</ele>
        <time>2013-05-09T08:05:08Z</time>
      </trkpt>
      <trkpt lat="49.25489" lon="-0.23996">
        <ele>27</ele>
        <time>2013-05-09T08:05:09Z</time>
      </trkpt>
      <trkpt lat="49.25488" lon="-0.23992">
        <ele>27.2000008</ele>
        <time>2013-05-09T08:05:10Z</time>
      </trkpt>
      <trkpt lat="49.25487" lon="-0.23988">
        <ele>27.6000004</ele>
        <time>2013-05-09T08:05:11Z</time>
      </trkpt>
      <trkpt lat="49.25484" lon="-0.2398">
        <ele>27.6000004</ele>
        <time>2013-05-09T08:05:13Z</time>
      </trkpt>
      <trkpt lat="49.25482" lon="-0.23972">
        <ele>28.2000008</ele>
        <time>2013-05-09T08:05:15Z</time>
      </trkpt>
      <trkpt lat="49.25481" lon="-0.23969">
        <ele>28.6000004</ele>
        <time>2013-05-09T08:05:16Z</time>
      </trkpt>
      <trkpt lat="49.2548" lon="-0.23965">
        <ele>29.2000008</ele>
        <time>2013-05-09T08:05:17Z</time>
      </trkpt>
      <trkpt lat="49.2548" lon="-0.23962">
        <ele>29.6000004</ele>
        <time>2013-05-09T08:05:18Z</time>
      </trkpt>
      <trkpt lat="49.25479" lon="-0.23958">
        <ele>30</ele>
        <time>2013-05-09T08:05:19Z</time>
      </trkpt>
      <trkpt lat="49.25477" lon="-0.23951">
        <ele>30</ele>
        <time>2013-05-09T08:05:21Z</time>
      </trkpt>
      <trkpt lat="49.25473" lon="-0.23934">
        <ele>30.2000008</ele>
        <time>2013-05-09T08:05:26Z</time>
      </trkpt>
      <trkpt lat="49.25472" lon="-0.23931">
        <ele>30.6000004</ele>
        <time>2013-05-09T08:05:27Z</time>
      </trkpt>
      <trkpt lat="49.25471" lon="-0.23928">
        <ele>31.6000004</ele>
        <time>2013-05-09T08:05:28Z</time>
      </trkpt>
      <trkpt lat="49.2547" lon="-0.23924">
        <ele>32</ele>
        <time>2013-05-09T08:05:29Z</time>
      </trkpt>
      <trkpt lat="49.25467" lon="-0.23907">
        <ele>32.4000015</ele>
        <time>2013-05-09T08:05:34Z</time>
      </trkpt>
      <trkpt lat="49.25466" lon="-0.23903">
        <ele>32.5999985</ele>
        <time>2013-05-09T08:05:35Z</time>
      </trkpt>
      <trkpt lat="49.25465" lon="-0.239">
        <ele>33.2000008</ele>
        <time>2013-05-09T08:05:36Z</time>
      </trkpt>
      <trkpt lat="49.25465" lon="-0.23897">
        <ele>33.4000015</ele>
        <time>2013-05-09T08:05:37Z</time>
      </trkpt>
      <trkpt lat="49.25464" lon="-0.23894">
        <ele>34.2000008</ele>
        <time>2013-05-09T08:05:38Z</time>
      </trkpt>
      <trkpt lat="49.25461" lon="-0.2388">
        <ele>34.4000015</ele>
        <time>2013-05-09T08:05:42Z</time>
      </trkpt>
      <trkpt lat="49.2546" lon="-0.23876">
        <ele>35</ele>
        <time>2013-05-09T08:05:43Z</time>
      </trkpt>
      <trkpt lat="49.2546" lon="-0.23873">
        <ele>35.4000015</ele>
        <time>2013-05-09T08:05:44Z</time>
      </trkpt>
      <trkpt lat="49.25459" lon="-0.23869">
        <ele>35.5999985</ele>
        <time>2013-05-09T08:05:45Z</time>
      </trkpt>
      <trkpt lat="49.25458" lon="-0.23866">
        <ele>36.2000008</ele>
        <time>2013-05-09T08:05:46Z</time>
      </trkpt>
      <trkpt lat="49.25456" lon="-0.23856">
        <ele>36.5999985</ele>
        <time>2013-05-09T08:05:49Z</time>
      </trkpt>
      <trkpt lat="49.25455" lon="-0.23853">
        <ele>37.2000008</ele>
        <time>2013-05-09T08:05:50Z</time>
      </trkpt>
      <trkpt lat="49.25455" lon="-0.23849">
        <ele>37.4000015</ele>
        <time>2013-05-09T08:05:51Z</time>
      </trkpt>
      <trkpt lat="49.25453" lon="-0.23846">
        <ele>38</ele>
        <time>2013-05-09T08:05:52Z</time>
      </trkpt>
      <trkpt lat="49.25452" lon="-0.23843">
        <ele>38.4000015</ele>
        <time>2013-05-09T08:05:53Z</time>
      </trkpt>
      <trkpt lat="49.2545" lon="-0.23836">
        <ele>38.4000015</ele>
        <time>2013-05-09T08:05:55Z</time>
      </trkpt>
      <trkpt lat="49.25449" lon="-0.23833">
        <ele>39</ele>
        <time>2013-05-09T08:05:56Z</time>
      </trkpt>
      <trkpt lat="49.25448" lon="-0.23829">
        <ele>39.4000015</ele>
        <time>2013-05-09T08:05:57Z</time>
      </trkpt>
      <trkpt lat="49.25447" lon="-0.23825">
        <ele>40</ele>
        <time>2013-05-09T08:05:58Z</time>
      </trkpt>
      <trkpt lat="49.25446" lon="-0.23822">
        <ele>40.4000015</ele>
        <time>2013-05-09T08:05:59Z</time>
      </trkpt>
      <trkpt lat="49.25445" lon="-0.23818">
        <ele>40.5999985</ele>
        <time>2013-05-09T08:06:00Z</time>
      </trkpt>
      <trkpt lat="49.25441" lon="-0.23808">
        <ele>41.2000008</ele>
        <time>2013-05-09T08:06:03Z</time>
      </trkpt>
      <trkpt lat="49.2544" lon="-0.23804">
        <ele>41.4000015</ele>
        <time>2013-05-09T08:06:04Z</time>
      </trkpt>
      <trkpt lat="49.25439" lon="-0.23801">
        <ele>42</ele>
        <time>2013-05-09T08:06:05Z</time>
      </trkpt>
      <trkpt lat="49.25438" lon="-0.23798">
        <ele>42.4000015</ele>
        <time>2013-05-09T08:06:06Z</time>
      </trkpt>
      <trkpt lat="49.25437" lon="-0.23794">
        <ele>43</ele>
        <time>2013-05-09T08:06:07Z</time>
      </trkpt>
      <trkpt lat="49.25434" lon="-0.23781">
        <ele>43</ele>
        <time>2013-05-09T08:06:10Z</time>
      </trkpt>
      <trkpt lat="49.25433" lon="-0.23776">
        <ele>43.4000015</ele>
        <time>2013-05-09T08:06:11Z</time>
      </trkpt>
      <trkpt lat="49.25432" lon="-0.23772">
        <ele>43.5999985</ele>
        <time>2013-05-09T08:06:12Z</time>
      </trkpt>
      <trkpt lat="49.25431" lon="-0.23768">
        <ele>44.2000008</ele>
        <time>2013-05-09T08:06:13Z</time>
      </trkpt>
      <trkpt lat="49.2543" lon="-0.23764">
        <ele>44.4000015</ele>
        <time>2013-05-09T08:06:14Z</time>
      </trkpt>
      <trkpt lat="49.25429" lon="-0.2376">
        <ele>45</ele>
        <time>2013-05-09T08:06:16Z</time>
      </trkpt>
      <trkpt lat="49.25428" lon="-0.23756">
        <ele>45</ele>
        <time>2013-05-09T08:06:17Z</time>
      </trkpt>
      <trkpt lat="49.25426" lon="-0.23749">
        <ele>45.5999985</ele>
        <time>2013-05-09T08:06:19Z</time>
      </trkpt>
      <trkpt lat="49.25425" lon="-0.23745">
        <ele>46.4000015</ele>
        <time>2013-05-09T08:06:20Z</time>
      </trkpt>
      <trkpt lat="49.25424" lon="-0.23741">
        <ele>46.5999985</ele>
        <time>2013-05-09T08:06:21Z</time>
      </trkpt>
      <trkpt lat="49.25423" lon="-0.23737">
        <ele>47.2000008</ele>
        <time>2013-05-09T08:06:22Z</time>
      </trkpt>
      <trkpt lat="49.25421" lon="-0.23729">
        <ele>47.2000008</ele>
        <time>2013-05-09T08:06:24Z</time>
      </trkpt>
      <trkpt lat="49.25419" lon="-0.23719">
        <ele>47.4000015</ele>
        <time>2013-05-09T08:06:27Z</time>
      </trkpt>
      <trkpt lat="49.25418" lon="-0.23717">
        <ele>48.2000008</ele>
        <time>2013-05-09T08:06:28Z</time>
      </trkpt>
      <trkpt lat="49.25418" lon="-0.23714">
        <ele>48.4000015</ele>
        <time>2013-05-09T08:06:29Z</time>
      </trkpt>
      <trkpt lat="49.25417" lon="-0.23713">
        <ele>49</ele>
        <time>2013-05-09T08:06:30Z</time>
      </trkpt>
      <trkpt lat="49.25417" lon="-0.23711">
        <ele>49.4000015</ele>
        <time>2013-05-09T08:06:31Z</time>
      </trkpt>
      <trkpt lat="49.25413" lon="-0.23696">
        <ele>49.4000015</ele>
        <time>2013-05-09T08:06:38Z</time>
      </trkpt>
      <trkpt lat="49.25413" lon="-0.23692">
        <ele>49.4000015</ele>
        <time>2013-05-09T08:06:40Z</time>
      </trkpt>
      <trkpt lat="49.25417" lon="-0.23689">
        <ele>49.4000015</ele>
        <time>2013-05-09T08:06:43Z</time>
      </trkpt>
      <trkpt lat="49.25419" lon="-0.23689">
        <ele>49.4000015</ele>
        <time>2013-05-09T08:06:44Z</time>
      </trkpt>
      <trkpt lat="49.25422" lon="-0.23688">
        <ele>49.5999985</ele>
        <time>2013-05-09T08:06:46Z</time>
      </trkpt>
      <trkpt lat="49.25423" lon="-0.23688">
        <ele>50.2000008</ele>
        <time>2013-05-09T08:06:47Z</time>
      </trkpt>
      <trkpt lat="49.25424" lon="-0.23688">
        <ele>50.4000015</ele>
        <time>2013-05-09T08:06:48Z</time>
      </trkpt>
      <trkpt lat="49.25424" lon="-0.23688">
        <ele>51</ele>
        <time>2013-05-09T08:06:49Z</time>
      </trkpt>
      <trkpt lat="49.25424" lon="-0.23689">
        <ele>51.4000015</ele>
        <time>2013-05-09T08:09:58Z</time>
      </trkpt>
      <trkpt lat="49.25424" lon="-0.23689">
        <ele>51.4000015</ele>
        <time>2013-05-09T08:09:59Z</time>
      </trkpt>
      <trkpt lat="49.25424" lon="-0.23689">
        <ele>51.4000015</ele>
        <time>2013-05-09T08:10:08Z</time>
      </trkpt>
      <trkpt lat="49.25421" lon="-0.2369">
        <ele>51.4000015</ele>
        <time>2013-05-09T08:10:10Z</time>
      </trkpt>
      <trkpt lat="49.25414" lon="-0.23689">
        <ele>51.4000015</ele>
        <time>2013-05-09T08:10:12Z</time>
      </trkpt>
      <trkpt lat="49.25412" lon="-0.23685">
        <ele>51.4000015</ele>
        <time>2013-05-09T08:10:13Z</time>
      </trkpt>
      <trkpt lat="49.2541" lon="-0.23674">
        <ele>51.4000015</ele>
        <time>2013-05-09T08:10:16Z</time>
      </trkpt>
      <trkpt lat="49.25407" lon="-0.23648">
        <ele>51.4000015</ele>
        <time>2013-05-09T08:10:23Z</time>
      </trkpt>
      <trkpt lat="49.25404" lon="-0.23627">
        <ele>51.4000015</ele>
        <time>2013-05-09T08:10:30Z</time>
      </trkpt>
      <trkpt lat="49.25402" lon="-0.23603">
        <ele>51.4000015</ele>
        <time>2013-05-09T08:10:37Z</time>
      </trkpt>
      <trkpt lat="49.25402" lon="-0.23587">
        <ele>51.4000015</ele>
        <time>2013-05-09T08:10:43Z</time>
      </trkpt>
      <trkpt lat="49.25402" lon="-0.23567">
        <ele>51.4000015</ele>
        <time>2013-05-09T08:10:48Z</time>
      </trkpt>
      <trkpt lat="49.25403" lon="-0.23536">
        <ele>51.4000015</ele>
        <time>2013-05-09T08:10:55Z</time>
      </trkpt>
      <trkpt lat="49.25403" lon="-0.23514">
        <ele>51.4000015</ele>
        <time>2013-05-09T08:11:00Z</time>
      </trkpt>
      <trkpt lat="49.25402" lon="-0.23496">
        <ele>51.4000015</ele>
        <time>2013-05-09T08:11:05Z</time>
      </trkpt>
      <trkpt lat="49.254" lon="-0.23473">
        <ele>51.4000015</ele>
        <time>2013-05-09T08:11:11Z</time>
      </trkpt>
      <trkpt lat="49.25406" lon="-0.23445">
        <ele>51.4000015</ele>
        <time>2013-05-09T08:11:17Z</time>
      </trkpt>
      <trkpt lat="49.25417" lon="-0.23418">
        <ele>51.4000015</ele>
        <time>2013-05-09T08:11:23Z</time>
      </trkpt>
      <trkpt lat="49.25426" lon="-0.23395">
        <ele>51.4000015</ele>
        <time>2013-05-09T08:11:28Z</time>
      </trkpt>
      <trkpt lat="49.25441" lon="-0.23362">
        <ele>51.4000015</ele>
        <time>2013-05-09T08:11:34Z</time>
      </trkpt>
      <trkpt lat="49.2546" lon="-0.23323">
        <ele>50.4000015</ele>
        <time>2013-05-09T08:11:40Z</time>
      </trkpt>
      <trkpt lat="49.25464" lon="-0.23317">
        <ele>50.2000008</ele>
        <time>2013-05-09T08:11:41Z</time>
      </trkpt>
      <trkpt lat="49.25468" lon="-0.23311">
        <ele>49.5999985</ele>
        <time>2013-05-09T08:11:42Z</time>
      </trkpt>
      <trkpt lat="49.25472" lon="-0.23304">
        <ele>49.2000008</ele>
        <time>2013-05-09T08:11:43Z</time>
      </trkpt>
      <trkpt lat="49.25483" lon="-0.23286">
        <ele>48.5999985</ele>
        <time>2013-05-09T08:11:46Z</time>
      </trkpt>
      <trkpt lat="49.25487" lon="-0.23279">
        <ele>48.4000015</ele>
        <time>2013-05-09T08:11:47Z</time>
      </trkpt>
      <trkpt lat="49.2549" lon="-0.23272">
        <ele>48</ele>
        <time>2013-05-09T08:11:48Z</time>
      </trkpt>
      <trkpt lat="49.25494" lon="-0.23265">
        <ele>47.4000015</ele>
        <time>2013-05-09T08:11:49Z</time>
      </trkpt>
      <trkpt lat="49.25498" lon="-0.23258">
        <ele>47</ele>
        <time>2013-05-09T08:11:50Z</time>
      </trkpt>
      <trkpt lat="49.25502" lon="-0.2325">
        <ele>46.4000015</ele>
        <time>2013-05-09T08:11:51Z</time>
      </trkpt>
      <trkpt lat="49.25505" lon="-0.23242">
        <ele>46</ele>
        <time>2013-05-09T08:11:52Z</time>
      </trkpt>
      <trkpt lat="49.25508" lon="-0.23234">
        <ele>45.4000015</ele>
        <time>2013-05-09T08:11:53Z</time>
      </trkpt>
      <trkpt lat="49.25512" lon="-0.23224">
        <ele>45.2000008</ele>
        <time>2013-05-09T08:11:54Z</time>
      </trkpt>
      <trkpt lat="49.25516" lon="-0.23215">
        <ele>44.5999985</ele>
        <time>2013-05-09T08:11:55Z</time>
      </trkpt>
      <trkpt lat="49.25527" lon="-0.23187">
        <ele>44.2000008</ele>
        <time>2013-05-09T08:11:58Z</time>
      </trkpt>
      <trkpt lat="49.25532" lon="-0.23179">
        <ele>43.5999985</ele>
        <time>2013-05-09T08:11:59Z</time>
      </trkpt>
      <trkpt lat="49.25536" lon="-0.2317">
        <ele>43.4000015</ele>
        <time>2013-05-09T08:12:00Z</time>
      </trkpt>
      <trkpt lat="49.25541" lon="-0.23161">
        <ele>42.5999985</ele>
        <time>2013-05-09T08:12:01Z</time>
      </trkpt>
      <trkpt lat="49.25545" lon="-0.23152">
        <ele>42.4000015</ele>
        <time>2013-05-09T08:12:02Z</time>
      </trkpt>
      <trkpt lat="49.25562" lon="-0.23124">
        <ele>42.4000015</ele>
        <time>2013-05-09T08:12:06Z</time>
      </trkpt>
      <trkpt lat="49.25569" lon="-0.23116">
        <ele>42.4000015</ele>
        <time>2013-05-09T08:12:08Z</time>
      </trkpt>
      <trkpt lat="49.25579" lon="-0.23105">
        <ele>42.4000015</ele>
        <time>2013-05-09T08:12:11Z</time>
      </trkpt>
      <trkpt lat="49.25597" lon="-0.23084">
        <ele>42.4000015</ele>
        <time>2013-05-09T08:12:18Z</time>
      </trkpt>
      <trkpt lat="49.25613" lon="-0.23084">
        <ele>42.4000015</ele>
        <time>2013-05-09T08:12:22Z</time>
      </trkpt>
      <trkpt lat="49.25633" lon="-0.2309">
        <ele>42.4000015</ele>
        <time>2013-05-09T08:12:27Z</time>
      </trkpt>
      <trkpt lat="49.25641" lon="-0.23094">
        <ele>42.4000015</ele>
        <time>2013-05-09T08:12:29Z</time>
      </trkpt>
      <trkpt lat="49.2567" lon="-0.23106">
        <ele>42.4000015</ele>
        <time>2013-05-09T08:12:36Z</time>
      </trkpt>
      <trkpt lat="49.25674" lon="-0.23107">
        <ele>42.4000015</ele>
        <time>2013-05-09T08:12:37Z</time>
      </trkpt>
      <trkpt lat="49.25686" lon="-0.23105">
        <ele>42.4000015</ele>
        <time>2013-05-09T08:12:40Z</time>
      </trkpt>
      <trkpt lat="49.25695" lon="-0.23108">
        <ele>42.4000015</ele>
        <time>2013-05-09T08:12:42Z</time>
      </trkpt>
      <trkpt lat="49.25704" lon="-0.2311">
        <ele>42.4000015</ele>
        <time>2013-05-09T08:12:44Z</time>
      </trkpt>
      <trkpt lat="49.25726" lon="-0.23104">
        <ele>42.4000015</ele>
        <time>2013-05-09T08:12:50Z</time>
      </trkpt>
      <trkpt lat="49.25722" lon="-0.23087">
        <ele>42.4000015</ele>
        <time>2013-05-09T08:12:53Z</time>
      </trkpt>
      <trkpt lat="49.25716" lon="-0.23062">
        <ele>42.4000015</ele>
        <time>2013-05-09T08:12:57Z</time>
      </trkpt>
      <trkpt lat="49.25714" lon="-0.23055">
        <ele>42.4000015</ele>
        <time>2013-05-09T08:12:58Z</time>
      </trkpt>
      <trkpt lat="49.25708" lon="-0.23036">
        <ele>42.4000015</ele>
        <time>2013-05-09T08:13:01Z</time>
      </trkpt>
      <trkpt lat="49.25702" lon="-0.23015">
        <ele>42.4000015</ele>
        <time>2013-05-09T08:13:04Z</time>
      </trkpt>
      <trkpt lat="49.25693" lon="-0.22977">
        <ele>42.4000015</ele>
        <time>2013-05-09T08:13:10Z</time>
      </trkpt>
      <trkpt lat="49.25691" lon="-0.22971">
        <ele>42.4000015</ele>
        <time>2013-05-09T08:13:11Z</time>
      </trkpt>
      <trkpt lat="49.25684" lon="-0.22959">
        <ele>42.4000015</ele>
        <time>2013-05-09T08:13:14Z</time>
      </trkpt>
      <trkpt lat="49.25677" lon="-0.22945">
        <ele>42.4000015</ele>
        <time>2013-05-09T08:13:17Z</time>
      </trkpt>
      <trkpt lat="49.25662" lon="-0.22916">
        <ele>42.4000015</ele>
        <time>2013-05-09T08:13:23Z</time>
      </trkpt>
      <trkpt lat="49.25654" lon="-0.229">
        <ele>42.4000015</ele>
        <time>2013-05-09T08:13:26Z</time>
      </trkpt>
      <trkpt lat="49.25646" lon="-0.22885">
        <ele>42.4000015</ele>
        <time>2013-05-09T08:13:29Z</time>
      </trkpt>
      <trkpt lat="49.25644" lon="-0.2288">
        <ele>42.4000015</ele>
        <time>2013-05-09T08:13:30Z</time>
      </trkpt>
      <trkpt lat="49.25624" lon="-0.22843">
        <ele>42.4000015</ele>
        <time>2013-05-09T08:13:37Z</time>
      </trkpt>
      <trkpt lat="49.25609" lon="-0.22806">
        <ele>42.4000015</ele>
        <time>2013-05-09T08:13:44Z</time>
      </trkpt>
      <trkpt lat="49.25597" lon="-0.22768">
        <ele>42.4000015</ele>
        <time>2013-05-09T08:13:51Z</time>
      </trkpt>
      <trkpt lat="49.25587" lon="-0.2274">
        <ele>42.4000015</ele>
        <time>2013-05-09T08:13:56Z</time>
      </trkpt>
      <trkpt lat="49.25583" lon="-0.2272">
        <ele>42.4000015</ele>
        <time>2013-05-09T08:13:59Z</time>
      </trkpt>
      <trkpt lat="49.25578" lon="-0.22693">
        <ele>42.4000015</ele>
        <time>2013-05-09T08:14:03Z</time>
      </trkpt>
      <trkpt lat="49.25576" lon="-0.22681">
        <ele>42.4000015</ele>
        <time>2013-05-09T08:14:05Z</time>
      </trkpt>
      <trkpt lat="49.25571" lon="-0.22651">
        <ele>42.4000015</ele>
        <time>2013-05-09T08:14:10Z</time>
      </trkpt>
      <trkpt lat="49.25569" lon="-0.22631">
        <ele>42.4000015</ele>
        <time>2013-05-09T08:14:15Z</time>
      </trkpt>
      <trkpt lat="49.25568" lon="-0.22625">
        <ele>42.4000015</ele>
        <time>2013-05-09T08:14:18Z</time>
      </trkpt>
      <trkpt lat="49.25568" lon="-0.22625">
        <ele>42.4000015</ele>
        <time>2013-05-09T08:14:41Z</time>
      </trkpt>
      <trkpt lat="49.25569" lon="-0.22624">
        <ele>42.4000015</ele>
        <time>2013-05-09T08:14:42Z</time>
      </trkpt>
      <trkpt lat="49.25577" lon="-0.22612">
        <ele>42.4000015</ele>
        <time>2013-05-09T08:14:47Z</time>
      </trkpt>
      <trkpt lat="49.25593" lon="-0.22591">
        <ele>42.4000015</ele>
        <time>2013-05-09T08:14:53Z</time>
      </trkpt>
      <trkpt lat="49.25624" lon="-0.22551">
        <ele>42.4000015</ele>
        <time>2013-05-09T08:15:03Z</time>
      </trkpt>
      <trkpt lat="49.25653" lon="-0.22514">
        <ele>42.4000015</ele>
        <time>2013-05-09T08:15:12Z</time>
      </trkpt>
      <trkpt lat="49.25664" lon="-0.22496">
        <ele>42.4000015</ele>
        <time>2013-05-09T08:15:16Z</time>
      </trkpt>
      <trkpt lat="49.25672" lon="-0.22481">
        <ele>42.4000015</ele>
        <time>2013-05-09T08:15:19Z</time>
      </trkpt>
      <trkpt lat="49.25674" lon="-0.22475">
        <ele>42.4000015</ele>
        <time>2013-05-09T08:15:20Z</time>
      </trkpt>
      <trkpt lat="49.25689" lon="-0.22441">
        <ele>42.4000015</ele>
        <time>2013-05-09T08:15:26Z</time>
      </trkpt>
      <trkpt lat="49.25701" lon="-0.22422">
        <ele>42.4000015</ele>
        <time>2013-05-09T08:15:30Z</time>
      </trkpt>
      <trkpt lat="49.25712" lon="-0.22412">
        <ele>42.4000015</ele>
        <time>2013-05-09T08:15:33Z</time>
      </trkpt>
      <trkpt lat="49.25735" lon="-0.22394">
        <ele>42.4000015</ele>
        <time>2013-05-09T08:15:39Z</time>
      </trkpt>
      <trkpt lat="49.25756" lon="-0.22378">
        <ele>42.4000015</ele>
        <time>2013-05-09T08:15:44Z</time>
      </trkpt>
      <trkpt lat="49.2576" lon="-0.22375">
        <ele>42.4000015</ele>
        <time>2013-05-09T08:15:45Z</time>
      </trkpt>
      <trkpt lat="49.25786" lon="-0.22357">
        <ele>42.4000015</ele>
        <time>2013-05-09T08:15:51Z</time>
      </trkpt>
      <trkpt lat="49.2581" lon="-0.22339">
        <ele>42.4000015</ele>
        <time>2013-05-09T08:15:57Z</time>
      </trkpt>
      <trkpt lat="49.25849" lon="-0.22313">
        <ele>42.4000015</ele>
        <time>2013-05-09T08:16:06Z</time>
      </trkpt>
      <trkpt lat="49.25858" lon="-0.22307">
        <ele>42</ele>
        <time>2013-05-09T08:16:08Z</time>
      </trkpt>
      <trkpt lat="49.25863" lon="-0.22304">
        <ele>41.4000015</ele>
        <time>2013-05-09T08:16:09Z</time>
      </trkpt>
      <trkpt lat="49.25867" lon="-0.22301">
        <ele>41.2000008</ele>
        <time>2013-05-09T08:16:10Z</time>
      </trkpt>
      <trkpt lat="49.25872" lon="-0.22298">
        <ele>40.5999985</ele>
        <time>2013-05-09T08:16:11Z</time>
      </trkpt>
      <trkpt lat="49.25877" lon="-0.22295">
        <ele>40.4000015</ele>
        <time>2013-05-09T08:16:12Z</time>
      </trkpt>
      <trkpt lat="49.25908" lon="-0.22273">
        <ele>40.4000015</ele>
        <time>2013-05-09T08:16:19Z</time>
      </trkpt>
      <trkpt lat="49.25917" lon="-0.22265">
        <ele>40</ele>
        <time>2013-05-09T08:16:21Z</time>
      </trkpt>
      <trkpt lat="49.25922" lon="-0.22261">
        <ele>39.4000015</ele>
        <time>2013-05-09T08:16:22Z</time>
      </trkpt>
      <trkpt lat="49.25927" lon="-0.22258">
        <ele>39.2000008</ele>
        <time>2013-05-09T08:16:23Z</time>
      </trkpt>
      <trkpt lat="49.25932" lon="-0.22253">
        <ele>38.5999985</ele>
        <time>2013-05-09T08:16:24Z</time>
      </trkpt>
      <trkpt lat="49.25937" lon="-0.22249">
        <ele>38.2000008</ele>
        <time>2013-05-09T08:16:25Z</time>
      </trkpt>
      <trkpt lat="49.25942" lon="-0.22245">
        <ele>38.2000008</ele>
        <time>2013-05-09T08:16:26Z</time>
      </trkpt>
      <trkpt lat="49.25971" lon="-0.22223">
        <ele>38.2000008</ele>
        <time>2013-05-09T08:16:31Z</time>
      </trkpt>
      <trkpt lat="49.25978" lon="-0.22219">
        <ele>37.5999985</ele>
        <time>2013-05-09T08:16:32Z</time>
      </trkpt>
      <trkpt lat="49.25984" lon="-0.22216">
        <ele>37.4000015</ele>
        <time>2013-05-09T08:16:33Z</time>
      </trkpt>
      <trkpt lat="49.25992" lon="-0.22212">
        <ele>37</ele>
        <time>2013-05-09T08:16:34Z</time>
      </trkpt>
      <trkpt lat="49.25999" lon="-0.22209">
        <ele>36.4000015</ele>
        <time>2013-05-09T08:16:35Z</time>
      </trkpt>
      <trkpt lat="49.26007" lon="-0.22207">
        <ele>36.2000008</ele>
        <time>2013-05-09T08:16:36Z</time>
      </trkpt>
      <trkpt lat="49.26014" lon="-0.22204">
        <ele>36.2000008</ele>
        <time>2013-05-09T08:16:37Z</time>
      </trkpt>
      <trkpt lat="49.26029" lon="-0.22199">
        <ele>35.4000015</ele>
        <time>2013-05-09T08:16:39Z</time>
      </trkpt>
      <trkpt lat="49.26037" lon="-0.22197">
        <ele>35.2000008</ele>
        <time>2013-05-09T08:16:40Z</time>
      </trkpt>
      <trkpt lat="49.26044" lon="-0.22195">
        <ele>34.5999985</ele>
        <time>2013-05-09T08:16:41Z</time>
      </trkpt>
      <trkpt lat="49.26051" lon="-0.22193">
        <ele>34.2000008</ele>
        <time>2013-05-09T08:16:42Z</time>
      </trkpt>
      <trkpt lat="49.26059" lon="-0.2219">
        <ele>33.5999985</ele>
        <time>2013-05-09T08:16:43Z</time>
      </trkpt>
      <trkpt lat="49.26066" lon="-0.22188">
        <ele>33.5999985</ele>
        <time>2013-05-09T08:16:44Z</time>
      </trkpt>
      <trkpt lat="49.261" lon="-0.22181">
        <ele>33.5999985</ele>
        <time>2013-05-09T08:16:49Z</time>
      </trkpt>
      <trkpt lat="49.26106" lon="-0.22181">
        <ele>33.5999985</ele>
        <time>2013-05-09T08:16:50Z</time>
      </trkpt>
      <trkpt lat="49.26137" lon="-0.22186">
        <ele>33.4000015</ele>
        <time>2013-05-09T08:16:55Z</time>
      </trkpt>
      <trkpt lat="49.26143" lon="-0.22184">
        <ele>33</ele>
        <time>2013-05-09T08:16:56Z</time>
      </trkpt>
      <trkpt lat="49.26148" lon="-0.22183">
        <ele>32.4000015</ele>
        <time>2013-05-09T08:16:57Z</time>
      </trkpt>
      <trkpt lat="49.26153" lon="-0.22182">
        <ele>32.2000008</ele>
        <time>2013-05-09T08:16:58Z</time>
      </trkpt>
      <trkpt lat="49.26158" lon="-0.22182">
        <ele>31.6000004</ele>
        <time>2013-05-09T08:16:59Z</time>
      </trkpt>
      <trkpt lat="49.26176" lon="-0.2218">
        <ele>31.6000004</ele>
        <time>2013-05-09T08:17:03Z</time>
      </trkpt>
      <trkpt lat="49.26187" lon="-0.22179">
        <ele>31.6000004</ele>
        <time>2013-05-09T08:17:05Z</time>
      </trkpt>
      <trkpt lat="49.26203" lon="-0.22178">
        <ele>31.6000004</ele>
        <time>2013-05-09T08:17:08Z</time>
      </trkpt>
      <trkpt lat="49.26218" lon="-0.22177">
        <ele>31.2000008</ele>
        <time>2013-05-09T08:17:11Z</time>
      </trkpt>
      <trkpt lat="49.26224" lon="-0.22177">
        <ele>31</ele>
        <time>2013-05-09T08:17:12Z</time>
      </trkpt>
      <trkpt lat="49.26229" lon="-0.22177">
        <ele>30.6000004</ele>
        <time>2013-05-09T08:17:13Z</time>
      </trkpt>
      <trkpt lat="49.26235" lon="-0.22177">
        <ele>30.2000008</ele>
        <time>2013-05-09T08:17:14Z</time>
      </trkpt>
      <trkpt lat="49.26241" lon="-0.22177">
        <ele>29.6000004</ele>
        <time>2013-05-09T08:17:15Z</time>
      </trkpt>
      <trkpt lat="49.26252" lon="-0.22178">
        <ele>29.6000004</ele>
        <time>2013-05-09T08:17:17Z</time>
      </trkpt>
      <trkpt lat="49.26263" lon="-0.22178">
        <ele>29.2000008</ele>
        <time>2013-05-09T08:17:19Z</time>
      </trkpt>
      <trkpt lat="49.26269" lon="-0.22178">
        <ele>29</ele>
        <time>2013-05-09T08:17:20Z</time>
      </trkpt>
      <trkpt lat="49.26276" lon="-0.22179">
        <ele>28.2000008</ele>
        <time>2013-05-09T08:17:21Z</time>
      </trkpt>
      <trkpt lat="49.26281" lon="-0.22179">
        <ele>28</ele>
        <time>2013-05-09T08:17:22Z</time>
      </trkpt>
      <trkpt lat="49.26286" lon="-0.22179">
        <ele>27.6000004</ele>
        <time>2013-05-09T08:17:23Z</time>
      </trkpt>
      <trkpt lat="49.26302" lon="-0.2218">
        <ele>26.6000004</ele>
        <time>2013-05-09T08:17:26Z</time>
      </trkpt>
      <trkpt lat="49.26308" lon="-0.2218">
        <ele>26.2000008</ele>
        <time>2013-05-09T08:17:27Z</time>
      </trkpt>
      <trkpt lat="49.26314" lon="-0.2218">
        <ele>25.6000004</ele>
        <time>2013-05-09T08:17:28Z</time>
      </trkpt>
      <trkpt lat="49.2632" lon="-0.22181">
        <ele>25.2000008</ele>
        <time>2013-05-09T08:17:29Z</time>
      </trkpt>
      <trkpt lat="49.26326" lon="-0.22182">
        <ele>24.6000004</ele>
        <time>2013-05-09T08:17:30Z</time>
      </trkpt>
      <trkpt lat="49.26332" lon="-0.22183">
        <ele>24.2000008</ele>
        <time>2013-05-09T08:17:31Z</time>
      </trkpt>
      <trkpt lat="49.26338" lon="-0.22185">
        <ele>23.6000004</ele>
        <time>2013-05-09T08:17:32Z</time>
      </trkpt>
      <trkpt lat="49.26344" lon="-0.22186">
        <ele>23.2000008</ele>
        <time>2013-05-09T08:17:33Z</time>
      </trkpt>
      <trkpt lat="49.2635" lon="-0.22189">
        <ele>22.6000004</ele>
        <time>2013-05-09T08:17:34Z</time>
      </trkpt>
      <trkpt lat="49.26356" lon="-0.22192">
        <ele>22.2000008</ele>
        <time>2013-05-09T08:17:35Z</time>
      </trkpt>
      <trkpt lat="49.26361" lon="-0.22195">
        <ele>21.6000004</ele>
        <time>2013-05-09T08:17:36Z</time>
      </trkpt>
      <trkpt lat="49.26366" lon="-0.22198">
        <ele>21</ele>
        <time>2013-05-09T08:17:37Z</time>
      </trkpt>
      <trkpt lat="49.26371" lon="-0.22201">
        <ele>20.2000008</ele>
        <time>2013-05-09T08:17:38Z</time>
      </trkpt>
      <trkpt lat="49.26377" lon="-0.22204">
        <ele>19.6000004</ele>
        <time>2013-05-09T08:17:39Z</time>
      </trkpt>
      <trkpt lat="49.26383" lon="-0.22206">
        <ele>19</ele>
        <time>2013-05-09T08:17:40Z</time>
      </trkpt>
      <trkpt lat="49.26389" lon="-0.22208">
        <ele>18.2000008</ele>
        <time>2013-05-09T08:17:41Z</time>
      </trkpt>
      <trkpt lat="49.26395" lon="-0.22211">
        <ele>18.2000008</ele>
        <time>2013-05-09T08:17:42Z</time>
      </trkpt>
      <trkpt lat="49.26407" lon="-0.22217">
        <ele>18</ele>
        <time>2013-05-09T08:17:44Z</time>
      </trkpt>
      <trkpt lat="49.26413" lon="-0.2222">
        <ele>17.6000004</ele>
        <time>2013-05-09T08:17:45Z</time>
      </trkpt>
      <trkpt lat="49.26419" lon="-0.22223">
        <ele>17.2000008</ele>
        <time>2013-05-09T08:17:46Z</time>
      </trkpt>
      <trkpt lat="49.26425" lon="-0.22227">
        <ele>16.6000004</ele>
        <time>2013-05-09T08:17:47Z</time>
      </trkpt>
      <trkpt lat="49.26432" lon="-0.22231">
        <ele>16.2000008</ele>
        <time>2013-05-09T08:17:48Z</time>
      </trkpt>
      <trkpt lat="49.26438" lon="-0.22234">
        <ele>15.6000004</ele>
        <time>2013-05-09T08:17:49Z</time>
      </trkpt>
      <trkpt lat="49.26443" lon="-0.22237">
        <ele>14.6000004</ele>
        <time>2013-05-09T08:17:50Z</time>
      </trkpt>
      <trkpt lat="49.26449" lon="-0.2224">
        <ele>14</ele>
        <time>2013-05-09T08:17:51Z</time>
      </trkpt>
      <trkpt lat="49.26455" lon="-0.22243">
        <ele>13</ele>
        <time>2013-05-09T08:17:52Z</time>
      </trkpt>
      <trkpt lat="49.26461" lon="-0.22246">
        <ele>12.6000004</ele>
        <time>2013-05-09T08:17:53Z</time>
      </trkpt>
      <trkpt lat="49.26467" lon="-0.22249">
        <ele>12</ele>
        <time>2013-05-09T08:17:54Z</time>
      </trkpt>
      <trkpt lat="49.26478" lon="-0.22255">
        <ele>11.6000004</ele>
        <time>2013-05-09T08:17:56Z</time>
      </trkpt>
      <trkpt lat="49.26484" lon="-0.2226">
        <ele>11</ele>
        <time>2013-05-09T08:17:57Z</time>
      </trkpt>
      <trkpt lat="49.2649" lon="-0.22264">
        <ele>10.8000002</ele>
        <time>2013-05-09T08:17:58Z</time>
      </trkpt>
      <trkpt lat="49.26495" lon="-0.22267">
        <ele>10.1999998</ele>
        <time>2013-05-09T08:17:59Z</time>
      </trkpt>
      <trkpt lat="49.26501" lon="-0.2227">
        <ele>10</ele>
        <time>2013-05-09T08:18:00Z</time>
      </trkpt>
      <trkpt lat="49.26511" lon="-0.22276">
        <ele>10</ele>
        <time>2013-05-09T08:18:02Z</time>
      </trkpt>
      <trkpt lat="49.26537" lon="-0.22291">
        <ele>10</ele>
        <time>2013-05-09T08:18:08Z</time>
      </trkpt>
      <trkpt lat="49.26547" lon="-0.22297">
        <ele>10</ele>
        <time>2013-05-09T08:18:12Z</time>
      </trkpt>
      <trkpt lat="49.26551" lon="-0.22298">
        <ele>9</ele>
        <time>2013-05-09T08:18:15Z</time>
      </trkpt>
      <trkpt lat="49.26552" lon="-0.22298">
        <ele>8.8000002</ele>
        <time>2013-05-09T08:18:16Z</time>
      </trkpt>
      <trkpt lat="49.26553" lon="-0.22299">
        <ele>8.1999998</ele>
        <time>2013-05-09T08:18:17Z</time>
      </trkpt>
      <trkpt lat="49.26555" lon="-0.223">
        <ele>8</ele>
        <time>2013-05-09T08:18:18Z</time>
      </trkpt>
      <trkpt lat="49.2656" lon="-0.22308">
        <ele>8</ele>
        <time>2013-05-09T08:18:23Z</time>
      </trkpt>
      <trkpt lat="49.2656" lon="-0.22311">
        <ele>8</ele>
        <time>2013-05-09T08:18:24Z</time>
      </trkpt>
      <trkpt lat="49.2656" lon="-0.22319">
        <ele>8</ele>
        <time>2013-05-09T08:18:27Z</time>
      </trkpt>
      <trkpt lat="49.26557" lon="-0.22328">
        <ele>8</ele>
        <time>2013-05-09T08:18:30Z</time>
      </trkpt>
      <trkpt lat="49.26554" lon="-0.22341">
        <ele>8</ele>
        <time>2013-05-09T08:18:33Z</time>
      </trkpt>
      <trkpt lat="49.26542" lon="-0.22383">
        <ele>8</ele>
        <time>2013-05-09T08:18:41Z</time>
      </trkpt>
      <trkpt lat="49.26528" lon="-0.22428">
        <ele>8</ele>
        <time>2013-05-09T08:18:49Z</time>
      </trkpt>
      <trkpt lat="49.26514" lon="-0.22482">
        <ele>8</ele>
        <time>2013-05-09T08:18:58Z</time>
      </trkpt>
      <trkpt lat="49.26516" lon="-0.22487">
        <ele>8</ele>
        <time>2013-05-09T08:18:59Z</time>
      </trkpt>
      <trkpt lat="49.2652" lon="-0.22494">
        <ele>8</ele>
        <time>2013-05-09T08:19:01Z</time>
      </trkpt>
      <trkpt lat="49.26523" lon="-0.22499">
        <ele>8</ele>
        <time>2013-05-09T08:19:03Z</time>
      </trkpt>
      <trkpt lat="49.26526" lon="-0.22501">
        <ele>8</ele>
        <time>2013-05-09T08:19:05Z</time>
      </trkpt>
      <trkpt lat="49.26528" lon="-0.22501">
        <ele>8</ele>
        <time>2013-05-09T08:19:06Z</time>
      </trkpt>
      <trkpt lat="49.26536" lon="-0.22506">
        <ele>8</ele>
        <time>2013-05-09T08:19:13Z</time>
      </trkpt>
      <trkpt lat="49.26545" lon="-0.22512">
        <ele>7.4000001</ele>
        <time>2013-05-09T08:19:18Z</time>
      </trkpt>
      <trkpt lat="49.26546" lon="-0.22513">
        <ele>7</ele>
        <time>2013-05-09T08:19:19Z</time>
      </trkpt>
      <trkpt lat="49.26546" lon="-0.22513">
        <ele>6.4000001</ele>
        <time>2013-05-09T08:19:20Z</time>
      </trkpt>
      <trkpt lat="49.26546" lon="-0.22513">
        <ele>6</ele>
        <time>2013-05-09T08:19:21Z</time>
      </trkpt>
      <trkpt lat="49.26547" lon="-0.22514">
        <ele>5.8000002</ele>
        <time>2013-05-09T08:19:34Z</time>
      </trkpt>
      <trkpt lat="49.26548" lon="-0.22516">
        <ele>5.8000002</ele>
        <time>2013-05-09T08:19:35Z</time>
      </trkpt>
      <trkpt lat="49.26546" lon="-0.22525">
        <ele>5.8000002</ele>
        <time>2013-05-09T08:19:38Z</time>
      </trkpt>
      <trkpt lat="49.26546" lon="-0.22528">
        <ele>5.8000002</ele>
        <time>2013-05-09T08:19:39Z</time>
      </trkpt>
      <trkpt lat="49.26545" lon="-0.22534">
        <ele>5.8000002</ele>
        <time>2013-05-09T08:19:41Z</time>
      </trkpt>
      <trkpt lat="49.26545" lon="-0.22536">
        <ele>5.8000002</ele>
        <time>2013-05-09T08:19:43Z</time>
      </trkpt>
      <trkpt lat="49.26545" lon="-0.22536">
        <ele>5.8000002</ele>
        <time>2013-05-09T08:19:44Z</time>
      </trkpt>
      <trkpt lat="49.26544" lon="-0.22538">
        <ele>5.8000002</ele>
        <time>2013-05-09T08:20:07Z</time>
      </trkpt>
      <trkpt lat="49.26544" lon="-0.22544">
        <ele>5.8000002</ele>
        <time>2013-05-09T08:20:09Z</time>
      </trkpt>
      <trkpt lat="49.2654" lon="-0.22561">
        <ele>5.8000002</ele>
        <time>2013-05-09T08:20:14Z</time>
      </trkpt>
      <trkpt lat="49.26538" lon="-0.22578">
        <ele>5.8000002</ele>
        <time>2013-05-09T08:20:19Z</time>
      </trkpt>
      <trkpt lat="49.26535" lon="-0.22602">
        <ele>5.8000002</ele>
        <time>2013-05-09T08:20:25Z</time>
      </trkpt>
      <trkpt lat="49.26531" lon="-0.22624">
        <ele>5.8000002</ele>
        <time>2013-05-09T08:20:31Z</time>
      </trkpt>
      <trkpt lat="49.26528" lon="-0.22647">
        <ele>5.8000002</ele>
        <time>2013-05-09T08:20:37Z</time>
      </trkpt>
      <trkpt lat="49.26526" lon="-0.22679">
        <ele>5.8000002</ele>
        <time>2013-05-09T08:20:45Z</time>
      </trkpt>
      <trkpt lat="49.26528" lon="-0.22707">
        <ele>5.8000002</ele>
        <time>2013-05-09T08:20:53Z</time>
      </trkpt>
      <trkpt lat="49.26534" lon="-0.22729">
        <ele>5.8000002</ele>
        <time>2013-05-09T08:20:59Z</time>
      </trkpt>
      <trkpt lat="49.2654" lon="-0.22758">
        <ele>5.8000002</ele>
        <time>2013-05-09T08:21:06Z</time>
      </trkpt>
      <trkpt lat="49.26547" lon="-0.22787">
        <ele>5.8000002</ele>
        <time>2013-05-09T08:21:14Z</time>
      </trkpt>
      <trkpt lat="49.26553" lon="-0.22817">
        <ele>5.8000002</ele>
        <time>2013-05-09T08:21:21Z</time>
      </trkpt>
      <trkpt lat="49.26558" lon="-0.22845">
        <ele>5.8000002</ele>
        <time>2013-05-09T08:21:28Z</time>
      </trkpt>
      <trkpt lat="49.26564" lon="-0.22876">
        <ele>5.8000002</ele>
        <time>2013-05-09T08:21:35Z</time>
      </trkpt>
      <trkpt lat="49.26569" lon="-0.22905">
        <ele>5.8000002</ele>
        <time>2013-05-09T08:21:41Z</time>
      </trkpt>
      <trkpt lat="49.26569" lon="-0.22937">
        <ele>5.8000002</ele>
        <time>2013-05-09T08:21:48Z</time>
      </trkpt>
      <trkpt lat="49.26564" lon="-0.22962">
        <ele>5.8000002</ele>
        <time>2013-05-09T08:21:54Z</time>
      </trkpt>
      <trkpt lat="49.26557" lon="-0.22988">
        <ele>5.8000002</ele>
        <time>2013-05-09T08:22:01Z</time>
      </trkpt>
      <trkpt lat="49.26553" lon="-0.23002">
        <ele>5.8000002</ele>
        <time>2013-05-09T08:22:05Z</time>
      </trkpt>
      <trkpt lat="49.26553" lon="-0.23005">
        <ele>5.8000002</ele>
        <time>2013-05-09T08:22:06Z</time>
      </trkpt>
      <trkpt lat="49.26557" lon="-0.23009">
        <ele>5.8000002</ele>
        <time>2013-05-09T08:22:10Z</time>
      </trkpt>
      <trkpt lat="49.26558" lon="-0.23011">
        <ele>5.8000002</ele>
        <time>2013-05-09T08:22:11Z</time>
      </trkpt>
      <trkpt lat="49.26566" lon="-0.23019">
        <ele>5.8000002</ele>
        <time>2013-05-09T08:22:18Z</time>
      </trkpt>
      <trkpt lat="49.26566" lon="-0.23019">
        <ele>5.8000002</ele>
        <time>2013-05-09T08:22:19Z</time>
      </trkpt>
      <trkpt lat="49.26567" lon="-0.2302">
        <ele>5.8000002</ele>
        <time>2013-05-09T08:22:21Z</time>
      </trkpt>
      <trkpt lat="49.26567" lon="-0.2302">
        <ele>5.8000002</ele>
        <time>2013-05-09T08:22:23Z</time>
      </trkpt>
      <trkpt lat="49.2657" lon="-0.23022">
        <ele>5.8000002</ele>
        <time>2013-05-09T08:22:28Z</time>
      </trkpt>
      <trkpt lat="49.26571" lon="-0.23022">
        <ele>5.8000002</ele>
        <time>2013-05-09T08:22:29Z</time>
      </trkpt>
      <trkpt lat="49.26571" lon="-0.23023">
        <ele>5.8000002</ele>
        <time>2013-05-09T08:22:30Z</time>
      </trkpt>
      <trkpt lat="49.26571" lon="-0.23023">
        <ele>5.8000002</ele>
        <time>2013-05-09T08:22:31Z</time>
      </trkpt>
      <trkpt lat="49.26571" lon="-0.23023">
        <ele>5.8000002</ele>
        <time>2013-05-09T08:22:32Z</time>
      </trkpt>
      <trkpt lat="49.26571" lon="-0.23023">
        <ele>5.8000002</ele>
        <time>2013-05-09T08:22:36Z</time>
      </trkpt>
      <trkpt lat="49.26572" lon="-0.23024">
        <ele>5.8000002</ele>
        <time>2013-05-09T08:22:37Z</time>
      </trkpt>
      <trkpt lat="49.26579" lon="-0.23024">
        <ele>5.8000002</ele>
        <time>2013-05-09T08:22:41Z</time>
      </trkpt>
      <trkpt lat="49.26588" lon="-0.23012">
        <ele>5.8000002</ele>
        <time>2013-05-09T08:22:46Z</time>
      </trkpt>
      <trkpt lat="49.26592" lon="-0.23008">
        <ele>5.8000002</ele>
        <time>2013-05-09T08:22:48Z</time>
      </trkpt>
      <trkpt lat="49.26596" lon="-0.22999">
        <ele>5.8000002</ele>
        <time>2013-05-09T08:22:51Z</time>
      </trkpt>
      <trkpt lat="49.26598" lon="-0.22995">
        <ele>5.8000002</ele>
        <time>2013-05-09T08:22:53Z</time>
      </trkpt>
      <trkpt lat="49.26599" lon="-0.2299">
        <ele>5.8000002</ele>
        <time>2013-05-09T08:22:55Z</time>
      </trkpt>
      <trkpt lat="49.26604" lon="-0.22974">
        <ele>5.8000002</ele>
        <time>2013-05-09T08:23:00Z</time>
      </trkpt>
      <trkpt lat="49.26611" lon="-0.22961">
        <ele>5.8000002</ele>
        <time>2013-05-09T08:23:05Z</time>
      </trkpt>
      <trkpt lat="49.26619" lon="-0.22949">
        <ele>5.8000002</ele>
        <time>2013-05-09T08:23:10Z</time>
      </trkpt>
      <trkpt lat="49.26633" lon="-0.22934">
        <ele>5.8000002</ele>
        <time>2013-05-09T08:23:17Z</time>
      </trkpt>
      <trkpt lat="49.2664" lon="-0.22927">
        <ele>5.8000002</ele>
        <time>2013-05-09T08:23:20Z</time>
      </trkpt>
      <trkpt lat="49.2664" lon="-0.22924">
        <ele>5.8000002</ele>
        <time>2013-05-09T08:23:22Z</time>
      </trkpt>
      <trkpt lat="49.26641" lon="-0.22924">
        <ele>5.8000002</ele>
        <time>2013-05-09T08:23:23Z</time>
      </trkpt>
      <trkpt lat="49.26641" lon="-0.22924">
        <ele>5.8000002</ele>
        <time>2013-05-09T08:23:25Z</time>
      </trkpt>
      <trkpt lat="49.26641" lon="-0.22924">
        <ele>5.8000002</ele>
        <time>2013-05-09T08:23:32Z</time>
      </trkpt>
      <trkpt lat="49.26641" lon="-0.22924">
        <ele>5.8000002</ele>
        <time>2013-05-09T08:23:33Z</time>
      </trkpt>
      <trkpt lat="49.2664" lon="-0.22924">
        <ele>5.8000002</ele>
        <time>2013-05-09T08:23:41Z</time>
      </trkpt>
      <trkpt lat="49.2664" lon="-0.22924">
        <ele>5.8000002</ele>
        <time>2013-05-09T08:23:42Z</time>
      </trkpt>
      <trkpt lat="49.2664" lon="-0.22924">
        <ele>5.8000002</ele>
        <time>2013-05-09T08:23:48Z</time>
      </trkpt>
      <trkpt lat="49.26642" lon="-0.22931">
        <ele>5.8000002</ele>
        <time>2013-05-09T08:23:52Z</time>
      </trkpt>
      <trkpt lat="49.26647" lon="-0.22927">
        <ele>5.8000002</ele>
        <time>2013-05-09T08:23:55Z</time>
      </trkpt>
      <trkpt lat="49.2665" lon="-0.22926">
        <ele>5.8000002</ele>
        <time>2013-05-09T08:23:56Z</time>
      </trkpt>
      <trkpt lat="49.26668" lon="-0.22913">
        <ele>5.8000002</ele>
        <time>2013-05-09T08:24:02Z</time>
      </trkpt>
      <trkpt lat="49.2668" lon="-0.22898">
        <ele>5.8000002</ele>
        <time>2013-05-09T08:24:07Z</time>
      </trkpt>
      <trkpt lat="49.26697" lon="-0.22866">
        <ele>5.8000002</ele>
        <time>2013-05-09T08:24:15Z</time>
      </trkpt>
      <trkpt lat="49.26712" lon="-0.22833">
        <ele>5.8000002</ele>
        <time>2013-05-09T08:24:22Z</time>
      </trkpt>
      <trkpt lat="49.26728" lon="-0.22793">
        <ele>5.8000002</ele>
        <time>2013-05-09T08:24:30Z</time>
      </trkpt>
      <trkpt lat="49.26738" lon="-0.22767">
        <ele>5.8000002</ele>
        <time>2013-05-09T08:24:37Z</time>
      </trkpt>
      <trkpt lat="49.26739" lon="-0.22766">
        <ele>5.8000002</ele>
        <time>2013-05-09T08:24:39Z</time>
      </trkpt>
      <trkpt lat="49.26739" lon="-0.22766">
        <ele>5.8000002</ele>
        <time>2013-05-09T08:24:49Z</time>
      </trkpt>
      <trkpt lat="49.26738" lon="-0.22765">
        <ele>5.8000002</ele>
        <time>2013-05-09T08:24:50Z</time>
      </trkpt>
      <trkpt lat="49.26738" lon="-0.22765">
        <ele>5.8000002</ele>
        <time>2013-05-09T08:26:49Z</time>
      </trkpt>
      <trkpt lat="49.26739" lon="-0.22765">
        <ele>5.8000002</ele>
        <time>2013-05-09T08:26:50Z</time>
      </trkpt>
      <trkpt lat="49.26739" lon="-0.22765">
        <ele>5.8000002</ele>
        <time>2013-05-09T08:26:51Z</time>
      </trkpt>
      <trkpt lat="49.2674" lon="-0.22764">
        <ele>5.8000002</ele>
        <time>2013-05-09T08:26:52Z</time>
      </trkpt>
      <trkpt lat="49.2674" lon="-0.22763">
        <ele>5.8000002</ele>
        <time>2013-05-09T08:26:54Z</time>
      </trkpt>
      <trkpt lat="49.2674" lon="-0.22762">
        <ele>5.8000002</ele>
        <time>2013-05-09T08:28:14Z</time>
      </trkpt>
      <trkpt lat="49.26741" lon="-0.22761">
        <ele>5.8000002</ele>
        <time>2013-05-09T08:28:15Z</time>
      </trkpt>
      <trkpt lat="49.26741" lon="-0.22761">
        <ele>5.8000002</ele>
        <time>2013-05-09T08:28:16Z</time>
      </trkpt>
      <trkpt lat="49.26741" lon="-0.2276">
        <ele>5.8000002</ele>
        <time>2013-05-09T08:28:53Z</time>
      </trkpt>
      <trkpt lat="49.26744" lon="-0.22752">
        <ele>5.8000002</ele>
        <time>2013-05-09T08:28:56Z</time>
      </trkpt>
      <trkpt lat="49.26751" lon="-0.22728">
        <ele>5.8000002</ele>
        <time>2013-05-09T08:29:02Z</time>
      </trkpt>
      <trkpt lat="49.26757" lon="-0.22699">
        <ele>5.8000002</ele>
        <time>2013-05-09T08:29:08Z</time>
      </trkpt>
      <trkpt lat="49.26763" lon="-0.22668">
        <ele>5.8000002</ele>
        <time>2013-05-09T08:29:15Z</time>
      </trkpt>
      <trkpt lat="49.26769" lon="-0.22633">
        <ele>5.8000002</ele>
        <time>2013-05-09T08:29:23Z</time>
      </trkpt>
      <trkpt lat="49.26776" lon="-0.22594">
        <ele>5.8000002</ele>
        <time>2013-05-09T08:29:31Z</time>
      </trkpt>
      <trkpt lat="49.26785" lon="-0.22559">
        <ele>5.8000002</ele>
        <time>2013-05-09T08:29:38Z</time>
      </trkpt>
      <trkpt lat="49.26794" lon="-0.22532">
        <ele>5.8000002</ele>
        <time>2013-05-09T08:29:44Z</time>
      </trkpt>
      <trkpt lat="49.26797" lon="-0.22523">
        <ele>5.8000002</ele>
        <time>2013-05-09T08:29:46Z</time>
      </trkpt>
      <trkpt lat="49.26803" lon="-0.22492">
        <ele>5.8000002</ele>
        <time>2013-05-09T08:29:52Z</time>
      </trkpt>
      <trkpt lat="49.2681" lon="-0.22456">
        <ele>5.8000002</ele>
        <time>2013-05-09T08:29:59Z</time>
      </trkpt>
      <trkpt lat="49.26814" lon="-0.22425">
        <ele>5.8000002</ele>
        <time>2013-05-09T08:30:05Z</time>
      </trkpt>
      <trkpt lat="49.26819" lon="-0.2239">
        <ele>5.8000002</ele>
        <time>2013-05-09T08:30:12Z</time>
      </trkpt>
      <trkpt lat="49.26818" lon="-0.22367">
        <ele>5.8000002</ele>
        <time>2013-05-09T08:30:17Z</time>
      </trkpt>
      <trkpt lat="49.26822" lon="-0.22337">
        <ele>5.8000002</ele>
        <time>2013-05-09T08:30:23Z</time>
      </trkpt>
      <trkpt lat="49.26828" lon="-0.22313">
        <ele>5.8000002</ele>
        <time>2013-05-09T08:30:29Z</time>
      </trkpt>
      <trkpt lat="49.26827" lon="-0.2231">
        <ele>5.8000002</ele>
        <time>2013-05-09T08:30:32Z</time>
      </trkpt>
      <trkpt lat="49.26827" lon="-0.2231">
        <ele>5.8000002</ele>
        <time>2013-05-09T08:30:36Z</time>
      </trkpt>
      <trkpt lat="49.26826" lon="-0.2231">
        <ele>5.8000002</ele>
        <time>2013-05-09T08:30:37Z</time>
      </trkpt>
      <trkpt lat="49.26823" lon="-0.2231">
        <ele>5.8000002</ele>
        <time>2013-05-09T08:30:40Z</time>
      </trkpt>
      <trkpt lat="49.26822" lon="-0.2231">
        <ele>5.8000002</ele>
        <time>2013-05-09T08:30:41Z</time>
      </trkpt>
      <trkpt lat="49.26821" lon="-0.22311">
        <ele>6</ele>
        <time>2013-05-09T08:30:43Z</time>
      </trkpt>
      <trkpt lat="49.2682" lon="-0.22313">
        <ele>6.4000001</ele>
        <time>2013-05-09T08:30:44Z</time>
      </trkpt>
      <trkpt lat="49.26818" lon="-0.22315">
        <ele>7</ele>
        <time>2013-05-09T08:30:45Z</time>
      </trkpt>
      <trkpt lat="49.26817" lon="-0.22317">
        <ele>7.4000001</ele>
        <time>2013-05-09T08:30:46Z</time>
      </trkpt>
      <trkpt lat="49.26815" lon="-0.22318">
        <ele>7.8000002</ele>
        <time>2013-05-09T08:30:47Z</time>
      </trkpt>
      <trkpt lat="49.26815" lon="-0.22318">
        <ele>7.8000002</ele>
        <time>2013-05-09T08:30:48Z</time>
      </trkpt>
      <trkpt lat="49.26815" lon="-0.22318">
        <ele>7.8000002</ele>
        <time>2013-05-09T08:31:01Z</time>
      </trkpt>
      <trkpt lat="49.26814" lon="-0.22317">
        <ele>7.8000002</ele>
        <time>2013-05-09T08:31:02Z</time>
      </trkpt>
      <trkpt lat="49.26809" lon="-0.22304">
        <ele>7.8000002</ele>
        <time>2013-05-09T08:31:07Z</time>
      </trkpt>
      <trkpt lat="49.26796" lon="-0.22284">
        <ele>7.8000002</ele>
        <time>2013-05-09T08:31:13Z</time>
      </trkpt>
      <trkpt lat="49.26775" lon="-0.22261">
        <ele>7.8000002</ele>
        <time>2013-05-09T08:31:20Z</time>
      </trkpt>
      <trkpt lat="49.26759" lon="-0.22242">
        <ele>7.8000002</ele>
        <time>2013-05-09T08:31:26Z</time>
      </trkpt>
      <trkpt lat="49.26748" lon="-0.22217">
        <ele>7.8000002</ele>
        <time>2013-05-09T08:31:32Z</time>
      </trkpt>
      <trkpt lat="49.26743" lon="-0.22187">
        <ele>7.8000002</ele>
        <time>2013-05-09T08:31:38Z</time>
      </trkpt>
      <trkpt lat="49.26738" lon="-0.22161">
        <ele>7.8000002</ele>
        <time>2013-05-09T08:31:44Z</time>
      </trkpt>
      <trkpt lat="49.26734" lon="-0.22134">
        <ele>7.8000002</ele>
        <time>2013-05-09T08:31:50Z</time>
      </trkpt>
      <trkpt lat="49.26728" lon="-0.22109">
        <ele>7.8000002</ele>
        <time>2013-05-09T08:31:56Z</time>
      </trkpt>
      <trkpt lat="49.26725" lon="-0.22105">
        <ele>7.8000002</ele>
        <time>2013-05-09T08:31:58Z</time>
      </trkpt>
      <trkpt lat="49.2672" lon="-0.22107">
        <ele>7.8000002</ele>
        <time>2013-05-09T08:32:00Z</time>
      </trkpt>
      <trkpt lat="49.26714" lon="-0.2211">
        <ele>7.8000002</ele>
        <time>2013-05-09T08:32:02Z</time>
      </trkpt>
      <trkpt lat="49.267" lon="-0.22119">
        <ele>7.8000002</ele>
        <time>2013-05-09T08:32:06Z</time>
      </trkpt>
      <trkpt lat="49.26675" lon="-0.2214">
        <ele>7.8000002</ele>
        <time>2013-05-09T08:32:13Z</time>
      </trkpt>
      <trkpt lat="49.26644" lon="-0.22172">
        <ele>7.8000002</ele>
        <time>2013-05-09T08:32:22Z</time>
      </trkpt>
      <trkpt lat="49.26616" lon="-0.22207">
        <ele>7.8000002</ele>
        <time>2013-05-09T08:32:31Z</time>
      </trkpt>
      <trkpt lat="49.26592" lon="-0.22246">
        <ele>7.8000002</ele>
        <time>2013-05-09T08:32:40Z</time>
      </trkpt>
      <trkpt lat="49.26582" lon="-0.2227">
        <ele>7.8000002</ele>
        <time>2013-05-09T08:32:46Z</time>
      </trkpt>
      <trkpt lat="49.26579" lon="-0.22272">
        <ele>7.8000002</ele>
        <time>2013-05-09T08:32:49Z</time>
      </trkpt>
      <trkpt lat="49.26579" lon="-0.22272">
        <ele>7.8000002</ele>
        <time>2013-05-09T08:32:57Z</time>
      </trkpt>
      <trkpt lat="49.26577" lon="-0.22271">
        <ele>7.8000002</ele>
        <time>2013-05-09T08:33:01Z</time>
      </trkpt>
      <trkpt lat="49.26577" lon="-0.22271">
        <ele>7.8000002</ele>
        <time>2013-05-09T08:33:04Z</time>
      </trkpt>
      <trkpt lat="49.26576" lon="-0.2227">
        <ele>7.8000002</ele>
        <time>2013-05-09T08:33:05Z</time>
      </trkpt>
      <trkpt lat="49.26567" lon="-0.22262">
        <ele>7.8000002</ele>
        <time>2013-05-09T08:33:10Z</time>
      </trkpt>
      <trkpt lat="49.26566" lon="-0.22249">
        <ele>7.8000002</ele>
        <time>2013-05-09T08:33:14Z</time>
      </trkpt>
      <trkpt lat="49.26568" lon="-0.22222">
        <ele>7.8000002</ele>
        <time>2013-05-09T08:33:20Z</time>
      </trkpt>
      <trkpt lat="49.26571" lon="-0.22195">
        <ele>7.8000002</ele>
        <time>2013-05-09T08:33:27Z</time>
      </trkpt>
      <trkpt lat="49.26574" lon="-0.22171">
        <ele>7.8000002</ele>
        <time>2013-05-09T08:33:33Z</time>
      </trkpt>
      <trkpt lat="49.26577" lon="-0.22147">
        <ele>7.8000002</ele>
        <time>2013-05-09T08:33:39Z</time>
      </trkpt>
      <trkpt lat="49.26576" lon="-0.22119">
        <ele>7.8000002</ele>
        <time>2013-05-09T08:33:45Z</time>
      </trkpt>
      <trkpt lat="49.26572" lon="-0.22093">
        <ele>7.8000002</ele>
        <time>2013-05-09T08:33:50Z</time>
      </trkpt>
      <trkpt lat="49.26564" lon="-0.22053">
        <ele>7.8000002</ele>
        <time>2013-05-09T08:33:58Z</time>
      </trkpt>
      <trkpt lat="49.26558" lon="-0.22036">
        <ele>7.8000002</ele>
        <time>2013-05-09T08:34:03Z</time>
      </trkpt>
      <trkpt lat="49.26545" lon="-0.22006">
        <ele>7.8000002</ele>
        <time>2013-05-09T08:34:11Z</time>
      </trkpt>
      <trkpt lat="49.26539" lon="-0.2198">
        <ele>7.8000002</ele>
        <time>2013-05-09T08:34:17Z</time>
      </trkpt>
      <trkpt lat="49.26542" lon="-0.21949">
        <ele>7.8000002</ele>
        <time>2013-05-09T08:34:24Z</time>
      </trkpt>
      <trkpt lat="49.26547" lon="-0.21923">
        <ele>7.8000002</ele>
        <time>2013-05-09T08:34:30Z</time>
      </trkpt>
      <trkpt lat="49.26554" lon="-0.2189">
        <ele>7.8000002</ele>
        <time>2013-05-09T08:34:37Z</time>
      </trkpt>
      <trkpt lat="49.26556" lon="-0.2186">
        <ele>7.8000002</ele>
        <time>2013-05-09T08:34:43Z</time>
      </trkpt>
      <trkpt lat="49.26547" lon="-0.21852">
        <ele>7.8000002</ele>
        <time>2013-05-09T08:34:47Z</time>
      </trkpt>
      <trkpt lat="49.26536" lon="-0.21842">
        <ele>7.8000002</ele>
        <time>2013-05-09T08:34:52Z</time>
      </trkpt>
      <trkpt lat="49.26524" lon="-0.21829">
        <ele>7.8000002</ele>
        <time>2013-05-09T08:34:58Z</time>
      </trkpt>
      <trkpt lat="49.26517" lon="-0.21822">
        <ele>8</ele>
        <time>2013-05-09T08:35:01Z</time>
      </trkpt>
      <trkpt lat="49.26514" lon="-0.2182">
        <ele>8.6000004</ele>
        <time>2013-05-09T08:35:02Z</time>
      </trkpt>
      <trkpt lat="49.26512" lon="-0.21818">
        <ele>9</ele>
        <time>2013-05-09T08:35:03Z</time>
      </trkpt>
      <trkpt lat="49.2651" lon="-0.21816">
        <ele>9.1999998</ele>
        <time>2013-05-09T08:35:04Z</time>
      </trkpt>
      <trkpt lat="49.26508" lon="-0.21814">
        <ele>9.8000002</ele>
        <time>2013-05-09T08:35:05Z</time>
      </trkpt>
      <trkpt lat="49.26496" lon="-0.21805">
        <ele>9.8000002</ele>
        <time>2013-05-09T08:35:10Z</time>
      </trkpt>
      <trkpt lat="49.26486" lon="-0.21796">
        <ele>10.1999998</ele>
        <time>2013-05-09T08:35:15Z</time>
      </trkpt>
      <trkpt lat="49.26484" lon="-0.21794">
        <ele>10.8000002</ele>
        <time>2013-05-09T08:35:16Z</time>
      </trkpt>
      <trkpt lat="49.26483" lon="-0.21793">
        <ele>11</ele>
        <time>2013-05-09T08:35:17Z</time>
      </trkpt>
      <trkpt lat="49.26481" lon="-0.21791">
        <ele>11.6000004</ele>
        <time>2013-05-09T08:35:18Z</time>
      </trkpt>
      <trkpt lat="49.26479" lon="-0.21789">
        <ele>12</ele>
        <time>2013-05-09T08:35:19Z</time>
      </trkpt>
      <trkpt lat="49.26469" lon="-0.2178">
        <ele>12.6000004</ele>
        <time>2013-05-09T08:35:24Z</time>
      </trkpt>
      <trkpt lat="49.26467" lon="-0.21778">
        <ele>13</ele>
        <time>2013-05-09T08:35:25Z</time>
      </trkpt>
      <trkpt lat="49.26466" lon="-0.21776">
        <ele>13.1999998</ele>
        <time>2013-05-09T08:35:26Z</time>
      </trkpt>
      <trkpt lat="49.26464" lon="-0.21775">
        <ele>13.8000002</ele>
        <time>2013-05-09T08:35:27Z</time>
      </trkpt>
      <trkpt lat="49.26462" lon="-0.21773">
        <ele>14</ele>
        <time>2013-05-09T08:35:28Z</time>
      </trkpt>
      <trkpt lat="49.26455" lon="-0.21767">
        <ele>14</ele>
        <time>2013-05-09T08:35:31Z</time>
      </trkpt>
      <trkpt lat="49.26453" lon="-0.21765">
        <ele>14.6000004</ele>
        <time>2013-05-09T08:35:32Z</time>
      </trkpt>
      <trkpt lat="49.26451" lon="-0.21763">
        <ele>15</ele>
        <time>2013-05-09T08:35:33Z</time>
      </trkpt>
      <trkpt lat="49.26449" lon="-0.2176">
        <ele>15.1999998</ele>
        <time>2013-05-09T08:35:34Z</time>
      </trkpt>
      <trkpt lat="49.26447" lon="-0.21758">
        <ele>15.8000002</ele>
        <time>2013-05-09T08:35:35Z</time>
      </trkpt>
      <trkpt lat="49.26445" lon="-0.21756">
        <ele>16.2000008</ele>
        <time>2013-05-09T08:35:36Z</time>
      </trkpt>
      <trkpt lat="49.2644" lon="-0.21751">
        <ele>16.2000008</ele>
        <time>2013-05-09T08:35:38Z</time>
      </trkpt>
      <trkpt lat="49.2643" lon="-0.21739">
        <ele>16.6000004</ele>
        <time>2013-05-09T08:35:43Z</time>
      </trkpt>
      <trkpt lat="49.26429" lon="-0.21736">
        <ele>17.2000008</ele>
        <time>2013-05-09T08:35:44Z</time>
      </trkpt>
      <trkpt lat="49.26427" lon="-0.21733">
        <ele>17.6000004</ele>
        <time>2013-05-09T08:35:45Z</time>
      </trkpt>
      <trkpt lat="49.26426" lon="-0.21731">
        <ele>18</ele>
        <time>2013-05-09T08:35:46Z</time>
      </trkpt>
      <trkpt lat="49.26424" lon="-0.21728">
        <ele>18.2000008</ele>
        <time>2013-05-09T08:35:47Z</time>
      </trkpt>
      <trkpt lat="49.26416" lon="-0.21718">
        <ele>18.2000008</ele>
        <time>2013-05-09T08:35:51Z</time>
      </trkpt>
      <trkpt lat="49.26413" lon="-0.21716">
        <ele>18.6000004</ele>
        <time>2013-05-09T08:35:52Z</time>
      </trkpt>
      <trkpt lat="49.26411" lon="-0.21713">
        <ele>19.2000008</ele>
        <time>2013-05-09T08:35:53Z</time>
      </trkpt>
      <trkpt lat="49.26409" lon="-0.21711">
        <ele>19.6000004</ele>
        <time>2013-05-09T08:35:54Z</time>
      </trkpt>
      <trkpt lat="49.26406" lon="-0.21708">
        <ele>20.2000008</ele>
        <time>2013-05-09T08:35:55Z</time>
      </trkpt>
      <trkpt lat="49.26404" lon="-0.21705">
        <ele>20.6000004</ele>
        <time>2013-05-09T08:35:56Z</time>
      </trkpt>
      <trkpt lat="49.26399" lon="-0.217">
        <ele>20.6000004</ele>
        <time>2013-05-09T08:35:58Z</time>
      </trkpt>
      <trkpt lat="49.26384" lon="-0.21681">
        <ele>20.6000004</ele>
        <time>2013-05-09T08:36:04Z</time>
      </trkpt>
      <trkpt lat="49.26379" lon="-0.21674">
        <ele>21</ele>
        <time>2013-05-09T08:36:06Z</time>
      </trkpt>
      <trkpt lat="49.26376" lon="-0.2167">
        <ele>21.2000008</ele>
        <time>2013-05-09T08:36:07Z</time>
      </trkpt>
      <trkpt lat="49.26373" lon="-0.21666">
        <ele>21.6000004</ele>
        <time>2013-05-09T08:36:08Z</time>
      </trkpt>
      <trkpt lat="49.2637" lon="-0.21663">
        <ele>22.2000008</ele>
        <time>2013-05-09T08:36:09Z</time>
      </trkpt>
      <trkpt lat="49.26367" lon="-0.21659">
        <ele>22.6000004</ele>
        <time>2013-05-09T08:36:10Z</time>
      </trkpt>
      <trkpt lat="49.26365" lon="-0.21655">
        <ele>22.6000004</ele>
        <time>2013-05-09T08:36:11Z</time>
      </trkpt>
      <trkpt lat="49.26351" lon="-0.21636">
        <ele>22.6000004</ele>
        <time>2013-05-09T08:36:17Z</time>
      </trkpt>
      <trkpt lat="49.26343" lon="-0.21625">
        <ele>23</ele>
        <time>2013-05-09T08:36:20Z</time>
      </trkpt>
      <trkpt lat="49.26341" lon="-0.21622">
        <ele>23.2000008</ele>
        <time>2013-05-09T08:36:21Z</time>
      </trkpt>
      <trkpt lat="49.26339" lon="-0.21618">
        <ele>23.6000004</ele>
        <time>2013-05-09T08:36:22Z</time>
      </trkpt>
      <trkpt lat="49.26337" lon="-0.21615">
        <ele>24.2000008</ele>
        <time>2013-05-09T08:36:23Z</time>
      </trkpt>
      <trkpt lat="49.26335" lon="-0.21611">
        <ele>24.6000004</ele>
        <time>2013-05-09T08:36:24Z</time>
      </trkpt>
      <trkpt lat="49.26321" lon="-0.21593">
        <ele>24.6000004</ele>
        <time>2013-05-09T08:36:31Z</time>
      </trkpt>
      <trkpt lat="49.26317" lon="-0.21587">
        <ele>25</ele>
        <time>2013-05-09T08:36:34Z</time>
      </trkpt>
      <trkpt lat="49.26316" lon="-0.21584">
        <ele>25.2000008</ele>
        <time>2013-05-09T08:36:35Z</time>
      </trkpt>
      <trkpt lat="49.26314" lon="-0.21582">
        <ele>25.6000004</ele>
        <time>2013-05-09T08:36:36Z</time>
      </trkpt>
      <trkpt lat="49.26313" lon="-0.21581">
        <ele>26.2000008</ele>
        <time>2013-05-09T08:36:37Z</time>
      </trkpt>
      <trkpt lat="49.26311" lon="-0.21579">
        <ele>26.6000004</ele>
        <time>2013-05-09T08:36:38Z</time>
      </trkpt>
      <trkpt lat="49.2631" lon="-0.21574">
        <ele>26.6000004</ele>
        <time>2013-05-09T08:36:40Z</time>
      </trkpt>
      <trkpt lat="49.26312" lon="-0.21568">
        <ele>26.6000004</ele>
        <time>2013-05-09T08:36:42Z</time>
      </trkpt>
      <trkpt lat="49.26316" lon="-0.21562">
        <ele>26.6000004</ele>
        <time>2013-05-09T08:36:44Z</time>
      </trkpt>
      <trkpt lat="49.26324" lon="-0.2155">
        <ele>26.6000004</ele>
        <time>2013-05-09T08:36:48Z</time>
      </trkpt>
      <trkpt lat="49.26337" lon="-0.21529">
        <ele>26.6000004</ele>
        <time>2013-05-09T08:36:53Z</time>
      </trkpt>
      <trkpt lat="49.26354" lon="-0.21499">
        <ele>26.6000004</ele>
        <time>2013-05-09T08:36:59Z</time>
      </trkpt>
      <trkpt lat="49.26373" lon="-0.21466">
        <ele>26.2000008</ele>
        <time>2013-05-09T08:37:06Z</time>
      </trkpt>
      <trkpt lat="49.26375" lon="-0.21461">
        <ele>25.6000004</ele>
        <time>2013-05-09T08:37:07Z</time>
      </trkpt>
      <trkpt lat="49.26377" lon="-0.21456">
        <ele>25.2000008</ele>
        <time>2013-05-09T08:37:08Z</time>
      </trkpt>
      <trkpt lat="49.2638" lon="-0.21452">
        <ele>25</ele>
        <time>2013-05-09T08:37:09Z</time>
      </trkpt>
      <trkpt lat="49.26382" lon="-0.21447">
        <ele>24.6000004</ele>
        <time>2013-05-09T08:37:10Z</time>
      </trkpt>
      <trkpt lat="49.26387" lon="-0.21436">
        <ele>24.6000004</ele>
        <time>2013-05-09T08:37:13Z</time>
      </trkpt>
      <trkpt lat="49.2639" lon="-0.21431">
        <ele>24.6000004</ele>
        <time>2013-05-09T08:37:14Z</time>
      </trkpt>
      <trkpt lat="49.26407" lon="-0.21398">
        <ele>24.6000004</ele>
        <time>2013-05-09T08:37:20Z</time>
      </trkpt>
      <trkpt lat="49.2641" lon="-0.21393">
        <ele>24.6000004</ele>
        <time>2013-05-09T08:37:21Z</time>
      </trkpt>
      <trkpt lat="49.26415" lon="-0.21381">
        <ele>24.6000004</ele>
        <time>2013-05-09T08:37:23Z</time>
      </trkpt>
      <trkpt lat="49.26421" lon="-0.21369">
        <ele>24.6000004</ele>
        <time>2013-05-09T08:37:25Z</time>
      </trkpt>
      <trkpt lat="49.26445" lon="-0.21324">
        <ele>24.6000004</ele>
        <time>2013-05-09T08:37:33Z</time>
      </trkpt>
      <trkpt lat="49.26448" lon="-0.21318">
        <ele>24.6000004</ele>
        <time>2013-05-09T08:37:34Z</time>
      </trkpt>
      <trkpt lat="49.26452" lon="-0.21313">
        <ele>24.2000008</ele>
        <time>2013-05-09T08:37:35Z</time>
      </trkpt>
      <trkpt lat="49.26455" lon="-0.21307">
        <ele>23.6000004</ele>
        <time>2013-05-09T08:37:36Z</time>
      </trkpt>
      <trkpt lat="49.26458" lon="-0.21301">
        <ele>23.2000008</ele>
        <time>2013-05-09T08:37:37Z</time>
      </trkpt>
      <trkpt lat="49.26461" lon="-0.21297">
        <ele>23</ele>
        <time>2013-05-09T08:37:38Z</time>
      </trkpt>
      <trkpt lat="49.26465" lon="-0.21291">
        <ele>22.2000008</ele>
        <time>2013-05-09T08:37:39Z</time>
      </trkpt>
      <trkpt lat="49.26483" lon="-0.21264">
        <ele>22.2000008</ele>
        <time>2013-05-09T08:37:44Z</time>
      </trkpt>
      <trkpt lat="49.26502" lon="-0.2123">
        <ele>22.2000008</ele>
        <time>2013-05-09T08:37:50Z</time>
      </trkpt>
      <trkpt lat="49.26526" lon="-0.2119">
        <ele>22.2000008</ele>
        <time>2013-05-09T08:37:57Z</time>
      </trkpt>
      <trkpt lat="49.26539" lon="-0.21169">
        <ele>22.2000008</ele>
        <time>2013-05-09T08:38:01Z</time>
      </trkpt>
      <trkpt lat="49.26542" lon="-0.21165">
        <ele>22.2000008</ele>
        <time>2013-05-09T08:38:02Z</time>
      </trkpt>
      <trkpt lat="49.26555" lon="-0.21141">
        <ele>22.2000008</ele>
        <time>2013-05-09T08:38:07Z</time>
      </trkpt>
      <trkpt lat="49.26564" lon="-0.21126">
        <ele>22.2000008</ele>
        <time>2013-05-09T08:38:10Z</time>
      </trkpt>
      <trkpt lat="49.26573" lon="-0.21109">
        <ele>22.2000008</ele>
        <time>2013-05-09T08:38:13Z</time>
      </trkpt>
      <trkpt lat="49.26576" lon="-0.21104">
        <ele>22.2000008</ele>
        <time>2013-05-09T08:38:14Z</time>
      </trkpt>
      <trkpt lat="49.26588" lon="-0.21081">
        <ele>22.2000008</ele>
        <time>2013-05-09T08:38:18Z</time>
      </trkpt>
      <trkpt lat="49.26609" lon="-0.21046">
        <ele>22.2000008</ele>
        <time>2013-05-09T08:38:24Z</time>
      </trkpt>
      <trkpt lat="49.26643" lon="-0.21002">
        <ele>22.2000008</ele>
        <time>2013-05-09T08:38:32Z</time>
      </trkpt>
      <trkpt lat="49.26656" lon="-0.20986">
        <ele>22.2000008</ele>
        <time>2013-05-09T08:38:35Z</time>
      </trkpt>
      <trkpt lat="49.26664" lon="-0.20978">
        <ele>22</ele>
        <time>2013-05-09T08:38:37Z</time>
      </trkpt>
      <trkpt lat="49.26667" lon="-0.20976">
        <ele>21.6000004</ele>
        <time>2013-05-09T08:38:38Z</time>
      </trkpt>
      <trkpt lat="49.26669" lon="-0.20975">
        <ele>21.2000008</ele>
        <time>2013-05-09T08:38:39Z</time>
      </trkpt>
      <trkpt lat="49.26671" lon="-0.20973">
        <ele>20.6000004</ele>
        <time>2013-05-09T08:38:40Z</time>
      </trkpt>
      <trkpt lat="49.26672" lon="-0.20971">
        <ele>20.2000008</ele>
        <time>2013-05-09T08:38:41Z</time>
      </trkpt>
      <trkpt lat="49.26673" lon="-0.20971">
        <ele>20.2000008</ele>
        <time>2013-05-09T08:38:42Z</time>
      </trkpt>
      <trkpt lat="49.26673" lon="-0.20971">
        <ele>20.2000008</ele>
        <time>2013-05-09T08:38:43Z</time>
      </trkpt>
      <trkpt lat="49.26673" lon="-0.2097">
        <ele>20.2000008</ele>
        <time>2013-05-09T08:39:22Z</time>
      </trkpt>
      <trkpt lat="49.26675" lon="-0.20968">
        <ele>20.2000008</ele>
        <time>2013-05-09T08:39:23Z</time>
      </trkpt>
      <trkpt lat="49.26676" lon="-0.20966">
        <ele>20.2000008</ele>
        <time>2013-05-09T08:39:24Z</time>
      </trkpt>
      <trkpt lat="49.26688" lon="-0.20956">
        <ele>20.2000008</ele>
        <time>2013-05-09T08:39:28Z</time>
      </trkpt>
      <trkpt lat="49.26706" lon="-0.20951">
        <ele>20.2000008</ele>
        <time>2013-05-09T08:39:33Z</time>
      </trkpt>
      <trkpt lat="49.26723" lon="-0.20955">
        <ele>20.2000008</ele>
        <time>2013-05-09T08:39:38Z</time>
      </trkpt>
      <trkpt lat="49.26741" lon="-0.20962">
        <ele>20.2000008</ele>
        <time>2013-05-09T08:39:44Z</time>
      </trkpt>
      <trkpt lat="49.26765" lon="-0.20969">
        <ele>20.2000008</ele>
        <time>2013-05-09T08:39:51Z</time>
      </trkpt>
      <trkpt lat="49.26787" lon="-0.20963">
        <ele>20.2000008</ele>
        <time>2013-05-09T08:39:57Z</time>
      </trkpt>
      <trkpt lat="49.26812" lon="-0.20951">
        <ele>20.2000008</ele>
        <time>2013-05-09T08:40:04Z</time>
      </trkpt>
      <trkpt lat="49.26829" lon="-0.20946">
        <ele>20.2000008</ele>
        <time>2013-05-09T08:40:10Z</time>
      </trkpt>
      <trkpt lat="49.26835" lon="-0.20963">
        <ele>20.2000008</ele>
        <time>2013-05-09T08:40:14Z</time>
      </trkpt>
      <trkpt lat="49.26849" lon="-0.21">
        <ele>20.2000008</ele>
        <time>2013-05-09T08:40:21Z</time>
      </trkpt>
      <trkpt lat="49.26862" lon="-0.21036">
        <ele>20.2000008</ele>
        <time>2013-05-09T08:40:28Z</time>
      </trkpt>
      <trkpt lat="49.26878" lon="-0.21072">
        <ele>20.2000008</ele>
        <time>2013-05-09T08:40:35Z</time>
      </trkpt>
      <trkpt lat="49.26885" lon="-0.21093">
        <ele>20</ele>
        <time>2013-05-09T08:40:39Z</time>
      </trkpt>
      <trkpt lat="49.26888" lon="-0.21098">
        <ele>19.6000004</ele>
        <time>2013-05-09T08:40:40Z</time>
      </trkpt>
      <trkpt lat="49.2689" lon="-0.21101">
        <ele>19</ele>
        <time>2013-05-09T08:40:41Z</time>
      </trkpt>
      <trkpt lat="49.26894" lon="-0.21103">
        <ele>18.6000004</ele>
        <time>2013-05-09T08:40:42Z</time>
      </trkpt>
      <trkpt lat="49.26896" lon="-0.21105">
        <ele>18.2000008</ele>
        <time>2013-05-09T08:40:43Z</time>
      </trkpt>
      <trkpt lat="49.26903" lon="-0.21106">
        <ele>18.2000008</ele>
        <time>2013-05-09T08:40:46Z</time>
      </trkpt>
      <trkpt lat="49.26905" lon="-0.21104">
        <ele>18.2000008</ele>
        <time>2013-05-09T08:40:47Z</time>
      </trkpt>
      <trkpt lat="49.26911" lon="-0.21093">
        <ele>18.2000008</ele>
        <time>2013-05-09T08:40:50Z</time>
      </trkpt>
      <trkpt lat="49.2692" lon="-0.21077">
        <ele>18.2000008</ele>
        <time>2013-05-09T08:40:54Z</time>
      </trkpt>
      <trkpt lat="49.26923" lon="-0.21076">
        <ele>18.2000008</ele>
        <time>2013-05-09T08:40:55Z</time>
      </trkpt>
      <trkpt lat="49.26938" lon="-0.21071">
        <ele>18.2000008</ele>
        <time>2013-05-09T08:40:59Z</time>
      </trkpt>
      <trkpt lat="49.26949" lon="-0.21058">
        <ele>18.2000008</ele>
        <time>2013-05-09T08:41:03Z</time>
      </trkpt>
      <trkpt lat="49.26955" lon="-0.21052">
        <ele>18.2000008</ele>
        <time>2013-05-09T08:41:05Z</time>
      </trkpt>
      <trkpt lat="49.26976" lon="-0.21027">
        <ele>18.2000008</ele>
        <time>2013-05-09T08:41:12Z</time>
      </trkpt>
      <trkpt lat="49.26997" lon="-0.21004">
        <ele>18.2000008</ele>
        <time>2013-05-09T08:41:18Z</time>
      </trkpt>
      <trkpt lat="49.27018" lon="-0.20978">
        <ele>18.2000008</ele>
        <time>2013-05-09T08:41:24Z</time>
      </trkpt>
      <trkpt lat="49.27021" lon="-0.20974">
        <ele>18.2000008</ele>
        <time>2013-05-09T08:41:25Z</time>
      </trkpt>
      <trkpt lat="49.27038" lon="-0.2095">
        <ele>18.2000008</ele>
        <time>2013-05-09T08:41:31Z</time>
      </trkpt>
      <trkpt lat="49.27066" lon="-0.20915">
        <ele>18.2000008</ele>
        <time>2013-05-09T08:41:39Z</time>
      </trkpt>
      <trkpt lat="49.27091" lon="-0.20883">
        <ele>18.2000008</ele>
        <time>2013-05-09T08:41:47Z</time>
      </trkpt>
      <trkpt lat="49.27106" lon="-0.20871">
        <ele>18.2000008</ele>
        <time>2013-05-09T08:41:51Z</time>
      </trkpt>
      <trkpt lat="49.27113" lon="-0.20863">
        <ele>18.2000008</ele>
        <time>2013-05-09T08:41:53Z</time>
      </trkpt>
      <trkpt lat="49.27124" lon="-0.20848">
        <ele>18.2000008</ele>
        <time>2013-05-09T08:41:56Z</time>
      </trkpt>
      <trkpt lat="49.2715" lon="-0.20813">
        <ele>18.2000008</ele>
        <time>2013-05-09T08:42:03Z</time>
      </trkpt>
      <trkpt lat="49.27158" lon="-0.20801">
        <ele>17.6000004</ele>
        <time>2013-05-09T08:42:06Z</time>
      </trkpt>
      <trkpt lat="49.27161" lon="-0.20797">
        <ele>17.2000008</ele>
        <time>2013-05-09T08:42:07Z</time>
      </trkpt>
      <trkpt lat="49.27165" lon="-0.20792">
        <ele>17</ele>
        <time>2013-05-09T08:42:08Z</time>
      </trkpt>
      <trkpt lat="49.27168" lon="-0.20787">
        <ele>16.6000004</ele>
        <time>2013-05-09T08:42:09Z</time>
      </trkpt>
      <trkpt lat="49.27172" lon="-0.20782">
        <ele>16.2000008</ele>
        <time>2013-05-09T08:42:10Z</time>
      </trkpt>
      <trkpt lat="49.27181" lon="-0.2077">
        <ele>15.6000004</ele>
        <time>2013-05-09T08:42:12Z</time>
      </trkpt>
      <trkpt lat="49.27186" lon="-0.20764">
        <ele>15</ele>
        <time>2013-05-09T08:42:13Z</time>
      </trkpt>
      <trkpt lat="49.27192" lon="-0.20758">
        <ele>14.1999998</ele>
        <time>2013-05-09T08:42:14Z</time>
      </trkpt>
      <trkpt lat="49.27198" lon="-0.20751">
        <ele>13.8000002</ele>
        <time>2013-05-09T08:42:15Z</time>
      </trkpt>
      <trkpt lat="49.27205" lon="-0.20743">
        <ele>13</ele>
        <time>2013-05-09T08:42:16Z</time>
      </trkpt>
      <trkpt lat="49.27212" lon="-0.20735">
        <ele>12</ele>
        <time>2013-05-09T08:42:17Z</time>
      </trkpt>
      <trkpt lat="49.27217" lon="-0.20726">
        <ele>11.1999998</ele>
        <time>2013-05-09T08:42:18Z</time>
      </trkpt>
      <trkpt lat="49.27223" lon="-0.20719">
        <ele>10.8000002</ele>
        <time>2013-05-09T08:42:19Z</time>
      </trkpt>
      <trkpt lat="49.27227" lon="-0.20712">
        <ele>10</ele>
        <time>2013-05-09T08:42:20Z</time>
      </trkpt>
      <trkpt lat="49.2723" lon="-0.20707">
        <ele>9</ele>
        <time>2013-05-09T08:42:21Z</time>
      </trkpt>
      <trkpt lat="49.27232" lon="-0.20705">
        <ele>8.6000004</ele>
        <time>2013-05-09T08:42:22Z</time>
      </trkpt>
      <trkpt lat="49.27235" lon="-0.20701">
        <ele>8.6000004</ele>
        <time>2013-05-09T08:42:24Z</time>
      </trkpt>
      <trkpt lat="49.27244" lon="-0.20687">
        <ele>8.6000004</ele>
        <time>2013-05-09T08:42:28Z</time>
      </trkpt>
      <trkpt lat="49.27259" lon="-0.20668">
        <ele>8.6000004</ele>
        <time>2013-05-09T08:42:33Z</time>
      </trkpt>
      <trkpt lat="49.27277" lon="-0.20641">
        <ele>8.6000004</ele>
        <time>2013-05-09T08:42:40Z</time>
      </trkpt>
      <trkpt lat="49.27291" lon="-0.20615">
        <ele>8.6000004</ele>
        <time>2013-05-09T08:42:46Z</time>
      </trkpt>
      <trkpt lat="49.27298" lon="-0.20596">
        <ele>9</ele>
        <time>2013-05-09T08:42:50Z</time>
      </trkpt>
      <trkpt lat="49.27299" lon="-0.20592">
        <ele>9.8000002</ele>
        <time>2013-05-09T08:42:51Z</time>
      </trkpt>
      <trkpt lat="49.27301" lon="-0.20587">
        <ele>10</ele>
        <time>2013-05-09T08:42:52Z</time>
      </trkpt>
      <trkpt lat="49.27302" lon="-0.20583">
        <ele>10.6000004</ele>
        <time>2013-05-09T08:42:53Z</time>
      </trkpt>
      <trkpt lat="49.27304" lon="-0.20578">
        <ele>10.6000004</ele>
        <time>2013-05-09T08:42:54Z</time>
      </trkpt>
      <trkpt lat="49.27307" lon="-0.20561">
        <ele>10.6000004</ele>
        <time>2013-05-09T08:42:59Z</time>
      </trkpt>
      <trkpt lat="49.27309" lon="-0.20555">
        <ele>11</ele>
        <time>2013-05-09T08:43:01Z</time>
      </trkpt>
      <trkpt lat="49.2731" lon="-0.20552">
        <ele>11.6000004</ele>
        <time>2013-05-09T08:43:02Z</time>
      </trkpt>
      <trkpt lat="49.27311" lon="-0.20549">
        <ele>12</ele>
        <time>2013-05-09T08:43:03Z</time>
      </trkpt>
      <trkpt lat="49.27312" lon="-0.20545">
        <ele>12.1999998</ele>
        <time>2013-05-09T08:43:04Z</time>
      </trkpt>
      <trkpt lat="49.27314" lon="-0.20541">
        <ele>12.8000002</ele>
        <time>2013-05-09T08:43:05Z</time>
      </trkpt>
      <trkpt lat="49.27316" lon="-0.20537">
        <ele>12.8000002</ele>
        <time>2013-05-09T08:43:06Z</time>
      </trkpt>
      <trkpt lat="49.27324" lon="-0.20516">
        <ele>12.8000002</ele>
        <time>2013-05-09T08:43:10Z</time>
      </trkpt>
      <trkpt lat="49.27336" lon="-0.20486">
        <ele>12.8000002</ele>
        <time>2013-05-09T08:43:15Z</time>
      </trkpt>
      <trkpt lat="49.27339" lon="-0.2048">
        <ele>12.8000002</ele>
        <time>2013-05-09T08:43:16Z</time>
      </trkpt>
      <trkpt lat="49.27342" lon="-0.20476">
        <ele>12.8000002</ele>
        <time>2013-05-09T08:43:17Z</time>
      </trkpt>
      <trkpt lat="49.2735" lon="-0.20458">
        <ele>12.8000002</ele>
        <time>2013-05-09T08:43:21Z</time>
      </trkpt>
      <trkpt lat="49.27358" lon="-0.20431">
        <ele>12.8000002</ele>
        <time>2013-05-09T08:43:27Z</time>
      </trkpt>
      <trkpt lat="49.27355" lon="-0.20414">
        <ele>12.8000002</ele>
        <time>2013-05-09T08:43:30Z</time>
      </trkpt>
      <trkpt lat="49.27344" lon="-0.204">
        <ele>12.8000002</ele>
        <time>2013-05-09T08:43:34Z</time>
      </trkpt>
      <trkpt lat="49.27335" lon="-0.20384">
        <ele>13</ele>
        <time>2013-05-09T08:43:38Z</time>
      </trkpt>
      <trkpt lat="49.27332" lon="-0.20379">
        <ele>13.8000002</ele>
        <time>2013-05-09T08:43:39Z</time>
      </trkpt>
      <trkpt lat="49.27329" lon="-0.20375">
        <ele>14.6000004</ele>
        <time>2013-05-09T08:43:40Z</time>
      </trkpt>
      <trkpt lat="49.27327" lon="-0.2037">
        <ele>15</ele>
        <time>2013-05-09T08:43:41Z</time>
      </trkpt>
      <trkpt lat="49.27319" lon="-0.20349">
        <ele>15.1999998</ele>
        <time>2013-05-09T08:43:45Z</time>
      </trkpt>
      <trkpt lat="49.27317" lon="-0.20343">
        <ele>16</ele>
        <time>2013-05-09T08:43:46Z</time>
      </trkpt>
      <trkpt lat="49.27314" lon="-0.20337">
        <ele>16.2000008</ele>
        <time>2013-05-09T08:43:47Z</time>
      </trkpt>
      <trkpt lat="49.27313" lon="-0.20332">
        <ele>16.6000004</ele>
        <time>2013-05-09T08:43:48Z</time>
      </trkpt>
      <trkpt lat="49.27311" lon="-0.20327">
        <ele>17.2000008</ele>
        <time>2013-05-09T08:43:49Z</time>
      </trkpt>
      <trkpt lat="49.27301" lon="-0.20301">
        <ele>17.2000008</ele>
        <time>2013-05-09T08:43:54Z</time>
      </trkpt>
      <trkpt lat="49.27299" lon="-0.20295">
        <ele>17.2000008</ele>
        <time>2013-05-09T08:43:55Z</time>
      </trkpt>
      <trkpt lat="49.27291" lon="-0.20266">
        <ele>17.2000008</ele>
        <time>2013-05-09T08:44:00Z</time>
      </trkpt>
      <trkpt lat="49.27281" lon="-0.20224">
        <ele>17.2000008</ele>
        <time>2013-05-09T08:44:07Z</time>
      </trkpt>
      <trkpt lat="49.27278" lon="-0.20205">
        <ele>17.2000008</ele>
        <time>2013-05-09T08:44:10Z</time>
      </trkpt>
      <trkpt lat="49.27275" lon="-0.2018">
        <ele>17.2000008</ele>
        <time>2013-05-09T08:44:14Z</time>
      </trkpt>
      <trkpt lat="49.27273" lon="-0.20168">
        <ele>17.6000004</ele>
        <time>2013-05-09T08:44:16Z</time>
      </trkpt>
      <trkpt lat="49.27271" lon="-0.20163">
        <ele>18</ele>
        <time>2013-05-09T08:44:17Z</time>
      </trkpt>
      <trkpt lat="49.27269" lon="-0.20157">
        <ele>18.2000008</ele>
        <time>2013-05-09T08:44:18Z</time>
      </trkpt>
      <trkpt lat="49.27267" lon="-0.20152">
        <ele>19</ele>
        <time>2013-05-09T08:44:19Z</time>
      </trkpt>
      <trkpt lat="49.27265" lon="-0.20146">
        <ele>19.2000008</ele>
        <time>2013-05-09T08:44:20Z</time>
      </trkpt>
      <trkpt lat="49.27256" lon="-0.20124">
        <ele>19</ele>
        <time>2013-05-09T08:44:24Z</time>
      </trkpt>
      <trkpt lat="49.27253" lon="-0.20118">
        <ele>18.6000004</ele>
        <time>2013-05-09T08:44:25Z</time>
      </trkpt>
      <trkpt lat="49.2725" lon="-0.20112">
        <ele>18.2000008</ele>
        <time>2013-05-09T08:44:26Z</time>
      </trkpt>
      <trkpt lat="49.27247" lon="-0.20106">
        <ele>17.6000004</ele>
        <time>2013-05-09T08:44:27Z</time>
      </trkpt>
      <trkpt lat="49.27243" lon="-0.20101">
        <ele>17.2000008</ele>
        <time>2013-05-09T08:44:28Z</time>
      </trkpt>
      <trkpt lat="49.27228" lon="-0.20082">
        <ele>17.2000008</ele>
        <time>2013-05-09T08:44:32Z</time>
      </trkpt>
      <trkpt lat="49.27224" lon="-0.20077">
        <ele>17.2000008</ele>
        <time>2013-05-09T08:44:33Z</time>
      </trkpt>
      <trkpt lat="49.27196" lon="-0.20043">
        <ele>17.2000008</ele>
        <time>2013-05-09T08:44:41Z</time>
      </trkpt>
      <trkpt lat="49.27174" lon="-0.20012">
        <ele>17.2000008</ele>
        <time>2013-05-09T08:44:48Z</time>
      </trkpt>
      <trkpt lat="49.27166" lon="-0.19999">
        <ele>17.2000008</ele>
        <time>2013-05-09T08:44:51Z</time>
      </trkpt>
      <trkpt lat="49.27157" lon="-0.19977">
        <ele>17.2000008</ele>
        <time>2013-05-09T08:44:55Z</time>
      </trkpt>
      <trkpt lat="49.27139" lon="-0.19937">
        <ele>17.2000008</ele>
        <time>2013-05-09T08:45:02Z</time>
      </trkpt>
      <trkpt lat="49.27138" lon="-0.1993">
        <ele>17.2000008</ele>
        <time>2013-05-09T08:45:03Z</time>
      </trkpt>
      <trkpt lat="49.27131" lon="-0.19898">
        <ele>17.2000008</ele>
        <time>2013-05-09T08:45:08Z</time>
      </trkpt>
      <trkpt lat="49.27131" lon="-0.19891">
        <ele>17.2000008</ele>
        <time>2013-05-09T08:45:09Z</time>
      </trkpt>
      <trkpt lat="49.2713" lon="-0.19872">
        <ele>17.2000008</ele>
        <time>2013-05-09T08:45:12Z</time>
      </trkpt>
      <trkpt lat="49.2713" lon="-0.19866">
        <ele>17.2000008</ele>
        <time>2013-05-09T08:45:13Z</time>
      </trkpt>
      <trkpt lat="49.27129" lon="-0.1986">
        <ele>17.6000004</ele>
        <time>2013-05-09T08:45:14Z</time>
      </trkpt>
      <trkpt lat="49.27128" lon="-0.19854">
        <ele>18.2000008</ele>
        <time>2013-05-09T08:45:15Z</time>
      </trkpt>
      <trkpt lat="49.27128" lon="-0.19848">
        <ele>18.6000004</ele>
        <time>2013-05-09T08:45:16Z</time>
      </trkpt>
      <trkpt lat="49.27127" lon="-0.19842">
        <ele>19</ele>
        <time>2013-05-09T08:45:17Z</time>
      </trkpt>
      <trkpt lat="49.27127" lon="-0.19836">
        <ele>19.2000008</ele>
        <time>2013-05-09T08:45:18Z</time>
      </trkpt>
      <trkpt lat="49.27126" lon="-0.19823">
        <ele>19.2000008</ele>
        <time>2013-05-09T08:45:20Z</time>
      </trkpt>
      <trkpt lat="49.27125" lon="-0.19784">
        <ele>19.2000008</ele>
        <time>2013-05-09T08:45:26Z</time>
      </trkpt>
      <trkpt lat="49.27121" lon="-0.19732">
        <ele>19.2000008</ele>
        <time>2013-05-09T08:45:34Z</time>
      </trkpt>
      <trkpt lat="49.2712" lon="-0.19688">
        <ele>19.2000008</ele>
        <time>2013-05-09T08:45:42Z</time>
      </trkpt>
      <trkpt lat="49.27121" lon="-0.19652">
        <ele>19.2000008</ele>
        <time>2013-05-09T08:45:49Z</time>
      </trkpt>
      <trkpt lat="49.27118" lon="-0.19633">
        <ele>19.2000008</ele>
        <time>2013-05-09T08:45:52Z</time>
      </trkpt>
      <trkpt lat="49.27111" lon="-0.19625">
        <ele>19.2000008</ele>
        <time>2013-05-09T08:45:54Z</time>
      </trkpt>
      <trkpt lat="49.27103" lon="-0.19622">
        <ele>19.2000008</ele>
        <time>2013-05-09T08:45:56Z</time>
      </trkpt>
      <trkpt lat="49.27091" lon="-0.19615">
        <ele>19.2000008</ele>
        <time>2013-05-09T08:45:59Z</time>
      </trkpt>
      <trkpt lat="49.27062" lon="-0.19602">
        <ele>19.2000008</ele>
        <time>2013-05-09T08:46:07Z</time>
      </trkpt>
      <trkpt lat="49.27047" lon="-0.19603">
        <ele>19.2000008</ele>
        <time>2013-05-09T08:46:12Z</time>
      </trkpt>
      <trkpt lat="49.27037" lon="-0.19593">
        <ele>19.2000008</ele>
        <time>2013-05-09T08:46:16Z</time>
      </trkpt>
      <trkpt lat="49.27037" lon="-0.19588">
        <ele>19.2000008</ele>
        <time>2013-05-09T08:46:17Z</time>
      </trkpt>
      <trkpt lat="49.27037" lon="-0.19573">
        <ele>19.2000008</ele>
        <time>2013-05-09T08:46:20Z</time>
      </trkpt>
      <trkpt lat="49.27026" lon="-0.19567">
        <ele>19.2000008</ele>
        <time>2013-05-09T08:46:23Z</time>
      </trkpt>
      <trkpt lat="49.27019" lon="-0.19561">
        <ele>19.2000008</ele>
        <time>2013-05-09T08:46:25Z</time>
      </trkpt>
      <trkpt lat="49.2701" lon="-0.19554">
        <ele>19.2000008</ele>
        <time>2013-05-09T08:46:28Z</time>
      </trkpt>
      <trkpt lat="49.26987" lon="-0.19534">
        <ele>19.2000008</ele>
        <time>2013-05-09T08:46:35Z</time>
      </trkpt>
      <trkpt lat="49.26991" lon="-0.1952">
        <ele>19.2000008</ele>
        <time>2013-05-09T08:46:38Z</time>
      </trkpt>
      <trkpt lat="49.26993" lon="-0.19514">
        <ele>19.2000008</ele>
        <time>2013-05-09T08:46:39Z</time>
      </trkpt>
      <trkpt lat="49.27003" lon="-0.19481">
        <ele>19.2000008</ele>
        <time>2013-05-09T08:46:45Z</time>
      </trkpt>
      <trkpt lat="49.27005" lon="-0.19452">
        <ele>19.2000008</ele>
        <time>2013-05-09T08:46:50Z</time>
      </trkpt>
      <trkpt lat="49.26997" lon="-0.19411">
        <ele>19.2000008</ele>
        <time>2013-05-09T08:46:56Z</time>
      </trkpt>
      <trkpt lat="49.26986" lon="-0.19369">
        <ele>19.2000008</ele>
        <time>2013-05-09T08:47:03Z</time>
      </trkpt>
      <trkpt lat="49.26971" lon="-0.19329">
        <ele>19.2000008</ele>
        <time>2013-05-09T08:47:09Z</time>
      </trkpt>
      <trkpt lat="49.26958" lon="-0.19294">
        <ele>19.2000008</ele>
        <time>2013-05-09T08:47:15Z</time>
      </trkpt>
      <trkpt lat="49.26942" lon="-0.1925">
        <ele>19.2000008</ele>
        <time>2013-05-09T08:47:23Z</time>
      </trkpt>
      <trkpt lat="49.26933" lon="-0.1923">
        <ele>19.2000008</ele>
        <time>2013-05-09T08:47:28Z</time>
      </trkpt>
      <trkpt lat="49.26924" lon="-0.19212">
        <ele>19.2000008</ele>
        <time>2013-05-09T08:47:33Z</time>
      </trkpt>
      <trkpt lat="49.26911" lon="-0.19175">
        <ele>19.2000008</ele>
        <time>2013-05-09T08:47:39Z</time>
      </trkpt>
      <trkpt lat="49.26893" lon="-0.19118">
        <ele>19.2000008</ele>
        <time>2013-05-09T08:47:47Z</time>
      </trkpt>
      <trkpt lat="49.26876" lon="-0.19059">
        <ele>19.2000008</ele>
        <time>2013-05-09T08:47:55Z</time>
      </trkpt>
      <trkpt lat="49.26858" lon="-0.18998">
        <ele>19.2000008</ele>
        <time>2013-05-09T08:48:03Z</time>
      </trkpt>
      <trkpt lat="49.26843" lon="-0.18949">
        <ele>19.2000008</ele>
        <time>2013-05-09T08:48:10Z</time>
      </trkpt>
      <trkpt lat="49.26823" lon="-0.18889">
        <ele>19.2000008</ele>
        <time>2013-05-09T08:48:18Z</time>
      </trkpt>
      <trkpt lat="49.26804" lon="-0.18833">
        <ele>19.2000008</ele>
        <time>2013-05-09T08:48:26Z</time>
      </trkpt>
      <trkpt lat="49.26789" lon="-0.18791">
        <ele>19.2000008</ele>
        <time>2013-05-09T08:48:33Z</time>
      </trkpt>
      <trkpt lat="49.26774" lon="-0.18753">
        <ele>19.2000008</ele>
        <time>2013-05-09T08:48:39Z</time>
      </trkpt>
      <trkpt lat="49.26773" lon="-0.18746">
        <ele>19.2000008</ele>
        <time>2013-05-09T08:48:40Z</time>
      </trkpt>
      <trkpt lat="49.26776" lon="-0.18735">
        <ele>19.2000008</ele>
        <time>2013-05-09T08:48:42Z</time>
      </trkpt>
      <trkpt lat="49.26788" lon="-0.18724">
        <ele>19.2000008</ele>
        <time>2013-05-09T08:48:45Z</time>
      </trkpt>
      <trkpt lat="49.26796" lon="-0.18716">
        <ele>19</ele>
        <time>2013-05-09T08:48:47Z</time>
      </trkpt>
      <trkpt lat="49.268" lon="-0.18713">
        <ele>18.2000008</ele>
        <time>2013-05-09T08:48:48Z</time>
      </trkpt>
      <trkpt lat="49.26804" lon="-0.18709">
        <ele>18</ele>
        <time>2013-05-09T08:48:49Z</time>
      </trkpt>
      <trkpt lat="49.26809" lon="-0.18705">
        <ele>17.6000004</ele>
        <time>2013-05-09T08:48:50Z</time>
      </trkpt>
      <trkpt lat="49.26813" lon="-0.18701">
        <ele>17.2000008</ele>
        <time>2013-05-09T08:48:51Z</time>
      </trkpt>
      <trkpt lat="49.26821" lon="-0.18693">
        <ele>17.2000008</ele>
        <time>2013-05-09T08:48:53Z</time>
      </trkpt>
      <trkpt lat="49.26846" lon="-0.18666">
        <ele>16.6000004</ele>
        <time>2013-05-09T08:48:59Z</time>
      </trkpt>
      <trkpt lat="49.2685" lon="-0.18662">
        <ele>16.2000008</ele>
        <time>2013-05-09T08:49:00Z</time>
      </trkpt>
      <trkpt lat="49.26853" lon="-0.18658">
        <ele>15.8000002</ele>
        <time>2013-05-09T08:49:01Z</time>
      </trkpt>
      <trkpt lat="49.26857" lon="-0.18653">
        <ele>15</ele>
        <time>2013-05-09T08:49:02Z</time>
      </trkpt>
      <trkpt lat="49.26861" lon="-0.18649">
        <ele>15</ele>
        <time>2013-05-09T08:49:03Z</time>
      </trkpt>
      <trkpt lat="49.26887" lon="-0.1862">
        <ele>15</ele>
        <time>2013-05-09T08:49:10Z</time>
      </trkpt>
      <trkpt lat="49.26909" lon="-0.18599">
        <ele>15</ele>
        <time>2013-05-09T08:49:17Z</time>
      </trkpt>
      <trkpt lat="49.26924" lon="-0.18584">
        <ele>15</ele>
        <time>2013-05-09T08:49:22Z</time>
      </trkpt>
      <trkpt lat="49.26949" lon="-0.18563">
        <ele>15</ele>
        <time>2013-05-09T08:49:28Z</time>
      </trkpt>
      <trkpt lat="49.26977" lon="-0.1854">
        <ele>14.6000004</ele>
        <time>2013-05-09T08:49:34Z</time>
      </trkpt>
      <trkpt lat="49.26982" lon="-0.18537">
        <ele>14</ele>
        <time>2013-05-09T08:49:35Z</time>
      </trkpt>
      <trkpt lat="49.26986" lon="-0.18534">
        <ele>13.8000002</ele>
        <time>2013-05-09T08:49:36Z</time>
      </trkpt>
      <trkpt lat="49.2699" lon="-0.18531">
        <ele>13.1999998</ele>
        <time>2013-05-09T08:49:37Z</time>
      </trkpt>
      <trkpt lat="49.26994" lon="-0.18527">
        <ele>12.8000002</ele>
        <time>2013-05-09T08:49:38Z</time>
      </trkpt>
      <trkpt lat="49.2701" lon="-0.18513">
        <ele>12.8000002</ele>
        <time>2013-05-09T08:49:42Z</time>
      </trkpt>
      <trkpt lat="49.27022" lon="-0.18502">
        <ele>12.8000002</ele>
        <time>2013-05-09T08:49:45Z</time>
      </trkpt>
      <trkpt lat="49.2703" lon="-0.18493">
        <ele>12.1999998</ele>
        <time>2013-05-09T08:49:47Z</time>
      </trkpt>
      <trkpt lat="49.27033" lon="-0.18489">
        <ele>12</ele>
        <time>2013-05-09T08:49:48Z</time>
      </trkpt>
      <trkpt lat="49.27037" lon="-0.18486">
        <ele>11.6000004</ele>
        <time>2013-05-09T08:49:49Z</time>
      </trkpt>
      <trkpt lat="49.27041" lon="-0.18482">
        <ele>10.8000002</ele>
        <time>2013-05-09T08:49:50Z</time>
      </trkpt>
      <trkpt lat="49.27049" lon="-0.18476">
        <ele>10.8000002</ele>
        <time>2013-05-09T08:49:52Z</time>
      </trkpt>
      <trkpt lat="49.27063" lon="-0.18468">
        <ele>10.8000002</ele>
        <time>2013-05-09T08:49:55Z</time>
      </trkpt>
      <trkpt lat="49.27071" lon="-0.18471">
        <ele>10.8000002</ele>
        <time>2013-05-09T08:49:57Z</time>
      </trkpt>
      <trkpt lat="49.27075" lon="-0.18487">
        <ele>10.8000002</ele>
        <time>2013-05-09T08:50:00Z</time>
      </trkpt>
      <trkpt lat="49.27076" lon="-0.18495">
        <ele>10.8000002</ele>
        <time>2013-05-09T08:50:01Z</time>
      </trkpt>
      <trkpt lat="49.27079" lon="-0.18526">
        <ele>10.8000002</ele>
        <time>2013-05-09T08:50:05Z</time>
      </trkpt>
      <trkpt lat="49.27078" lon="-0.18548">
        <ele>10.8000002</ele>
        <time>2013-05-09T08:50:08Z</time>
      </trkpt>
      <trkpt lat="49.27074" lon="-0.1856">
        <ele>10.8000002</ele>
        <time>2013-05-09T08:50:10Z</time>
      </trkpt>
      <trkpt lat="49.27067" lon="-0.18585">
        <ele>10.8000002</ele>
        <time>2013-05-09T08:50:14Z</time>
      </trkpt>
      <trkpt lat="49.27074" lon="-0.18603">
        <ele>10.8000002</ele>
        <time>2013-05-09T08:50:17Z</time>
      </trkpt>
      <trkpt lat="49.27076" lon="-0.1861">
        <ele>10.8000002</ele>
        <time>2013-05-09T08:50:18Z</time>
      </trkpt>
      <trkpt lat="49.2708" lon="-0.18624">
        <ele>10.8000002</ele>
        <time>2013-05-09T08:50:20Z</time>
      </trkpt>
      <trkpt lat="49.27088" lon="-0.18659">
        <ele>10.8000002</ele>
        <time>2013-05-09T08:50:25Z</time>
      </trkpt>
      <trkpt lat="49.27095" lon="-0.18706">
        <ele>10.8000002</ele>
        <time>2013-05-09T08:50:32Z</time>
      </trkpt>
      <trkpt lat="49.27097" lon="-0.18713">
        <ele>10.8000002</ele>
        <time>2013-05-09T08:50:33Z</time>
      </trkpt>
      <trkpt lat="49.27101" lon="-0.18747">
        <ele>10.8000002</ele>
        <time>2013-05-09T08:50:38Z</time>
      </trkpt>
      <trkpt lat="49.27103" lon="-0.1876">
        <ele>10.8000002</ele>
        <time>2013-05-09T08:50:40Z</time>
      </trkpt>
      <trkpt lat="49.2711" lon="-0.18769">
        <ele>10.8000002</ele>
        <time>2013-05-09T08:50:42Z</time>
      </trkpt>
      <trkpt lat="49.27124" lon="-0.18771">
        <ele>10.8000002</ele>
        <time>2013-05-09T08:50:45Z</time>
      </trkpt>
      <trkpt lat="49.27136" lon="-0.1876">
        <ele>10.8000002</ele>
        <time>2013-05-09T08:50:48Z</time>
      </trkpt>
      <trkpt lat="49.27137" lon="-0.18737">
        <ele>10.8000002</ele>
        <time>2013-05-09T08:50:51Z</time>
      </trkpt>
      <trkpt lat="49.27135" lon="-0.18721">
        <ele>10.8000002</ele>
        <time>2013-05-09T08:50:53Z</time>
      </trkpt>
      <trkpt lat="49.27133" lon="-0.18697">
        <ele>10.8000002</ele>
        <time>2013-05-09T08:50:56Z</time>
      </trkpt>
      <trkpt lat="49.27133" lon="-0.18689">
        <ele>10.8000002</ele>
        <time>2013-05-09T08:50:57Z</time>
      </trkpt>
      <trkpt lat="49.27138" lon="-0.18666">
        <ele>10.8000002</ele>
        <time>2013-05-09T08:51:00Z</time>
      </trkpt>
      <trkpt lat="49.27143" lon="-0.18643">
        <ele>10.8000002</ele>
        <time>2013-05-09T08:51:03Z</time>
      </trkpt>
      <trkpt lat="49.27152" lon="-0.18621">
        <ele>10.8000002</ele>
        <time>2013-05-09T08:51:06Z</time>
      </trkpt>
      <trkpt lat="49.27159" lon="-0.18607">
        <ele>10.1999998</ele>
        <time>2013-05-09T08:51:08Z</time>
      </trkpt>
      <trkpt lat="49.27162" lon="-0.186">
        <ele>10</ele>
        <time>2013-05-09T08:51:09Z</time>
      </trkpt>
      <trkpt lat="49.27166" lon="-0.18593">
        <ele>9.6000004</ele>
        <time>2013-05-09T08:51:10Z</time>
      </trkpt>
      <trkpt lat="49.2717" lon="-0.18586">
        <ele>9</ele>
        <time>2013-05-09T08:51:11Z</time>
      </trkpt>
      <trkpt lat="49.27174" lon="-0.18579">
        <ele>8.8000002</ele>
        <time>2013-05-09T08:51:12Z</time>
      </trkpt>
      <trkpt lat="49.27178" lon="-0.18573">
        <ele>8.8000002</ele>
        <time>2013-05-09T08:51:13Z</time>
      </trkpt>
      <trkpt lat="49.27202" lon="-0.18537">
        <ele>8.8000002</ele>
        <time>2013-05-09T08:51:19Z</time>
      </trkpt>
      <trkpt lat="49.27221" lon="-0.18517">
        <ele>8.8000002</ele>
        <time>2013-05-09T08:51:23Z</time>
      </trkpt>
      <trkpt lat="49.27226" lon="-0.18514">
        <ele>8.8000002</ele>
        <time>2013-05-09T08:51:24Z</time>
      </trkpt>
      <trkpt lat="49.27236" lon="-0.18505">
        <ele>8.8000002</ele>
        <time>2013-05-09T08:51:26Z</time>
      </trkpt>
      <trkpt lat="49.27252" lon="-0.18485">
        <ele>8.8000002</ele>
        <time>2013-05-09T08:51:30Z</time>
      </trkpt>
      <trkpt lat="49.2728" lon="-0.18447">
        <ele>8.8000002</ele>
        <time>2013-05-09T08:51:37Z</time>
      </trkpt>
      <trkpt lat="49.27304" lon="-0.18414">
        <ele>8.8000002</ele>
        <time>2013-05-09T08:51:43Z</time>
      </trkpt>
      <trkpt lat="49.27328" lon="-0.18376">
        <ele>8.8000002</ele>
        <time>2013-05-09T08:51:49Z</time>
      </trkpt>
      <trkpt lat="49.27358" lon="-0.18335">
        <ele>8.8000002</ele>
        <time>2013-05-09T08:51:56Z</time>
      </trkpt>
      <trkpt lat="49.27389" lon="-0.18297">
        <ele>8.8000002</ele>
        <time>2013-05-09T08:52:03Z</time>
      </trkpt>
      <trkpt lat="49.27423" lon="-0.18264">
        <ele>8.8000002</ele>
        <time>2013-05-09T08:52:10Z</time>
      </trkpt>
      <trkpt lat="49.27468" lon="-0.18236">
        <ele>8.8000002</ele>
        <time>2013-05-09T08:52:18Z</time>
      </trkpt>
      <trkpt lat="49.27474" lon="-0.18234">
        <ele>8.8000002</ele>
        <time>2013-05-09T08:52:19Z</time>
      </trkpt>
      <trkpt lat="49.27496" lon="-0.18225">
        <ele>8.8000002</ele>
        <time>2013-05-09T08:52:23Z</time>
      </trkpt>
      <trkpt lat="49.27517" lon="-0.18218">
        <ele>8.8000002</ele>
        <time>2013-05-09T08:52:27Z</time>
      </trkpt>
      <trkpt lat="49.27522" lon="-0.18218">
        <ele>8.8000002</ele>
        <time>2013-05-09T08:52:28Z</time>
      </trkpt>
      <trkpt lat="49.27528" lon="-0.18216">
        <ele>8.8000002</ele>
        <time>2013-05-09T08:52:29Z</time>
      </trkpt>
      <trkpt lat="49.27542" lon="-0.18212">
        <ele>8.8000002</ele>
        <time>2013-05-09T08:52:32Z</time>
      </trkpt>
      <trkpt lat="49.27552" lon="-0.18208">
        <ele>8.8000002</ele>
        <time>2013-05-09T08:52:34Z</time>
      </trkpt>
      <trkpt lat="49.27562" lon="-0.18201">
        <ele>8.8000002</ele>
        <time>2013-05-09T08:52:36Z</time>
      </trkpt>
      <trkpt lat="49.27567" lon="-0.18196">
        <ele>8.1999998</ele>
        <time>2013-05-09T08:52:37Z</time>
      </trkpt>
      <trkpt lat="49.2757" lon="-0.18189">
        <ele>8</ele>
        <time>2013-05-09T08:52:38Z</time>
      </trkpt>
      <trkpt lat="49.27573" lon="-0.18181">
        <ele>7.4000001</ele>
        <time>2013-05-09T08:52:39Z</time>
      </trkpt>
      <trkpt lat="49.27575" lon="-0.18173">
        <ele>7</ele>
        <time>2013-05-09T08:52:40Z</time>
      </trkpt>
      <trkpt lat="49.27578" lon="-0.18166">
        <ele>6.4000001</ele>
        <time>2013-05-09T08:52:41Z</time>
      </trkpt>
      <trkpt lat="49.2758" lon="-0.18158">
        <ele>6.4000001</ele>
        <time>2013-05-09T08:52:42Z</time>
      </trkpt>
      <trkpt lat="49.27582" lon="-0.1815">
        <ele>6.4000001</ele>
        <time>2013-05-09T08:52:43Z</time>
      </trkpt>
      <trkpt lat="49.27595" lon="-0.18104">
        <ele>6.4000001</ele>
        <time>2013-05-09T08:52:49Z</time>
      </trkpt>
      <trkpt lat="49.27613" lon="-0.18061">
        <ele>6.4000001</ele>
        <time>2013-05-09T08:52:55Z</time>
      </trkpt>
      <trkpt lat="49.27632" lon="-0.18048">
        <ele>6.4000001</ele>
        <time>2013-05-09T08:52:59Z</time>
      </trkpt>
      <trkpt lat="49.27669" lon="-0.18026">
        <ele>6.4000001</ele>
        <time>2013-05-09T08:53:06Z</time>
      </trkpt>
      <trkpt lat="49.27673" lon="-0.18022">
        <ele>6.4000001</ele>
        <time>2013-05-09T08:53:07Z</time>
      </trkpt>
      <trkpt lat="49.27683" lon="-0.18016">
        <ele>6.4000001</ele>
        <time>2013-05-09T08:53:09Z</time>
      </trkpt>
      <trkpt lat="49.27693" lon="-0.18011">
        <ele>6.4000001</ele>
        <time>2013-05-09T08:53:11Z</time>
      </trkpt>
      <trkpt lat="49.27731" lon="-0.17981">
        <ele>6.4000001</ele>
        <time>2013-05-09T08:53:19Z</time>
      </trkpt>
      <trkpt lat="49.27736" lon="-0.17955">
        <ele>6.4000001</ele>
        <time>2013-05-09T08:53:22Z</time>
      </trkpt>
      <trkpt lat="49.27735" lon="-0.17938">
        <ele>6.4000001</ele>
        <time>2013-05-09T08:53:24Z</time>
      </trkpt>
      <trkpt lat="49.27732" lon="-0.17914">
        <ele>6.4000001</ele>
        <time>2013-05-09T08:53:27Z</time>
      </trkpt>
      <trkpt lat="49.2773" lon="-0.17858">
        <ele>6.4000001</ele>
        <time>2013-05-09T08:53:34Z</time>
      </trkpt>
      <trkpt lat="49.2773" lon="-0.1781">
        <ele>6.4000001</ele>
        <time>2013-05-09T08:53:40Z</time>
      </trkpt>
      <trkpt lat="49.27737" lon="-0.17754">
        <ele>6.4000001</ele>
        <time>2013-05-09T08:53:47Z</time>
      </trkpt>
      <trkpt lat="49.27744" lon="-0.17726">
        <ele>6.4000001</ele>
        <time>2013-05-09T08:53:51Z</time>
      </trkpt>
      <trkpt lat="49.27751" lon="-0.17705">
        <ele>6.4000001</ele>
        <time>2013-05-09T08:53:54Z</time>
      </trkpt>
      <trkpt lat="49.27757" lon="-0.17694">
        <ele>6.4000001</ele>
        <time>2013-05-09T08:53:56Z</time>
      </trkpt>
      <trkpt lat="49.27771" lon="-0.17671">
        <ele>6.4000001</ele>
        <time>2013-05-09T08:54:00Z</time>
      </trkpt>
      <trkpt lat="49.27778" lon="-0.17659">
        <ele>6.4000001</ele>
        <time>2013-05-09T08:54:02Z</time>
      </trkpt>
      <trkpt lat="49.27783" lon="-0.17649">
        <ele>6.4000001</ele>
        <time>2013-05-09T08:54:04Z</time>
      </trkpt>
      <trkpt lat="49.27791" lon="-0.17632">
        <ele>6.4000001</ele>
        <time>2013-05-09T08:54:07Z</time>
      </trkpt>
      <trkpt lat="49.27809" lon="-0.176">
        <ele>6.4000001</ele>
        <time>2013-05-09T08:54:13Z</time>
      </trkpt>
      <trkpt lat="49.27811" lon="-0.17596">
        <ele>6.4000001</ele>
        <time>2013-05-09T08:54:14Z</time>
      </trkpt>
      <trkpt lat="49.27821" lon="-0.17573">
        <ele>6.4000001</ele>
        <time>2013-05-09T08:54:19Z</time>
      </trkpt>
      <trkpt lat="49.27836" lon="-0.17546">
        <ele>6.4000001</ele>
        <time>2013-05-09T08:54:25Z</time>
      </trkpt>
      <trkpt lat="49.27853" lon="-0.17509">
        <ele>6.4000001</ele>
        <time>2013-05-09T08:54:32Z</time>
      </trkpt>
      <trkpt lat="49.2786" lon="-0.17474">
        <ele>6.4000001</ele>
        <time>2013-05-09T08:54:38Z</time>
      </trkpt>
      <trkpt lat="49.27866" lon="-0.17436">
        <ele>6.4000001</ele>
        <time>2013-05-09T08:54:44Z</time>
      </trkpt>
      <trkpt lat="49.27878" lon="-0.17384">
        <ele>6.4000001</ele>
        <time>2013-05-09T08:54:51Z</time>
      </trkpt>
      <trkpt lat="49.2788" lon="-0.17369">
        <ele>6.4000001</ele>
        <time>2013-05-09T08:54:53Z</time>
      </trkpt>
      <trkpt lat="49.27887" lon="-0.17347">
        <ele>6.4000001</ele>
        <time>2013-05-09T08:54:56Z</time>
      </trkpt>
      <trkpt lat="49.27902" lon="-0.17305">
        <ele>6.4000001</ele>
        <time>2013-05-09T08:55:02Z</time>
      </trkpt>
      <trkpt lat="49.27921" lon="-0.17257">
        <ele>6.4000001</ele>
        <time>2013-05-09T08:55:09Z</time>
      </trkpt>
      <trkpt lat="49.2793" lon="-0.17226">
        <ele>6.4000001</ele>
        <time>2013-05-09T08:55:14Z</time>
      </trkpt>
      <trkpt lat="49.27939" lon="-0.17187">
        <ele>6.4000001</ele>
        <time>2013-05-09T08:55:20Z</time>
      </trkpt>
      <trkpt lat="49.27947" lon="-0.17143">
        <ele>6.4000001</ele>
        <time>2013-05-09T08:55:26Z</time>
      </trkpt>
      <trkpt lat="49.27956" lon="-0.17092">
        <ele>6.4000001</ele>
        <time>2013-05-09T08:55:33Z</time>
      </trkpt>
      <trkpt lat="49.27959" lon="-0.17071">
        <ele>6.4000001</ele>
        <time>2013-05-09T08:55:36Z</time>
      </trkpt>
      <trkpt lat="49.27958" lon="-0.17048">
        <ele>6.4000001</ele>
        <time>2013-05-09T08:55:39Z</time>
      </trkpt>
      <trkpt lat="49.27957" lon="-0.17025">
        <ele>6.4000001</ele>
        <time>2013-05-09T08:55:42Z</time>
      </trkpt>
      <trkpt lat="49.27957" lon="-0.16995">
        <ele>6.4000001</ele>
        <time>2013-05-09T08:55:46Z</time>
      </trkpt>
      <trkpt lat="49.27962" lon="-0.1694">
        <ele>6.4000001</ele>
        <time>2013-05-09T08:55:53Z</time>
      </trkpt>
      <trkpt lat="49.27964" lon="-0.16892">
        <ele>6.4000001</ele>
        <time>2013-05-09T08:55:59Z</time>
      </trkpt>
      <trkpt lat="49.2796" lon="-0.16843">
        <ele>6.4000001</ele>
        <time>2013-05-09T08:56:05Z</time>
      </trkpt>
      <trkpt lat="49.27959" lon="-0.16836">
        <ele>6.4000001</ele>
        <time>2013-05-09T08:56:06Z</time>
      </trkpt>
      <trkpt lat="49.27949" lon="-0.16783">
        <ele>6.4000001</ele>
        <time>2013-05-09T08:56:13Z</time>
      </trkpt>
      <trkpt lat="49.27941" lon="-0.16746">
        <ele>6.4000001</ele>
        <time>2013-05-09T08:56:19Z</time>
      </trkpt>
      <trkpt lat="49.27932" lon="-0.16716">
        <ele>6.4000001</ele>
        <time>2013-05-09T08:56:24Z</time>
      </trkpt>
      <trkpt lat="49.2793" lon="-0.16709">
        <ele>6.4000001</ele>
        <time>2013-05-09T08:56:25Z</time>
      </trkpt>
      <trkpt lat="49.27922" lon="-0.16684">
        <ele>6.4000001</ele>
        <time>2013-05-09T08:56:29Z</time>
      </trkpt>
      <trkpt lat="49.27918" lon="-0.16671">
        <ele>6.4000001</ele>
        <time>2013-05-09T08:56:31Z</time>
      </trkpt>
      <trkpt lat="49.27915" lon="-0.16665">
        <ele>6.4000001</ele>
        <time>2013-05-09T08:56:32Z</time>
      </trkpt>
      <trkpt lat="49.27909" lon="-0.16641">
        <ele>6.4000001</ele>
        <time>2013-05-09T08:56:36Z</time>
      </trkpt>
      <trkpt lat="49.27906" lon="-0.16622">
        <ele>6.4000001</ele>
        <time>2013-05-09T08:56:39Z</time>
      </trkpt>
      <trkpt lat="49.2791" lon="-0.16609">
        <ele>6.4000001</ele>
        <time>2013-05-09T08:56:41Z</time>
      </trkpt>
      <trkpt lat="49.27924" lon="-0.16595">
        <ele>6.4000001</ele>
        <time>2013-05-09T08:56:45Z</time>
      </trkpt>
      <trkpt lat="49.27927" lon="-0.16592">
        <ele>6.4000001</ele>
        <time>2013-05-09T08:56:46Z</time>
      </trkpt>
      <trkpt lat="49.27931" lon="-0.16589">
        <ele>6.4000001</ele>
        <time>2013-05-09T08:56:47Z</time>
      </trkpt>
      <trkpt lat="49.27941" lon="-0.1658">
        <ele>6.4000001</ele>
        <time>2013-05-09T08:56:50Z</time>
      </trkpt>
      <trkpt lat="49.27954" lon="-0.16571">
        <ele>6.4000001</ele>
        <time>2013-05-09T08:56:54Z</time>
      </trkpt>
      <trkpt lat="49.27955" lon="-0.16556">
        <ele>6.4000001</ele>
        <time>2013-05-09T08:56:57Z</time>
      </trkpt>
      <trkpt lat="49.27953" lon="-0.16549">
        <ele>6.4000001</ele>
        <time>2013-05-09T08:56:58Z</time>
      </trkpt>
      <trkpt lat="49.27947" lon="-0.1653">
        <ele>6.4000001</ele>
        <time>2013-05-09T08:57:01Z</time>
      </trkpt>
      <trkpt lat="49.27933" lon="-0.16493">
        <ele>6.4000001</ele>
        <time>2013-05-09T08:57:08Z</time>
      </trkpt>
      <trkpt lat="49.27931" lon="-0.16457">
        <ele>6.4000001</ele>
        <time>2013-05-09T08:57:14Z</time>
      </trkpt>
      <trkpt lat="49.27931" lon="-0.16421">
        <ele>6.4000001</ele>
        <time>2013-05-09T08:57:21Z</time>
      </trkpt>
      <trkpt lat="49.27925" lon="-0.16388">
        <ele>6.4000001</ele>
        <time>2013-05-09T08:57:28Z</time>
      </trkpt>
      <trkpt lat="49.27914" lon="-0.16387">
        <ele>6.4000001</ele>
        <time>2013-05-09T08:57:31Z</time>
      </trkpt>
      <trkpt lat="49.2791" lon="-0.16387">
        <ele>6.4000001</ele>
        <time>2013-05-09T08:57:32Z</time>
      </trkpt>
      <trkpt lat="49.27889" lon="-0.16389">
        <ele>7.4000001</ele>
        <time>2013-05-09T08:57:38Z</time>
      </trkpt>
      <trkpt lat="49.27886" lon="-0.16391">
        <ele>8</ele>
        <time>2013-05-09T08:57:39Z</time>
      </trkpt>
      <trkpt lat="49.27882" lon="-0.16392">
        <ele>8.1999998</ele>
        <time>2013-05-09T08:57:40Z</time>
      </trkpt>
      <trkpt lat="49.27878" lon="-0.16393">
        <ele>8.8000002</ele>
        <time>2013-05-09T08:57:41Z</time>
      </trkpt>
      <trkpt lat="49.27865" lon="-0.16397">
        <ele>8.8000002</ele>
        <time>2013-05-09T08:57:45Z</time>
      </trkpt>
      <trkpt lat="49.27842" lon="-0.16404">
        <ele>8.8000002</ele>
        <time>2013-05-09T08:57:52Z</time>
      </trkpt>
      <trkpt lat="49.27825" lon="-0.1641">
        <ele>8.8000002</ele>
        <time>2013-05-09T08:57:57Z</time>
      </trkpt>
      <trkpt lat="49.27804" lon="-0.16422">
        <ele>8.8000002</ele>
        <time>2013-05-09T08:58:03Z</time>
      </trkpt>
      <trkpt lat="49.27774" lon="-0.16438">
        <ele>8.8000002</ele>
        <time>2013-05-09T08:58:11Z</time>
      </trkpt>
      <trkpt lat="49.27746" lon="-0.16454">
        <ele>8.8000002</ele>
        <time>2013-05-09T08:58:18Z</time>
      </trkpt>
      <trkpt lat="49.27735" lon="-0.1646">
        <ele>8</ele>
        <time>2013-05-09T08:58:21Z</time>
      </trkpt>
      <trkpt lat="49.27731" lon="-0.16463">
        <ele>7.4000001</ele>
        <time>2013-05-09T08:58:22Z</time>
      </trkpt>
      <trkpt lat="49.27728" lon="-0.16465">
        <ele>7</ele>
        <time>2013-05-09T08:58:23Z</time>
      </trkpt>
      <trkpt lat="49.27724" lon="-0.16467">
        <ele>7.4000001</ele>
        <time>2013-05-09T08:58:24Z</time>
      </trkpt>
      <trkpt lat="49.27719" lon="-0.16469">
        <ele>7.8000002</ele>
        <time>2013-05-09T08:58:25Z</time>
      </trkpt>
      <trkpt lat="49.27715" lon="-0.1647">
        <ele>8</ele>
        <time>2013-05-09T08:58:26Z</time>
      </trkpt>
      <trkpt lat="49.2771" lon="-0.16472">
        <ele>8.6000004</ele>
        <time>2013-05-09T08:58:27Z</time>
      </trkpt>
      <trkpt lat="49.27706" lon="-0.16474">
        <ele>9</ele>
        <time>2013-05-09T08:58:28Z</time>
      </trkpt>
      <trkpt lat="49.27702" lon="-0.16475">
        <ele>9</ele>
        <time>2013-05-09T08:58:29Z</time>
      </trkpt>
      <trkpt lat="49.27693" lon="-0.16477">
        <ele>8.6000004</ele>
        <time>2013-05-09T08:58:31Z</time>
      </trkpt>
      <trkpt lat="49.27689" lon="-0.16478">
        <ele>8</ele>
        <time>2013-05-09T08:58:32Z</time>
      </trkpt>
      <trkpt lat="49.27684" lon="-0.16479">
        <ele>7.4000001</ele>
        <time>2013-05-09T08:58:33Z</time>
      </trkpt>
      <trkpt lat="49.27679" lon="-0.1648">
        <ele>7</ele>
        <time>2013-05-09T08:58:34Z</time>
      </trkpt>
      <trkpt lat="49.27674" lon="-0.1648">
        <ele>6.8000002</ele>
        <time>2013-05-09T08:58:35Z</time>
      </trkpt>
      <trkpt lat="49.27648" lon="-0.16481">
        <ele>6.8000002</ele>
        <time>2013-05-09T08:58:41Z</time>
      </trkpt>
      <trkpt lat="49.27632" lon="-0.16482">
        <ele>6.8000002</ele>
        <time>2013-05-09T08:58:45Z</time>
      </trkpt>
      <trkpt lat="49.27619" lon="-0.1648">
        <ele>6.8000002</ele>
        <time>2013-05-09T08:58:48Z</time>
      </trkpt>
      <trkpt lat="49.27588" lon="-0.16483">
        <ele>6.8000002</ele>
        <time>2013-05-09T08:58:55Z</time>
      </trkpt>
      <trkpt lat="49.27557" lon="-0.16493">
        <ele>6.8000002</ele>
        <time>2013-05-09T08:59:02Z</time>
      </trkpt>
      <trkpt lat="49.27552" lon="-0.16493">
        <ele>6.8000002</ele>
        <time>2013-05-09T08:59:03Z</time>
      </trkpt>
      <trkpt lat="49.27514" lon="-0.165">
        <ele>6.8000002</ele>
        <time>2013-05-09T08:59:11Z</time>
      </trkpt>
      <trkpt lat="49.27491" lon="-0.16501">
        <ele>6.8000002</ele>
        <time>2013-05-09T08:59:16Z</time>
      </trkpt>
      <trkpt lat="49.27481" lon="-0.16499">
        <ele>6.8000002</ele>
        <time>2013-05-09T08:59:18Z</time>
      </trkpt>
      <trkpt lat="49.27443" lon="-0.16489">
        <ele>6.8000002</ele>
        <time>2013-05-09T08:59:26Z</time>
      </trkpt>
      <trkpt lat="49.27389" lon="-0.16473">
        <ele>6.8000002</ele>
        <time>2013-05-09T08:59:38Z</time>
      </trkpt>
      <trkpt lat="49.27355" lon="-0.16464">
        <ele>6.8000002</ele>
        <time>2013-05-09T08:59:45Z</time>
      </trkpt>
      <trkpt lat="49.27316" lon="-0.16454">
        <ele>6.8000002</ele>
        <time>2013-05-09T08:59:53Z</time>
      </trkpt>
      <trkpt lat="49.27272" lon="-0.16441">
        <ele>6.8000002</ele>
        <time>2013-05-09T09:00:02Z</time>
      </trkpt>
      <trkpt lat="49.27234" lon="-0.1643">
        <ele>6.8000002</ele>
        <time>2013-05-09T09:00:10Z</time>
      </trkpt>
      <trkpt lat="49.27211" lon="-0.16414">
        <ele>6.8000002</ele>
        <time>2013-05-09T09:07:44Z</time>
      </trkpt>
      <trkpt lat="49.27203" lon="-0.16402">
        <ele>6.8000002</ele>
        <time>2013-05-09T09:07:48Z</time>
      </trkpt>
      <trkpt lat="49.272" lon="-0.16399">
        <ele>6.8000002</ele>
        <time>2013-05-09T09:07:49Z</time>
      </trkpt>
      <trkpt lat="49.2718" lon="-0.16377">
        <ele>6.8000002</ele>
        <time>2013-05-09T09:07:56Z</time>
      </trkpt>
      <trkpt lat="49.27156" lon="-0.16349">
        <ele>6.8000002</ele>
        <time>2013-05-09T09:08:04Z</time>
      </trkpt>
      <trkpt lat="49.27131" lon="-0.16322">
        <ele>6.8000002</ele>
        <time>2013-05-09T09:08:11Z</time>
      </trkpt>
      <trkpt lat="49.271" lon="-0.16286">
        <ele>6.8000002</ele>
        <time>2013-05-09T09:08:20Z</time>
      </trkpt>
      <trkpt lat="49.2708" lon="-0.16262">
        <ele>6.8000002</ele>
        <time>2013-05-09T09:08:26Z</time>
      </trkpt>
      <trkpt lat="49.27054" lon="-0.16231">
        <ele>6.8000002</ele>
        <time>2013-05-09T09:08:34Z</time>
      </trkpt>
      <trkpt lat="49.27052" lon="-0.16228">
        <ele>6.8000002</ele>
        <time>2013-05-09T09:08:37Z</time>
      </trkpt>
      <trkpt lat="49.27052" lon="-0.16228">
        <ele>6.8000002</ele>
        <time>2013-05-09T09:08:47Z</time>
      </trkpt>
      <trkpt lat="49.27051" lon="-0.16229">
        <ele>6.8000002</ele>
        <time>2013-05-09T09:08:49Z</time>
      </trkpt>
      <trkpt lat="49.27051" lon="-0.1623">
        <ele>6.8000002</ele>
        <time>2013-05-09T09:08:58Z</time>
      </trkpt>
      <trkpt lat="49.27049" lon="-0.16233">
        <ele>6.8000002</ele>
        <time>2013-05-09T09:09:00Z</time>
      </trkpt>
      <trkpt lat="49.27045" lon="-0.16234">
        <ele>6.8000002</ele>
        <time>2013-05-09T09:09:02Z</time>
      </trkpt>
      <trkpt lat="49.27039" lon="-0.16233">
        <ele>6.8000002</ele>
        <time>2013-05-09T09:09:05Z</time>
      </trkpt>
      <trkpt lat="49.27021" lon="-0.16229">
        <ele>6.8000002</ele>
        <time>2013-05-09T09:09:11Z</time>
      </trkpt>
      <trkpt lat="49.27002" lon="-0.16225">
        <ele>6.8000002</ele>
        <time>2013-05-09T09:09:18Z</time>
      </trkpt>
      <trkpt lat="49.26982" lon="-0.1622">
        <ele>6.8000002</ele>
        <time>2013-05-09T09:09:24Z</time>
      </trkpt>
      <trkpt lat="49.26966" lon="-0.16215">
        <ele>6.8000002</ele>
        <time>2013-05-09T09:09:29Z</time>
      </trkpt>
      <trkpt lat="49.26946" lon="-0.16201">
        <ele>6.8000002</ele>
        <time>2013-05-09T09:09:35Z</time>
      </trkpt>
      <trkpt lat="49.26929" lon="-0.162">
        <ele>6.8000002</ele>
        <time>2013-05-09T09:09:40Z</time>
      </trkpt>
      <trkpt lat="49.26912" lon="-0.16212">
        <ele>6.8000002</ele>
        <time>2013-05-09T09:09:45Z</time>
      </trkpt>
      <trkpt lat="49.26904" lon="-0.16214">
        <ele>6.8000002</ele>
        <time>2013-05-09T09:09:47Z</time>
      </trkpt>
      <trkpt lat="49.2689" lon="-0.16217">
        <ele>6.8000002</ele>
        <time>2013-05-09T09:09:50Z</time>
      </trkpt>
      <trkpt lat="49.26873" lon="-0.16222">
        <ele>6.8000002</ele>
        <time>2013-05-09T09:09:54Z</time>
      </trkpt>
      <trkpt lat="49.26861" lon="-0.1623">
        <ele>6.8000002</ele>
        <time>2013-05-09T09:09:57Z</time>
      </trkpt>
      <trkpt lat="49.26851" lon="-0.16253">
        <ele>6.8000002</ele>
        <time>2013-05-09T09:10:01Z</time>
      </trkpt>
      <trkpt lat="49.26835" lon="-0.16265">
        <ele>6.8000002</ele>
        <time>2013-05-09T09:10:05Z</time>
      </trkpt>
      <trkpt lat="49.26826" lon="-0.16265">
        <ele>6.8000002</ele>
        <time>2013-05-09T09:10:07Z</time>
      </trkpt>
      <trkpt lat="49.26822" lon="-0.16266">
        <ele>6.8000002</ele>
        <time>2013-05-09T09:10:08Z</time>
      </trkpt>
      <trkpt lat="49.26814" lon="-0.16272">
        <ele>6.8000002</ele>
        <time>2013-05-09T09:10:10Z</time>
      </trkpt>
      <trkpt lat="49.26808" lon="-0.16282">
        <ele>6.8000002</ele>
        <time>2013-05-09T09:10:12Z</time>
      </trkpt>
      <trkpt lat="49.26805" lon="-0.16285">
        <ele>6.8000002</ele>
        <time>2013-05-09T09:10:13Z</time>
      </trkpt>
      <trkpt lat="49.26801" lon="-0.16288">
        <ele>6.8000002</ele>
        <time>2013-05-09T09:10:14Z</time>
      </trkpt>
      <trkpt lat="49.2679" lon="-0.16293">
        <ele>6.8000002</ele>
        <time>2013-05-09T09:10:17Z</time>
      </trkpt>
      <trkpt lat="49.26782" lon="-0.16299">
        <ele>6.8000002</ele>
        <time>2013-05-09T09:10:19Z</time>
      </trkpt>
      <trkpt lat="49.26779" lon="-0.16304">
        <ele>6.8000002</ele>
        <time>2013-05-09T09:10:20Z</time>
      </trkpt>
      <trkpt lat="49.26768" lon="-0.16328">
        <ele>6.8000002</ele>
        <time>2013-05-09T09:10:24Z</time>
      </trkpt>
      <trkpt lat="49.26766" lon="-0.16334">
        <ele>6.8000002</ele>
        <time>2013-05-09T09:10:25Z</time>
      </trkpt>
      <trkpt lat="49.2676" lon="-0.16376">
        <ele>6.8000002</ele>
        <time>2013-05-09T09:10:31Z</time>
      </trkpt>
      <trkpt lat="49.26758" lon="-0.16389">
        <ele>6.8000002</ele>
        <time>2013-05-09T09:10:33Z</time>
      </trkpt>
      <trkpt lat="49.26758" lon="-0.16407">
        <ele>6.8000002</ele>
        <time>2013-05-09T09:10:36Z</time>
      </trkpt>
      <trkpt lat="49.2676" lon="-0.16413">
        <ele>6.8000002</ele>
        <time>2013-05-09T09:10:37Z</time>
      </trkpt>
      <trkpt lat="49.26763" lon="-0.16426">
        <ele>6.8000002</ele>
        <time>2013-05-09T09:10:39Z</time>
      </trkpt>
      <trkpt lat="49.26768" lon="-0.16444">
        <ele>6.8000002</ele>
        <time>2013-05-09T09:10:42Z</time>
      </trkpt>
      <trkpt lat="49.26785" lon="-0.16486">
        <ele>6.8000002</ele>
        <time>2013-05-09T09:10:49Z</time>
      </trkpt>
      <trkpt lat="49.2679" lon="-0.16498">
        <ele>6.8000002</ele>
        <time>2013-05-09T09:10:51Z</time>
      </trkpt>
      <trkpt lat="49.26797" lon="-0.16516">
        <ele>6.8000002</ele>
        <time>2013-05-09T09:10:54Z</time>
      </trkpt>
      <trkpt lat="49.268" lon="-0.16532">
        <ele>6.8000002</ele>
        <time>2013-05-09T09:10:56Z</time>
      </trkpt>
      <trkpt lat="49.268" lon="-0.16563">
        <ele>6.8000002</ele>
        <time>2013-05-09T09:11:00Z</time>
      </trkpt>
      <trkpt lat="49.268" lon="-0.1657">
        <ele>6.8000002</ele>
        <time>2013-05-09T09:11:01Z</time>
      </trkpt>
      <trkpt lat="49.26796" lon="-0.16624">
        <ele>6.8000002</ele>
        <time>2013-05-09T09:11:08Z</time>
      </trkpt>
      <trkpt lat="49.26792" lon="-0.16668">
        <ele>6.8000002</ele>
        <time>2013-05-09T09:11:14Z</time>
      </trkpt>
      <trkpt lat="49.26789" lon="-0.16711">
        <ele>6.8000002</ele>
        <time>2013-05-09T09:11:20Z</time>
      </trkpt>
      <trkpt lat="49.26788" lon="-0.16736">
        <ele>6.8000002</ele>
        <time>2013-05-09T09:11:25Z</time>
      </trkpt>
      <trkpt lat="49.26788" lon="-0.1674">
        <ele>6.8000002</ele>
        <time>2013-05-09T09:11:28Z</time>
      </trkpt>
      <trkpt lat="49.26788" lon="-0.1674">
        <ele>6.8000002</ele>
        <time>2013-05-09T09:11:59Z</time>
      </trkpt>
      <trkpt lat="49.26783" lon="-0.1675">
        <ele>6.8000002</ele>
        <time>2013-05-09T09:12:04Z</time>
      </trkpt>
      <trkpt lat="49.26777" lon="-0.16759">
        <ele>6.8000002</ele>
        <time>2013-05-09T09:12:08Z</time>
      </trkpt>
      <trkpt lat="49.26775" lon="-0.16762">
        <ele>6.8000002</ele>
        <time>2013-05-09T09:12:09Z</time>
      </trkpt>
      <trkpt lat="49.26757" lon="-0.1678">
        <ele>6.8000002</ele>
        <time>2013-05-09T09:12:16Z</time>
      </trkpt>
      <trkpt lat="49.26759" lon="-0.16788">
        <ele>8.8000002</ele>
        <time>2013-05-09T09:12:56Z</time>
      </trkpt>
      <trkpt lat="49.26757" lon="-0.16805">
        <ele>8.8000002</ele>
        <time>2013-05-09T09:13:00Z</time>
      </trkpt>
      <trkpt lat="49.26756" lon="-0.16809">
        <ele>8.1999998</ele>
        <time>2013-05-09T09:13:01Z</time>
      </trkpt>
      <trkpt lat="49.26755" lon="-0.16814">
        <ele>8</ele>
        <time>2013-05-09T09:13:02Z</time>
      </trkpt>
      <trkpt lat="49.26755" lon="-0.16819">
        <ele>7.4000001</ele>
        <time>2013-05-09T09:13:03Z</time>
      </trkpt>
      <trkpt lat="49.26755" lon="-0.16824">
        <ele>7</ele>
        <time>2013-05-09T09:13:04Z</time>
      </trkpt>
      <trkpt lat="49.26754" lon="-0.16829">
        <ele>6.8000002</ele>
        <time>2013-05-09T09:13:05Z</time>
      </trkpt>
      <trkpt lat="49.26753" lon="-0.16833">
        <ele>6.8000002</ele>
        <time>2013-05-09T09:13:06Z</time>
      </trkpt>
      <trkpt lat="49.26747" lon="-0.16855">
        <ele>6.8000002</ele>
        <time>2013-05-09T09:13:11Z</time>
      </trkpt>
      <trkpt lat="49.26739" lon="-0.16872">
        <ele>6.8000002</ele>
        <time>2013-05-09T09:13:17Z</time>
      </trkpt>
      <trkpt lat="49.26732" lon="-0.16885">
        <ele>6.8000002</ele>
        <time>2013-05-09T09:13:22Z</time>
      </trkpt>
      <trkpt lat="49.2672" lon="-0.16906">
        <ele>6.8000002</ele>
        <time>2013-05-09T09:13:29Z</time>
      </trkpt>
      <trkpt lat="49.26716" lon="-0.16917">
        <ele>6.8000002</ele>
        <time>2013-05-09T09:13:35Z</time>
      </trkpt>
      <trkpt lat="49.26713" lon="-0.16923">
        <ele>6.8000002</ele>
        <time>2013-05-09T09:13:39Z</time>
      </trkpt>
      <trkpt lat="49.26713" lon="-0.16923">
        <ele>6.8000002</ele>
        <time>2013-05-09T09:13:40Z</time>
      </trkpt>
      <trkpt lat="49.26713" lon="-0.16924">
        <ele>6.8000002</ele>
        <time>2013-05-09T09:13:44Z</time>
      </trkpt>
      <trkpt lat="49.26713" lon="-0.16925">
        <ele>6.8000002</ele>
        <time>2013-05-09T09:13:46Z</time>
      </trkpt>
      <trkpt lat="49.26712" lon="-0.16926">
        <ele>6.8000002</ele>
        <time>2013-05-09T09:13:49Z</time>
      </trkpt>
      <trkpt lat="49.26711" lon="-0.16929">
        <ele>6.8000002</ele>
        <time>2013-05-09T09:13:51Z</time>
      </trkpt>
      <trkpt lat="49.26707" lon="-0.16932">
        <ele>6.8000002</ele>
        <time>2013-05-09T09:13:57Z</time>
      </trkpt>
      <trkpt lat="49.26706" lon="-0.16933">
        <ele>6.8000002</ele>
        <time>2013-05-09T09:13:59Z</time>
      </trkpt>
      <trkpt lat="49.26706" lon="-0.16933">
        <ele>6.8000002</ele>
        <time>2013-05-09T09:14:00Z</time>
      </trkpt>
      <trkpt lat="49.26706" lon="-0.16933">
        <ele>6.8000002</ele>
        <time>2013-05-09T09:14:05Z</time>
      </trkpt>
      <trkpt lat="49.26703" lon="-0.16937">
        <ele>6.8000002</ele>
        <time>2013-05-09T09:14:07Z</time>
      </trkpt>
      <trkpt lat="49.26689" lon="-0.16954">
        <ele>6.8000002</ele>
        <time>2013-05-09T09:14:14Z</time>
      </trkpt>
      <trkpt lat="49.26677" lon="-0.16972">
        <ele>6.8000002</ele>
        <time>2013-05-09T09:14:20Z</time>
      </trkpt>
      <trkpt lat="49.26674" lon="-0.16977">
        <ele>6.8000002</ele>
        <time>2013-05-09T09:14:22Z</time>
      </trkpt>
      <trkpt lat="49.26667" lon="-0.16987">
        <ele>6.8000002</ele>
        <time>2013-05-09T09:14:26Z</time>
      </trkpt>
      <trkpt lat="49.26655" lon="-0.17001">
        <ele>6.8000002</ele>
        <time>2013-05-09T09:14:32Z</time>
      </trkpt>
      <trkpt lat="49.26642" lon="-0.17017">
        <ele>6.8000002</ele>
        <time>2013-05-09T09:14:38Z</time>
      </trkpt>
      <trkpt lat="49.26623" lon="-0.17039">
        <ele>6.8000002</ele>
        <time>2013-05-09T09:14:45Z</time>
      </trkpt>
      <trkpt lat="49.26604" lon="-0.17061">
        <ele>6.8000002</ele>
        <time>2013-05-09T09:14:52Z</time>
      </trkpt>
      <trkpt lat="49.26586" lon="-0.17078">
        <ele>6.8000002</ele>
        <time>2013-05-09T09:14:58Z</time>
      </trkpt>
      <trkpt lat="49.26563" lon="-0.17094">
        <ele>6.8000002</ele>
        <time>2013-05-09T09:15:05Z</time>
      </trkpt>
      <trkpt lat="49.26538" lon="-0.17107">
        <ele>6.8000002</ele>
        <time>2013-05-09T09:15:11Z</time>
      </trkpt>
      <trkpt lat="49.26507" lon="-0.17118">
        <ele>6.8000002</ele>
        <time>2013-05-09T09:15:18Z</time>
      </trkpt>
      <trkpt lat="49.26485" lon="-0.17123">
        <ele>6.8000002</ele>
        <time>2013-05-09T09:15:23Z</time>
      </trkpt>
      <trkpt lat="49.26477" lon="-0.17122">
        <ele>6.8000002</ele>
        <time>2013-05-09T09:15:25Z</time>
      </trkpt>
      <trkpt lat="49.26468" lon="-0.1712">
        <ele>6.8000002</ele>
        <time>2013-05-09T09:15:27Z</time>
      </trkpt>
      <trkpt lat="49.26456" lon="-0.17113">
        <ele>6.8000002</ele>
        <time>2013-05-09T09:15:30Z</time>
      </trkpt>
      <trkpt lat="49.2644" lon="-0.17091">
        <ele>6.8000002</ele>
        <time>2013-05-09T09:15:35Z</time>
      </trkpt>
      <trkpt lat="49.26409" lon="-0.17056">
        <ele>6.8000002</ele>
        <time>2013-05-09T09:15:43Z</time>
      </trkpt>
      <trkpt lat="49.26382" lon="-0.17028">
        <ele>6.8000002</ele>
        <time>2013-05-09T09:15:50Z</time>
      </trkpt>
      <trkpt lat="49.26376" lon="-0.1702">
        <ele>6.8000002</ele>
        <time>2013-05-09T09:15:52Z</time>
      </trkpt>
      <trkpt lat="49.26368" lon="-0.17004">
        <ele>6.8000002</ele>
        <time>2013-05-09T09:15:55Z</time>
      </trkpt>
      <trkpt lat="49.26356" lon="-0.16984">
        <ele>6.8000002</ele>
        <time>2013-05-09T09:15:59Z</time>
      </trkpt>
      <trkpt lat="49.26351" lon="-0.16974">
        <ele>6.8000002</ele>
        <time>2013-05-09T09:16:01Z</time>
      </trkpt>
      <trkpt lat="49.26339" lon="-0.16941">
        <ele>6.8000002</ele>
        <time>2013-05-09T09:16:07Z</time>
      </trkpt>
      <trkpt lat="49.26332" lon="-0.16937">
        <ele>6.8000002</ele>
        <time>2013-05-09T09:16:09Z</time>
      </trkpt>
      <trkpt lat="49.26329" lon="-0.1694">
        <ele>6.8000002</ele>
        <time>2013-05-09T09:16:10Z</time>
      </trkpt>
      <trkpt lat="49.2632" lon="-0.16951">
        <ele>6.8000002</ele>
        <time>2013-05-09T09:16:13Z</time>
      </trkpt>
      <trkpt lat="49.26316" lon="-0.16955">
        <ele>6.8000002</ele>
        <time>2013-05-09T09:16:14Z</time>
      </trkpt>
      <trkpt lat="49.26286" lon="-0.16987">
        <ele>6.8000002</ele>
        <time>2013-05-09T09:16:22Z</time>
      </trkpt>
      <trkpt lat="49.2626" lon="-0.1702">
        <ele>6.8000002</ele>
        <time>2013-05-09T09:16:29Z</time>
      </trkpt>
      <trkpt lat="49.26244" lon="-0.17036">
        <ele>6.8000002</ele>
        <time>2013-05-09T09:16:33Z</time>
      </trkpt>
      <trkpt lat="49.26232" lon="-0.17051">
        <ele>6.8000002</ele>
        <time>2013-05-09T09:16:36Z</time>
      </trkpt>
      <trkpt lat="49.2621" lon="-0.17082">
        <ele>6.8000002</ele>
        <time>2013-05-09T09:16:42Z</time>
      </trkpt>
      <trkpt lat="49.26201" lon="-0.171">
        <ele>6.8000002</ele>
        <time>2013-05-09T09:16:45Z</time>
      </trkpt>
      <trkpt lat="49.26192" lon="-0.17117">
        <ele>6.8000002</ele>
        <time>2013-05-09T09:16:48Z</time>
      </trkpt>
      <trkpt lat="49.26189" lon="-0.17123">
        <ele>6.8000002</ele>
        <time>2013-05-09T09:16:49Z</time>
      </trkpt>
      <trkpt lat="49.26185" lon="-0.17128">
        <ele>6.8000002</ele>
        <time>2013-05-09T09:16:50Z</time>
      </trkpt>
      <trkpt lat="49.26172" lon="-0.17149">
        <ele>6.8000002</ele>
        <time>2013-05-09T09:16:54Z</time>
      </trkpt>
      <trkpt lat="49.2615" lon="-0.17178">
        <ele>6.8000002</ele>
        <time>2013-05-09T09:17:00Z</time>
      </trkpt>
      <trkpt lat="49.26127" lon="-0.17214">
        <ele>6.8000002</ele>
        <time>2013-05-09T09:17:07Z</time>
      </trkpt>
      <trkpt lat="49.26103" lon="-0.1726">
        <ele>6.8000002</ele>
        <time>2013-05-09T09:17:15Z</time>
      </trkpt>
      <trkpt lat="49.26084" lon="-0.17292">
        <ele>6.8000002</ele>
        <time>2013-05-09T09:17:21Z</time>
      </trkpt>
      <trkpt lat="49.26077" lon="-0.17302">
        <ele>6.8000002</ele>
        <time>2013-05-09T09:17:23Z</time>
      </trkpt>
      <trkpt lat="49.26068" lon="-0.17317">
        <ele>6.8000002</ele>
        <time>2013-05-09T09:17:26Z</time>
      </trkpt>
      <trkpt lat="49.26061" lon="-0.17326">
        <ele>6.8000002</ele>
        <time>2013-05-09T09:17:28Z</time>
      </trkpt>
      <trkpt lat="49.26051" lon="-0.1734">
        <ele>6.8000002</ele>
        <time>2013-05-09T09:17:31Z</time>
      </trkpt>
      <trkpt lat="49.26026" lon="-0.17369">
        <ele>6.8000002</ele>
        <time>2013-05-09T09:17:38Z</time>
      </trkpt>
      <trkpt lat="49.26" lon="-0.1739">
        <ele>6.8000002</ele>
        <time>2013-05-09T09:17:45Z</time>
      </trkpt>
      <trkpt lat="49.25977" lon="-0.17406">
        <ele>6.8000002</ele>
        <time>2013-05-09T09:17:51Z</time>
      </trkpt>
      <trkpt lat="49.25955" lon="-0.17425">
        <ele>6.8000002</ele>
        <time>2013-05-09T09:17:58Z</time>
      </trkpt>
      <trkpt lat="49.25944" lon="-0.17441">
        <ele>6.8000002</ele>
        <time>2013-05-09T09:18:03Z</time>
      </trkpt>
      <trkpt lat="49.25931" lon="-0.17458">
        <ele>6.8000002</ele>
        <time>2013-05-09T09:18:08Z</time>
      </trkpt>
      <trkpt lat="49.25926" lon="-0.17465">
        <ele>7</ele>
        <time>2013-05-09T09:18:10Z</time>
      </trkpt>
      <trkpt lat="49.25923" lon="-0.17469">
        <ele>7.4000001</ele>
        <time>2013-05-09T09:18:11Z</time>
      </trkpt>
      <trkpt lat="49.25921" lon="-0.17472">
        <ele>8</ele>
        <time>2013-05-09T09:18:12Z</time>
      </trkpt>
      <trkpt lat="49.25918" lon="-0.17476">
        <ele>8.6000004</ele>
        <time>2013-05-09T09:18:13Z</time>
      </trkpt>
      <trkpt lat="49.25915" lon="-0.1748">
        <ele>9</ele>
        <time>2013-05-09T09:18:14Z</time>
      </trkpt>
      <trkpt lat="49.25908" lon="-0.17491">
        <ele>9.1999998</ele>
        <time>2013-05-09T09:18:17Z</time>
      </trkpt>
      <trkpt lat="49.25905" lon="-0.17496">
        <ele>10.1999998</ele>
        <time>2013-05-09T09:18:18Z</time>
      </trkpt>
      <trkpt lat="49.25902" lon="-0.175">
        <ele>10.8000002</ele>
        <time>2013-05-09T09:18:19Z</time>
      </trkpt>
      <trkpt lat="49.25899" lon="-0.17504">
        <ele>11</ele>
        <time>2013-05-09T09:18:20Z</time>
      </trkpt>
      <trkpt lat="49.25895" lon="-0.17508">
        <ele>11</ele>
        <time>2013-05-09T09:18:21Z</time>
      </trkpt>
      <trkpt lat="49.25873" lon="-0.17535">
        <ele>11</ele>
        <time>2013-05-09T09:18:27Z</time>
      </trkpt>
      <trkpt lat="49.2584" lon="-0.17582">
        <ele>11</ele>
        <time>2013-05-09T09:18:36Z</time>
      </trkpt>
      <trkpt lat="49.25813" lon="-0.1762">
        <ele>11</ele>
        <time>2013-05-09T09:18:43Z</time>
      </trkpt>
      <trkpt lat="49.25796" lon="-0.17637">
        <ele>10.8000002</ele>
        <time>2013-05-09T09:18:47Z</time>
      </trkpt>
      <trkpt lat="49.25792" lon="-0.17641">
        <ele>10.1999998</ele>
        <time>2013-05-09T09:18:48Z</time>
      </trkpt>
      <trkpt lat="49.25787" lon="-0.17643">
        <ele>9.8000002</ele>
        <time>2013-05-09T09:18:49Z</time>
      </trkpt>
      <trkpt lat="49.25782" lon="-0.17645">
        <ele>9.1999998</ele>
        <time>2013-05-09T09:18:50Z</time>
      </trkpt>
      <trkpt lat="49.25777" lon="-0.17646">
        <ele>9</ele>
        <time>2013-05-09T09:18:51Z</time>
      </trkpt>
      <trkpt lat="49.25762" lon="-0.17649">
        <ele>9</ele>
        <time>2013-05-09T09:18:54Z</time>
      </trkpt>
      <trkpt lat="49.25757" lon="-0.1765">
        <ele>8.6000004</ele>
        <time>2013-05-09T09:18:55Z</time>
      </trkpt>
      <trkpt lat="49.25752" lon="-0.17652">
        <ele>8</ele>
        <time>2013-05-09T09:18:56Z</time>
      </trkpt>
      <trkpt lat="49.25747" lon="-0.17653">
        <ele>7.4000001</ele>
        <time>2013-05-09T09:18:57Z</time>
      </trkpt>
      <trkpt lat="49.25742" lon="-0.17655">
        <ele>7</ele>
        <time>2013-05-09T09:18:58Z</time>
      </trkpt>
      <trkpt lat="49.25737" lon="-0.17658">
        <ele>6.8000002</ele>
        <time>2013-05-09T09:18:59Z</time>
      </trkpt>
      <trkpt lat="49.25727" lon="-0.17663">
        <ele>6.8000002</ele>
        <time>2013-05-09T09:19:01Z</time>
      </trkpt>
      <trkpt lat="49.25699" lon="-0.17677">
        <ele>6.8000002</ele>
        <time>2013-05-09T09:19:07Z</time>
      </trkpt>
      <trkpt lat="49.2568" lon="-0.1769">
        <ele>6.8000002</ele>
        <time>2013-05-09T09:19:11Z</time>
      </trkpt>
      <trkpt lat="49.25673" lon="-0.17699">
        <ele>6.8000002</ele>
        <time>2013-05-09T09:19:13Z</time>
      </trkpt>
      <trkpt lat="49.25662" lon="-0.17726">
        <ele>6.8000002</ele>
        <time>2013-05-09T09:19:17Z</time>
      </trkpt>
      <trkpt lat="49.25661" lon="-0.17755">
        <ele>6.8000002</ele>
        <time>2013-05-09T09:19:21Z</time>
      </trkpt>
      <trkpt lat="49.25663" lon="-0.1777">
        <ele>6.8000002</ele>
        <time>2013-05-09T09:19:23Z</time>
      </trkpt>
      <trkpt lat="49.25665" lon="-0.17801">
        <ele>6.8000002</ele>
        <time>2013-05-09T09:19:27Z</time>
      </trkpt>
      <trkpt lat="49.25665" lon="-0.17809">
        <ele>6.8000002</ele>
        <time>2013-05-09T09:19:28Z</time>
      </trkpt>
      <trkpt lat="49.25663" lon="-0.17848">
        <ele>6.8000002</ele>
        <time>2013-05-09T09:19:33Z</time>
      </trkpt>
      <trkpt lat="49.25655" lon="-0.17917">
        <ele>6.8000002</ele>
        <time>2013-05-09T09:19:43Z</time>
      </trkpt>
      <trkpt lat="49.25653" lon="-0.17924">
        <ele>6.8000002</ele>
        <time>2013-05-09T09:19:44Z</time>
      </trkpt>
      <trkpt lat="49.25645" lon="-0.17945">
        <ele>6.8000002</ele>
        <time>2013-05-09T09:19:47Z</time>
      </trkpt>
      <trkpt lat="49.25629" lon="-0.1799">
        <ele>6.8000002</ele>
        <time>2013-05-09T09:19:54Z</time>
      </trkpt>
      <trkpt lat="49.25619" lon="-0.18021">
        <ele>6.8000002</ele>
        <time>2013-05-09T09:19:59Z</time>
      </trkpt>
      <trkpt lat="49.25616" lon="-0.18031">
        <ele>6.8000002</ele>
        <time>2013-05-09T09:20:01Z</time>
      </trkpt>
      <trkpt lat="49.25613" lon="-0.18034">
        <ele>6.8000002</ele>
        <time>2013-05-09T09:20:03Z</time>
      </trkpt>
      <trkpt lat="49.25612" lon="-0.18032">
        <ele>6.8000002</ele>
        <time>2013-05-09T09:20:04Z</time>
      </trkpt>
      <trkpt lat="49.25608" lon="-0.18016">
        <ele>6.8000002</ele>
        <time>2013-05-09T09:20:08Z</time>
      </trkpt>
      <trkpt lat="49.25603" lon="-0.18008">
        <ele>6.8000002</ele>
        <time>2013-05-09T09:20:10Z</time>
      </trkpt>
      <trkpt lat="49.25591" lon="-0.1799">
        <ele>6.8000002</ele>
        <time>2013-05-09T09:20:14Z</time>
      </trkpt>
      <trkpt lat="49.2558" lon="-0.1797">
        <ele>6.8000002</ele>
        <time>2013-05-09T09:20:18Z</time>
      </trkpt>
      <trkpt lat="49.25571" lon="-0.17954">
        <ele>6.8000002</ele>
        <time>2013-05-09T09:20:21Z</time>
      </trkpt>
      <trkpt lat="49.25548" lon="-0.17903">
        <ele>6.8000002</ele>
        <time>2013-05-09T09:20:30Z</time>
      </trkpt>
      <trkpt lat="49.25534" lon="-0.17871">
        <ele>6.8000002</ele>
        <time>2013-05-09T09:20:36Z</time>
      </trkpt>
      <trkpt lat="49.25525" lon="-0.17875">
        <ele>6.8000002</ele>
        <time>2013-05-09T09:20:39Z</time>
      </trkpt>
      <trkpt lat="49.25508" lon="-0.17885">
        <ele>6.8000002</ele>
        <time>2013-05-09T09:20:45Z</time>
      </trkpt>
      <trkpt lat="49.25496" lon="-0.17893">
        <ele>6.8000002</ele>
        <time>2013-05-09T09:20:49Z</time>
      </trkpt>
      <trkpt lat="49.25481" lon="-0.17905">
        <ele>7</ele>
        <time>2013-05-09T09:20:55Z</time>
      </trkpt>
      <trkpt lat="49.25478" lon="-0.17907">
        <ele>7.4000001</ele>
        <time>2013-05-09T09:20:56Z</time>
      </trkpt>
      <trkpt lat="49.25475" lon="-0.1791">
        <ele>8</ele>
        <time>2013-05-09T09:20:57Z</time>
      </trkpt>
      <trkpt lat="49.25472" lon="-0.17913">
        <ele>8.1999998</ele>
        <time>2013-05-09T09:20:58Z</time>
      </trkpt>
      <trkpt lat="49.25469" lon="-0.17916">
        <ele>9</ele>
        <time>2013-05-09T09:20:59Z</time>
      </trkpt>
      <trkpt lat="49.25459" lon="-0.17924">
        <ele>9</ele>
        <time>2013-05-09T09:21:02Z</time>
      </trkpt>
      <trkpt lat="49.25439" lon="-0.17938">
        <ele>9</ele>
        <time>2013-05-09T09:21:07Z</time>
      </trkpt>
      <trkpt lat="49.25432" lon="-0.17943">
        <ele>9</ele>
        <time>2013-05-09T09:21:09Z</time>
      </trkpt>
      <trkpt lat="49.2541" lon="-0.1796">
        <ele>9</ele>
        <time>2013-05-09T09:21:15Z</time>
      </trkpt>
      <trkpt lat="49.25382" lon="-0.17983">
        <ele>9</ele>
        <time>2013-05-09T09:21:23Z</time>
      </trkpt>
      <trkpt lat="49.25364" lon="-0.17996">
        <ele>9</ele>
        <time>2013-05-09T09:21:28Z</time>
      </trkpt>
      <trkpt lat="49.25338" lon="-0.18021">
        <ele>9</ele>
        <time>2013-05-09T09:21:35Z</time>
      </trkpt>
      <trkpt lat="49.25326" lon="-0.18031">
        <ele>9.1999998</ele>
        <time>2013-05-09T09:21:38Z</time>
      </trkpt>
      <trkpt lat="49.25322" lon="-0.18034">
        <ele>9.8000002</ele>
        <time>2013-05-09T09:21:39Z</time>
      </trkpt>
      <trkpt lat="49.25318" lon="-0.18037">
        <ele>10.1999998</ele>
        <time>2013-05-09T09:21:40Z</time>
      </trkpt>
      <trkpt lat="49.25314" lon="-0.1804">
        <ele>10.8000002</ele>
        <time>2013-05-09T09:21:41Z</time>
      </trkpt>
      <trkpt lat="49.2531" lon="-0.18043">
        <ele>11.1999998</ele>
        <time>2013-05-09T09:21:42Z</time>
      </trkpt>
      <trkpt lat="49.25296" lon="-0.18054">
        <ele>11.1999998</ele>
        <time>2013-05-09T09:21:46Z</time>
      </trkpt>
      <trkpt lat="49.25288" lon="-0.1806">
        <ele>11.1999998</ele>
        <time>2013-05-09T09:21:48Z</time>
      </trkpt>
      <trkpt lat="49.25259" lon="-0.18084">
        <ele>11.1999998</ele>
        <time>2013-05-09T09:21:56Z</time>
      </trkpt>
      <trkpt lat="49.25235" lon="-0.18105">
        <ele>11.1999998</ele>
        <time>2013-05-09T09:22:02Z</time>
      </trkpt>
      <trkpt lat="49.25224" lon="-0.18116">
        <ele>11.1999998</ele>
        <time>2013-05-09T09:22:05Z</time>
      </trkpt>
      <trkpt lat="49.2521" lon="-0.18132">
        <ele>11.1999998</ele>
        <time>2013-05-09T09:22:09Z</time>
      </trkpt>
      <trkpt lat="49.25201" lon="-0.18146">
        <ele>11.1999998</ele>
        <time>2013-05-09T09:22:12Z</time>
      </trkpt>
      <trkpt lat="49.25193" lon="-0.18158">
        <ele>11.1999998</ele>
        <time>2013-05-09T09:22:15Z</time>
      </trkpt>
      <trkpt lat="49.25179" lon="-0.18178">
        <ele>11.1999998</ele>
        <time>2013-05-09T09:22:21Z</time>
      </trkpt>
      <trkpt lat="49.25174" lon="-0.18183">
        <ele>11.8000002</ele>
        <time>2013-05-09T09:22:23Z</time>
      </trkpt>
      <trkpt lat="49.25171" lon="-0.18186">
        <ele>12</ele>
        <time>2013-05-09T09:22:24Z</time>
      </trkpt>
      <trkpt lat="49.25169" lon="-0.18189">
        <ele>12.6000004</ele>
        <time>2013-05-09T09:22:25Z</time>
      </trkpt>
      <trkpt lat="49.25167" lon="-0.18192">
        <ele>13.1999998</ele>
        <time>2013-05-09T09:22:26Z</time>
      </trkpt>
      <trkpt lat="49.25165" lon="-0.18195">
        <ele>13.1999998</ele>
        <time>2013-05-09T09:22:27Z</time>
      </trkpt>
      <trkpt lat="49.25152" lon="-0.18219">
        <ele>13.1999998</ele>
        <time>2013-05-09T09:22:33Z</time>
      </trkpt>
      <trkpt lat="49.25139" lon="-0.18241">
        <ele>13.1999998</ele>
        <time>2013-05-09T09:22:38Z</time>
      </trkpt>
      <trkpt lat="49.25124" lon="-0.18268">
        <ele>13.1999998</ele>
        <time>2013-05-09T09:22:44Z</time>
      </trkpt>
      <trkpt lat="49.25101" lon="-0.18308">
        <ele>13.8000002</ele>
        <time>2013-05-09T09:22:53Z</time>
      </trkpt>
      <trkpt lat="49.25099" lon="-0.18312">
        <ele>14</ele>
        <time>2013-05-09T09:22:54Z</time>
      </trkpt>
      <trkpt lat="49.25096" lon="-0.18316">
        <ele>14.6000004</ele>
        <time>2013-05-09T09:22:55Z</time>
      </trkpt>
      <trkpt lat="49.25094" lon="-0.1832">
        <ele>15</ele>
        <time>2013-05-09T09:22:56Z</time>
      </trkpt>
      <trkpt lat="49.25091" lon="-0.18324">
        <ele>15.1999998</ele>
        <time>2013-05-09T09:22:57Z</time>
      </trkpt>
      <trkpt lat="49.25083" lon="-0.18337">
        <ele>15.1999998</ele>
        <time>2013-05-09T09:23:00Z</time>
      </trkpt>
      <trkpt lat="49.25063" lon="-0.18373">
        <ele>15.1999998</ele>
        <time>2013-05-09T09:23:08Z</time>
      </trkpt>
      <trkpt lat="49.25059" lon="-0.18388">
        <ele>15.8000002</ele>
        <time>2013-05-09T09:23:11Z</time>
      </trkpt>
      <trkpt lat="49.25058" lon="-0.18394">
        <ele>16.2000008</ele>
        <time>2013-05-09T09:23:12Z</time>
      </trkpt>
      <trkpt lat="49.25056" lon="-0.18399">
        <ele>16.6000004</ele>
        <time>2013-05-09T09:23:13Z</time>
      </trkpt>
      <trkpt lat="49.25055" lon="-0.18405">
        <ele>17.2000008</ele>
        <time>2013-05-09T09:23:14Z</time>
      </trkpt>
      <trkpt lat="49.25054" lon="-0.18411">
        <ele>17.6000004</ele>
        <time>2013-05-09T09:23:15Z</time>
      </trkpt>
      <trkpt lat="49.25052" lon="-0.18434">
        <ele>17.6000004</ele>
        <time>2013-05-09T09:23:19Z</time>
      </trkpt>
      <trkpt lat="49.25048" lon="-0.18469">
        <ele>17.6000004</ele>
        <time>2013-05-09T09:23:26Z</time>
      </trkpt>
      <trkpt lat="49.25044" lon="-0.18508">
        <ele>17.6000004</ele>
        <time>2013-05-09T09:23:33Z</time>
      </trkpt>
      <trkpt lat="49.2504" lon="-0.18548">
        <ele>17.6000004</ele>
        <time>2013-05-09T09:23:40Z</time>
      </trkpt>
      <trkpt lat="49.25038" lon="-0.18566">
        <ele>18</ele>
        <time>2013-05-09T09:23:43Z</time>
      </trkpt>
      <trkpt lat="49.25037" lon="-0.18572">
        <ele>18.2000008</ele>
        <time>2013-05-09T09:23:44Z</time>
      </trkpt>
      <trkpt lat="49.25037" lon="-0.18578">
        <ele>18.6000004</ele>
        <time>2013-05-09T09:23:45Z</time>
      </trkpt>
      <trkpt lat="49.25036" lon="-0.18584">
        <ele>19.2000008</ele>
        <time>2013-05-09T09:23:46Z</time>
      </trkpt>
      <trkpt lat="49.25036" lon="-0.1859">
        <ele>19.6000004</ele>
        <time>2013-05-09T09:23:47Z</time>
      </trkpt>
      <trkpt lat="49.25036" lon="-0.18607">
        <ele>19.6000004</ele>
        <time>2013-05-09T09:23:50Z</time>
      </trkpt>
      <trkpt lat="49.25032" lon="-0.18646">
        <ele>19.6000004</ele>
        <time>2013-05-09T09:23:57Z</time>
      </trkpt>
      <trkpt lat="49.25025" lon="-0.18689">
        <ele>19.6000004</ele>
        <time>2013-05-09T09:24:04Z</time>
      </trkpt>
      <trkpt lat="49.2502" lon="-0.18727">
        <ele>19.6000004</ele>
        <time>2013-05-09T09:24:10Z</time>
      </trkpt>
      <trkpt lat="49.25017" lon="-0.1874">
        <ele>19.6000004</ele>
        <time>2013-05-09T09:24:12Z</time>
      </trkpt>
      <trkpt lat="49.25016" lon="-0.18746">
        <ele>19.6000004</ele>
        <time>2013-05-09T09:24:13Z</time>
      </trkpt>
      <trkpt lat="49.25011" lon="-0.18771">
        <ele>19.6000004</ele>
        <time>2013-05-09T09:24:17Z</time>
      </trkpt>
      <trkpt lat="49.24997" lon="-0.18823">
        <ele>19.6000004</ele>
        <time>2013-05-09T09:24:25Z</time>
      </trkpt>
      <trkpt lat="49.24988" lon="-0.18857">
        <ele>19.6000004</ele>
        <time>2013-05-09T09:24:32Z</time>
      </trkpt>
      <trkpt lat="49.24979" lon="-0.18876">
        <ele>19.6000004</ele>
        <time>2013-05-09T09:24:38Z</time>
      </trkpt>
      <trkpt lat="49.24972" lon="-0.18894">
        <ele>19.6000004</ele>
        <time>2013-05-09T09:24:44Z</time>
      </trkpt>
      <trkpt lat="49.24963" lon="-0.18915">
        <ele>19.6000004</ele>
        <time>2013-05-09T09:24:49Z</time>
      </trkpt>
      <trkpt lat="49.24951" lon="-0.18946">
        <ele>19.6000004</ele>
        <time>2013-05-09T09:24:56Z</time>
      </trkpt>
      <trkpt lat="49.24945" lon="-0.18958">
        <ele>20</ele>
        <time>2013-05-09T09:24:59Z</time>
      </trkpt>
      <trkpt lat="49.24942" lon="-0.18962">
        <ele>20.2000008</ele>
        <time>2013-05-09T09:25:00Z</time>
      </trkpt>
      <trkpt lat="49.24941" lon="-0.18966">
        <ele>20.6000004</ele>
        <time>2013-05-09T09:25:01Z</time>
      </trkpt>
      <trkpt lat="49.24939" lon="-0.18971">
        <ele>21.2000008</ele>
        <time>2013-05-09T09:25:02Z</time>
      </trkpt>
      <trkpt lat="49.24937" lon="-0.18976">
        <ele>21.6000004</ele>
        <time>2013-05-09T09:25:03Z</time>
      </trkpt>
      <trkpt lat="49.24931" lon="-0.18997">
        <ele>21.6000004</ele>
        <time>2013-05-09T09:25:07Z</time>
      </trkpt>
      <trkpt lat="49.24924" lon="-0.19037">
        <ele>21.6000004</ele>
        <time>2013-05-09T09:25:13Z</time>
      </trkpt>
      <trkpt lat="49.24922" lon="-0.19087">
        <ele>21.6000004</ele>
        <time>2013-05-09T09:25:20Z</time>
      </trkpt>
      <trkpt lat="49.24923" lon="-0.19094">
        <ele>21.6000004</ele>
        <time>2013-05-09T09:25:21Z</time>
      </trkpt>
      <trkpt lat="49.24928" lon="-0.19118">
        <ele>21.6000004</ele>
        <time>2013-05-09T09:25:25Z</time>
      </trkpt>
      <trkpt lat="49.2493" lon="-0.19123">
        <ele>21.6000004</ele>
        <time>2013-05-09T09:25:26Z</time>
      </trkpt>
      <trkpt lat="49.24944" lon="-0.19162">
        <ele>21.6000004</ele>
        <time>2013-05-09T09:25:33Z</time>
      </trkpt>
      <trkpt lat="49.24959" lon="-0.19204">
        <ele>21.6000004</ele>
        <time>2013-05-09T09:25:41Z</time>
      </trkpt>
      <trkpt lat="49.24974" lon="-0.19249">
        <ele>21.6000004</ele>
        <time>2013-05-09T09:25:49Z</time>
      </trkpt>
      <trkpt lat="49.2499" lon="-0.19297">
        <ele>21.6000004</ele>
        <time>2013-05-09T09:25:57Z</time>
      </trkpt>
      <trkpt lat="49.24997" lon="-0.19336">
        <ele>22</ele>
        <time>2013-05-09T09:26:03Z</time>
      </trkpt>
      <trkpt lat="49.24998" lon="-0.19343">
        <ele>22.2000008</ele>
        <time>2013-05-09T09:26:04Z</time>
      </trkpt>
      <trkpt lat="49.24998" lon="-0.19349">
        <ele>23</ele>
        <time>2013-05-09T09:26:05Z</time>
      </trkpt>
      <trkpt lat="49.24999" lon="-0.19355">
        <ele>23.2000008</ele>
        <time>2013-05-09T09:26:06Z</time>
      </trkpt>
      <trkpt lat="49.24999" lon="-0.1936">
        <ele>23.6000004</ele>
        <time>2013-05-09T09:26:07Z</time>
      </trkpt>
      <trkpt lat="49.25001" lon="-0.19384">
        <ele>23.6000004</ele>
        <time>2013-05-09T09:26:12Z</time>
      </trkpt>
      <trkpt lat="49.25007" lon="-0.19393">
        <ele>23.6000004</ele>
        <time>2013-05-09T09:26:15Z</time>
      </trkpt>
      <trkpt lat="49.2501" lon="-0.19394">
        <ele>23.6000004</ele>
        <time>2013-05-09T09:26:16Z</time>
      </trkpt>
      <trkpt lat="49.25022" lon="-0.19393">
        <ele>23.6000004</ele>
        <time>2013-05-09T09:26:20Z</time>
      </trkpt>
      <trkpt lat="49.25028" lon="-0.19394">
        <ele>23.6000004</ele>
        <time>2013-05-09T09:26:22Z</time>
      </trkpt>
      <trkpt lat="49.25043" lon="-0.19393">
        <ele>23.6000004</ele>
        <time>2013-05-09T09:26:26Z</time>
      </trkpt>
      <trkpt lat="49.25068" lon="-0.19389">
        <ele>23.6000004</ele>
        <time>2013-05-09T09:26:32Z</time>
      </trkpt>
      <trkpt lat="49.25104" lon="-0.19376">
        <ele>23.6000004</ele>
        <time>2013-05-09T09:26:40Z</time>
      </trkpt>
      <trkpt lat="49.25116" lon="-0.19387">
        <ele>23.6000004</ele>
        <time>2013-05-09T09:26:43Z</time>
      </trkpt>
      <trkpt lat="49.2512" lon="-0.19389">
        <ele>23.6000004</ele>
        <time>2013-05-09T09:26:44Z</time>
      </trkpt>
      <trkpt lat="49.25134" lon="-0.19395">
        <ele>23.6000004</ele>
        <time>2013-05-09T09:26:47Z</time>
      </trkpt>
      <trkpt lat="49.25139" lon="-0.19396">
        <ele>23.6000004</ele>
        <time>2013-05-09T09:26:48Z</time>
      </trkpt>
      <trkpt lat="49.25166" lon="-0.19395">
        <ele>23.6000004</ele>
        <time>2013-05-09T09:26:54Z</time>
      </trkpt>
      <trkpt lat="49.25179" lon="-0.19392">
        <ele>23.6000004</ele>
        <time>2013-05-09T09:26:57Z</time>
      </trkpt>
      <trkpt lat="49.25188" lon="-0.19395">
        <ele>23.6000004</ele>
        <time>2013-05-09T09:26:59Z</time>
      </trkpt>
      <trkpt lat="49.25202" lon="-0.19409">
        <ele>23.6000004</ele>
        <time>2013-05-09T09:27:03Z</time>
      </trkpt>
      <trkpt lat="49.25227" lon="-0.19439">
        <ele>23.6000004</ele>
        <time>2013-05-09T09:27:10Z</time>
      </trkpt>
      <trkpt lat="49.25241" lon="-0.19455">
        <ele>23.6000004</ele>
        <time>2013-05-09T09:27:14Z</time>
      </trkpt>
      <trkpt lat="49.25255" lon="-0.19461">
        <ele>23.6000004</ele>
        <time>2013-05-09T09:27:17Z</time>
      </trkpt>
      <trkpt lat="49.25259" lon="-0.19462">
        <ele>23.6000004</ele>
        <time>2013-05-09T09:27:18Z</time>
      </trkpt>
      <trkpt lat="49.25264" lon="-0.19463">
        <ele>23.6000004</ele>
        <time>2013-05-09T09:27:19Z</time>
      </trkpt>
      <trkpt lat="49.25283" lon="-0.19467">
        <ele>23.6000004</ele>
        <time>2013-05-09T09:27:23Z</time>
      </trkpt>
      <trkpt lat="49.25296" lon="-0.19473">
        <ele>23.2000008</ele>
        <time>2013-05-09T09:27:26Z</time>
      </trkpt>
      <trkpt lat="49.253" lon="-0.19473">
        <ele>23</ele>
        <time>2013-05-09T09:27:27Z</time>
      </trkpt>
      <trkpt lat="49.25303" lon="-0.19473">
        <ele>22.6000004</ele>
        <time>2013-05-09T09:27:28Z</time>
      </trkpt>
      <trkpt lat="49.25305" lon="-0.19474">
        <ele>22.2000008</ele>
        <time>2013-05-09T09:27:29Z</time>
      </trkpt>
      <trkpt lat="49.25305" lon="-0.19473">
        <ele>21.6000004</ele>
        <time>2013-05-09T09:27:30Z</time>
      </trkpt>
      <trkpt lat="49.25305" lon="-0.19472">
        <ele>21.6000004</ele>
        <time>2013-05-09T09:27:31Z</time>
      </trkpt>
      <trkpt lat="49.25306" lon="-0.1947">
        <ele>21.6000004</ele>
        <time>2013-05-09T09:27:33Z</time>
      </trkpt>
      <trkpt lat="49.25308" lon="-0.19469">
        <ele>21.6000004</ele>
        <time>2013-05-09T09:27:35Z</time>
      </trkpt>
      <trkpt lat="49.25313" lon="-0.1947">
        <ele>21.6000004</ele>
        <time>2013-05-09T09:27:38Z</time>
      </trkpt>
      <trkpt lat="49.25319" lon="-0.19469">
        <ele>21.6000004</ele>
        <time>2013-05-09T09:27:40Z</time>
      </trkpt>
      <trkpt lat="49.25341" lon="-0.19458">
        <ele>21.6000004</ele>
        <time>2013-05-09T09:27:47Z</time>
      </trkpt>
      <trkpt lat="49.25354" lon="-0.19446">
        <ele>21.6000004</ele>
        <time>2013-05-09T09:27:51Z</time>
      </trkpt>
      <trkpt lat="49.25358" lon="-0.19448">
        <ele>21.6000004</ele>
        <time>2013-05-09T09:27:52Z</time>
      </trkpt>
      <trkpt lat="49.25367" lon="-0.19459">
        <ele>21.6000004</ele>
        <time>2013-05-09T09:27:55Z</time>
      </trkpt>
      <trkpt lat="49.25369" lon="-0.19463">
        <ele>21.6000004</ele>
        <time>2013-05-09T09:27:56Z</time>
      </trkpt>
      <trkpt lat="49.25393" lon="-0.19497">
        <ele>21.6000004</ele>
        <time>2013-05-09T09:28:04Z</time>
      </trkpt>
      <trkpt lat="49.25398" lon="-0.19507">
        <ele>21.6000004</ele>
        <time>2013-05-09T09:28:06Z</time>
      </trkpt>
      <trkpt lat="49.25401" lon="-0.19526">
        <ele>21.6000004</ele>
        <time>2013-05-09T09:28:09Z</time>
      </trkpt>
      <trkpt lat="49.25407" lon="-0.19542">
        <ele>21.6000004</ele>
        <time>2013-05-09T09:28:13Z</time>
      </trkpt>
      <trkpt lat="49.25419" lon="-0.1956">
        <ele>21.6000004</ele>
        <time>2013-05-09T09:28:18Z</time>
      </trkpt>
      <trkpt lat="49.25435" lon="-0.19586">
        <ele>21.6000004</ele>
        <time>2013-05-09T09:28:24Z</time>
      </trkpt>
      <trkpt lat="49.25451" lon="-0.19613">
        <ele>21.6000004</ele>
        <time>2013-05-09T09:28:30Z</time>
      </trkpt>
      <trkpt lat="49.25469" lon="-0.19643">
        <ele>21.6000004</ele>
        <time>2013-05-09T09:28:36Z</time>
      </trkpt>
      <trkpt lat="49.25477" lon="-0.19668">
        <ele>21.6000004</ele>
        <time>2013-05-09T09:28:40Z</time>
      </trkpt>
      <trkpt lat="49.25478" lon="-0.19674">
        <ele>21.6000004</ele>
        <time>2013-05-09T09:28:41Z</time>
      </trkpt>
      <trkpt lat="49.25481" lon="-0.19686">
        <ele>21.6000004</ele>
        <time>2013-05-09T09:28:43Z</time>
      </trkpt>
      <trkpt lat="49.25488" lon="-0.19703">
        <ele>21.6000004</ele>
        <time>2013-05-09T09:28:46Z</time>
      </trkpt>
      <trkpt lat="49.25491" lon="-0.19708">
        <ele>21.6000004</ele>
        <time>2013-05-09T09:28:47Z</time>
      </trkpt>
      <trkpt lat="49.25505" lon="-0.19737">
        <ele>21.6000004</ele>
        <time>2013-05-09T09:28:53Z</time>
      </trkpt>
      <trkpt lat="49.25509" lon="-0.19747">
        <ele>21.6000004</ele>
        <time>2013-05-09T09:28:57Z</time>
      </trkpt>
      <trkpt lat="49.25511" lon="-0.19749">
        <ele>21.6000004</ele>
        <time>2013-05-09T09:29:00Z</time>
      </trkpt>
      <trkpt lat="49.25513" lon="-0.19748">
        <ele>21.6000004</ele>
        <time>2013-05-09T09:29:02Z</time>
      </trkpt>
      <trkpt lat="49.2552" lon="-0.1976">
        <ele>21.6000004</ele>
        <time>2013-05-09T09:29:06Z</time>
      </trkpt>
      <trkpt lat="49.25521" lon="-0.19766">
        <ele>21.6000004</ele>
        <time>2013-05-09T09:29:07Z</time>
      </trkpt>
      <trkpt lat="49.25523" lon="-0.19772">
        <ele>21.6000004</ele>
        <time>2013-05-09T09:29:08Z</time>
      </trkpt>
      <trkpt lat="49.25527" lon="-0.19791">
        <ele>21.6000004</ele>
        <time>2013-05-09T09:29:11Z</time>
      </trkpt>
      <trkpt lat="49.25528" lon="-0.19797">
        <ele>21.6000004</ele>
        <time>2013-05-09T09:29:12Z</time>
      </trkpt>
      <trkpt lat="49.25532" lon="-0.19818">
        <ele>21.6000004</ele>
        <time>2013-05-09T09:29:16Z</time>
      </trkpt>
      <trkpt lat="49.25534" lon="-0.19833">
        <ele>21.6000004</ele>
        <time>2013-05-09T09:29:21Z</time>
      </trkpt>
      <trkpt lat="49.25534" lon="-0.19835">
        <ele>21.6000004</ele>
        <time>2013-05-09T09:29:23Z</time>
      </trkpt>
      <trkpt lat="49.25534" lon="-0.19837">
        <ele>21.6000004</ele>
        <time>2013-05-09T09:29:43Z</time>
      </trkpt>
      <trkpt lat="49.25534" lon="-0.19839">
        <ele>21.6000004</ele>
        <time>2013-05-09T09:29:44Z</time>
      </trkpt>
      <trkpt lat="49.25535" lon="-0.19858">
        <ele>21.6000004</ele>
        <time>2013-05-09T09:29:48Z</time>
      </trkpt>
      <trkpt lat="49.25535" lon="-0.19864">
        <ele>21.6000004</ele>
        <time>2013-05-09T09:29:49Z</time>
      </trkpt>
      <trkpt lat="49.25538" lon="-0.199">
        <ele>21.6000004</ele>
        <time>2013-05-09T09:29:55Z</time>
      </trkpt>
      <trkpt lat="49.25539" lon="-0.19906">
        <ele>21.6000004</ele>
        <time>2013-05-09T09:29:56Z</time>
      </trkpt>
      <trkpt lat="49.25544" lon="-0.19937">
        <ele>21.6000004</ele>
        <time>2013-05-09T09:30:01Z</time>
      </trkpt>
      <trkpt lat="49.25553" lon="-0.1997">
        <ele>21.6000004</ele>
        <time>2013-05-09T09:30:07Z</time>
      </trkpt>
      <trkpt lat="49.25553" lon="-0.19992">
        <ele>22.2000008</ele>
        <time>2013-05-09T09:30:11Z</time>
      </trkpt>
      <trkpt lat="49.2555" lon="-0.19996">
        <ele>22.6000004</ele>
        <time>2013-05-09T09:30:12Z</time>
      </trkpt>
      <trkpt lat="49.25546" lon="-0.19997">
        <ele>23</ele>
        <time>2013-05-09T09:30:13Z</time>
      </trkpt>
      <trkpt lat="49.25542" lon="-0.19997">
        <ele>23.2000008</ele>
        <time>2013-05-09T09:30:14Z</time>
      </trkpt>
      <trkpt lat="49.25539" lon="-0.19998">
        <ele>23.6000004</ele>
        <time>2013-05-09T09:30:15Z</time>
      </trkpt>
      <trkpt lat="49.25535" lon="-0.19999">
        <ele>23.6000004</ele>
        <time>2013-05-09T09:30:16Z</time>
      </trkpt>
      <trkpt lat="49.25512" lon="-0.20009">
        <ele>23.6000004</ele>
        <time>2013-05-09T09:30:22Z</time>
      </trkpt>
      <trkpt lat="49.25483" lon="-0.20022">
        <ele>23.6000004</ele>
        <time>2013-05-09T09:30:29Z</time>
      </trkpt>
      <trkpt lat="49.25453" lon="-0.20036">
        <ele>23.6000004</ele>
        <time>2013-05-09T09:30:36Z</time>
      </trkpt>
      <trkpt lat="49.25427" lon="-0.20047">
        <ele>23.6000004</ele>
        <time>2013-05-09T09:30:42Z</time>
      </trkpt>
      <trkpt lat="49.25402" lon="-0.20058">
        <ele>23.6000004</ele>
        <time>2013-05-09T09:30:48Z</time>
      </trkpt>
      <trkpt lat="49.25399" lon="-0.20059">
        <ele>23.6000004</ele>
        <time>2013-05-09T09:30:49Z</time>
      </trkpt>
      <trkpt lat="49.25385" lon="-0.20069">
        <ele>24.2000008</ele>
        <time>2013-05-09T09:30:53Z</time>
      </trkpt>
      <trkpt lat="49.25381" lon="-0.20073">
        <ele>24.6000004</ele>
        <time>2013-05-09T09:30:54Z</time>
      </trkpt>
      <trkpt lat="49.25378" lon="-0.20076">
        <ele>25</ele>
        <time>2013-05-09T09:30:55Z</time>
      </trkpt>
      <trkpt lat="49.25374" lon="-0.2008">
        <ele>25.2000008</ele>
        <time>2013-05-09T09:30:56Z</time>
      </trkpt>
      <trkpt lat="49.25371" lon="-0.20083">
        <ele>25.6000004</ele>
        <time>2013-05-09T09:30:57Z</time>
      </trkpt>
      <trkpt lat="49.25358" lon="-0.20096">
        <ele>25.6000004</ele>
        <time>2013-05-09T09:31:01Z</time>
      </trkpt>
      <trkpt lat="49.25338" lon="-0.20123">
        <ele>25.6000004</ele>
        <time>2013-05-09T09:31:08Z</time>
      </trkpt>
      <trkpt lat="49.25323" lon="-0.20154">
        <ele>25.6000004</ele>
        <time>2013-05-09T09:31:15Z</time>
      </trkpt>
      <trkpt lat="49.2531" lon="-0.20177">
        <ele>26.2000008</ele>
        <time>2013-05-09T09:31:20Z</time>
      </trkpt>
      <trkpt lat="49.25308" lon="-0.20181">
        <ele>26.6000004</ele>
        <time>2013-05-09T09:31:21Z</time>
      </trkpt>
      <trkpt lat="49.25306" lon="-0.20186">
        <ele>27</ele>
        <time>2013-05-09T09:31:22Z</time>
      </trkpt>
      <trkpt lat="49.25304" lon="-0.2019">
        <ele>27.2000008</ele>
        <time>2013-05-09T09:31:23Z</time>
      </trkpt>
      <trkpt lat="49.25301" lon="-0.20194">
        <ele>28</ele>
        <time>2013-05-09T09:31:24Z</time>
      </trkpt>
      <trkpt lat="49.25292" lon="-0.20213">
        <ele>28</ele>
        <time>2013-05-09T09:31:28Z</time>
      </trkpt>
      <trkpt lat="49.25271" lon="-0.20244">
        <ele>28</ele>
        <time>2013-05-09T09:31:35Z</time>
      </trkpt>
      <trkpt lat="49.25264" lon="-0.20253">
        <ele>28.2000008</ele>
        <time>2013-05-09T09:31:37Z</time>
      </trkpt>
      <trkpt lat="49.25261" lon="-0.20258">
        <ele>28.6000004</ele>
        <time>2013-05-09T09:31:38Z</time>
      </trkpt>
      <trkpt lat="49.25257" lon="-0.20262">
        <ele>29.2000008</ele>
        <time>2013-05-09T09:31:39Z</time>
      </trkpt>
      <trkpt lat="49.25254" lon="-0.20266">
        <ele>29.6000004</ele>
        <time>2013-05-09T09:31:40Z</time>
      </trkpt>
      <trkpt lat="49.2525" lon="-0.20271">
        <ele>30</ele>
        <time>2013-05-09T09:31:41Z</time>
      </trkpt>
      <trkpt lat="49.25244" lon="-0.20279">
        <ele>30</ele>
        <time>2013-05-09T09:31:43Z</time>
      </trkpt>
      <trkpt lat="49.2522" lon="-0.20303">
        <ele>30</ele>
        <time>2013-05-09T09:31:50Z</time>
      </trkpt>
      <trkpt lat="49.25192" lon="-0.20331">
        <ele>30</ele>
        <time>2013-05-09T09:31:58Z</time>
      </trkpt>
      <trkpt lat="49.25168" lon="-0.20355">
        <ele>30</ele>
        <time>2013-05-09T09:32:05Z</time>
      </trkpt>
      <trkpt lat="49.25165" lon="-0.20359">
        <ele>30.6000004</ele>
        <time>2013-05-09T09:32:06Z</time>
      </trkpt>
      <trkpt lat="49.25161" lon="-0.20362">
        <ele>31</ele>
        <time>2013-05-09T09:32:07Z</time>
      </trkpt>
      <trkpt lat="49.25158" lon="-0.20366">
        <ele>31.2000008</ele>
        <time>2013-05-09T09:32:08Z</time>
      </trkpt>
      <trkpt lat="49.25154" lon="-0.2037">
        <ele>31.6000004</ele>
        <time>2013-05-09T09:32:09Z</time>
      </trkpt>
      <trkpt lat="49.25151" lon="-0.20373">
        <ele>32.2000008</ele>
        <time>2013-05-09T09:32:10Z</time>
      </trkpt>
      <trkpt lat="49.25148" lon="-0.20377">
        <ele>32.2000008</ele>
        <time>2013-05-09T09:32:11Z</time>
      </trkpt>
      <trkpt lat="49.25125" lon="-0.20403">
        <ele>32.2000008</ele>
        <time>2013-05-09T09:32:18Z</time>
      </trkpt>
      <trkpt lat="49.25106" lon="-0.20426">
        <ele>32.2000008</ele>
        <time>2013-05-09T09:32:24Z</time>
      </trkpt>
      <trkpt lat="49.25086" lon="-0.20455">
        <ele>32.2000008</ele>
        <time>2013-05-09T09:32:31Z</time>
      </trkpt>
      <trkpt lat="49.25072" lon="-0.20473">
        <ele>32.4000015</ele>
        <time>2013-05-09T09:32:36Z</time>
      </trkpt>
      <trkpt lat="49.25069" lon="-0.20477">
        <ele>33</ele>
        <time>2013-05-09T09:32:37Z</time>
      </trkpt>
      <trkpt lat="49.25066" lon="-0.20481">
        <ele>33.4000015</ele>
        <time>2013-05-09T09:32:38Z</time>
      </trkpt>
      <trkpt lat="49.25063" lon="-0.20485">
        <ele>33.5999985</ele>
        <time>2013-05-09T09:32:39Z</time>
      </trkpt>
      <trkpt lat="49.2506" lon="-0.20489">
        <ele>34.2000008</ele>
        <time>2013-05-09T09:32:40Z</time>
      </trkpt>
      <trkpt lat="49.2504" lon="-0.20514">
        <ele>34.2000008</ele>
        <time>2013-05-09T09:32:46Z</time>
      </trkpt>
      <trkpt lat="49.25017" lon="-0.20556">
        <ele>34.2000008</ele>
        <time>2013-05-09T09:32:54Z</time>
      </trkpt>
      <trkpt lat="49.2501" lon="-0.20574">
        <ele>34.2000008</ele>
        <time>2013-05-09T09:32:57Z</time>
      </trkpt>
      <trkpt lat="49.25005" lon="-0.20594">
        <ele>34.2000008</ele>
        <time>2013-05-09T09:33:00Z</time>
      </trkpt>
      <trkpt lat="49.25001" lon="-0.20607">
        <ele>34.2000008</ele>
        <time>2013-05-09T09:33:02Z</time>
      </trkpt>
      <trkpt lat="49.24992" lon="-0.20628">
        <ele>34.4000015</ele>
        <time>2013-05-09T09:33:06Z</time>
      </trkpt>
      <trkpt lat="49.2499" lon="-0.20633">
        <ele>35.4000015</ele>
        <time>2013-05-09T09:33:07Z</time>
      </trkpt>
      <trkpt lat="49.24988" lon="-0.20638">
        <ele>36</ele>
        <time>2013-05-09T09:33:08Z</time>
      </trkpt>
      <trkpt lat="49.24986" lon="-0.20643">
        <ele>36.4000015</ele>
        <time>2013-05-09T09:33:09Z</time>
      </trkpt>
      <trkpt lat="49.24983" lon="-0.20647">
        <ele>36.5999985</ele>
        <time>2013-05-09T09:33:10Z</time>
      </trkpt>
      <trkpt lat="49.24981" lon="-0.20651">
        <ele>37.2000008</ele>
        <time>2013-05-09T09:33:11Z</time>
      </trkpt>
      <trkpt lat="49.24979" lon="-0.20655">
        <ele>37.4000015</ele>
        <time>2013-05-09T09:33:12Z</time>
      </trkpt>
      <trkpt lat="49.24978" lon="-0.2066">
        <ele>38</ele>
        <time>2013-05-09T09:33:13Z</time>
      </trkpt>
      <trkpt lat="49.24976" lon="-0.20663">
        <ele>38.4000015</ele>
        <time>2013-05-09T09:33:14Z</time>
      </trkpt>
      <trkpt lat="49.24968" lon="-0.20672">
        <ele>38.4000015</ele>
        <time>2013-05-09T09:33:18Z</time>
      </trkpt>
      <trkpt lat="49.24956" lon="-0.20681">
        <ele>38.4000015</ele>
        <time>2013-05-09T09:33:23Z</time>
      </trkpt>
      <trkpt lat="49.24945" lon="-0.20689">
        <ele>38.4000015</ele>
        <time>2013-05-09T09:33:28Z</time>
      </trkpt>
      <trkpt lat="49.24935" lon="-0.20696">
        <ele>38.4000015</ele>
        <time>2013-05-09T09:33:34Z</time>
      </trkpt>
      <trkpt lat="49.24935" lon="-0.20696">
        <ele>38.4000015</ele>
        <time>2013-05-09T09:33:35Z</time>
      </trkpt>
      <trkpt lat="49.24935" lon="-0.20696">
        <ele>36</ele>
        <time>2013-05-09T09:34:07Z</time>
      </trkpt>
      <trkpt lat="49.24933" lon="-0.20698">
        <ele>36</ele>
        <time>2013-05-09T09:34:09Z</time>
      </trkpt>
      <trkpt lat="49.24921" lon="-0.20704">
        <ele>36</ele>
        <time>2013-05-09T09:34:15Z</time>
      </trkpt>
      <trkpt lat="49.24912" lon="-0.20712">
        <ele>36</ele>
        <time>2013-05-09T09:34:20Z</time>
      </trkpt>
      <trkpt lat="49.2491" lon="-0.20713">
        <ele>36.4000015</ele>
        <time>2013-05-09T09:34:21Z</time>
      </trkpt>
      <trkpt lat="49.24908" lon="-0.20715">
        <ele>36.5999985</ele>
        <time>2013-05-09T09:34:22Z</time>
      </trkpt>
      <trkpt lat="49.24906" lon="-0.20717">
        <ele>37.2000008</ele>
        <time>2013-05-09T09:34:23Z</time>
      </trkpt>
      <trkpt lat="49.24904" lon="-0.20718">
        <ele>37.4000015</ele>
        <time>2013-05-09T09:34:24Z</time>
      </trkpt>
      <trkpt lat="49.24901" lon="-0.2072">
        <ele>38</ele>
        <time>2013-05-09T09:34:25Z</time>
      </trkpt>
      <trkpt lat="49.24899" lon="-0.20722">
        <ele>38</ele>
        <time>2013-05-09T09:34:26Z</time>
      </trkpt>
      <trkpt lat="49.24884" lon="-0.20733">
        <ele>38</ele>
        <time>2013-05-09T09:34:32Z</time>
      </trkpt>
      <trkpt lat="49.24861" lon="-0.20752">
        <ele>38</ele>
        <time>2013-05-09T09:34:40Z</time>
      </trkpt>
      <trkpt lat="49.24837" lon="-0.20774">
        <ele>38</ele>
        <time>2013-05-09T09:34:48Z</time>
      </trkpt>
      <trkpt lat="49.24832" lon="-0.2078">
        <ele>38.4000015</ele>
        <time>2013-05-09T09:34:50Z</time>
      </trkpt>
      <trkpt lat="49.2483" lon="-0.20783">
        <ele>38.5999985</ele>
        <time>2013-05-09T09:34:51Z</time>
      </trkpt>
      <trkpt lat="49.24827" lon="-0.20786">
        <ele>39.2000008</ele>
        <time>2013-05-09T09:34:52Z</time>
      </trkpt>
      <trkpt lat="49.24825" lon="-0.20789">
        <ele>39.4000015</ele>
        <time>2013-05-09T09:34:53Z</time>
      </trkpt>
      <trkpt lat="49.24822" lon="-0.20791">
        <ele>40</ele>
        <time>2013-05-09T09:34:54Z</time>
      </trkpt>
      <trkpt lat="49.24819" lon="-0.20794">
        <ele>40</ele>
        <time>2013-05-09T09:34:55Z</time>
      </trkpt>
      <trkpt lat="49.24799" lon="-0.20797">
        <ele>40</ele>
        <time>2013-05-09T09:35:01Z</time>
      </trkpt>
      <trkpt lat="49.24776" lon="-0.20792">
        <ele>40</ele>
        <time>2013-05-09T09:35:08Z</time>
      </trkpt>
      <trkpt lat="49.24757" lon="-0.2079">
        <ele>40</ele>
        <time>2013-05-09T09:35:13Z</time>
      </trkpt>
      <trkpt lat="49.24736" lon="-0.20797">
        <ele>40</ele>
        <time>2013-05-09T09:35:18Z</time>
      </trkpt>
      <trkpt lat="49.24732" lon="-0.20798">
        <ele>40</ele>
        <time>2013-05-09T09:35:19Z</time>
      </trkpt>
      <trkpt lat="49.24709" lon="-0.20815">
        <ele>40</ele>
        <time>2013-05-09T09:35:25Z</time>
      </trkpt>
      <trkpt lat="49.24699" lon="-0.20837">
        <ele>40</ele>
        <time>2013-05-09T09:35:29Z</time>
      </trkpt>
      <trkpt lat="49.24697" lon="-0.20843">
        <ele>40</ele>
        <time>2013-05-09T09:35:30Z</time>
      </trkpt>
      <trkpt lat="49.24685" lon="-0.20858">
        <ele>40.4000015</ele>
        <time>2013-05-09T09:35:34Z</time>
      </trkpt>
      <trkpt lat="49.24681" lon="-0.2086">
        <ele>41.2000008</ele>
        <time>2013-05-09T09:35:35Z</time>
      </trkpt>
      <trkpt lat="49.24678" lon="-0.20862">
        <ele>41.4000015</ele>
        <time>2013-05-09T09:35:36Z</time>
      </trkpt>
      <trkpt lat="49.24674" lon="-0.20865">
        <ele>42</ele>
        <time>2013-05-09T09:35:37Z</time>
      </trkpt>
      <trkpt lat="49.24661" lon="-0.20875">
        <ele>42</ele>
        <time>2013-05-09T09:35:41Z</time>
      </trkpt>
      <trkpt lat="49.24638" lon="-0.20893">
        <ele>42</ele>
        <time>2013-05-09T09:35:48Z</time>
      </trkpt>
      <trkpt lat="49.24636" lon="-0.2091">
        <ele>42</ele>
        <time>2013-05-09T09:35:51Z</time>
      </trkpt>
      <trkpt lat="49.2464" lon="-0.20939">
        <ele>42</ele>
        <time>2013-05-09T09:35:56Z</time>
      </trkpt>
      <trkpt lat="49.24642" lon="-0.20961">
        <ele>42</ele>
        <time>2013-05-09T09:36:01Z</time>
      </trkpt>
      <trkpt lat="49.24645" lon="-0.20982">
        <ele>42</ele>
        <time>2013-05-09T09:36:06Z</time>
      </trkpt>
      <trkpt lat="49.24647" lon="-0.20993">
        <ele>42.4000015</ele>
        <time>2013-05-09T09:36:09Z</time>
      </trkpt>
      <trkpt lat="49.24647" lon="-0.20997">
        <ele>43</ele>
        <time>2013-05-09T09:36:10Z</time>
      </trkpt>
      <trkpt lat="49.24648" lon="-0.21001">
        <ele>43.4000015</ele>
        <time>2013-05-09T09:36:11Z</time>
      </trkpt>
      <trkpt lat="49.24649" lon="-0.21007">
        <ele>43.5999985</ele>
        <time>2013-05-09T09:36:12Z</time>
      </trkpt>
      <trkpt lat="49.2465" lon="-0.21012">
        <ele>44.2000008</ele>
        <time>2013-05-09T09:36:13Z</time>
      </trkpt>
      <trkpt lat="49.24654" lon="-0.21044">
        <ele>44.2000008</ele>
        <time>2013-05-09T09:36:19Z</time>
      </trkpt>
      <trkpt lat="49.24659" lon="-0.21082">
        <ele>44.2000008</ele>
        <time>2013-05-09T09:36:26Z</time>
      </trkpt>
      <trkpt lat="49.24663" lon="-0.21111">
        <ele>44.2000008</ele>
        <time>2013-05-09T09:36:32Z</time>
      </trkpt>
      <trkpt lat="49.24668" lon="-0.21144">
        <ele>44.2000008</ele>
        <time>2013-05-09T09:36:38Z</time>
      </trkpt>
      <trkpt lat="49.24673" lon="-0.21192">
        <ele>44.2000008</ele>
        <time>2013-05-09T09:36:46Z</time>
      </trkpt>
      <trkpt lat="49.24674" lon="-0.21231">
        <ele>44.2000008</ele>
        <time>2013-05-09T09:36:53Z</time>
      </trkpt>
      <trkpt lat="49.24675" lon="-0.21258">
        <ele>44.2000008</ele>
        <time>2013-05-09T09:36:59Z</time>
      </trkpt>
      <trkpt lat="49.24675" lon="-0.21262">
        <ele>44.4000015</ele>
        <time>2013-05-09T09:37:00Z</time>
      </trkpt>
      <trkpt lat="49.24677" lon="-0.21268">
        <ele>45</ele>
        <time>2013-05-09T09:37:01Z</time>
      </trkpt>
      <trkpt lat="49.24678" lon="-0.21272">
        <ele>45.4000015</ele>
        <time>2013-05-09T09:37:02Z</time>
      </trkpt>
      <trkpt lat="49.24681" lon="-0.21278">
        <ele>45.5999985</ele>
        <time>2013-05-09T09:37:03Z</time>
      </trkpt>
      <trkpt lat="49.24684" lon="-0.21282">
        <ele>46.2000008</ele>
        <time>2013-05-09T09:37:04Z</time>
      </trkpt>
      <trkpt lat="49.24703" lon="-0.21307">
        <ele>46.2000008</ele>
        <time>2013-05-09T09:37:11Z</time>
      </trkpt>
      <trkpt lat="49.24703" lon="-0.21309">
        <ele>46.2000008</ele>
        <time>2013-05-09T09:37:12Z</time>
      </trkpt>
      <trkpt lat="49.24704" lon="-0.21309">
        <ele>46.2000008</ele>
        <time>2013-05-09T09:37:14Z</time>
      </trkpt>
      <trkpt lat="49.24704" lon="-0.21309">
        <ele>44</ele>
        <time>2013-05-09T09:39:17Z</time>
      </trkpt>
      <trkpt lat="49.24704" lon="-0.21309">
        <ele>44</ele>
        <time>2013-05-09T09:39:18Z</time>
      </trkpt>
      <trkpt lat="49.24705" lon="-0.2131">
        <ele>44</ele>
        <time>2013-05-09T09:39:22Z</time>
      </trkpt>
      <trkpt lat="49.24709" lon="-0.21318">
        <ele>44</ele>
        <time>2013-05-09T09:39:25Z</time>
      </trkpt>
      <trkpt lat="49.24722" lon="-0.21335">
        <ele>44</ele>
        <time>2013-05-09T09:39:30Z</time>
      </trkpt>
      <trkpt lat="49.24728" lon="-0.21344">
        <ele>44</ele>
        <time>2013-05-09T09:39:32Z</time>
      </trkpt>
      <trkpt lat="49.24739" lon="-0.21359">
        <ele>44</ele>
        <time>2013-05-09T09:39:35Z</time>
      </trkpt>
      <trkpt lat="49.24769" lon="-0.21394">
        <ele>44</ele>
        <time>2013-05-09T09:39:43Z</time>
      </trkpt>
      <trkpt lat="49.24789" lon="-0.21425">
        <ele>44</ele>
        <time>2013-05-09T09:39:49Z</time>
      </trkpt>
      <trkpt lat="49.24793" lon="-0.2144">
        <ele>44</ele>
        <time>2013-05-09T09:39:51Z</time>
      </trkpt>
      <trkpt lat="49.24787" lon="-0.21462">
        <ele>44</ele>
        <time>2013-05-09T09:39:54Z</time>
      </trkpt>
      <trkpt lat="49.24774" lon="-0.21476">
        <ele>44</ele>
        <time>2013-05-09T09:39:57Z</time>
      </trkpt>
      <trkpt lat="49.24769" lon="-0.21481">
        <ele>44</ele>
        <time>2013-05-09T09:39:58Z</time>
      </trkpt>
      <trkpt lat="49.24731" lon="-0.21518">
        <ele>44</ele>
        <time>2013-05-09T09:40:07Z</time>
      </trkpt>
      <trkpt lat="49.24721" lon="-0.2153">
        <ele>44.4000015</ele>
        <time>2013-05-09T09:40:10Z</time>
      </trkpt>
      <trkpt lat="49.24717" lon="-0.21534">
        <ele>44.5999985</ele>
        <time>2013-05-09T09:40:11Z</time>
      </trkpt>
      <trkpt lat="49.24713" lon="-0.21539">
        <ele>45.2000008</ele>
        <time>2013-05-09T09:40:12Z</time>
      </trkpt>
      <trkpt lat="49.2471" lon="-0.21544">
        <ele>45.4000015</ele>
        <time>2013-05-09T09:40:13Z</time>
      </trkpt>
      <trkpt lat="49.24707" lon="-0.21548">
        <ele>46</ele>
        <time>2013-05-09T09:40:14Z</time>
      </trkpt>
      <trkpt lat="49.24704" lon="-0.21554">
        <ele>46</ele>
        <time>2013-05-09T09:40:15Z</time>
      </trkpt>
      <trkpt lat="49.24698" lon="-0.21571">
        <ele>46</ele>
        <time>2013-05-09T09:40:18Z</time>
      </trkpt>
      <trkpt lat="49.24697" lon="-0.21578">
        <ele>46</ele>
        <time>2013-05-09T09:40:19Z</time>
      </trkpt>
      <trkpt lat="49.24699" lon="-0.216">
        <ele>46</ele>
        <time>2013-05-09T09:40:22Z</time>
      </trkpt>
      <trkpt lat="49.247" lon="-0.21607">
        <ele>46</ele>
        <time>2013-05-09T09:40:23Z</time>
      </trkpt>
      <trkpt lat="49.24706" lon="-0.21638">
        <ele>46.4000015</ele>
        <time>2013-05-09T09:40:27Z</time>
      </trkpt>
      <trkpt lat="49.24708" lon="-0.21645">
        <ele>46.5999985</ele>
        <time>2013-05-09T09:40:28Z</time>
      </trkpt>
      <trkpt lat="49.24709" lon="-0.21653">
        <ele>47.2000008</ele>
        <time>2013-05-09T09:40:29Z</time>
      </trkpt>
      <trkpt lat="49.24711" lon="-0.21661">
        <ele>47.4000015</ele>
        <time>2013-05-09T09:40:30Z</time>
      </trkpt>
      <trkpt lat="49.24712" lon="-0.21668">
        <ele>48</ele>
        <time>2013-05-09T09:40:31Z</time>
      </trkpt>
      <trkpt lat="49.24714" lon="-0.21682">
        <ele>48</ele>
        <time>2013-05-09T09:40:33Z</time>
      </trkpt>
      <trkpt lat="49.24715" lon="-0.21689">
        <ele>48.4000015</ele>
        <time>2013-05-09T09:40:34Z</time>
      </trkpt>
      <trkpt lat="49.24716" lon="-0.21696">
        <ele>48.5999985</ele>
        <time>2013-05-09T09:40:35Z</time>
      </trkpt>
      <trkpt lat="49.24717" lon="-0.21703">
        <ele>49.2000008</ele>
        <time>2013-05-09T09:40:36Z</time>
      </trkpt>
      <trkpt lat="49.24718" lon="-0.2171">
        <ele>49.4000015</ele>
        <time>2013-05-09T09:40:37Z</time>
      </trkpt>
      <trkpt lat="49.24719" lon="-0.21717">
        <ele>50.2000008</ele>
        <time>2013-05-09T09:40:38Z</time>
      </trkpt>
      <trkpt lat="49.2472" lon="-0.21746">
        <ele>50.2000008</ele>
        <time>2013-05-09T09:40:42Z</time>
      </trkpt>
      <trkpt lat="49.2472" lon="-0.21754">
        <ele>50.2000008</ele>
        <time>2013-05-09T09:40:43Z</time>
      </trkpt>
      <trkpt lat="49.2472" lon="-0.21799">
        <ele>50.2000008</ele>
        <time>2013-05-09T09:40:49Z</time>
      </trkpt>
      <trkpt lat="49.24721" lon="-0.21843">
        <ele>50.4000015</ele>
        <time>2013-05-09T09:40:55Z</time>
      </trkpt>
      <trkpt lat="49.24721" lon="-0.2185">
        <ele>51</ele>
        <time>2013-05-09T09:40:56Z</time>
      </trkpt>
      <trkpt lat="49.24722" lon="-0.21857">
        <ele>51.5999985</ele>
        <time>2013-05-09T09:40:57Z</time>
      </trkpt>
      <trkpt lat="49.24721" lon="-0.21865">
        <ele>52.2000008</ele>
        <time>2013-05-09T09:40:58Z</time>
      </trkpt>
      <trkpt lat="49.24719" lon="-0.21927">
        <ele>52.2000008</ele>
        <time>2013-05-09T09:41:07Z</time>
      </trkpt>
      <trkpt lat="49.24719" lon="-0.21934">
        <ele>52.2000008</ele>
        <time>2013-05-09T09:41:08Z</time>
      </trkpt>
      <trkpt lat="49.24714" lon="-0.21976">
        <ele>52.2000008</ele>
        <time>2013-05-09T09:41:14Z</time>
      </trkpt>
      <trkpt lat="49.24714" lon="-0.2199">
        <ele>52.2000008</ele>
        <time>2013-05-09T09:41:16Z</time>
      </trkpt>
      <trkpt lat="49.24717" lon="-0.22009">
        <ele>52.2000008</ele>
        <time>2013-05-09T09:41:19Z</time>
      </trkpt>
      <trkpt lat="49.24719" lon="-0.22015">
        <ele>52.2000008</ele>
        <time>2013-05-09T09:41:20Z</time>
      </trkpt>
      <trkpt lat="49.24726" lon="-0.22031">
        <ele>52.2000008</ele>
        <time>2013-05-09T09:41:23Z</time>
      </trkpt>
      <trkpt lat="49.24729" lon="-0.22041">
        <ele>52.2000008</ele>
        <time>2013-05-09T09:41:25Z</time>
      </trkpt>
      <trkpt lat="49.24728" lon="-0.22046">
        <ele>52.2000008</ele>
        <time>2013-05-09T09:41:26Z</time>
      </trkpt>
      <trkpt lat="49.24724" lon="-0.22052">
        <ele>52.2000008</ele>
        <time>2013-05-09T09:41:28Z</time>
      </trkpt>
      <trkpt lat="49.24717" lon="-0.22063">
        <ele>52.4000015</ele>
        <time>2013-05-09T09:41:32Z</time>
      </trkpt>
      <trkpt lat="49.24715" lon="-0.22066">
        <ele>53</ele>
        <time>2013-05-09T09:41:33Z</time>
      </trkpt>
      <trkpt lat="49.24713" lon="-0.22069">
        <ele>53.4000015</ele>
        <time>2013-05-09T09:41:34Z</time>
      </trkpt>
      <trkpt lat="49.24711" lon="-0.22072">
        <ele>53.5999985</ele>
        <time>2013-05-09T09:41:35Z</time>
      </trkpt>
      <trkpt lat="49.24709" lon="-0.22075">
        <ele>54.2000008</ele>
        <time>2013-05-09T09:41:36Z</time>
      </trkpt>
      <trkpt lat="49.247" lon="-0.22092">
        <ele>54.2000008</ele>
        <time>2013-05-09T09:41:41Z</time>
      </trkpt>
      <trkpt lat="49.24682" lon="-0.2212">
        <ele>54.2000008</ele>
        <time>2013-05-09T09:41:48Z</time>
      </trkpt>
      <trkpt lat="49.24667" lon="-0.22145">
        <ele>54.2000008</ele>
        <time>2013-05-09T09:41:54Z</time>
      </trkpt>
      <trkpt lat="49.24667" lon="-0.22164">
        <ele>54.2000008</ele>
        <time>2013-05-09T09:41:58Z</time>
      </trkpt>
      <trkpt lat="49.24669" lon="-0.22189">
        <ele>54.2000008</ele>
        <time>2013-05-09T09:42:02Z</time>
      </trkpt>
      <trkpt lat="49.24667" lon="-0.22194">
        <ele>54.2000008</ele>
        <time>2013-05-09T09:42:03Z</time>
      </trkpt>
      <trkpt lat="49.24664" lon="-0.22198">
        <ele>54.5999985</ele>
        <time>2013-05-09T09:42:04Z</time>
      </trkpt>
      <trkpt lat="49.24661" lon="-0.22202">
        <ele>55.2000008</ele>
        <time>2013-05-09T09:42:05Z</time>
      </trkpt>
      <trkpt lat="49.24659" lon="-0.22206">
        <ele>55.5999985</ele>
        <time>2013-05-09T09:42:06Z</time>
      </trkpt>
      <trkpt lat="49.24656" lon="-0.22209">
        <ele>56.2000008</ele>
        <time>2013-05-09T09:42:07Z</time>
      </trkpt>
      <trkpt lat="49.24653" lon="-0.22213">
        <ele>56.4000015</ele>
        <time>2013-05-09T09:42:08Z</time>
      </trkpt>
      <trkpt lat="49.24637" lon="-0.22231">
        <ele>56.4000015</ele>
        <time>2013-05-09T09:42:13Z</time>
      </trkpt>
      <trkpt lat="49.2463" lon="-0.22239">
        <ele>56.4000015</ele>
        <time>2013-05-09T09:42:15Z</time>
      </trkpt>
      <trkpt lat="49.24616" lon="-0.22255">
        <ele>56.4000015</ele>
        <time>2013-05-09T09:42:19Z</time>
      </trkpt>
      <trkpt lat="49.24587" lon="-0.22286">
        <ele>56.4000015</ele>
        <time>2013-05-09T09:42:27Z</time>
      </trkpt>
      <trkpt lat="49.2457" lon="-0.22303">
        <ele>57</ele>
        <time>2013-05-09T09:42:32Z</time>
      </trkpt>
      <trkpt lat="49.24567" lon="-0.22306">
        <ele>57.4000015</ele>
        <time>2013-05-09T09:42:33Z</time>
      </trkpt>
      <trkpt lat="49.24563" lon="-0.22309">
        <ele>57.5999985</ele>
        <time>2013-05-09T09:42:34Z</time>
      </trkpt>
      <trkpt lat="49.2456" lon="-0.22313">
        <ele>58.4000015</ele>
        <time>2013-05-09T09:42:35Z</time>
      </trkpt>
      <trkpt lat="49.24545" lon="-0.22327">
        <ele>58.4000015</ele>
        <time>2013-05-09T09:42:39Z</time>
      </trkpt>
      <trkpt lat="49.24529" lon="-0.22344">
        <ele>58.4000015</ele>
        <time>2013-05-09T09:42:44Z</time>
      </trkpt>
      <trkpt lat="49.24534" lon="-0.22367">
        <ele>58.4000015</ele>
        <time>2013-05-09T09:42:48Z</time>
      </trkpt>
      <trkpt lat="49.2453" lon="-0.22384">
        <ele>58.4000015</ele>
        <time>2013-05-09T09:42:52Z</time>
      </trkpt>
      <trkpt lat="49.24518" lon="-0.22392">
        <ele>58.4000015</ele>
        <time>2013-05-09T09:42:55Z</time>
      </trkpt>
      <trkpt lat="49.2451" lon="-0.22397">
        <ele>58.4000015</ele>
        <time>2013-05-09T09:42:57Z</time>
      </trkpt>
      <trkpt lat="49.24489" lon="-0.22411">
        <ele>58.4000015</ele>
        <time>2013-05-09T09:43:02Z</time>
      </trkpt>
      <trkpt lat="49.24485" lon="-0.22414">
        <ele>58.4000015</ele>
        <time>2013-05-09T09:43:03Z</time>
      </trkpt>
      <trkpt lat="49.24465" lon="-0.22428">
        <ele>58.4000015</ele>
        <time>2013-05-09T09:43:08Z</time>
      </trkpt>
      <trkpt lat="49.24441" lon="-0.22446">
        <ele>58.4000015</ele>
        <time>2013-05-09T09:43:14Z</time>
      </trkpt>
      <trkpt lat="49.24421" lon="-0.22461">
        <ele>58.4000015</ele>
        <time>2013-05-09T09:43:19Z</time>
      </trkpt>
      <trkpt lat="49.24396" lon="-0.22478">
        <ele>58.4000015</ele>
        <time>2013-05-09T09:43:25Z</time>
      </trkpt>
      <trkpt lat="49.24379" lon="-0.2249">
        <ele>59</ele>
        <time>2013-05-09T09:43:29Z</time>
      </trkpt>
      <trkpt lat="49.24375" lon="-0.22493">
        <ele>59.4000015</ele>
        <time>2013-05-09T09:43:30Z</time>
      </trkpt>
      <trkpt lat="49.24371" lon="-0.22496">
        <ele>60</ele>
        <time>2013-05-09T09:43:31Z</time>
      </trkpt>
      <trkpt lat="49.24369" lon="-0.22498">
        <ele>60.4000015</ele>
        <time>2013-05-09T09:43:32Z</time>
      </trkpt>
      <trkpt lat="49.24365" lon="-0.22501">
        <ele>60.5999985</ele>
        <time>2013-05-09T09:43:33Z</time>
      </trkpt>
      <trkpt lat="49.24352" lon="-0.22508">
        <ele>60.5999985</ele>
        <time>2013-05-09T09:43:36Z</time>
      </trkpt>
      <trkpt lat="49.2433" lon="-0.22519">
        <ele>60.5999985</ele>
        <time>2013-05-09T09:43:41Z</time>
      </trkpt>
      <trkpt lat="49.24315" lon="-0.22526">
        <ele>60.5999985</ele>
        <time>2013-05-09T09:43:47Z</time>
      </trkpt>
      <trkpt lat="49.24305" lon="-0.22534">
        <ele>60.5999985</ele>
        <time>2013-05-09T09:43:52Z</time>
      </trkpt>
      <trkpt lat="49.24292" lon="-0.22546">
        <ele>60.5999985</ele>
        <time>2013-05-09T09:43:58Z</time>
      </trkpt>
      <trkpt lat="49.24275" lon="-0.22558">
        <ele>60.5999985</ele>
        <time>2013-05-09T09:44:04Z</time>
      </trkpt>
      <trkpt lat="49.24263" lon="-0.22564">
        <ele>60.5999985</ele>
        <time>2013-05-09T09:44:09Z</time>
      </trkpt>
      <trkpt lat="49.24245" lon="-0.22577">
        <ele>60.5999985</ele>
        <time>2013-05-09T09:44:15Z</time>
      </trkpt>
      <trkpt lat="49.2422" lon="-0.22595">
        <ele>60.5999985</ele>
        <time>2013-05-09T09:44:21Z</time>
      </trkpt>
      <trkpt lat="49.24187" lon="-0.22603">
        <ele>60.5999985</ele>
        <time>2013-05-09T09:44:28Z</time>
      </trkpt>
      <trkpt lat="49.24183" lon="-0.22603">
        <ele>60.4000015</ele>
        <time>2013-05-09T09:44:29Z</time>
      </trkpt>
      <trkpt lat="49.24178" lon="-0.22603">
        <ele>59.5999985</ele>
        <time>2013-05-09T09:44:30Z</time>
      </trkpt>
      <trkpt lat="49.24174" lon="-0.22602">
        <ele>59.4000015</ele>
        <time>2013-05-09T09:44:31Z</time>
      </trkpt>
      <trkpt lat="49.24171" lon="-0.22601">
        <ele>59</ele>
        <time>2013-05-09T09:44:32Z</time>
      </trkpt>
      <trkpt lat="49.24167" lon="-0.22601">
        <ele>58.4000015</ele>
        <time>2013-05-09T09:44:33Z</time>
      </trkpt>
      <trkpt lat="49.24163" lon="-0.22602">
        <ele>58.4000015</ele>
        <time>2013-05-09T09:44:34Z</time>
      </trkpt>
      <trkpt lat="49.24151" lon="-0.22612">
        <ele>58.4000015</ele>
        <time>2013-05-09T09:44:38Z</time>
      </trkpt>
      <trkpt lat="49.24132" lon="-0.22641">
        <ele>58.4000015</ele>
        <time>2013-05-09T09:44:45Z</time>
      </trkpt>
      <trkpt lat="49.24126" lon="-0.22658">
        <ele>58.4000015</ele>
        <time>2013-05-09T09:44:48Z</time>
      </trkpt>
      <trkpt lat="49.24118" lon="-0.22681">
        <ele>58.4000015</ele>
        <time>2013-05-09T09:44:52Z</time>
      </trkpt>
      <trkpt lat="49.24104" lon="-0.22715">
        <ele>58.4000015</ele>
        <time>2013-05-09T09:44:59Z</time>
      </trkpt>
      <trkpt lat="49.24098" lon="-0.22718">
        <ele>58.4000015</ele>
        <time>2013-05-09T09:45:02Z</time>
      </trkpt>
      <trkpt lat="49.24096" lon="-0.22717">
        <ele>58.4000015</ele>
        <time>2013-05-09T09:45:03Z</time>
      </trkpt>
      <trkpt lat="49.2409" lon="-0.22706">
        <ele>58.4000015</ele>
        <time>2013-05-09T09:45:06Z</time>
      </trkpt>
      <trkpt lat="49.24088" lon="-0.22702">
        <ele>58.4000015</ele>
        <time>2013-05-09T09:45:07Z</time>
      </trkpt>
      <trkpt lat="49.24071" lon="-0.22673">
        <ele>58.4000015</ele>
        <time>2013-05-09T09:45:14Z</time>
      </trkpt>
      <trkpt lat="49.24069" lon="-0.22669">
        <ele>59</ele>
        <time>2013-05-09T09:45:15Z</time>
      </trkpt>
      <trkpt lat="49.24066" lon="-0.22664">
        <ele>59.4000015</ele>
        <time>2013-05-09T09:45:16Z</time>
      </trkpt>
      <trkpt lat="49.24064" lon="-0.2266">
        <ele>59.5999985</ele>
        <time>2013-05-09T09:45:17Z</time>
      </trkpt>
      <trkpt lat="49.24061" lon="-0.22656">
        <ele>60.2000008</ele>
        <time>2013-05-09T09:45:18Z</time>
      </trkpt>
      <trkpt lat="49.24059" lon="-0.22652">
        <ele>60.4000015</ele>
        <time>2013-05-09T09:45:19Z</time>
      </trkpt>
      <trkpt lat="49.24049" lon="-0.22636">
        <ele>60.4000015</ele>
        <time>2013-05-09T09:45:23Z</time>
      </trkpt>
      <trkpt lat="49.24032" lon="-0.2261">
        <ele>60.4000015</ele>
        <time>2013-05-09T09:45:30Z</time>
      </trkpt>
      <trkpt lat="49.24016" lon="-0.22604">
        <ele>60.4000015</ele>
        <time>2013-05-09T09:45:35Z</time>
      </trkpt>
      <trkpt lat="49.23988" lon="-0.22589">
        <ele>60.4000015</ele>
        <time>2013-05-09T09:45:42Z</time>
      </trkpt>
      <trkpt lat="49.23948" lon="-0.22565">
        <ele>60.4000015</ele>
        <time>2013-05-09T09:45:51Z</time>
      </trkpt>
      <trkpt lat="49.23915" lon="-0.22546">
        <ele>60.4000015</ele>
        <time>2013-05-09T09:45:58Z</time>
      </trkpt>
      <trkpt lat="49.23882" lon="-0.22526">
        <ele>60.4000015</ele>
        <time>2013-05-09T09:46:05Z</time>
      </trkpt>
      <trkpt lat="49.23844" lon="-0.22503">
        <ele>60.4000015</ele>
        <time>2013-05-09T09:46:13Z</time>
      </trkpt>
      <trkpt lat="49.23807" lon="-0.22481">
        <ele>60.4000015</ele>
        <time>2013-05-09T09:46:21Z</time>
      </trkpt>
      <trkpt lat="49.23764" lon="-0.22461">
        <ele>60.4000015</ele>
        <time>2013-05-09T09:46:30Z</time>
      </trkpt>
      <trkpt lat="49.23731" lon="-0.22447">
        <ele>60.4000015</ele>
        <time>2013-05-09T09:46:37Z</time>
      </trkpt>
      <trkpt lat="49.23693" lon="-0.22427">
        <ele>60.4000015</ele>
        <time>2013-05-09T09:46:45Z</time>
      </trkpt>
      <trkpt lat="49.23671" lon="-0.22414">
        <ele>61</ele>
        <time>2013-05-09T09:46:50Z</time>
      </trkpt>
      <trkpt lat="49.23667" lon="-0.22412">
        <ele>61.4000015</ele>
        <time>2013-05-09T09:46:51Z</time>
      </trkpt>
      <trkpt lat="49.23662" lon="-0.2241">
        <ele>62</ele>
        <time>2013-05-09T09:46:52Z</time>
      </trkpt>
      <trkpt lat="49.23658" lon="-0.22407">
        <ele>62.4000015</ele>
        <time>2013-05-09T09:46:53Z</time>
      </trkpt>
      <trkpt lat="49.23654" lon="-0.22404">
        <ele>63</ele>
        <time>2013-05-09T09:46:54Z</time>
      </trkpt>
      <trkpt lat="49.23627" lon="-0.22388">
        <ele>63</ele>
        <time>2013-05-09T09:47:00Z</time>
      </trkpt>
      <trkpt lat="49.236" lon="-0.22374">
        <ele>63</ele>
        <time>2013-05-09T09:47:06Z</time>
      </trkpt>
      <trkpt lat="49.23563" lon="-0.22357">
        <ele>63</ele>
        <time>2013-05-09T09:47:14Z</time>
      </trkpt>
      <trkpt lat="49.23558" lon="-0.22355">
        <ele>63.4000015</ele>
        <time>2013-05-09T09:47:15Z</time>
      </trkpt>
      <trkpt lat="49.23553" lon="-0.22352">
        <ele>64</ele>
        <time>2013-05-09T09:47:16Z</time>
      </trkpt>
      <trkpt lat="49.23548" lon="-0.2235">
        <ele>64.4000015</ele>
        <time>2013-05-09T09:47:17Z</time>
      </trkpt>
      <trkpt lat="49.23543" lon="-0.22348">
        <ele>64.8000031</ele>
        <time>2013-05-09T09:47:18Z</time>
      </trkpt>
      <trkpt lat="49.23538" lon="-0.22346">
        <ele>65</ele>
        <time>2013-05-09T09:47:19Z</time>
      </trkpt>
      <trkpt lat="49.23518" lon="-0.22338">
        <ele>65</ele>
        <time>2013-05-09T09:47:23Z</time>
      </trkpt>
      <trkpt lat="49.2348" lon="-0.22322">
        <ele>65.4000015</ele>
        <time>2013-05-09T09:47:31Z</time>
      </trkpt>
      <trkpt lat="49.23475" lon="-0.2232">
        <ele>66</ele>
        <time>2013-05-09T09:47:32Z</time>
      </trkpt>
      <trkpt lat="49.2347" lon="-0.22318">
        <ele>66.4000015</ele>
        <time>2013-05-09T09:47:33Z</time>
      </trkpt>
      <trkpt lat="49.23465" lon="-0.22316">
        <ele>66.8000031</ele>
        <time>2013-05-09T09:47:34Z</time>
      </trkpt>
      <trkpt lat="49.2346" lon="-0.22314">
        <ele>67</ele>
        <time>2013-05-09T09:47:35Z</time>
      </trkpt>
      <trkpt lat="49.23446" lon="-0.22305">
        <ele>67</ele>
        <time>2013-05-09T09:47:38Z</time>
      </trkpt>
      <trkpt lat="49.23409" lon="-0.22281">
        <ele>67</ele>
        <time>2013-05-09T09:47:46Z</time>
      </trkpt>
      <trkpt lat="49.23388" lon="-0.22258">
        <ele>67</ele>
        <time>2013-05-09T09:47:51Z</time>
      </trkpt>
      <trkpt lat="49.23364" lon="-0.2222">
        <ele>67</ele>
        <time>2013-05-09T09:47:58Z</time>
      </trkpt>
      <trkpt lat="49.23354" lon="-0.22194">
        <ele>67</ele>
        <time>2013-05-09T09:48:02Z</time>
      </trkpt>
      <trkpt lat="49.2335" lon="-0.22179">
        <ele>67</ele>
        <time>2013-05-09T09:48:04Z</time>
      </trkpt>
      <trkpt lat="49.23337" lon="-0.22133">
        <ele>66.8000031</ele>
        <time>2013-05-09T09:48:10Z</time>
      </trkpt>
      <trkpt lat="49.23335" lon="-0.22126">
        <ele>66.4000015</ele>
        <time>2013-05-09T09:48:11Z</time>
      </trkpt>
      <trkpt lat="49.23333" lon="-0.22118">
        <ele>66</ele>
        <time>2013-05-09T09:48:12Z</time>
      </trkpt>
      <trkpt lat="49.23331" lon="-0.22111">
        <ele>65.4000015</ele>
        <time>2013-05-09T09:48:13Z</time>
      </trkpt>
      <trkpt lat="49.2333" lon="-0.22104">
        <ele>65</ele>
        <time>2013-05-09T09:48:14Z</time>
      </trkpt>
      <trkpt lat="49.2332" lon="-0.22066">
        <ele>65</ele>
        <time>2013-05-09T09:48:19Z</time>
      </trkpt>
      <trkpt lat="49.23315" lon="-0.22044">
        <ele>65</ele>
        <time>2013-05-09T09:48:22Z</time>
      </trkpt>
      <trkpt lat="49.23313" lon="-0.22037">
        <ele>64.8000031</ele>
        <time>2013-05-09T09:48:23Z</time>
      </trkpt>
      <trkpt lat="49.23311" lon="-0.2203">
        <ele>64</ele>
        <time>2013-05-09T09:48:24Z</time>
      </trkpt>
      <trkpt lat="49.23308" lon="-0.22024">
        <ele>63.5999985</ele>
        <time>2013-05-09T09:48:25Z</time>
      </trkpt>
      <trkpt lat="49.23304" lon="-0.22021">
        <ele>63.4000015</ele>
        <time>2013-05-09T09:48:26Z</time>
      </trkpt>
      <trkpt lat="49.233" lon="-0.2202">
        <ele>63</ele>
        <time>2013-05-09T09:48:27Z</time>
      </trkpt>
      <trkpt lat="49.23296" lon="-0.2202">
        <ele>63</ele>
        <time>2013-05-09T09:48:28Z</time>
      </trkpt>
      <trkpt lat="49.23291" lon="-0.22022">
        <ele>62.4000015</ele>
        <time>2013-05-09T09:48:30Z</time>
      </trkpt>
      <trkpt lat="49.23288" lon="-0.22021">
        <ele>62</ele>
        <time>2013-05-09T09:48:31Z</time>
      </trkpt>
      <trkpt lat="49.23285" lon="-0.22022">
        <ele>61.4000015</ele>
        <time>2013-05-09T09:48:32Z</time>
      </trkpt>
      <trkpt lat="49.23282" lon="-0.22023">
        <ele>61.2000008</ele>
        <time>2013-05-09T09:48:33Z</time>
      </trkpt>
      <trkpt lat="49.23278" lon="-0.22025">
        <ele>60.5999985</ele>
        <time>2013-05-09T09:48:34Z</time>
      </trkpt>
      <trkpt lat="49.23264" lon="-0.22034">
        <ele>60.5999985</ele>
        <time>2013-05-09T09:48:37Z</time>
      </trkpt>
      <trkpt lat="49.23235" lon="-0.22059">
        <ele>60.4000015</ele>
        <time>2013-05-09T09:48:42Z</time>
      </trkpt>
      <trkpt lat="49.23229" lon="-0.22065">
        <ele>60</ele>
        <time>2013-05-09T09:48:43Z</time>
      </trkpt>
      <trkpt lat="49.23222" lon="-0.22072">
        <ele>59.4000015</ele>
        <time>2013-05-09T09:48:44Z</time>
      </trkpt>
      <trkpt lat="49.23215" lon="-0.22078">
        <ele>58.4000015</ele>
        <time>2013-05-09T09:48:45Z</time>
      </trkpt>
      <trkpt lat="49.23208" lon="-0.22084">
        <ele>57.4000015</ele>
        <time>2013-05-09T09:48:46Z</time>
      </trkpt>
      <trkpt lat="49.232" lon="-0.22091">
        <ele>56.5999985</ele>
        <time>2013-05-09T09:48:47Z</time>
      </trkpt>
      <trkpt lat="49.23193" lon="-0.22097">
        <ele>56</ele>
        <time>2013-05-09T09:48:48Z</time>
      </trkpt>
      <trkpt lat="49.23185" lon="-0.22103">
        <ele>55.4000015</ele>
        <time>2013-05-09T09:48:49Z</time>
      </trkpt>
      <trkpt lat="49.23177" lon="-0.22109">
        <ele>54.4000015</ele>
        <time>2013-05-09T09:48:50Z</time>
      </trkpt>
      <trkpt lat="49.23169" lon="-0.22116">
        <ele>53.5999985</ele>
        <time>2013-05-09T09:48:51Z</time>
      </trkpt>
      <trkpt lat="49.23161" lon="-0.22121">
        <ele>53</ele>
        <time>2013-05-09T09:48:52Z</time>
      </trkpt>
      <trkpt lat="49.23153" lon="-0.22126">
        <ele>52.2000008</ele>
        <time>2013-05-09T09:48:53Z</time>
      </trkpt>
      <trkpt lat="49.23146" lon="-0.22129">
        <ele>51.4000015</ele>
        <time>2013-05-09T09:48:54Z</time>
      </trkpt>
      <trkpt lat="49.23141" lon="-0.22132">
        <ele>50.4000015</ele>
        <time>2013-05-09T09:48:55Z</time>
      </trkpt>
      <trkpt lat="49.23136" lon="-0.22134">
        <ele>49.5999985</ele>
        <time>2013-05-09T09:48:56Z</time>
      </trkpt>
      <trkpt lat="49.23131" lon="-0.22136">
        <ele>49</ele>
        <time>2013-05-09T09:48:57Z</time>
      </trkpt>
      <trkpt lat="49.23125" lon="-0.22139">
        <ele>48</ele>
        <time>2013-05-09T09:48:58Z</time>
      </trkpt>
      <trkpt lat="49.2312" lon="-0.22143">
        <ele>47.2000008</ele>
        <time>2013-05-09T09:48:59Z</time>
      </trkpt>
      <trkpt lat="49.23115" lon="-0.22148">
        <ele>46.2000008</ele>
        <time>2013-05-09T09:49:00Z</time>
      </trkpt>
      <trkpt lat="49.2311" lon="-0.22154">
        <ele>45.2000008</ele>
        <time>2013-05-09T09:49:01Z</time>
      </trkpt>
      <trkpt lat="49.23105" lon="-0.2216">
        <ele>44.4000015</ele>
        <time>2013-05-09T09:49:02Z</time>
      </trkpt>
      <trkpt lat="49.23099" lon="-0.22166">
        <ele>43.4000015</ele>
        <time>2013-05-09T09:49:03Z</time>
      </trkpt>
      <trkpt lat="49.23094" lon="-0.22172">
        <ele>43</ele>
        <time>2013-05-09T09:49:04Z</time>
      </trkpt>
      <trkpt lat="49.23089" lon="-0.22178">
        <ele>42.4000015</ele>
        <time>2013-05-09T09:49:05Z</time>
      </trkpt>
      <trkpt lat="49.23084" lon="-0.22184">
        <ele>42</ele>
        <time>2013-05-09T09:49:06Z</time>
      </trkpt>
      <trkpt lat="49.23078" lon="-0.2219">
        <ele>41.4000015</ele>
        <time>2013-05-09T09:49:07Z</time>
      </trkpt>
      <trkpt lat="49.23073" lon="-0.22196">
        <ele>41</ele>
        <time>2013-05-09T09:49:08Z</time>
      </trkpt>
      <trkpt lat="49.23067" lon="-0.22201">
        <ele>41</ele>
        <time>2013-05-09T09:49:09Z</time>
      </trkpt>
      <trkpt lat="49.23034" lon="-0.22229">
        <ele>41</ele>
        <time>2013-05-09T09:49:15Z</time>
      </trkpt>
      <trkpt lat="49.23023" lon="-0.22238">
        <ele>41</ele>
        <time>2013-05-09T09:49:17Z</time>
      </trkpt>
      <trkpt lat="49.23012" lon="-0.22249">
        <ele>40.4000015</ele>
        <time>2013-05-09T09:49:19Z</time>
      </trkpt>
      <trkpt lat="49.23007" lon="-0.22255">
        <ele>40.2000008</ele>
        <time>2013-05-09T09:49:20Z</time>
      </trkpt>
      <trkpt lat="49.23002" lon="-0.22261">
        <ele>39.5999985</ele>
        <time>2013-05-09T09:49:21Z</time>
      </trkpt>
      <trkpt lat="49.22996" lon="-0.22266">
        <ele>39.4000015</ele>
        <time>2013-05-09T09:49:22Z</time>
      </trkpt>
      <trkpt lat="49.22991" lon="-0.22272">
        <ele>39</ele>
        <time>2013-05-09T09:49:23Z</time>
      </trkpt>
      <trkpt lat="49.22976" lon="-0.22286">
        <ele>39</ele>
        <time>2013-05-09T09:49:26Z</time>
      </trkpt>
      <trkpt lat="49.22944" lon="-0.2232">
        <ele>39</ele>
        <time>2013-05-09T09:49:32Z</time>
      </trkpt>
      <trkpt lat="49.2291" lon="-0.22364">
        <ele>39</ele>
        <time>2013-05-09T09:49:39Z</time>
      </trkpt>
      <trkpt lat="49.22884" lon="-0.22393">
        <ele>39</ele>
        <time>2013-05-09T09:49:44Z</time>
      </trkpt>
      <trkpt lat="49.22849" lon="-0.2243">
        <ele>39</ele>
        <time>2013-05-09T09:49:50Z</time>
      </trkpt>
      <trkpt lat="49.22809" lon="-0.22464">
        <ele>39</ele>
        <time>2013-05-09T09:49:57Z</time>
      </trkpt>
      <trkpt lat="49.22776" lon="-0.22481">
        <ele>39</ele>
        <time>2013-05-09T09:50:03Z</time>
      </trkpt>
      <trkpt lat="49.22754" lon="-0.22493">
        <ele>38.4000015</ele>
        <time>2013-05-09T09:50:07Z</time>
      </trkpt>
      <trkpt lat="49.22749" lon="-0.22496">
        <ele>38.2000008</ele>
        <time>2013-05-09T09:50:08Z</time>
      </trkpt>
      <trkpt lat="49.22744" lon="-0.22499">
        <ele>37.5999985</ele>
        <time>2013-05-09T09:50:09Z</time>
      </trkpt>
      <trkpt lat="49.22738" lon="-0.22502">
        <ele>37.2000008</ele>
        <time>2013-05-09T09:50:10Z</time>
      </trkpt>
      <trkpt lat="49.22733" lon="-0.22505">
        <ele>36.5999985</ele>
        <time>2013-05-09T09:50:11Z</time>
      </trkpt>
      <trkpt lat="49.22704" lon="-0.22526">
        <ele>36.5999985</ele>
        <time>2013-05-09T09:50:17Z</time>
      </trkpt>
      <trkpt lat="49.22672" lon="-0.22548">
        <ele>36.5999985</ele>
        <time>2013-05-09T09:50:23Z</time>
      </trkpt>
      <trkpt lat="49.22666" lon="-0.22551">
        <ele>36.5999985</ele>
        <time>2013-05-09T09:50:24Z</time>
      </trkpt>
      <trkpt lat="49.22635" lon="-0.22561">
        <ele>36.5999985</ele>
        <time>2013-05-09T09:50:30Z</time>
      </trkpt>
      <trkpt lat="49.2262" lon="-0.22566">
        <ele>36.5999985</ele>
        <time>2013-05-09T09:50:33Z</time>
      </trkpt>
      <trkpt lat="49.22604" lon="-0.22575">
        <ele>36.5999985</ele>
        <time>2013-05-09T09:50:36Z</time>
      </trkpt>
      <trkpt lat="49.2258" lon="-0.22589">
        <ele>36.5999985</ele>
        <time>2013-05-09T09:50:41Z</time>
      </trkpt>
      <trkpt lat="49.22554" lon="-0.22602">
        <ele>36.5999985</ele>
        <time>2013-05-09T09:50:47Z</time>
      </trkpt>
      <trkpt lat="49.22531" lon="-0.22616">
        <ele>36.5999985</ele>
        <time>2013-05-09T09:50:52Z</time>
      </trkpt>
      <trkpt lat="49.22521" lon="-0.22622">
        <ele>36.4000015</ele>
        <time>2013-05-09T09:50:54Z</time>
      </trkpt>
      <trkpt lat="49.22516" lon="-0.22625">
        <ele>36</ele>
        <time>2013-05-09T09:50:55Z</time>
      </trkpt>
      <trkpt lat="49.22511" lon="-0.22627">
        <ele>35.4000015</ele>
        <time>2013-05-09T09:50:56Z</time>
      </trkpt>
      <trkpt lat="49.22506" lon="-0.22629">
        <ele>35.2000008</ele>
        <time>2013-05-09T09:50:57Z</time>
      </trkpt>
      <trkpt lat="49.22501" lon="-0.22631">
        <ele>34.5999985</ele>
        <time>2013-05-09T09:50:58Z</time>
      </trkpt>
      <trkpt lat="49.22465" lon="-0.22644">
        <ele>34.5999985</ele>
        <time>2013-05-09T09:51:06Z</time>
      </trkpt>
      <trkpt lat="49.22437" lon="-0.22652">
        <ele>34.5999985</ele>
        <time>2013-05-09T09:51:14Z</time>
      </trkpt>
      <trkpt lat="49.22424" lon="-0.22659">
        <ele>34.5999985</ele>
        <time>2013-05-09T09:51:20Z</time>
      </trkpt>
      <trkpt lat="49.22421" lon="-0.22665">
        <ele>34.5999985</ele>
        <time>2013-05-09T09:51:24Z</time>
      </trkpt>
      <trkpt lat="49.22421" lon="-0.22665">
        <ele>34.5999985</ele>
        <time>2013-05-09T09:51:56Z</time>
      </trkpt>
      <trkpt lat="49.2242" lon="-0.22667">
        <ele>34.5999985</ele>
        <time>2013-05-09T09:52:00Z</time>
      </trkpt>
      <trkpt lat="49.22419" lon="-0.22667">
        <ele>34.5999985</ele>
        <time>2013-05-09T09:52:02Z</time>
      </trkpt>
      <trkpt lat="49.2241" lon="-0.22667">
        <ele>34.5999985</ele>
        <time>2013-05-09T09:52:06Z</time>
      </trkpt>
      <trkpt lat="49.22385" lon="-0.22667">
        <ele>34.5999985</ele>
        <time>2013-05-09T09:52:13Z</time>
      </trkpt>
      <trkpt lat="49.22352" lon="-0.2267">
        <ele>34.5999985</ele>
        <time>2013-05-09T09:52:21Z</time>
      </trkpt>
      <trkpt lat="49.22343" lon="-0.2267">
        <ele>34.5999985</ele>
        <time>2013-05-09T09:52:23Z</time>
      </trkpt>
      <trkpt lat="49.2232" lon="-0.22673">
        <ele>34.5999985</ele>
        <time>2013-05-09T09:52:28Z</time>
      </trkpt>
      <trkpt lat="49.22316" lon="-0.22674">
        <ele>35.4000015</ele>
        <time>2013-05-09T09:52:29Z</time>
      </trkpt>
      <trkpt lat="49.22312" lon="-0.22674">
        <ele>35.5999985</ele>
        <time>2013-05-09T09:52:30Z</time>
      </trkpt>
      <trkpt lat="49.22308" lon="-0.22675">
        <ele>36.2000008</ele>
        <time>2013-05-09T09:52:31Z</time>
      </trkpt>
      <trkpt lat="49.22303" lon="-0.22676">
        <ele>36.4000015</ele>
        <time>2013-05-09T09:52:32Z</time>
      </trkpt>
      <trkpt lat="49.22299" lon="-0.22677">
        <ele>37</ele>
        <time>2013-05-09T09:52:33Z</time>
      </trkpt>
      <trkpt lat="49.22294" lon="-0.22678">
        <ele>37</ele>
        <time>2013-05-09T09:52:34Z</time>
      </trkpt>
      <trkpt lat="49.22262" lon="-0.22686">
        <ele>37</ele>
        <time>2013-05-09T09:52:41Z</time>
      </trkpt>
      <trkpt lat="49.2223" lon="-0.22688">
        <ele>37</ele>
        <time>2013-05-09T09:52:48Z</time>
      </trkpt>
      <trkpt lat="49.22225" lon="-0.22689">
        <ele>37</ele>
        <time>2013-05-09T09:52:49Z</time>
      </trkpt>
      <trkpt lat="49.22209" lon="-0.2269">
        <ele>37</ele>
        <time>2013-05-09T09:52:53Z</time>
      </trkpt>
      <trkpt lat="49.22205" lon="-0.2269">
        <ele>37</ele>
        <time>2013-05-09T09:52:54Z</time>
      </trkpt>
      <trkpt lat="49.2218" lon="-0.22698">
        <ele>37</ele>
        <time>2013-05-09T09:53:00Z</time>
      </trkpt>
      <trkpt lat="49.22145" lon="-0.22717">
        <ele>37</ele>
        <time>2013-05-09T09:53:08Z</time>
      </trkpt>
      <trkpt lat="49.22119" lon="-0.22727">
        <ele>37</ele>
        <time>2013-05-09T09:53:13Z</time>
      </trkpt>
      <trkpt lat="49.22108" lon="-0.22731">
        <ele>37</ele>
        <time>2013-05-09T09:53:15Z</time>
      </trkpt>
      <trkpt lat="49.22082" lon="-0.22741">
        <ele>37</ele>
        <time>2013-05-09T09:53:20Z</time>
      </trkpt>
      <trkpt lat="49.22073" lon="-0.22745">
        <ele>37</ele>
        <time>2013-05-09T09:53:22Z</time>
      </trkpt>
      <trkpt lat="49.2206" lon="-0.22753">
        <ele>37</ele>
        <time>2013-05-09T09:53:25Z</time>
      </trkpt>
      <trkpt lat="49.22051" lon="-0.22758">
        <ele>37</ele>
        <time>2013-05-09T09:53:27Z</time>
      </trkpt>
      <trkpt lat="49.22047" lon="-0.2276">
        <ele>36.4000015</ele>
        <time>2013-05-09T09:53:28Z</time>
      </trkpt>
      <trkpt lat="49.22043" lon="-0.22761">
        <ele>36.2000008</ele>
        <time>2013-05-09T09:53:29Z</time>
      </trkpt>
      <trkpt lat="49.2204" lon="-0.22763">
        <ele>35.5999985</ele>
        <time>2013-05-09T09:53:30Z</time>
      </trkpt>
      <trkpt lat="49.22036" lon="-0.22765">
        <ele>35.4000015</ele>
        <time>2013-05-09T09:53:31Z</time>
      </trkpt>
      <trkpt lat="49.22032" lon="-0.22768">
        <ele>35</ele>
        <time>2013-05-09T09:53:32Z</time>
      </trkpt>
      <trkpt lat="49.22028" lon="-0.2277">
        <ele>35</ele>
        <time>2013-05-09T09:53:33Z</time>
      </trkpt>
      <trkpt lat="49.22019" lon="-0.22775">
        <ele>35</ele>
        <time>2013-05-09T09:53:35Z</time>
      </trkpt>
      <trkpt lat="49.22007" lon="-0.22782">
        <ele>35</ele>
        <time>2013-05-09T09:53:38Z</time>
      </trkpt>
      <trkpt lat="49.21991" lon="-0.22793">
        <ele>34.4000015</ele>
        <time>2013-05-09T09:53:43Z</time>
      </trkpt>
      <trkpt lat="49.21991" lon="-0.22794">
        <ele>34.2000008</ele>
        <time>2013-05-09T09:53:44Z</time>
      </trkpt>
      <trkpt lat="49.21988" lon="-0.22796">
        <ele>33</ele>
        <time>2013-05-09T09:56:47Z</time>
      </trkpt>
      <trkpt lat="49.21988" lon="-0.22796">
        <ele>33</ele>
        <time>2013-05-09T09:56:48Z</time>
      </trkpt>
      <trkpt lat="49.21987" lon="-0.22797">
        <ele>33</ele>
        <time>2013-05-09T09:56:53Z</time>
      </trkpt>
      <trkpt lat="49.21978" lon="-0.22804">
        <ele>33</ele>
        <time>2013-05-09T09:56:59Z</time>
      </trkpt>
      <trkpt lat="49.21986" lon="-0.22817">
        <ele>30.34375</ele>
      </trkpt>
      <trkpt lat="49.22008" lon="-0.23106">
        <ele>22.8398438</ele>
      </trkpt>
      <trkpt lat="49.22018" lon="-0.23286">
        <ele>20</ele>
      </trkpt>
      <trkpt lat="49.22038" lon="-0.23479">
        <ele>18.7070313</ele>
      </trkpt>
      <trkpt lat="49.22046" lon="-0.23696">
        <ele>18.8125</ele>
      </trkpt>
      <trkpt lat="49.2205" lon="-0.23798">
        <ele>18.875</ele>
      </trkpt>
      <trkpt lat="49.21953" lon="-0.23911">
        <ele>18</ele>
      </trkpt>
      <trkpt lat="49.21857" lon="-0.24023">
        <ele>15.59375</ele>
      </trkpt>
      <trkpt lat="49.21803" lon="-0.24091">
        <ele>14.1054688</ele>
      </trkpt>
      <trkpt lat="49.21766" lon="-0.2415">
        <ele>14</ele>
      </trkpt>
      <trkpt lat="49.21726" lon="-0.24222">
        <ele>14</ele>
      </trkpt>
      <trkpt lat="49.21706" lon="-0.24273">
        <ele>14</ele>
      </trkpt>
      <trkpt lat="49.21677" lon="-0.24345">
        <ele>14</ele>
      </trkpt>
      <trkpt lat="49.21658" lon="-0.24402">
        <ele>14.0898438</ele>
      </trkpt>
      <trkpt lat="49.21645" lon="-0.24445">
        <ele>14.421875</ele>
      </trkpt>
      <trkpt lat="49.21643" lon="-0.24451">
        <ele>14.453125</ele>
      </trkpt>
      <trkpt lat="49.21642" lon="-0.24459">
        <ele>14.46875</ele>
      </trkpt>
      <trkpt lat="49.21638" lon="-0.24466">
        <ele>14.5351563</ele>
      </trkpt>
      <trkpt lat="49.21636" lon="-0.24471">
        <ele>14.5820313</ele>
      </trkpt>
      <trkpt lat="49.21633" lon="-0.24478">
        <ele>14.6328125</ele>
      </trkpt>
      <trkpt lat="49.21628" lon="-0.24481">
        <ele>14.7109375</ele>
      </trkpt>
      <trkpt lat="49.21624" lon="-0.24483">
        <ele>14.7929688</ele>
      </trkpt>
      <trkpt lat="49.21618" lon="-0.24483">
        <ele>14.90625</ele>
      </trkpt>
      <trkpt lat="49.21611" lon="-0.24483">
        <ele>15.0195313</ele>
      </trkpt>
      <trkpt lat="49.21605" lon="-0.24483">
        <ele>15.1289063</ele>
      </trkpt>
      <trkpt lat="49.216" lon="-0.24483">
        <ele>15.2226563</ele>
      </trkpt>
      <trkpt lat="49.21593" lon="-0.24481">
        <ele>15.3164063</ele>
      </trkpt>
      <trkpt lat="49.21588" lon="-0.24479">
        <ele>15.390625</ele>
      </trkpt>
      <trkpt lat="49.21583" lon="-0.24477">
        <ele>15.4570313</ele>
      </trkpt>
      <trkpt lat="49.21578" lon="-0.24474">
        <ele>15.5</ele>
      </trkpt>
      <trkpt lat="49.21575" lon="-0.2447">
        <ele>15.5</ele>
      </trkpt>
      <trkpt lat="49.21568" lon="-0.24468">
        <ele>15.5507813</ele>
      </trkpt>
      <trkpt lat="49.21563" lon="-0.24466">
        <ele>15.5820313</ele>
      </trkpt>
      <trkpt lat="49.21557" lon="-0.24465">
        <ele>15.625</ele>
      </trkpt>
      <trkpt lat="49.21552" lon="-0.24464">
        <ele>15.6992188</ele>
      </trkpt>
      <trkpt lat="49.21547" lon="-0.24462">
        <ele>15.7773438</ele>
      </trkpt>
      <trkpt lat="49.2154" lon="-0.24458">
        <ele>15.8085938</ele>
      </trkpt>
      <trkpt lat="49.21535" lon="-0.24454">
        <ele>15.828125</ele>
      </trkpt>
      <trkpt lat="49.2153" lon="-0.2445">
        <ele>15.8671875</ele>
      </trkpt>
      <trkpt lat="49.21525" lon="-0.24447">
        <ele>15.8867188</ele>
      </trkpt>
      <trkpt lat="49.21522" lon="-0.24444">
        <ele>15.8945313</ele>
      </trkpt>
      <trkpt lat="49.21518" lon="-0.24439">
        <ele>15.8789063</ele>
      </trkpt>
      <trkpt lat="49.21514" lon="-0.24435">
        <ele>15.8632813</ele>
      </trkpt>
      <trkpt lat="49.2151" lon="-0.24432">
        <ele>15.8867188</ele>
      </trkpt>
      <trkpt lat="49.21504" lon="-0.24431">
        <ele>15.9648438</ele>
      </trkpt>
      <trkpt lat="49.21499" lon="-0.24432">
        <ele>16.0390625</ele>
      </trkpt>
      <trkpt lat="49.21495" lon="-0.24436">
        <ele>16.1171875</ele>
      </trkpt>
      <trkpt lat="49.21493" lon="-0.24442">
        <ele>16.2148438</ele>
      </trkpt>
      <trkpt lat="49.21488" lon="-0.24445">
        <ele>16.2773438</ele>
      </trkpt>
      <trkpt lat="49.21485" lon="-0.24449">
        <ele>16.3554688</ele>
      </trkpt>
      <trkpt lat="49.21483" lon="-0.24456">
        <ele>16.4726563</ele>
      </trkpt>
      <trkpt lat="49.21483" lon="-0.24465">
        <ele>16.6328125</ele>
      </trkpt>
      <trkpt lat="49.21486" lon="-0.24471">
        <ele>16.75</ele>
      </trkpt>
      <trkpt lat="49.2149" lon="-0.24473">
        <ele>16.7890625</ele>
      </trkpt>
      <trkpt lat="49.21494" lon="-0.24477">
        <ele>16.8476563</ele>
      </trkpt>
      <trkpt lat="49.21498" lon="-0.24481">
        <ele>16.9257813</ele>
      </trkpt>
      <trkpt lat="49.21503" lon="-0.24485">
        <ele>16.9765625</ele>
      </trkpt>
      <trkpt lat="49.21507" lon="-0.24489">
        <ele>16.890625</ele>
      </trkpt>
      <trkpt lat="49.21513" lon="-0.24491">
        <ele>16.7773438</ele>
      </trkpt>
      <trkpt lat="49.21518" lon="-0.24494">
        <ele>16.6523438</ele>
      </trkpt>
      <trkpt lat="49.21523" lon="-0.24498">
        <ele>16.515625</ele>
      </trkpt>
      <trkpt lat="49.21529" lon="-0.24501">
        <ele>16.3671875</ele>
      </trkpt>
      <trkpt lat="49.21533" lon="-0.24505">
        <ele>16.21875</ele>
      </trkpt>
      <trkpt lat="49.21538" lon="-0.24508">
        <ele>16.0703125</ele>
      </trkpt>
      <trkpt lat="49.21542" lon="-0.24512">
        <ele>15.9140625</ele>
      </trkpt>
      <trkpt lat="49.21547" lon="-0.24515">
        <ele>15.7460938</ele>
      </trkpt>
      <trkpt lat="49.21552" lon="-0.24518">
        <ele>15.5390625</ele>
      </trkpt>
      <trkpt lat="49.21557" lon="-0.24519">
        <ele>15.3789063</ele>
      </trkpt>
      <trkpt lat="49.2156" lon="-0.24524">
        <ele>15.2851563</ele>
      </trkpt>
      <trkpt lat="49.21564" lon="-0.24528">
        <ele>15.1953125</ele>
      </trkpt>
      <trkpt lat="49.21567" lon="-0.24533">
        <ele>15.1171875</ele>
      </trkpt>
      <trkpt lat="49.21567" lon="-0.24541">
        <ele>15</ele>
      </trkpt>
      <trkpt lat="49.21566" lon="-0.24549">
        <ele>15</ele>
      </trkpt>
      <trkpt lat="49.21563" lon="-0.24557">
        <ele>15</ele>
      </trkpt>
      <trkpt lat="49.21559" lon="-0.24561">
        <ele>15</ele>
      </trkpt>
      <trkpt lat="49.21556" lon="-0.24567">
        <ele>15.0351563</ele>
      </trkpt>
      <trkpt lat="49.21551" lon="-0.24574">
        <ele>15.1445313</ele>
      </trkpt>
      <trkpt lat="49.21548" lon="-0.2458">
        <ele>15.21875</ele>
      </trkpt>
      <trkpt lat="49.21543" lon="-0.24584">
        <ele>15.3007813</ele>
      </trkpt>
      <trkpt lat="49.21541" lon="-0.24586">
        <ele>15.3320313</ele>
      </trkpt>
      <trkpt lat="49.21439" lon="-0.24711">
        <ele>17.125</ele>
      </trkpt>
      <trkpt lat="49.21329" lon="-0.24852">
        <ele>18.6445313</ele>
      </trkpt>
      <trkpt lat="49.21218" lon="-0.24979">
        <ele>20.2109375</ele>
      </trkpt>
      <trkpt lat="49.21168" lon="-0.25044">
        <ele>21.9921875</ele>
      </trkpt>
      <trkpt lat="49.21091" lon="-0.25135">
        <ele>23.3867188</ele>
      </trkpt>
      <trkpt lat="49.21034" lon="-0.25206">
        <ele>24.9882813</ele>
      </trkpt>
      <trkpt lat="49.21013" lon="-0.25226">
        <ele>25.5390625</ele>
      </trkpt>
      <trkpt lat="49.2108" lon="-0.25379">
        <ele>26.640625</ele>
      </trkpt>
      <trkpt lat="49.2113" lon="-0.25489">
        <ele>26.7695313</ele>
      </trkpt>
      <trkpt lat="49.21177" lon="-0.25614">
        <ele>27.8320313</ele>
      </trkpt>
      <trkpt lat="49.21207" lon="-0.25698">
        <ele>27.3007813</ele>
      </trkpt>
      <trkpt lat="49.21118" lon="-0.25772">
        <ele>28.7265625</ele>
      </trkpt>
      <trkpt lat="49.21026" lon="-0.25856">
        <ele>29.5664063</ele>
      </trkpt>
      <trkpt lat="49.20966" lon="-0.25914">
        <ele>31.2695313</ele>
      </trkpt>
      <trkpt lat="49.20853" lon="-0.25991">
        <ele>33</ele>
      </trkpt>
      <trkpt lat="49.20752" lon="-0.2606">
        <ele>35.0039063</ele>
      </trkpt>
      <trkpt lat="49.20559" lon="-0.26149">
        <ele>36</ele>
      </trkpt>
      <trkpt lat="49.20541" lon="-0.26159">
        <ele>36</ele>
      </trkpt>
      <trkpt lat="49.20469" lon="-0.26172">
        <ele>36</ele>
      </trkpt>
      <trkpt lat="49.20244" lon="-0.26235">
        <ele>35</ele>
      </trkpt>
      <trkpt lat="49.20146" lon="-0.2626">
        <ele>32.6132813</ele>
      </trkpt>
      <trkpt lat="49.20059" lon="-0.26274">
        <ele>30.8007813</ele>
      </trkpt>
      <trkpt lat="49.19918" lon="-0.263">
        <ele>30.8203125</ele>
      </trkpt>
      <trkpt lat="49.19888" lon="-0.2631">
        <ele>31.125</ele>
      </trkpt>
      <trkpt lat="49.19834" lon="-0.26317">
        <ele>31.0078125</ele>
      </trkpt>
      <trkpt lat="49.19759" lon="-0.26321">
        <ele>31.3515625</ele>
      </trkpt>
      <trkpt lat="49.19657" lon="-0.26304">
        <ele>31.0546875</ele>
      </trkpt>
      <trkpt lat="49.1957" lon="-0.26284">
        <ele>31.9179688</ele>
      </trkpt>
      <trkpt lat="49.19544" lon="-0.26285">
        <ele>31.890625</ele>
      </trkpt>
      <trkpt lat="49.19471" lon="-0.26308">
        <ele>31.0703125</ele>
      </trkpt>
      <trkpt lat="49.19446" lon="-0.26321">
        <ele>30.9726563</ele>
      </trkpt>
      <trkpt lat="49.19442" lon="-0.26323">
        <ele>30.9101563</ele>
      </trkpt>
      <trkpt lat="49.19438" lon="-0.26328">
        <ele>30.84375</ele>
      </trkpt>
      <trkpt lat="49.19434" lon="-0.26333">
        <ele>30.765625</ele>
      </trkpt>
      <trkpt lat="49.19429" lon="-0.26339">
        <ele>30.6835938</ele>
      </trkpt>
      <trkpt lat="49.19425" lon="-0.26344">
        <ele>30.6015625</ele>
      </trkpt>
      <trkpt lat="49.19421" lon="-0.26349">
        <ele>30.5390625</ele>
      </trkpt>
      <trkpt lat="49.19417" lon="-0.26351">
        <ele>30.4570313</ele>
      </trkpt>
      <trkpt lat="49.1941" lon="-0.26353">
        <ele>30.328125</ele>
      </trkpt>
      <trkpt lat="49.19404" lon="-0.26355">
        <ele>30.2304688</ele>
      </trkpt>
      <trkpt lat="49.19398" lon="-0.26357">
        <ele>30.1171875</ele>
      </trkpt>
      <trkpt lat="49.19392" lon="-0.26361">
        <ele>30.0039063</ele>
      </trkpt>
      <trkpt lat="49.19387" lon="-0.26363">
        <ele>30</ele>
      </trkpt>
      <trkpt lat="49.19381" lon="-0.26366">
        <ele>30</ele>
      </trkpt>
      <trkpt lat="49.19375" lon="-0.26367">
        <ele>30</ele>
      </trkpt>
      <trkpt lat="49.19368" lon="-0.26371">
        <ele>30</ele>
      </trkpt>
      <trkpt lat="49.19363" lon="-0.26373">
        <ele>30</ele>
      </trkpt>
      <trkpt lat="49.19357" lon="-0.26376">
        <ele>30</ele>
      </trkpt>
      <trkpt lat="49.19351" lon="-0.26378">
        <ele>30</ele>
      </trkpt>
      <trkpt lat="49.19344" lon="-0.2638">
        <ele>30</ele>
      </trkpt>
      <trkpt lat="49.19337" lon="-0.26383">
        <ele>30</ele>
      </trkpt>
      <trkpt lat="49.19332" lon="-0.26386">
        <ele>29.9804688</ele>
      </trkpt>
      <trkpt lat="49.19326" lon="-0.26388">
        <ele>29.9492188</ele>
      </trkpt>
      <trkpt lat="49.19322" lon="-0.2639">
        <ele>29.9179688</ele>
      </trkpt>
      <trkpt lat="49.19315" lon="-0.26394">
        <ele>29.859375</ele>
      </trkpt>
      <trkpt lat="49.19309" lon="-0.26396">
        <ele>29.8007813</ele>
      </trkpt>
      <trkpt lat="49.19304" lon="-0.26398">
        <ele>29.734375</ele>
      </trkpt>
      <trkpt lat="49.19298" lon="-0.264">
        <ele>29.6640625</ele>
      </trkpt>
      <trkpt lat="49.19294" lon="-0.26402">
        <ele>29.59375</ele>
      </trkpt>
      <trkpt lat="49.19289" lon="-0.26405">
        <ele>29.5195313</ele>
      </trkpt>
      <trkpt lat="49.19285" lon="-0.26409">
        <ele>29.3984375</ele>
      </trkpt>
      <trkpt lat="49.19279" lon="-0.2641">
        <ele>29.3242188</ele>
      </trkpt>
      <trkpt lat="49.19277" lon="-0.26406">
        <ele>29.3789063</ele>
      </trkpt>
      <trkpt lat="49.19275" lon="-0.26397">
        <ele>29.5078125</ele>
      </trkpt>
      <trkpt lat="49.19274" lon="-0.26388">
        <ele>29.640625</ele>
      </trkpt>
      <trkpt lat="49.19274" lon="-0.26379">
        <ele>29.78125</ele>
      </trkpt>
      <trkpt lat="49.19273" lon="-0.26371">
        <ele>29.8671875</ele>
      </trkpt>
      <trkpt lat="49.19273" lon="-0.26362">
        <ele>29.8671875</ele>
      </trkpt>
      <trkpt lat="49.1927" lon="-0.26354">
        <ele>29.8203125</ele>
      </trkpt>
      <trkpt lat="49.19269" lon="-0.26348">
        <ele>29.7851563</ele>
      </trkpt>
      <trkpt lat="49.19267" lon="-0.26341">
        <ele>29.7539063</ele>
      </trkpt>
      <trkpt lat="49.19262" lon="-0.26339">
        <ele>29.671875</ele>
      </trkpt>
      <trkpt lat="49.19258" lon="-0.26335">
        <ele>29.59375</ele>
      </trkpt>
      <trkpt lat="49.19253" lon="-0.26335">
        <ele>29.4960938</ele>
      </trkpt>
      <trkpt lat="49.19247" lon="-0.26338">
        <ele>29.3984375</ele>
      </trkpt>
      <trkpt lat="49.19244" lon="-0.26341">
        <ele>29.3515625</ele>
      </trkpt>
    </trkseg>
  </trk>
</gpx>